<?xml version="1.0" encoding="utf-8"?>
<gpx xmlns:xsi="http://www.w3.org/2001/XMLSchema-instance" xmlns:xsd="http://www.w3.org/2001/XMLSchema" xsi:schemaLocation="http://www.topografix.com/GPX/1/1 http://www.topografix.com/GPX/1/1/gpx.xsd" version="1.1" creator="SportTracks 3.1" xmlns="http://www.topografix.com/GPX/1/1">
 <metadata />
 <trk>
  <name />
  <cmt />
  <trkseg>
   <trkpt lat="46.2262649536133" lon="7.37337779998779">
    <ele>490.799987792969</ele>
    <time>2012-05-23T13:14:05Z</time>
   </trkpt>
   <trkpt lat="46.2261009216309" lon="7.37328386306763">
    <ele>490.919982910156</ele>
    <time>2012-05-23T13:14:08Z</time>
   </trkpt>
   <trkpt lat="46.2260589599609" lon="7.37323093414307">
    <ele>490.959991455078</ele>
    <time>2012-05-23T13:14:09Z</time>
   </trkpt>
   <trkpt lat="46.2260284423828" lon="7.37316179275513">
    <ele>491</ele>
    <time>2012-05-23T13:14:10Z</time>
   </trkpt>
   <trkpt lat="46.225902557373" lon="7.37299633026123">
    <ele>491</ele>
    <time>2012-05-23T13:14:13Z</time>
   </trkpt>
   <trkpt lat="46.2257232666016" lon="7.37302827835083">
    <ele>491.122436523438</ele>
    <time>2012-05-23T13:14:16Z</time>
   </trkpt>
   <trkpt lat="46.225471496582" lon="7.37305212020874">
    <ele>491.285705566406</ele>
    <time>2012-05-23T13:14:20Z</time>
   </trkpt>
   <trkpt lat="46.2253494262695" lon="7.37322998046875">
    <ele>491.408172607422</ele>
    <time>2012-05-23T13:14:23Z</time>
   </trkpt>
   <trkpt lat="46.2252006530762" lon="7.37349653244018">
    <ele>491.571441650391</ele>
    <time>2012-05-23T13:14:27Z</time>
   </trkpt>
   <trkpt lat="46.2251472473144" lon="7.37353467941284">
    <ele>491.612243652344</ele>
    <time>2012-05-23T13:14:28Z</time>
   </trkpt>
   <trkpt lat="46.224853515625" lon="7.37377786636352">
    <ele>491.857147216797</ele>
    <time>2012-05-23T13:14:34Z</time>
   </trkpt>
   <trkpt lat="46.2244758605957" lon="7.3741044998169">
    <ele>492.183685302734</ele>
    <time>2012-05-23T13:14:42Z</time>
   </trkpt>
   <trkpt lat="46.2241477966309" lon="7.37438869476318">
    <ele>492.469390869141</ele>
    <time>2012-05-23T13:14:49Z</time>
   </trkpt>
   <trkpt lat="46.2238578796387" lon="7.37470579147339">
    <ele>492.755096435547</ele>
    <time>2012-05-23T13:14:56Z</time>
   </trkpt>
   <trkpt lat="46.2237434387207" lon="7.37486362457275">
    <ele>492.877563476562</ele>
    <time>2012-05-23T13:14:59Z</time>
   </trkpt>
   <trkpt lat="46.2237091064453" lon="7.37492084503174">
    <ele>492.918365478516</ele>
    <time>2012-05-23T13:15:00Z</time>
   </trkpt>
   <trkpt lat="46.2236747741699" lon="7.37497520446777">
    <ele>492.959197998047</ele>
    <time>2012-05-23T13:15:01Z</time>
   </trkpt>
   <trkpt lat="46.2236442565918" lon="7.37503099441528">
    <ele>493</ele>
    <time>2012-05-23T13:15:02Z</time>
   </trkpt>
   <trkpt lat="46.2236137390137" lon="7.37508392333984">
    <ele>493</ele>
    <time>2012-05-23T13:15:03Z</time>
   </trkpt>
   <trkpt lat="46.2234153747559" lon="7.37540435791016">
    <ele>494.200012207031</ele>
    <time>2012-05-23T13:15:09Z</time>
   </trkpt>
   <trkpt lat="46.2233810424805" lon="7.37545967102051">
    <ele>494.399993896484</ele>
    <time>2012-05-23T13:15:10Z</time>
   </trkpt>
   <trkpt lat="46.2233467102051" lon="7.37551403045654">
    <ele>494.600006103516</ele>
    <time>2012-05-23T13:15:11Z</time>
   </trkpt>
   <trkpt lat="46.2233123779297" lon="7.37556600570679">
    <ele>494.799987792969</ele>
    <time>2012-05-23T13:15:12Z</time>
   </trkpt>
   <trkpt lat="46.2232818603516" lon="7.37561798095703">
    <ele>495</ele>
    <time>2012-05-23T13:15:13Z</time>
   </trkpt>
   <trkpt lat="46.2231483459473" lon="7.37580394744873">
    <ele>495</ele>
    <time>2012-05-23T13:15:17Z</time>
   </trkpt>
   <trkpt lat="46.2231140136719" lon="7.37584543228149">
    <ele>495.299987792969</ele>
    <time>2012-05-23T13:15:18Z</time>
   </trkpt>
   <trkpt lat="46.2229957580566" lon="7.3759503364563">
    <ele>496.200012207031</ele>
    <time>2012-05-23T13:15:21Z</time>
   </trkpt>
   <trkpt lat="46.2229156494141" lon="7.37599658966064">
    <ele>496.5</ele>
    <time>2012-05-23T13:15:22Z</time>
   </trkpt>
   <trkpt lat="46.2228736877441" lon="7.3760142326355">
    <ele>497.100006103516</ele>
    <time>2012-05-23T13:15:24Z</time>
   </trkpt>
   <trkpt lat="46.2228355407715" lon="7.37602806091309">
    <ele>497.399993896484</ele>
    <time>2012-05-23T13:15:25Z</time>
   </trkpt>
   <trkpt lat="46.2226791381836" lon="7.3760781288147">
    <ele>497.399993896484</ele>
    <time>2012-05-23T13:15:29Z</time>
   </trkpt>
   <trkpt lat="46.2225189208984" lon="7.37606382369995">
    <ele>498.399993896484</ele>
    <time>2012-05-23T13:15:33Z</time>
   </trkpt>
   <trkpt lat="46.2224769592285" lon="7.37605237960815">
    <ele>498.649993896484</ele>
    <time>2012-05-23T13:15:34Z</time>
   </trkpt>
   <trkpt lat="46.2224388122559" lon="7.37603378295898">
    <ele>498.899993896484</ele>
    <time>2012-05-23T13:15:35Z</time>
   </trkpt>
   <trkpt lat="46.2224006652832" lon="7.37601709365845">
    <ele>499.149993896484</ele>
    <time>2012-05-23T13:15:36Z</time>
   </trkpt>
   <trkpt lat="46.2223625183106" lon="7.37599086761475">
    <ele>499.399993896484</ele>
    <time>2012-05-23T13:15:37Z</time>
   </trkpt>
   <trkpt lat="46.2222938537598" lon="7.37593173980713">
    <ele>499.399993896484</ele>
    <time>2012-05-23T13:15:39Z</time>
   </trkpt>
   <trkpt lat="46.2221946716309" lon="7.37584161758423">
    <ele>500.342864990234</ele>
    <time>2012-05-23T13:15:42Z</time>
   </trkpt>
   <trkpt lat="46.2221641540527" lon="7.37580919265747">
    <ele>500.657135009766</ele>
    <time>2012-05-23T13:15:43Z</time>
   </trkpt>
   <trkpt lat="46.2221336364746" lon="7.37577819824219">
    <ele>500.971435546875</ele>
    <time>2012-05-23T13:15:44Z</time>
   </trkpt>
   <trkpt lat="46.2221031188965" lon="7.37574195861816">
    <ele>501.285705566406</ele>
    <time>2012-05-23T13:15:45Z</time>
   </trkpt>
   <trkpt lat="46.2220764160156" lon="7.37570142745972">
    <ele>501.600006103516</ele>
    <time>2012-05-23T13:15:46Z</time>
   </trkpt>
   <trkpt lat="46.2220230102539" lon="7.37560796737671">
    <ele>501.600006103516</ele>
    <time>2012-05-23T13:15:48Z</time>
   </trkpt>
   <trkpt lat="46.2219772338867" lon="7.37550067901611">
    <ele>502.218200683594</ele>
    <time>2012-05-23T13:15:50Z</time>
   </trkpt>
   <trkpt lat="46.2219581604004" lon="7.37544918060303">
    <ele>502.527282714844</ele>
    <time>2012-05-23T13:15:51Z</time>
   </trkpt>
   <trkpt lat="46.2219429016113" lon="7.37539958953857">
    <ele>502.836364746094</ele>
    <time>2012-05-23T13:15:52Z</time>
   </trkpt>
   <trkpt lat="46.221923828125" lon="7.37535333633423">
    <ele>503.145446777344</ele>
    <time>2012-05-23T13:15:53Z</time>
   </trkpt>
   <trkpt lat="46.2219085693359" lon="7.37530517578125">
    <ele>503.454559326172</ele>
    <time>2012-05-23T13:15:54Z</time>
   </trkpt>
   <trkpt lat="46.2218971252441" lon="7.37525272369385">
    <ele>503.763641357422</ele>
    <time>2012-05-23T13:15:55Z</time>
   </trkpt>
   <trkpt lat="46.2218627929688" lon="7.3750901222229">
    <ele>504.69091796875</ele>
    <time>2012-05-23T13:15:58Z</time>
   </trkpt>
   <trkpt lat="46.221851348877" lon="7.37503719329834">
    <ele>505</ele>
    <time>2012-05-23T13:15:59Z</time>
   </trkpt>
   <trkpt lat="46.2218437194824" lon="7.37498426437378">
    <ele>505.30908203125</ele>
    <time>2012-05-23T13:16:00Z</time>
   </trkpt>
   <trkpt lat="46.2218360900879" lon="7.37493181228638">
    <ele>505.618194580078</ele>
    <time>2012-05-23T13:16:01Z</time>
   </trkpt>
   <trkpt lat="46.2218284606934" lon="7.37487888336182">
    <ele>505.927276611328</ele>
    <time>2012-05-23T13:16:02Z</time>
   </trkpt>
   <trkpt lat="46.2218055725098" lon="7.37467002868652">
    <ele>507.163635253906</ele>
    <time>2012-05-23T13:16:06Z</time>
   </trkpt>
   <trkpt lat="46.2218017578125" lon="7.37462091445923">
    <ele>507.472717285156</ele>
    <time>2012-05-23T13:16:07Z</time>
   </trkpt>
   <trkpt lat="46.2217979431152" lon="7.37456893920898">
    <ele>507.781799316406</ele>
    <time>2012-05-23T13:16:08Z</time>
   </trkpt>
   <trkpt lat="46.221794128418" lon="7.37452125549316">
    <ele>508.090911865234</ele>
    <time>2012-05-23T13:16:09Z</time>
   </trkpt>
   <trkpt lat="46.2217864990234" lon="7.3744740486145">
    <ele>508.399993896484</ele>
    <time>2012-05-23T13:16:10Z</time>
   </trkpt>
   <trkpt lat="46.2217636108398" lon="7.37427997589111">
    <ele>508.399993896484</ele>
    <time>2012-05-23T13:16:14Z</time>
   </trkpt>
   <trkpt lat="46.2217597961426" lon="7.37423372268677">
    <ele>508.799987792969</ele>
    <time>2012-05-23T13:16:15Z</time>
   </trkpt>
   <trkpt lat="46.2217559814453" lon="7.37419128417969">
    <ele>509.199981689453</ele>
    <time>2012-05-23T13:16:16Z</time>
   </trkpt>
   <trkpt lat="46.2217483520508" lon="7.37414884567261">
    <ele>509.600006103516</ele>
    <time>2012-05-23T13:16:17Z</time>
   </trkpt>
   <trkpt lat="46.2217445373535" lon="7.37410402297974">
    <ele>510</ele>
    <time>2012-05-23T13:16:18Z</time>
   </trkpt>
   <trkpt lat="46.2217407226562" lon="7.37405586242676">
    <ele>510.399993896484</ele>
    <time>2012-05-23T13:16:19Z</time>
   </trkpt>
   <trkpt lat="46.2217292785644" lon="7.37396621704102">
    <ele>510.399993896484</ele>
    <time>2012-05-23T13:16:21Z</time>
   </trkpt>
   <trkpt lat="46.2216987609863" lon="7.37370300292969">
    <ele>511.490905761719</ele>
    <time>2012-05-23T13:16:27Z</time>
   </trkpt>
   <trkpt lat="46.2216949462891" lon="7.37365531921387">
    <ele>511.672729492188</ele>
    <time>2012-05-23T13:16:28Z</time>
   </trkpt>
   <trkpt lat="46.2216911315918" lon="7.37361478805542">
    <ele>511.854553222656</ele>
    <time>2012-05-23T13:16:29Z</time>
   </trkpt>
   <trkpt lat="46.2216873168945" lon="7.37357234954834">
    <ele>512.036376953125</ele>
    <time>2012-05-23T13:16:30Z</time>
   </trkpt>
   <trkpt lat="46.2216835021973" lon="7.37352991104126">
    <ele>512.218200683594</ele>
    <time>2012-05-23T13:16:31Z</time>
   </trkpt>
   <trkpt lat="46.2216796875" lon="7.37348747253418">
    <ele>512.400024414062</ele>
    <time>2012-05-23T13:16:32Z</time>
   </trkpt>
   <trkpt lat="46.2216644287109" lon="7.37334775924683">
    <ele>512.400024414062</ele>
    <time>2012-05-23T13:16:35Z</time>
   </trkpt>
   <trkpt lat="46.2216644287109" lon="7.37330055236816">
    <ele>512.900024414062</ele>
    <time>2012-05-23T13:16:36Z</time>
   </trkpt>
   <trkpt lat="46.2216606140137" lon="7.37325763702393">
    <ele>513.400024414062</ele>
    <time>2012-05-23T13:16:37Z</time>
   </trkpt>
   <trkpt lat="46.2216491699219" lon="7.37321281433106">
    <ele>513.900024414062</ele>
    <time>2012-05-23T13:16:38Z</time>
   </trkpt>
   <trkpt lat="46.2216453552246" lon="7.37316799163818">
    <ele>514.400024414062</ele>
    <time>2012-05-23T13:16:39Z</time>
   </trkpt>
   <trkpt lat="46.2216300964356" lon="7.37303686141968">
    <ele>514.400024414062</ele>
    <time>2012-05-23T13:16:42Z</time>
   </trkpt>
   <trkpt lat="46.221622467041" lon="7.3729453086853">
    <ele>515.066711425781</ele>
    <time>2012-05-23T13:16:44Z</time>
   </trkpt>
   <trkpt lat="46.2216186523438" lon="7.3729043006897">
    <ele>515.400024414062</ele>
    <time>2012-05-23T13:16:45Z</time>
   </trkpt>
   <trkpt lat="46.2216148376465" lon="7.37286329269409">
    <ele>515.733337402344</ele>
    <time>2012-05-23T13:16:46Z</time>
   </trkpt>
   <trkpt lat="46.221607208252" lon="7.37282037734985">
    <ele>516.066711425781</ele>
    <time>2012-05-23T13:16:47Z</time>
   </trkpt>
   <trkpt lat="46.2215995788574" lon="7.37277936935425">
    <ele>516.400024414062</ele>
    <time>2012-05-23T13:16:48Z</time>
   </trkpt>
   <trkpt lat="46.2215881347656" lon="7.37269449234009">
    <ele>516.400024414062</ele>
    <time>2012-05-23T13:16:50Z</time>
   </trkpt>
   <trkpt lat="46.2215194702148" lon="7.37241315841675">
    <ele>517.92724609375</ele>
    <time>2012-05-23T13:16:57Z</time>
   </trkpt>
   <trkpt lat="46.221508026123" lon="7.37237453460693">
    <ele>518.145446777344</ele>
    <time>2012-05-23T13:16:58Z</time>
   </trkpt>
   <trkpt lat="46.2214965820312" lon="7.37233686447144">
    <ele>518.363647460938</ele>
    <time>2012-05-23T13:16:59Z</time>
   </trkpt>
   <trkpt lat="46.2214851379394" lon="7.37229776382446">
    <ele>518.581787109375</ele>
    <time>2012-05-23T13:17:00Z</time>
   </trkpt>
   <trkpt lat="46.2214698791504" lon="7.37225818634033">
    <ele>518.799987792969</ele>
    <time>2012-05-23T13:17:01Z</time>
   </trkpt>
   <trkpt lat="46.2214546203613" lon="7.37222146987915">
    <ele>518.799987792969</ele>
    <time>2012-05-23T13:17:02Z</time>
   </trkpt>
   <trkpt lat="46.2214202880859" lon="7.37214803695679">
    <ele>519.288879394531</ele>
    <time>2012-05-23T13:17:04Z</time>
   </trkpt>
   <trkpt lat="46.2213745117188" lon="7.37203502655029">
    <ele>520.022216796875</ele>
    <time>2012-05-23T13:17:07Z</time>
   </trkpt>
   <trkpt lat="46.2213554382324" lon="7.37200498580933">
    <ele>520.266662597656</ele>
    <time>2012-05-23T13:17:08Z</time>
   </trkpt>
   <trkpt lat="46.2213325500488" lon="7.37196969985962">
    <ele>520.511108398438</ele>
    <time>2012-05-23T13:17:09Z</time>
   </trkpt>
   <trkpt lat="46.2213134765625" lon="7.37193393707275">
    <ele>520.755554199219</ele>
    <time>2012-05-23T13:17:10Z</time>
   </trkpt>
   <trkpt lat="46.2212905883789" lon="7.37190055847168">
    <ele>521</ele>
    <time>2012-05-23T13:17:11Z</time>
   </trkpt>
   <trkpt lat="46.2211952209473" lon="7.37174320220947">
    <ele>522.222229003906</ele>
    <time>2012-05-23T13:17:16Z</time>
   </trkpt>
   <trkpt lat="46.2211723327637" lon="7.37171506881714">
    <ele>522.466674804688</ele>
    <time>2012-05-23T13:17:17Z</time>
   </trkpt>
   <trkpt lat="46.2211532592773" lon="7.37168645858765">
    <ele>522.711120605469</ele>
    <time>2012-05-23T13:17:18Z</time>
   </trkpt>
   <trkpt lat="46.2211380004883" lon="7.37165594100952">
    <ele>522.95556640625</ele>
    <time>2012-05-23T13:17:19Z</time>
   </trkpt>
   <trkpt lat="46.221118927002" lon="7.3716287612915">
    <ele>523.200012207031</ele>
    <time>2012-05-23T13:17:20Z</time>
   </trkpt>
   <trkpt lat="46.2209510803223" lon="7.37137365341186">
    <ele>523.200012207031</ele>
    <time>2012-05-23T13:17:28Z</time>
   </trkpt>
   <trkpt lat="46.2209320068359" lon="7.37134170532226">
    <ele>523.75</ele>
    <time>2012-05-23T13:17:29Z</time>
   </trkpt>
   <trkpt lat="46.2209053039551" lon="7.37131023406982">
    <ele>524.300048828125</ele>
    <time>2012-05-23T13:17:30Z</time>
   </trkpt>
   <trkpt lat="46.2208862304688" lon="7.37127542495728">
    <ele>524.850036621094</ele>
    <time>2012-05-23T13:17:31Z</time>
   </trkpt>
   <trkpt lat="46.2208633422852" lon="7.37124252319336">
    <ele>525.400024414062</ele>
    <time>2012-05-23T13:17:32Z</time>
   </trkpt>
   <trkpt lat="46.2208061218262" lon="7.37114715576172">
    <ele>525.400024414062</ele>
    <time>2012-05-23T13:17:35Z</time>
   </trkpt>
   <trkpt lat="46.2206802368164" lon="7.37090492248535">
    <ele>526.799987792969</ele>
    <time>2012-05-23T13:17:42Z</time>
   </trkpt>
   <trkpt lat="46.2206611633301" lon="7.37087059020996">
    <ele>527</ele>
    <time>2012-05-23T13:17:43Z</time>
   </trkpt>
   <trkpt lat="46.220645904541" lon="7.3708324432373">
    <ele>527.200012207031</ele>
    <time>2012-05-23T13:17:44Z</time>
   </trkpt>
   <trkpt lat="46.2206268310547" lon="7.3707971572876">
    <ele>527.399963378906</ele>
    <time>2012-05-23T13:17:45Z</time>
   </trkpt>
   <trkpt lat="46.2206077575684" lon="7.37076187133789">
    <ele>527.599975585938</ele>
    <time>2012-05-23T13:17:46Z</time>
   </trkpt>
   <trkpt lat="46.2205047607422" lon="7.37055587768555">
    <ele>527.599975585938</ele>
    <time>2012-05-23T13:17:52Z</time>
   </trkpt>
   <trkpt lat="46.2204627990723" lon="7.37045049667358">
    <ele>528.699951171875</ele>
    <time>2012-05-23T13:17:55Z</time>
   </trkpt>
   <trkpt lat="46.2204475402832" lon="7.37041568756104">
    <ele>529.066650390625</ele>
    <time>2012-05-23T13:17:56Z</time>
   </trkpt>
   <trkpt lat="46.2204360961914" lon="7.3703784942627">
    <ele>529.433349609375</ele>
    <time>2012-05-23T13:17:57Z</time>
   </trkpt>
   <trkpt lat="46.2204284667969" lon="7.37033939361572">
    <ele>529.799987792969</ele>
    <time>2012-05-23T13:17:58Z</time>
   </trkpt>
   <trkpt lat="46.2204132080078" lon="7.37025928497314">
    <ele>529.799987792969</ele>
    <time>2012-05-23T13:18:00Z</time>
   </trkpt>
   <trkpt lat="46.2204093933106" lon="7.37021923065186">
    <ele>530.0625</ele>
    <time>2012-05-23T13:18:01Z</time>
   </trkpt>
   <trkpt lat="46.2203979492188" lon="7.37014102935791">
    <ele>530.587463378906</ele>
    <time>2012-05-23T13:18:03Z</time>
   </trkpt>
   <trkpt lat="46.2203941345215" lon="7.37010192871094">
    <ele>530.849975585938</ele>
    <time>2012-05-23T13:18:04Z</time>
   </trkpt>
   <trkpt lat="46.2203903198242" lon="7.37006330490112">
    <ele>531.112487792969</ele>
    <time>2012-05-23T13:18:05Z</time>
   </trkpt>
   <trkpt lat="46.2203903198242" lon="7.37002182006836">
    <ele>531.375</ele>
    <time>2012-05-23T13:18:06Z</time>
   </trkpt>
   <trkpt lat="46.220386505127" lon="7.36997985839844">
    <ele>531.637512207031</ele>
    <time>2012-05-23T13:18:07Z</time>
   </trkpt>
   <trkpt lat="46.2203826904297" lon="7.36978673934936">
    <ele>532.950012207031</ele>
    <time>2012-05-23T13:18:12Z</time>
   </trkpt>
   <trkpt lat="46.2203826904297" lon="7.36974811553955">
    <ele>533.212524414062</ele>
    <time>2012-05-23T13:18:13Z</time>
   </trkpt>
   <trkpt lat="46.2203826904297" lon="7.36971139907837">
    <ele>533.474975585938</ele>
    <time>2012-05-23T13:18:14Z</time>
   </trkpt>
   <trkpt lat="46.2203826904297" lon="7.36967277526856">
    <ele>533.737487792969</ele>
    <time>2012-05-23T13:18:15Z</time>
   </trkpt>
   <trkpt lat="46.2203788757324" lon="7.3696346282959">
    <ele>534</ele>
    <time>2012-05-23T13:18:16Z</time>
   </trkpt>
   <trkpt lat="46.2203598022461" lon="7.36943960189819">
    <ele>534</ele>
    <time>2012-05-23T13:18:21Z</time>
   </trkpt>
   <trkpt lat="46.2203063964844" lon="7.36913537979126">
    <ele>535.400024414062</ele>
    <time>2012-05-23T13:18:28Z</time>
   </trkpt>
   <trkpt lat="46.2202987670898" lon="7.36909627914429">
    <ele>535.599975585938</ele>
    <time>2012-05-23T13:18:29Z</time>
   </trkpt>
   <trkpt lat="46.220287322998" lon="7.36905479431152">
    <ele>535.799987792969</ele>
    <time>2012-05-23T13:18:30Z</time>
   </trkpt>
   <trkpt lat="46.2202796936035" lon="7.36901712417602">
    <ele>536</ele>
    <time>2012-05-23T13:18:31Z</time>
   </trkpt>
   <trkpt lat="46.2202758789062" lon="7.36897659301758">
    <ele>536.200012207031</ele>
    <time>2012-05-23T13:18:32Z</time>
   </trkpt>
   <trkpt lat="46.2202491760254" lon="7.36878299713135">
    <ele>537.200012207031</ele>
    <time>2012-05-23T13:18:37Z</time>
   </trkpt>
   <trkpt lat="46.2202453613281" lon="7.3687424659729">
    <ele>537.400024414062</ele>
    <time>2012-05-23T13:18:38Z</time>
   </trkpt>
   <trkpt lat="46.2202453613281" lon="7.36870384216309">
    <ele>537.599975585938</ele>
    <time>2012-05-23T13:18:39Z</time>
   </trkpt>
   <trkpt lat="46.2202415466309" lon="7.36866188049316">
    <ele>537.799987792969</ele>
    <time>2012-05-23T13:18:40Z</time>
   </trkpt>
   <trkpt lat="46.2202377319336" lon="7.36861801147461">
    <ele>538</ele>
    <time>2012-05-23T13:18:41Z</time>
   </trkpt>
   <trkpt lat="46.2202415466309" lon="7.36844968795776">
    <ele>538</ele>
    <time>2012-05-23T13:18:45Z</time>
   </trkpt>
   <trkpt lat="46.2202491760254" lon="7.36841058731079">
    <ele>538.440002441406</ele>
    <time>2012-05-23T13:18:46Z</time>
   </trkpt>
   <trkpt lat="46.2202491760254" lon="7.36837196350098">
    <ele>538.880004882812</ele>
    <time>2012-05-23T13:18:47Z</time>
   </trkpt>
   <trkpt lat="46.2202529907227" lon="7.36833190917969">
    <ele>539.320007324219</ele>
    <time>2012-05-23T13:18:48Z</time>
   </trkpt>
   <trkpt lat="46.2202529907227" lon="7.36829090118408">
    <ele>539.760009765625</ele>
    <time>2012-05-23T13:18:49Z</time>
   </trkpt>
   <trkpt lat="46.2202529907227" lon="7.368248462677">
    <ele>540.200012207031</ele>
    <time>2012-05-23T13:18:50Z</time>
   </trkpt>
   <trkpt lat="46.2202453613281" lon="7.36816453933716">
    <ele>540.200012207031</ele>
    <time>2012-05-23T13:18:52Z</time>
   </trkpt>
   <trkpt lat="46.2202110290527" lon="7.36785840988159">
    <ele>541.666687011719</ele>
    <time>2012-05-23T13:19:00Z</time>
   </trkpt>
   <trkpt lat="46.2202033996582" lon="7.36782169342041">
    <ele>541.850036621094</ele>
    <time>2012-05-23T13:19:01Z</time>
   </trkpt>
   <trkpt lat="46.2201957702637" lon="7.36778688430786">
    <ele>542.033325195312</ele>
    <time>2012-05-23T13:19:02Z</time>
   </trkpt>
   <trkpt lat="46.2201881408691" lon="7.36775016784668">
    <ele>542.216674804688</ele>
    <time>2012-05-23T13:19:03Z</time>
   </trkpt>
   <trkpt lat="46.2201805114746" lon="7.3677077293396">
    <ele>542.400024414062</ele>
    <time>2012-05-23T13:19:04Z</time>
   </trkpt>
   <trkpt lat="46.2201690673828" lon="7.36759328842163">
    <ele>542.400024414062</ele>
    <time>2012-05-23T13:19:07Z</time>
   </trkpt>
   <trkpt lat="46.2201614379883" lon="7.36752080917358">
    <ele>543.280029296875</ele>
    <time>2012-05-23T13:19:09Z</time>
   </trkpt>
   <trkpt lat="46.220157623291" lon="7.36748886108398">
    <ele>543.719970703125</ele>
    <time>2012-05-23T13:19:10Z</time>
   </trkpt>
   <trkpt lat="46.2201538085938" lon="7.36745452880859">
    <ele>544.159973144531</ele>
    <time>2012-05-23T13:19:11Z</time>
   </trkpt>
   <trkpt lat="46.2201461791992" lon="7.36741590499878">
    <ele>544.599975585938</ele>
    <time>2012-05-23T13:19:12Z</time>
   </trkpt>
   <trkpt lat="46.2201347351074" lon="7.36733341217041">
    <ele>544.599975585938</ele>
    <time>2012-05-23T13:19:14Z</time>
   </trkpt>
   <trkpt lat="46.2200775146484" lon="7.36700248718262">
    <ele>545.742858886719</ele>
    <time>2012-05-23T13:19:22Z</time>
   </trkpt>
   <trkpt lat="46.2200584411621" lon="7.36692190170288">
    <ele>546.028564453125</ele>
    <time>2012-05-23T13:19:24Z</time>
   </trkpt>
   <trkpt lat="46.2200508117676" lon="7.36688375473022">
    <ele>546.17138671875</ele>
    <time>2012-05-23T13:19:25Z</time>
   </trkpt>
   <trkpt lat="46.2200469970703" lon="7.36684465408325">
    <ele>546.314270019531</ele>
    <time>2012-05-23T13:19:26Z</time>
   </trkpt>
   <trkpt lat="46.220043182373" lon="7.36681270599365">
    <ele>546.457092285156</ele>
    <time>2012-05-23T13:19:27Z</time>
   </trkpt>
   <trkpt lat="46.2200393676758" lon="7.36677503585815">
    <ele>546.599975585938</ele>
    <time>2012-05-23T13:19:28Z</time>
   </trkpt>
   <trkpt lat="46.2200317382812" lon="7.36673450469971">
    <ele>546.599975585938</ele>
    <time>2012-05-23T13:19:29Z</time>
   </trkpt>
   <trkpt lat="46.2199859619141" lon="7.36649894714356">
    <ele>548.039978027344</ele>
    <time>2012-05-23T13:19:35Z</time>
   </trkpt>
   <trkpt lat="46.2199783325195" lon="7.36646175384522">
    <ele>548.279968261719</ele>
    <time>2012-05-23T13:19:36Z</time>
   </trkpt>
   <trkpt lat="46.2199745178223" lon="7.36642122268677">
    <ele>548.52001953125</ele>
    <time>2012-05-23T13:19:37Z</time>
   </trkpt>
   <trkpt lat="46.219970703125" lon="7.36638021469116">
    <ele>548.760009765625</ele>
    <time>2012-05-23T13:19:38Z</time>
   </trkpt>
   <trkpt lat="46.2199668884277" lon="7.36633682250976">
    <ele>549</ele>
    <time>2012-05-23T13:19:39Z</time>
   </trkpt>
   <trkpt lat="46.2199211120606" lon="7.36607885360718">
    <ele>549</ele>
    <time>2012-05-23T13:19:46Z</time>
   </trkpt>
   <trkpt lat="46.219913482666" lon="7.36604309082031">
    <ele>549.400024414062</ele>
    <time>2012-05-23T13:19:47Z</time>
   </trkpt>
   <trkpt lat="46.2199096679688" lon="7.36600685119629">
    <ele>549.799987792969</ele>
    <time>2012-05-23T13:19:48Z</time>
   </trkpt>
   <trkpt lat="46.2199058532715" lon="7.36596870422363">
    <ele>550.200012207031</ele>
    <time>2012-05-23T13:19:49Z</time>
   </trkpt>
   <trkpt lat="46.219898223877" lon="7.36592960357666">
    <ele>550.599975585938</ele>
    <time>2012-05-23T13:19:50Z</time>
   </trkpt>
   <trkpt lat="46.2198905944824" lon="7.365891456604">
    <ele>551</ele>
    <time>2012-05-23T13:19:51Z</time>
   </trkpt>
   <trkpt lat="46.2198715209961" lon="7.36581897735596">
    <ele>551</ele>
    <time>2012-05-23T13:19:53Z</time>
   </trkpt>
   <trkpt lat="46.2198448181152" lon="7.36571025848389">
    <ele>552</ele>
    <time>2012-05-23T13:19:56Z</time>
   </trkpt>
   <trkpt lat="46.2198333740234" lon="7.3656759262085">
    <ele>552.333312988281</ele>
    <time>2012-05-23T13:19:57Z</time>
   </trkpt>
   <trkpt lat="46.2198219299316" lon="7.36564207077026">
    <ele>552.666687011719</ele>
    <time>2012-05-23T13:19:58Z</time>
   </trkpt>
   <trkpt lat="46.2198104858398" lon="7.36560726165772">
    <ele>553</ele>
    <time>2012-05-23T13:19:59Z</time>
   </trkpt>
   <trkpt lat="46.219799041748" lon="7.36557388305664">
    <ele>553</ele>
    <time>2012-05-23T13:20:00Z</time>
   </trkpt>
   <trkpt lat="46.219669342041" lon="7.36531782150268">
    <ele>554.466674804688</ele>
    <time>2012-05-23T13:20:08Z</time>
   </trkpt>
   <trkpt lat="46.2196502685547" lon="7.36529016494751">
    <ele>554.650024414062</ele>
    <time>2012-05-23T13:20:09Z</time>
   </trkpt>
   <trkpt lat="46.2196311950684" lon="7.36526012420654">
    <ele>554.833374023438</ele>
    <time>2012-05-23T13:20:10Z</time>
   </trkpt>
   <trkpt lat="46.219612121582" lon="7.365234375">
    <ele>555.016662597656</ele>
    <time>2012-05-23T13:20:11Z</time>
   </trkpt>
   <trkpt lat="46.219596862793" lon="7.36520862579346">
    <ele>555.200012207031</ele>
    <time>2012-05-23T13:20:12Z</time>
   </trkpt>
   <trkpt lat="46.2195167541504" lon="7.36509418487549">
    <ele>555.200012207031</ele>
    <time>2012-05-23T13:20:16Z</time>
   </trkpt>
   <trkpt lat="46.219425201416" lon="7.36494588851929">
    <ele>556.450012207031</ele>
    <time>2012-05-23T13:20:21Z</time>
   </trkpt>
   <trkpt lat="46.2194023132324" lon="7.36491823196411">
    <ele>556.700012207031</ele>
    <time>2012-05-23T13:20:22Z</time>
   </trkpt>
   <trkpt lat="46.2193832397461" lon="7.36488771438599">
    <ele>556.950012207031</ele>
    <time>2012-05-23T13:20:23Z</time>
   </trkpt>
   <trkpt lat="46.2193603515625" lon="7.36485910415649">
    <ele>557.200012207031</ele>
    <time>2012-05-23T13:20:24Z</time>
   </trkpt>
   <trkpt lat="46.2193222045898" lon="7.36480474472046">
    <ele>557.200012207031</ele>
    <time>2012-05-23T13:20:26Z</time>
   </trkpt>
   <trkpt lat="46.2191581726074" lon="7.36458444595337">
    <ele>558.799987792969</ele>
    <time>2012-05-23T13:20:34Z</time>
   </trkpt>
   <trkpt lat="46.2191352844238" lon="7.36455583572388">
    <ele>559</ele>
    <time>2012-05-23T13:20:35Z</time>
   </trkpt>
   <trkpt lat="46.2191162109375" lon="7.36452388763428">
    <ele>559.199951171875</ele>
    <time>2012-05-23T13:20:36Z</time>
   </trkpt>
   <trkpt lat="46.2190933227539" lon="7.36449337005615">
    <ele>559.399963378906</ele>
    <time>2012-05-23T13:20:37Z</time>
   </trkpt>
   <trkpt lat="46.2190780639648" lon="7.36446237564087">
    <ele>559.599975585938</ele>
    <time>2012-05-23T13:20:38Z</time>
   </trkpt>
   <trkpt lat="46.2189865112305" lon="7.36430788040161">
    <ele>559.599975585938</ele>
    <time>2012-05-23T13:20:43Z</time>
   </trkpt>
   <trkpt lat="46.2189674377441" lon="7.3642749786377">
    <ele>560</ele>
    <time>2012-05-23T13:20:44Z</time>
   </trkpt>
   <trkpt lat="46.2189521789551" lon="7.36424541473389">
    <ele>560.399963378906</ele>
    <time>2012-05-23T13:20:45Z</time>
   </trkpt>
   <trkpt lat="46.218936920166" lon="7.36421537399292">
    <ele>560.799987792969</ele>
    <time>2012-05-23T13:20:46Z</time>
   </trkpt>
   <trkpt lat="46.218921661377" lon="7.3641881942749">
    <ele>561.199951171875</ele>
    <time>2012-05-23T13:20:47Z</time>
   </trkpt>
   <trkpt lat="46.2189064025879" lon="7.3641562461853">
    <ele>561.599975585938</ele>
    <time>2012-05-23T13:20:48Z</time>
   </trkpt>
   <trkpt lat="46.218879699707" lon="7.36403369903564">
    <ele>561.599975585938</ele>
    <time>2012-05-23T13:20:51Z</time>
   </trkpt>
   <trkpt lat="46.2188682556152" lon="7.36399078369141">
    <ele>562</ele>
    <time>2012-05-23T13:20:52Z</time>
   </trkpt>
   <trkpt lat="46.2188529968262" lon="7.36395215988159">
    <ele>562.399963378906</ele>
    <time>2012-05-23T13:20:53Z</time>
   </trkpt>
   <trkpt lat="46.2188415527344" lon="7.36391353607178">
    <ele>562.799987792969</ele>
    <time>2012-05-23T13:20:54Z</time>
   </trkpt>
   <trkpt lat="46.2188339233398" lon="7.36387920379639">
    <ele>563.199951171875</ele>
    <time>2012-05-23T13:20:55Z</time>
   </trkpt>
   <trkpt lat="46.2188186645508" lon="7.36384201049805">
    <ele>563.599975585938</ele>
    <time>2012-05-23T13:20:56Z</time>
   </trkpt>
   <trkpt lat="46.2188110351562" lon="7.36379909515381">
    <ele>563.599975585938</ele>
    <time>2012-05-23T13:20:57Z</time>
   </trkpt>
   <trkpt lat="46.2187995910644" lon="7.36362981796265">
    <ele>564.699951171875</ele>
    <time>2012-05-23T13:21:01Z</time>
   </trkpt>
   <trkpt lat="46.2187957763672" lon="7.36358547210693">
    <ele>564.974975585938</ele>
    <time>2012-05-23T13:21:02Z</time>
   </trkpt>
   <trkpt lat="46.2187919616699" lon="7.36354827880859">
    <ele>565.25</ele>
    <time>2012-05-23T13:21:03Z</time>
   </trkpt>
   <trkpt lat="46.2187843322754" lon="7.36350584030151">
    <ele>565.524963378906</ele>
    <time>2012-05-23T13:21:04Z</time>
   </trkpt>
   <trkpt lat="46.2187805175781" lon="7.36345672607422">
    <ele>565.799987792969</ele>
    <time>2012-05-23T13:21:05Z</time>
   </trkpt>
   <trkpt lat="46.2187805175781" lon="7.3633508682251">
    <ele>565.799987792969</ele>
    <time>2012-05-23T13:21:07Z</time>
   </trkpt>
   <trkpt lat="46.2187805175781" lon="7.36325693130493">
    <ele>566.428588867188</ele>
    <time>2012-05-23T13:21:09Z</time>
   </trkpt>
   <trkpt lat="46.2187843322754" lon="7.36321115493774">
    <ele>566.742858886719</ele>
    <time>2012-05-23T13:21:10Z</time>
   </trkpt>
   <trkpt lat="46.2187919616699" lon="7.36317300796509">
    <ele>567.05712890625</ele>
    <time>2012-05-23T13:21:11Z</time>
   </trkpt>
   <trkpt lat="46.2187957763672" lon="7.36313676834106">
    <ele>567.371398925781</ele>
    <time>2012-05-23T13:21:12Z</time>
   </trkpt>
   <trkpt lat="46.2188034057617" lon="7.36309909820557">
    <ele>567.685729980469</ele>
    <time>2012-05-23T13:21:13Z</time>
   </trkpt>
   <trkpt lat="46.2188110351562" lon="7.36298322677612">
    <ele>568.628601074219</ele>
    <time>2012-05-23T13:21:16Z</time>
   </trkpt>
   <trkpt lat="46.2188148498535" lon="7.36294221878052">
    <ele>568.94287109375</ele>
    <time>2012-05-23T13:21:17Z</time>
   </trkpt>
   <trkpt lat="46.218822479248" lon="7.36290693283081">
    <ele>569.257141113281</ele>
    <time>2012-05-23T13:21:18Z</time>
   </trkpt>
   <trkpt lat="46.2188262939453" lon="7.36287117004394">
    <ele>569.571411132812</ele>
    <time>2012-05-23T13:21:19Z</time>
   </trkpt>
   <trkpt lat="46.2188301086426" lon="7.36283588409424">
    <ele>569.8857421875</ele>
    <time>2012-05-23T13:21:20Z</time>
   </trkpt>
   <trkpt lat="46.2188606262207" lon="7.36270236968994">
    <ele>571.142883300781</ele>
    <time>2012-05-23T13:21:24Z</time>
   </trkpt>
   <trkpt lat="46.2188682556152" lon="7.36266756057739">
    <ele>571.457153320312</ele>
    <time>2012-05-23T13:21:25Z</time>
   </trkpt>
   <trkpt lat="46.2188758850098" lon="7.36263513565064">
    <ele>571.771423339844</ele>
    <time>2012-05-23T13:21:26Z</time>
   </trkpt>
   <trkpt lat="46.2188835144043" lon="7.36260032653809">
    <ele>572.085754394531</ele>
    <time>2012-05-23T13:21:27Z</time>
   </trkpt>
   <trkpt lat="46.2188911437988" lon="7.36257076263428">
    <ele>572.400024414062</ele>
    <time>2012-05-23T13:21:28Z</time>
   </trkpt>
   <trkpt lat="46.2189102172852" lon="7.36245393753052">
    <ele>572.400024414062</ele>
    <time>2012-05-23T13:21:31Z</time>
   </trkpt>
   <trkpt lat="46.2189178466797" lon="7.36241102218628">
    <ele>572.714294433594</ele>
    <time>2012-05-23T13:21:32Z</time>
   </trkpt>
   <trkpt lat="46.2189331054688" lon="7.36232948303223">
    <ele>573.342834472656</ele>
    <time>2012-05-23T13:21:34Z</time>
   </trkpt>
   <trkpt lat="46.2189445495606" lon="7.36229228973389">
    <ele>573.657165527344</ele>
    <time>2012-05-23T13:21:35Z</time>
   </trkpt>
   <trkpt lat="46.2189483642578" lon="7.36225318908691">
    <ele>573.971435546875</ele>
    <time>2012-05-23T13:21:36Z</time>
   </trkpt>
   <trkpt lat="46.2189521789551" lon="7.36220932006836">
    <ele>574.285705566406</ele>
    <time>2012-05-23T13:21:37Z</time>
   </trkpt>
   <trkpt lat="46.2189559936523" lon="7.36216688156128">
    <ele>574.599975585938</ele>
    <time>2012-05-23T13:21:38Z</time>
   </trkpt>
   <trkpt lat="46.2189559936523" lon="7.36212825775146">
    <ele>574.599975585938</ele>
    <time>2012-05-23T13:21:39Z</time>
   </trkpt>
   <trkpt lat="46.2189521789551" lon="7.36208868026733">
    <ele>575</ele>
    <time>2012-05-23T13:21:40Z</time>
   </trkpt>
   <trkpt lat="46.2189521789551" lon="7.36205148696899">
    <ele>575.399963378906</ele>
    <time>2012-05-23T13:21:41Z</time>
   </trkpt>
   <trkpt lat="46.2189483642578" lon="7.36201333999634">
    <ele>575.799987792969</ele>
    <time>2012-05-23T13:21:42Z</time>
   </trkpt>
   <trkpt lat="46.2189445495606" lon="7.36197662353516">
    <ele>576.199951171875</ele>
    <time>2012-05-23T13:21:43Z</time>
   </trkpt>
   <trkpt lat="46.2189407348633" lon="7.36193799972534">
    <ele>576.599975585938</ele>
    <time>2012-05-23T13:21:44Z</time>
   </trkpt>
   <trkpt lat="46.218936920166" lon="7.36189985275268">
    <ele>576.599975585938</ele>
    <time>2012-05-23T13:21:45Z</time>
   </trkpt>
   <trkpt lat="46.2188873291016" lon="7.36168622970581">
    <ele>577.924133300781</ele>
    <time>2012-05-23T13:21:51Z</time>
   </trkpt>
   <trkpt lat="46.2188415527344" lon="7.36155271530151">
    <ele>578.806884765625</ele>
    <time>2012-05-23T13:21:55Z</time>
   </trkpt>
   <trkpt lat="46.2188262939453" lon="7.36152362823486">
    <ele>579.027587890625</ele>
    <time>2012-05-23T13:21:56Z</time>
   </trkpt>
   <trkpt lat="46.2188148498535" lon="7.36149454116821">
    <ele>579.248291015625</ele>
    <time>2012-05-23T13:21:57Z</time>
   </trkpt>
   <trkpt lat="46.2187957763672" lon="7.36146783828735">
    <ele>579.468933105469</ele>
    <time>2012-05-23T13:21:58Z</time>
   </trkpt>
   <trkpt lat="46.2187805175781" lon="7.36144065856934">
    <ele>579.689636230469</ele>
    <time>2012-05-23T13:21:59Z</time>
   </trkpt>
   <trkpt lat="46.2187194824219" lon="7.36133003234863">
    <ele>580.572387695312</ele>
    <time>2012-05-23T13:22:03Z</time>
   </trkpt>
   <trkpt lat="46.2187004089356" lon="7.36130523681641">
    <ele>580.793090820312</ele>
    <time>2012-05-23T13:22:04Z</time>
   </trkpt>
   <trkpt lat="46.2186813354492" lon="7.36127996444702">
    <ele>581.013793945312</ele>
    <time>2012-05-23T13:22:05Z</time>
   </trkpt>
   <trkpt lat="46.2186622619629" lon="7.3612585067749">
    <ele>581.234497070312</ele>
    <time>2012-05-23T13:22:06Z</time>
   </trkpt>
   <trkpt lat="46.2186393737793" lon="7.36123895645142">
    <ele>581.455139160156</ele>
    <time>2012-05-23T13:22:07Z</time>
   </trkpt>
   <trkpt lat="46.2185745239258" lon="7.36118030548096">
    <ele>582.117248535156</ele>
    <time>2012-05-23T13:22:10Z</time>
   </trkpt>
   <trkpt lat="46.2185516357422" lon="7.36116361618042">
    <ele>582.337951660156</ele>
    <time>2012-05-23T13:22:11Z</time>
   </trkpt>
   <trkpt lat="46.2185287475586" lon="7.36115074157715">
    <ele>582.55859375</ele>
    <time>2012-05-23T13:22:12Z</time>
   </trkpt>
   <trkpt lat="46.2185096740723" lon="7.36113548278809">
    <ele>582.779296875</ele>
    <time>2012-05-23T13:22:13Z</time>
   </trkpt>
   <trkpt lat="46.2184867858887" lon="7.36112308502197">
    <ele>583</ele>
    <time>2012-05-23T13:22:14Z</time>
   </trkpt>
   <trkpt lat="46.2183151245117" lon="7.36103200912476">
    <ele>583</ele>
    <time>2012-05-23T13:22:21Z</time>
   </trkpt>
   <trkpt lat="46.2182655334473" lon="7.36100149154663">
    <ele>583.666687011719</ele>
    <time>2012-05-23T13:22:23Z</time>
   </trkpt>
   <trkpt lat="46.2182426452637" lon="7.36098432540894">
    <ele>584</ele>
    <time>2012-05-23T13:22:24Z</time>
   </trkpt>
   <trkpt lat="46.2182197570801" lon="7.36097192764282">
    <ele>584.333312988281</ele>
    <time>2012-05-23T13:22:25Z</time>
   </trkpt>
   <trkpt lat="46.2181968688965" lon="7.36095762252808">
    <ele>584.666687011719</ele>
    <time>2012-05-23T13:22:26Z</time>
   </trkpt>
   <trkpt lat="46.2181739807129" lon="7.36094045639038">
    <ele>585</ele>
    <time>2012-05-23T13:22:27Z</time>
   </trkpt>
   <trkpt lat="46.2181549072266" lon="7.36091899871826">
    <ele>585</ele>
    <time>2012-05-23T13:22:28Z</time>
   </trkpt>
   <trkpt lat="46.2180709838867" lon="7.3608283996582">
    <ele>586.099975585938</ele>
    <time>2012-05-23T13:22:32Z</time>
   </trkpt>
   <trkpt lat="46.2180519104004" lon="7.36080455780029">
    <ele>586.375</ele>
    <time>2012-05-23T13:22:33Z</time>
   </trkpt>
   <trkpt lat="46.2180328369141" lon="7.3607816696167">
    <ele>586.650024414062</ele>
    <time>2012-05-23T13:22:34Z</time>
   </trkpt>
   <trkpt lat="46.2180137634277" lon="7.36075639724732">
    <ele>586.924987792969</ele>
    <time>2012-05-23T13:22:35Z</time>
   </trkpt>
   <trkpt lat="46.2179946899414" lon="7.36072683334351">
    <ele>587.200012207031</ele>
    <time>2012-05-23T13:22:36Z</time>
   </trkpt>
   <trkpt lat="46.2179336547852" lon="7.36056423187256">
    <ele>587.200012207031</ele>
    <time>2012-05-23T13:22:41Z</time>
   </trkpt>
   <trkpt lat="46.2178955078125" lon="7.36037731170654">
    <ele>588.666687011719</ele>
    <time>2012-05-23T13:22:47Z</time>
   </trkpt>
   <trkpt lat="46.2178955078125" lon="7.3603401184082">
    <ele>588.9111328125</ele>
    <time>2012-05-23T13:22:48Z</time>
   </trkpt>
   <trkpt lat="46.2178916931152" lon="7.36030340194702">
    <ele>589.155578613281</ele>
    <time>2012-05-23T13:22:49Z</time>
   </trkpt>
   <trkpt lat="46.217887878418" lon="7.360267162323">
    <ele>589.400024414062</ele>
    <time>2012-05-23T13:22:50Z</time>
   </trkpt>
   <trkpt lat="46.2178840637207" lon="7.36023092269898">
    <ele>589.644470214844</ele>
    <time>2012-05-23T13:22:51Z</time>
   </trkpt>
   <trkpt lat="46.2178802490234" lon="7.36012744903564">
    <ele>590.377807617188</ele>
    <time>2012-05-23T13:22:54Z</time>
   </trkpt>
   <trkpt lat="46.2178764343262" lon="7.36009550094604">
    <ele>590.622192382812</ele>
    <time>2012-05-23T13:22:55Z</time>
   </trkpt>
   <trkpt lat="46.2178726196289" lon="7.36006546020508">
    <ele>590.866638183594</ele>
    <time>2012-05-23T13:22:56Z</time>
   </trkpt>
   <trkpt lat="46.2178688049316" lon="7.36003303527832">
    <ele>591.111083984375</ele>
    <time>2012-05-23T13:22:57Z</time>
   </trkpt>
   <trkpt lat="46.2178649902344" lon="7.36000156402588">
    <ele>591.355529785156</ele>
    <time>2012-05-23T13:22:58Z</time>
   </trkpt>
   <trkpt lat="46.217845916748" lon="7.35979461669922">
    <ele>592.822204589844</ele>
    <time>2012-05-23T13:23:04Z</time>
   </trkpt>
   <trkpt lat="46.2178382873535" lon="7.35976123809814">
    <ele>593.066650390625</ele>
    <time>2012-05-23T13:23:05Z</time>
   </trkpt>
   <trkpt lat="46.2178344726562" lon="7.3597297668457">
    <ele>593.311096191406</ele>
    <time>2012-05-23T13:23:06Z</time>
   </trkpt>
   <trkpt lat="46.217830657959" lon="7.35969638824463">
    <ele>593.555541992188</ele>
    <time>2012-05-23T13:23:07Z</time>
   </trkpt>
   <trkpt lat="46.2178268432617" lon="7.35966062545776">
    <ele>593.799987792969</ele>
    <time>2012-05-23T13:23:08Z</time>
   </trkpt>
   <trkpt lat="46.2177886962891" lon="7.35946464538574">
    <ele>593.799987792969</ele>
    <time>2012-05-23T13:23:14Z</time>
   </trkpt>
   <trkpt lat="46.2177658081055" lon="7.35940837860107">
    <ele>594.679992675781</ele>
    <time>2012-05-23T13:23:16Z</time>
   </trkpt>
   <trkpt lat="46.2177543640137" lon="7.35938167572022">
    <ele>595.119995117188</ele>
    <time>2012-05-23T13:23:17Z</time>
   </trkpt>
   <trkpt lat="46.2177429199219" lon="7.35935258865356">
    <ele>595.559997558594</ele>
    <time>2012-05-23T13:23:18Z</time>
   </trkpt>
   <trkpt lat="46.2177352905273" lon="7.35932302474976">
    <ele>596</ele>
    <time>2012-05-23T13:23:19Z</time>
   </trkpt>
   <trkpt lat="46.2176971435547" lon="7.35922956466675">
    <ele>596</ele>
    <time>2012-05-23T13:23:22Z</time>
   </trkpt>
   <trkpt lat="46.2176322937012" lon="7.35910940170288">
    <ele>596.855163574219</ele>
    <time>2012-05-23T13:23:26Z</time>
   </trkpt>
   <trkpt lat="46.2176170349121" lon="7.35908126831055">
    <ele>597.068969726562</ele>
    <time>2012-05-23T13:23:27Z</time>
   </trkpt>
   <trkpt lat="46.2175979614258" lon="7.35905313491821">
    <ele>597.282775878906</ele>
    <time>2012-05-23T13:23:28Z</time>
   </trkpt>
   <trkpt lat="46.2175827026367" lon="7.35902881622314">
    <ele>597.49658203125</ele>
    <time>2012-05-23T13:23:29Z</time>
   </trkpt>
   <trkpt lat="46.2175674438477" lon="7.35900115966797">
    <ele>597.710327148438</ele>
    <time>2012-05-23T13:23:30Z</time>
   </trkpt>
   <trkpt lat="46.2174491882324" lon="7.35881853103638">
    <ele>599.206909179688</ele>
    <time>2012-05-23T13:23:37Z</time>
   </trkpt>
   <trkpt lat="46.2174301147461" lon="7.35879468917847">
    <ele>599.420715332031</ele>
    <time>2012-05-23T13:23:38Z</time>
   </trkpt>
   <trkpt lat="46.2174110412598" lon="7.3587703704834">
    <ele>599.634460449219</ele>
    <time>2012-05-23T13:23:39Z</time>
   </trkpt>
   <trkpt lat="46.2173919677734" lon="7.3587474822998">
    <ele>599.848266601562</ele>
    <time>2012-05-23T13:23:40Z</time>
   </trkpt>
   <trkpt lat="46.2173728942871" lon="7.35871934890747">
    <ele>600.062072753906</ele>
    <time>2012-05-23T13:23:41Z</time>
   </trkpt>
   <trkpt lat="46.2172660827637" lon="7.35856008529663">
    <ele>601.344848632812</ele>
    <time>2012-05-23T13:23:47Z</time>
   </trkpt>
   <trkpt lat="46.2172470092773" lon="7.35853385925293">
    <ele>601.558654785156</ele>
    <time>2012-05-23T13:23:48Z</time>
   </trkpt>
   <trkpt lat="46.217227935791" lon="7.35850811004639">
    <ele>601.772399902344</ele>
    <time>2012-05-23T13:23:49Z</time>
   </trkpt>
   <trkpt lat="46.217212677002" lon="7.35848569869995">
    <ele>601.986206054688</ele>
    <time>2012-05-23T13:23:50Z</time>
   </trkpt>
   <trkpt lat="46.2171936035156" lon="7.35845756530762">
    <ele>602.200012207031</ele>
    <time>2012-05-23T13:23:51Z</time>
   </trkpt>
   <trkpt lat="46.2171287536621" lon="7.35835933685303">
    <ele>602.200012207031</ele>
    <time>2012-05-23T13:23:55Z</time>
   </trkpt>
   <trkpt lat="46.2170753479004" lon="7.35827970504761">
    <ele>602.863159179688</ele>
    <time>2012-05-23T13:23:58Z</time>
   </trkpt>
   <trkpt lat="46.2170562744141" lon="7.35825061798096">
    <ele>603.084228515625</ele>
    <time>2012-05-23T13:23:59Z</time>
   </trkpt>
   <trkpt lat="46.2170372009277" lon="7.35822582244873">
    <ele>603.305297851562</ele>
    <time>2012-05-23T13:24:00Z</time>
   </trkpt>
   <trkpt lat="46.2170219421387" lon="7.35820150375366">
    <ele>603.526306152344</ele>
    <time>2012-05-23T13:24:01Z</time>
   </trkpt>
   <trkpt lat="46.2170028686523" lon="7.35817623138428">
    <ele>603.747375488281</ele>
    <time>2012-05-23T13:24:02Z</time>
   </trkpt>
   <trkpt lat="46.2168502807617" lon="7.35796356201172">
    <ele>605.515808105469</ele>
    <time>2012-05-23T13:24:10Z</time>
   </trkpt>
   <trkpt lat="46.2168312072754" lon="7.35793304443359">
    <ele>605.736877441406</ele>
    <time>2012-05-23T13:24:11Z</time>
   </trkpt>
   <trkpt lat="46.2168121337891" lon="7.35790634155274">
    <ele>605.957946777344</ele>
    <time>2012-05-23T13:24:12Z</time>
   </trkpt>
   <trkpt lat="46.2167930603027" lon="7.35788059234619">
    <ele>606.178955078125</ele>
    <time>2012-05-23T13:24:13Z</time>
   </trkpt>
   <trkpt lat="46.2167739868164" lon="7.3578519821167">
    <ele>606.400024414062</ele>
    <time>2012-05-23T13:24:14Z</time>
   </trkpt>
   <trkpt lat="46.216682434082" lon="7.3577094078064">
    <ele>606.400024414062</ele>
    <time>2012-05-23T13:24:19Z</time>
   </trkpt>
   <trkpt lat="46.2166442871094" lon="7.35764932632446">
    <ele>607.066711425781</ele>
    <time>2012-05-23T13:24:21Z</time>
   </trkpt>
   <trkpt lat="46.216625213623" lon="7.35762453079224">
    <ele>607.400024414062</ele>
    <time>2012-05-23T13:24:22Z</time>
   </trkpt>
   <trkpt lat="46.2166061401367" lon="7.35759687423706">
    <ele>607.733337402344</ele>
    <time>2012-05-23T13:24:23Z</time>
   </trkpt>
   <trkpt lat="46.2165870666504" lon="7.35757255554199">
    <ele>608.066711425781</ele>
    <time>2012-05-23T13:24:24Z</time>
   </trkpt>
   <trkpt lat="46.2165718078613" lon="7.35754156112671">
    <ele>608.400024414062</ele>
    <time>2012-05-23T13:24:25Z</time>
   </trkpt>
   <trkpt lat="46.216552734375" lon="7.35751152038574">
    <ele>608.400024414062</ele>
    <time>2012-05-23T13:24:26Z</time>
   </trkpt>
   <trkpt lat="46.2164688110352" lon="7.35736417770386">
    <ele>609.733337402344</ele>
    <time>2012-05-23T13:24:31Z</time>
   </trkpt>
   <trkpt lat="46.2164573669434" lon="7.35732984542847">
    <ele>610</ele>
    <time>2012-05-23T13:24:32Z</time>
   </trkpt>
   <trkpt lat="46.2164421081543" lon="7.35730171203613">
    <ele>610.266662597656</ele>
    <time>2012-05-23T13:24:33Z</time>
   </trkpt>
   <trkpt lat="46.2164268493652" lon="7.35727310180664">
    <ele>610.533325195312</ele>
    <time>2012-05-23T13:24:34Z</time>
   </trkpt>
   <trkpt lat="46.2164115905762" lon="7.35724449157715">
    <ele>610.799987792969</ele>
    <time>2012-05-23T13:24:35Z</time>
   </trkpt>
   <trkpt lat="46.2163429260254" lon="7.35708856582642">
    <ele>612.133361816406</ele>
    <time>2012-05-23T13:24:40Z</time>
   </trkpt>
   <trkpt lat="46.2163314819336" lon="7.35705614089966">
    <ele>612.400024414062</ele>
    <time>2012-05-23T13:24:41Z</time>
   </trkpt>
   <trkpt lat="46.2163162231445" lon="7.35702466964722">
    <ele>612.666687011719</ele>
    <time>2012-05-23T13:24:42Z</time>
   </trkpt>
   <trkpt lat="46.21630859375" lon="7.35699033737183">
    <ele>612.933349609375</ele>
    <time>2012-05-23T13:24:43Z</time>
   </trkpt>
   <trkpt lat="46.2162971496582" lon="7.35695505142212">
    <ele>613.200012207031</ele>
    <time>2012-05-23T13:24:44Z</time>
   </trkpt>
   <trkpt lat="46.2162704467773" lon="7.35689401626587">
    <ele>613.733337402344</ele>
    <time>2012-05-23T13:24:46Z</time>
   </trkpt>
   <trkpt lat="46.2162551879883" lon="7.3568606376648">
    <ele>614</ele>
    <time>2012-05-23T13:24:47Z</time>
   </trkpt>
   <trkpt lat="46.2162437438965" lon="7.3568263053894">
    <ele>614.266662597656</ele>
    <time>2012-05-23T13:24:48Z</time>
   </trkpt>
   <trkpt lat="46.2162322998047" lon="7.35679244995117">
    <ele>614.533325195312</ele>
    <time>2012-05-23T13:24:49Z</time>
   </trkpt>
   <trkpt lat="46.2162208557129" lon="7.35676050186157">
    <ele>614.799987792969</ele>
    <time>2012-05-23T13:24:50Z</time>
   </trkpt>
   <trkpt lat="46.2161293029785" lon="7.35658121109009">
    <ele>614.799987792969</ele>
    <time>2012-05-23T13:24:56Z</time>
   </trkpt>
   <trkpt lat="46.2160797119141" lon="7.35649871826172">
    <ele>615.742858886719</ele>
    <time>2012-05-23T13:24:59Z</time>
   </trkpt>
   <trkpt lat="46.2160606384277" lon="7.35647249221802">
    <ele>616.05712890625</ele>
    <time>2012-05-23T13:25:00Z</time>
   </trkpt>
   <trkpt lat="46.2160377502441" lon="7.35644912719726">
    <ele>616.371398925781</ele>
    <time>2012-05-23T13:25:01Z</time>
   </trkpt>
   <trkpt lat="46.2160186767578" lon="7.35642528533936">
    <ele>616.685729980469</ele>
    <time>2012-05-23T13:25:02Z</time>
   </trkpt>
   <trkpt lat="46.2160034179688" lon="7.3563985824585">
    <ele>617</ele>
    <time>2012-05-23T13:25:03Z</time>
   </trkpt>
   <trkpt lat="46.2159843444824" lon="7.35636854171753">
    <ele>617</ele>
    <time>2012-05-23T13:25:04Z</time>
   </trkpt>
   <trkpt lat="46.2158737182617" lon="7.35624170303345">
    <ele>618.222229003906</ele>
    <time>2012-05-23T13:25:09Z</time>
   </trkpt>
   <trkpt lat="46.2158584594727" lon="7.35621213912964">
    <ele>618.466674804688</ele>
    <time>2012-05-23T13:25:10Z</time>
   </trkpt>
   <trkpt lat="46.2158355712891" lon="7.3561863899231">
    <ele>618.711120605469</ele>
    <time>2012-05-23T13:25:11Z</time>
   </trkpt>
   <trkpt lat="46.2158164978027" lon="7.35615348815918">
    <ele>618.95556640625</ele>
    <time>2012-05-23T13:25:12Z</time>
   </trkpt>
   <trkpt lat="46.2157974243164" lon="7.3561201095581">
    <ele>619.200012207031</ele>
    <time>2012-05-23T13:25:13Z</time>
   </trkpt>
   <trkpt lat="46.2157402038574" lon="7.35600185394287">
    <ele>619.200012207031</ele>
    <time>2012-05-23T13:25:17Z</time>
   </trkpt>
   <trkpt lat="46.2157287597656" lon="7.3559684753418">
    <ele>619.700012207031</ele>
    <time>2012-05-23T13:25:18Z</time>
   </trkpt>
   <trkpt lat="46.2157211303711" lon="7.3559365272522">
    <ele>620.200012207031</ele>
    <time>2012-05-23T13:25:19Z</time>
   </trkpt>
   <trkpt lat="46.2157096862793" lon="7.3559045791626">
    <ele>620.700012207031</ele>
    <time>2012-05-23T13:25:20Z</time>
   </trkpt>
   <trkpt lat="46.2156982421875" lon="7.3558759689331">
    <ele>621.200012207031</ele>
    <time>2012-05-23T13:25:21Z</time>
   </trkpt>
   <trkpt lat="46.2156753540039" lon="7.35580539703369">
    <ele>621.200012207031</ele>
    <time>2012-05-23T13:25:23Z</time>
   </trkpt>
   <trkpt lat="46.2156372070312" lon="7.35561752319336">
    <ele>622.311096191406</ele>
    <time>2012-05-23T13:25:28Z</time>
   </trkpt>
   <trkpt lat="46.2156295776367" lon="7.35558366775513">
    <ele>622.533325195312</ele>
    <time>2012-05-23T13:25:29Z</time>
   </trkpt>
   <trkpt lat="46.2156257629394" lon="7.35554885864258">
    <ele>622.755554199219</ele>
    <time>2012-05-23T13:25:30Z</time>
   </trkpt>
   <trkpt lat="46.2156219482422" lon="7.35551118850708">
    <ele>622.977783203125</ele>
    <time>2012-05-23T13:25:31Z</time>
   </trkpt>
   <trkpt lat="46.2156181335449" lon="7.35547494888306">
    <ele>623.200012207031</ele>
    <time>2012-05-23T13:25:32Z</time>
   </trkpt>
   <trkpt lat="46.2155914306641" lon="7.35524988174438">
    <ele>623.200012207031</ele>
    <time>2012-05-23T13:25:38Z</time>
   </trkpt>
   <trkpt lat="46.215576171875" lon="7.3551459312439">
    <ele>624.142883300781</ele>
    <time>2012-05-23T13:25:41Z</time>
   </trkpt>
   <trkpt lat="46.2155647277832" lon="7.35511064529419">
    <ele>624.457153320312</ele>
    <time>2012-05-23T13:25:42Z</time>
   </trkpt>
   <trkpt lat="46.2155570983887" lon="7.35507440567017">
    <ele>624.771423339844</ele>
    <time>2012-05-23T13:25:43Z</time>
   </trkpt>
   <trkpt lat="46.2155532836914" lon="7.35503673553467">
    <ele>625.085754394531</ele>
    <time>2012-05-23T13:25:44Z</time>
   </trkpt>
   <trkpt lat="46.2155456542969" lon="7.35500240325928">
    <ele>625.400024414062</ele>
    <time>2012-05-23T13:25:45Z</time>
   </trkpt>
   <trkpt lat="46.2155265808106" lon="7.35493469238281">
    <ele>625.400024414062</ele>
    <time>2012-05-23T13:25:47Z</time>
   </trkpt>
   <trkpt lat="46.2155151367188" lon="7.35490465164185">
    <ele>625.800048828125</ele>
    <time>2012-05-23T13:25:48Z</time>
   </trkpt>
   <trkpt lat="46.215503692627" lon="7.35487127304077">
    <ele>626.200012207031</ele>
    <time>2012-05-23T13:25:49Z</time>
   </trkpt>
   <trkpt lat="46.2154922485352" lon="7.35483646392822">
    <ele>626.600036621094</ele>
    <time>2012-05-23T13:25:50Z</time>
   </trkpt>
   <trkpt lat="46.2154808044434" lon="7.35480403900146">
    <ele>627</ele>
    <time>2012-05-23T13:25:51Z</time>
   </trkpt>
   <trkpt lat="46.2154655456543" lon="7.35477018356323">
    <ele>627.400024414062</ele>
    <time>2012-05-23T13:25:52Z</time>
   </trkpt>
   <trkpt lat="46.2154350280762" lon="7.35470676422119">
    <ele>627.400024414062</ele>
    <time>2012-05-23T13:25:54Z</time>
   </trkpt>
   <trkpt lat="46.2153511047363" lon="7.35456895828247">
    <ele>628.511108398438</ele>
    <time>2012-05-23T13:25:59Z</time>
   </trkpt>
   <trkpt lat="46.2153282165527" lon="7.35453605651856">
    <ele>628.733337402344</ele>
    <time>2012-05-23T13:26:00Z</time>
   </trkpt>
   <trkpt lat="46.2153091430664" lon="7.35450792312622">
    <ele>628.95556640625</ele>
    <time>2012-05-23T13:26:01Z</time>
   </trkpt>
   <trkpt lat="46.2152862548828" lon="7.35447978973389">
    <ele>629.177795410156</ele>
    <time>2012-05-23T13:26:02Z</time>
   </trkpt>
   <trkpt lat="46.2152633666992" lon="7.3544511795044">
    <ele>629.400024414062</ele>
    <time>2012-05-23T13:26:03Z</time>
   </trkpt>
   <trkpt lat="46.2151679992676" lon="7.35429620742798">
    <ele>629.400024414062</ele>
    <time>2012-05-23T13:26:08Z</time>
   </trkpt>
   <trkpt lat="46.2151489257812" lon="7.35426759719849">
    <ele>629.950012207031</ele>
    <time>2012-05-23T13:26:09Z</time>
   </trkpt>
   <trkpt lat="46.2151260375977" lon="7.35423755645752">
    <ele>630.5</ele>
    <time>2012-05-23T13:26:10Z</time>
   </trkpt>
   <trkpt lat="46.2151107788086" lon="7.35421228408814">
    <ele>631.049987792969</ele>
    <time>2012-05-23T13:26:11Z</time>
   </trkpt>
   <trkpt lat="46.2150955200195" lon="7.35417985916138">
    <ele>631.599975585938</ele>
    <time>2012-05-23T13:26:12Z</time>
   </trkpt>
   <trkpt lat="46.2150421142578" lon="7.35409307479858">
    <ele>631.599975585938</ele>
    <time>2012-05-23T13:26:15Z</time>
   </trkpt>
   <trkpt lat="46.2149429321289" lon="7.35390186309814">
    <ele>633.066650390625</ele>
    <time>2012-05-23T13:26:21Z</time>
   </trkpt>
   <trkpt lat="46.2149276733398" lon="7.35386991500854">
    <ele>633.311096191406</ele>
    <time>2012-05-23T13:26:22Z</time>
   </trkpt>
   <trkpt lat="46.2149085998535" lon="7.35383939743042">
    <ele>633.555541992188</ele>
    <time>2012-05-23T13:26:23Z</time>
   </trkpt>
   <trkpt lat="46.2148933410644" lon="7.35380506515503">
    <ele>633.799987792969</ele>
    <time>2012-05-23T13:26:24Z</time>
   </trkpt>
   <trkpt lat="46.2148818969727" lon="7.35377073287964">
    <ele>634.04443359375</ele>
    <time>2012-05-23T13:26:25Z</time>
   </trkpt>
   <trkpt lat="46.2148208618164" lon="7.35363531112671">
    <ele>635.022216796875</ele>
    <time>2012-05-23T13:26:29Z</time>
   </trkpt>
   <trkpt lat="46.2148056030273" lon="7.35359954833984">
    <ele>635.266662597656</ele>
    <time>2012-05-23T13:26:30Z</time>
   </trkpt>
   <trkpt lat="46.2147903442383" lon="7.35356903076172">
    <ele>635.511108398438</ele>
    <time>2012-05-23T13:26:31Z</time>
   </trkpt>
   <trkpt lat="46.2147789001465" lon="7.35353755950928">
    <ele>635.755554199219</ele>
    <time>2012-05-23T13:26:32Z</time>
   </trkpt>
   <trkpt lat="46.2147674560547" lon="7.35350656509399">
    <ele>636</ele>
    <time>2012-05-23T13:26:33Z</time>
   </trkpt>
   <trkpt lat="46.2147102355957" lon="7.3533730506897">
    <ele>636</ele>
    <time>2012-05-23T13:26:37Z</time>
   </trkpt>
   <trkpt lat="46.2146530151367" lon="7.35323762893677">
    <ele>637</ele>
    <time>2012-05-23T13:26:41Z</time>
   </trkpt>
   <trkpt lat="46.2146377563477" lon="7.35320663452148">
    <ele>637.25</ele>
    <time>2012-05-23T13:26:42Z</time>
   </trkpt>
   <trkpt lat="46.2146263122559" lon="7.35317420959473">
    <ele>637.5</ele>
    <time>2012-05-23T13:26:43Z</time>
   </trkpt>
   <trkpt lat="46.2146110534668" lon="7.35314178466797">
    <ele>637.75</ele>
    <time>2012-05-23T13:26:44Z</time>
   </trkpt>
   <trkpt lat="46.2145957946777" lon="7.353111743927">
    <ele>638</ele>
    <time>2012-05-23T13:26:45Z</time>
   </trkpt>
   <trkpt lat="46.2145805358887" lon="7.35308218002319">
    <ele>638</ele>
    <time>2012-05-23T13:26:46Z</time>
   </trkpt>
   <trkpt lat="46.2145080566406" lon="7.35293006896973">
    <ele>639.3125</ele>
    <time>2012-05-23T13:26:51Z</time>
   </trkpt>
   <trkpt lat="46.2144927978516" lon="7.35289669036865">
    <ele>639.575012207031</ele>
    <time>2012-05-23T13:26:52Z</time>
   </trkpt>
   <trkpt lat="46.2144737243652" lon="7.35286569595337">
    <ele>639.837524414062</ele>
    <time>2012-05-23T13:26:53Z</time>
   </trkpt>
   <trkpt lat="46.2144622802734" lon="7.35283613204956">
    <ele>640.099975585938</ele>
    <time>2012-05-23T13:26:54Z</time>
   </trkpt>
   <trkpt lat="46.2144508361816" lon="7.35280418395996">
    <ele>640.362487792969</ele>
    <time>2012-05-23T13:26:55Z</time>
   </trkpt>
   <trkpt lat="46.2143936157227" lon="7.3526873588562">
    <ele>641.412536621094</ele>
    <time>2012-05-23T13:26:59Z</time>
   </trkpt>
   <trkpt lat="46.2143783569336" lon="7.35265779495239">
    <ele>641.674987792969</ele>
    <time>2012-05-23T13:27:00Z</time>
   </trkpt>
   <trkpt lat="46.2143592834473" lon="7.35263061523438">
    <ele>641.9375</ele>
    <time>2012-05-23T13:27:01Z</time>
   </trkpt>
   <trkpt lat="46.2143478393555" lon="7.35259866714478">
    <ele>642.200012207031</ele>
    <time>2012-05-23T13:27:02Z</time>
   </trkpt>
   <trkpt lat="46.2142601013184" lon="7.35246229171753">
    <ele>642.200012207031</ele>
    <time>2012-05-23T13:27:07Z</time>
   </trkpt>
   <trkpt lat="46.214225769043" lon="7.35240411758423">
    <ele>642.933349609375</ele>
    <time>2012-05-23T13:27:09Z</time>
   </trkpt>
   <trkpt lat="46.2142066955566" lon="7.35237836837768">
    <ele>643.300048828125</ele>
    <time>2012-05-23T13:27:10Z</time>
   </trkpt>
   <trkpt lat="46.2141914367676" lon="7.35234594345093">
    <ele>643.666687011719</ele>
    <time>2012-05-23T13:27:11Z</time>
   </trkpt>
   <trkpt lat="46.214168548584" lon="7.3523211479187">
    <ele>644.033325195312</ele>
    <time>2012-05-23T13:27:12Z</time>
   </trkpt>
   <trkpt lat="46.2141494750977" lon="7.35229301452637">
    <ele>644.400024414062</ele>
    <time>2012-05-23T13:27:13Z</time>
   </trkpt>
   <trkpt lat="46.2141342163086" lon="7.35226345062256">
    <ele>644.400024414062</ele>
    <time>2012-05-23T13:27:14Z</time>
   </trkpt>
   <trkpt lat="46.2140159606934" lon="7.35210084915161">
    <ele>645.600036621094</ele>
    <time>2012-05-23T13:27:20Z</time>
   </trkpt>
   <trkpt lat="46.213996887207" lon="7.3520712852478">
    <ele>645.800048828125</ele>
    <time>2012-05-23T13:27:21Z</time>
   </trkpt>
   <trkpt lat="46.2139739990234" lon="7.35203981399536">
    <ele>646</ele>
    <time>2012-05-23T13:27:22Z</time>
   </trkpt>
   <trkpt lat="46.2139549255371" lon="7.35200691223144">
    <ele>646.200012207031</ele>
    <time>2012-05-23T13:27:23Z</time>
   </trkpt>
   <trkpt lat="46.2139358520508" lon="7.35197925567627">
    <ele>646.400024414062</ele>
    <time>2012-05-23T13:27:24Z</time>
   </trkpt>
   <trkpt lat="46.2138442993164" lon="7.35184001922607">
    <ele>646.400024414062</ele>
    <time>2012-05-23T13:27:29Z</time>
   </trkpt>
   <trkpt lat="46.2137832641602" lon="7.35175514221191">
    <ele>647.342834472656</ele>
    <time>2012-05-23T13:27:32Z</time>
   </trkpt>
   <trkpt lat="46.2137603759766" lon="7.35172510147095">
    <ele>647.657165527344</ele>
    <time>2012-05-23T13:27:33Z</time>
   </trkpt>
   <trkpt lat="46.2137413024902" lon="7.35169553756714">
    <ele>647.971435546875</ele>
    <time>2012-05-23T13:27:34Z</time>
   </trkpt>
   <trkpt lat="46.2137260437012" lon="7.35166263580322">
    <ele>648.285705566406</ele>
    <time>2012-05-23T13:27:35Z</time>
   </trkpt>
   <trkpt lat="46.2137069702148" lon="7.3516354560852">
    <ele>648.599975585938</ele>
    <time>2012-05-23T13:27:36Z</time>
   </trkpt>
   <trkpt lat="46.2136878967285" lon="7.35160970687866">
    <ele>648.599975585938</ele>
    <time>2012-05-23T13:27:37Z</time>
   </trkpt>
   <trkpt lat="46.2135314941406" lon="7.35137510299683">
    <ele>650.066650390625</ele>
    <time>2012-05-23T13:27:45Z</time>
   </trkpt>
   <trkpt lat="46.2135124206543" lon="7.35134410858154">
    <ele>650.25</ele>
    <time>2012-05-23T13:27:46Z</time>
   </trkpt>
   <trkpt lat="46.2134895324707" lon="7.35131597518921">
    <ele>650.433349609375</ele>
    <time>2012-05-23T13:27:47Z</time>
   </trkpt>
   <trkpt lat="46.2134704589844" lon="7.35128974914551">
    <ele>650.616638183594</ele>
    <time>2012-05-23T13:27:48Z</time>
   </trkpt>
   <trkpt lat="46.2134475708008" lon="7.35125923156738">
    <ele>650.799987792969</ele>
    <time>2012-05-23T13:27:49Z</time>
   </trkpt>
   <trkpt lat="46.2133293151856" lon="7.35107564926148">
    <ele>650.799987792969</ele>
    <time>2012-05-23T13:27:55Z</time>
   </trkpt>
   <trkpt lat="46.2132720947266" lon="7.35097551345825">
    <ele>651.657104492188</ele>
    <time>2012-05-23T13:27:58Z</time>
   </trkpt>
   <trkpt lat="46.2132530212402" lon="7.35094356536865">
    <ele>651.94287109375</ele>
    <time>2012-05-23T13:27:59Z</time>
   </trkpt>
   <trkpt lat="46.2132339477539" lon="7.35090827941894">
    <ele>652.228576660156</ele>
    <time>2012-05-23T13:28:00Z</time>
   </trkpt>
   <trkpt lat="46.2132148742676" lon="7.3508710861206">
    <ele>652.514282226562</ele>
    <time>2012-05-23T13:28:01Z</time>
   </trkpt>
   <trkpt lat="46.2131958007812" lon="7.35083389282226">
    <ele>652.799987792969</ele>
    <time>2012-05-23T13:28:02Z</time>
   </trkpt>
   <trkpt lat="46.2131843566894" lon="7.35079669952393">
    <ele>652.799987792969</ele>
    <time>2012-05-23T13:28:03Z</time>
   </trkpt>
   <trkpt lat="46.2130889892578" lon="7.35056495666504">
    <ele>654.13330078125</ele>
    <time>2012-05-23T13:28:09Z</time>
   </trkpt>
   <trkpt lat="46.2130699157715" lon="7.35052442550659">
    <ele>654.355529785156</ele>
    <time>2012-05-23T13:28:10Z</time>
   </trkpt>
   <trkpt lat="46.2130546569824" lon="7.35048675537109">
    <ele>654.577758789062</ele>
    <time>2012-05-23T13:28:11Z</time>
   </trkpt>
   <trkpt lat="46.2130393981934" lon="7.3504490852356">
    <ele>654.799987792969</ele>
    <time>2012-05-23T13:28:12Z</time>
   </trkpt>
   <trkpt lat="46.2130279541016" lon="7.35040855407715">
    <ele>654.799987792969</ele>
    <time>2012-05-23T13:28:13Z</time>
   </trkpt>
   <trkpt lat="46.2128982543945" lon="7.35003900527954">
    <ele>656.323059082031</ele>
    <time>2012-05-23T13:28:22Z</time>
   </trkpt>
   <trkpt lat="46.2128829956055" lon="7.35000276565552">
    <ele>656.492309570312</ele>
    <time>2012-05-23T13:28:23Z</time>
   </trkpt>
   <trkpt lat="46.2128715515137" lon="7.34996700286865">
    <ele>656.661560058594</ele>
    <time>2012-05-23T13:28:24Z</time>
   </trkpt>
   <trkpt lat="46.2128562927246" lon="7.34992551803589">
    <ele>656.830749511719</ele>
    <time>2012-05-23T13:28:25Z</time>
   </trkpt>
   <trkpt lat="46.2128410339356" lon="7.34988451004028">
    <ele>657</ele>
    <time>2012-05-23T13:28:26Z</time>
   </trkpt>
   <trkpt lat="46.2128257751465" lon="7.34984731674194">
    <ele>657</ele>
    <time>2012-05-23T13:28:27Z</time>
   </trkpt>
   <trkpt lat="46.2128105163574" lon="7.34980821609497">
    <ele>657.244445800781</ele>
    <time>2012-05-23T13:28:28Z</time>
   </trkpt>
   <trkpt lat="46.2127990722656" lon="7.34977102279663">
    <ele>657.488891601562</ele>
    <time>2012-05-23T13:28:29Z</time>
   </trkpt>
   <trkpt lat="46.2127532958984" lon="7.34966039657593">
    <ele>658.222229003906</ele>
    <time>2012-05-23T13:28:32Z</time>
   </trkpt>
   <trkpt lat="46.2127380371094" lon="7.34962558746338">
    <ele>658.466674804688</ele>
    <time>2012-05-23T13:28:33Z</time>
   </trkpt>
   <trkpt lat="46.2127227783203" lon="7.34959030151367">
    <ele>658.711120605469</ele>
    <time>2012-05-23T13:28:34Z</time>
   </trkpt>
   <trkpt lat="46.212703704834" lon="7.3495569229126">
    <ele>658.95556640625</ele>
    <time>2012-05-23T13:28:35Z</time>
   </trkpt>
   <trkpt lat="46.2126846313477" lon="7.34952259063721">
    <ele>659.200012207031</ele>
    <time>2012-05-23T13:28:36Z</time>
   </trkpt>
   <trkpt lat="46.2126235961914" lon="7.34940814971924">
    <ele>659.200012207031</ele>
    <time>2012-05-23T13:28:39Z</time>
   </trkpt>
   <trkpt lat="46.2125816345215" lon="7.34932947158814">
    <ele>659.566650390625</ele>
    <time>2012-05-23T13:28:41Z</time>
   </trkpt>
   <trkpt lat="46.2124671936035" lon="7.34911584854126">
    <ele>660.666687011719</ele>
    <time>2012-05-23T13:28:47Z</time>
   </trkpt>
   <trkpt lat="46.2124443054199" lon="7.3490800857544">
    <ele>660.850036621094</ele>
    <time>2012-05-23T13:28:48Z</time>
   </trkpt>
   <trkpt lat="46.2124290466309" lon="7.34904289245606">
    <ele>661.033325195312</ele>
    <time>2012-05-23T13:28:49Z</time>
   </trkpt>
   <trkpt lat="46.2124099731445" lon="7.34900236129761">
    <ele>661.216674804688</ele>
    <time>2012-05-23T13:28:50Z</time>
   </trkpt>
   <trkpt lat="46.2123870849609" lon="7.34896373748779">
    <ele>661.400024414062</ele>
    <time>2012-05-23T13:28:51Z</time>
   </trkpt>
   <trkpt lat="46.212287902832" lon="7.34877252578735">
    <ele>661.400024414062</ele>
    <time>2012-05-23T13:28:56Z</time>
   </trkpt>
   <trkpt lat="46.2121047973633" lon="7.34843349456787">
    <ele>662.719970703125</ele>
    <time>2012-05-23T13:29:05Z</time>
   </trkpt>
   <trkpt lat="46.2120628356934" lon="7.34835147857666">
    <ele>663.013305664062</ele>
    <time>2012-05-23T13:29:07Z</time>
   </trkpt>
   <trkpt lat="46.212043762207" lon="7.34830951690674">
    <ele>663.159973144531</ele>
    <time>2012-05-23T13:29:08Z</time>
   </trkpt>
   <trkpt lat="46.2120208740234" lon="7.34826374053955">
    <ele>663.306640625</ele>
    <time>2012-05-23T13:29:09Z</time>
   </trkpt>
   <trkpt lat="46.2120018005371" lon="7.34821557998657">
    <ele>663.453308105469</ele>
    <time>2012-05-23T13:29:10Z</time>
   </trkpt>
   <trkpt lat="46.2119789123535" lon="7.34817028045654">
    <ele>663.599975585938</ele>
    <time>2012-05-23T13:29:11Z</time>
   </trkpt>
   <trkpt lat="46.2119140625" lon="7.34803628921509">
    <ele>663.599975585938</ele>
    <time>2012-05-23T13:29:14Z</time>
   </trkpt>
   <trkpt lat="46.2117614746094" lon="7.34766387939453">
    <ele>664.933288574219</ele>
    <time>2012-05-23T13:29:22Z</time>
   </trkpt>
   <trkpt lat="46.211742401123" lon="7.3476152420044">
    <ele>665.099975585938</ele>
    <time>2012-05-23T13:29:23Z</time>
   </trkpt>
   <trkpt lat="46.211727142334" lon="7.34756517410278">
    <ele>665.266662597656</ele>
    <time>2012-05-23T13:29:24Z</time>
   </trkpt>
   <trkpt lat="46.2117080688477" lon="7.34751749038696">
    <ele>665.433288574219</ele>
    <time>2012-05-23T13:29:25Z</time>
   </trkpt>
   <trkpt lat="46.2116928100586" lon="7.34747219085693">
    <ele>665.599975585938</ele>
    <time>2012-05-23T13:29:26Z</time>
   </trkpt>
   <trkpt lat="46.2116088867188" lon="7.34722852706909">
    <ele>665.599975585938</ele>
    <time>2012-05-23T13:29:31Z</time>
   </trkpt>
   <trkpt lat="46.2114791870117" lon="7.34683179855347">
    <ele>666.541137695312</ele>
    <time>2012-05-23T13:29:39Z</time>
   </trkpt>
   <trkpt lat="46.2113914489746" lon="7.34658002853394">
    <ele>667.12939453125</ele>
    <time>2012-05-23T13:29:44Z</time>
   </trkpt>
   <trkpt lat="46.2113761901856" lon="7.34652900695801">
    <ele>667.247009277344</ele>
    <time>2012-05-23T13:29:45Z</time>
   </trkpt>
   <trkpt lat="46.2113609313965" lon="7.34647941589356">
    <ele>667.364685058594</ele>
    <time>2012-05-23T13:29:46Z</time>
   </trkpt>
   <trkpt lat="46.2113456726074" lon="7.34642887115478">
    <ele>667.482299804688</ele>
    <time>2012-05-23T13:29:47Z</time>
   </trkpt>
   <trkpt lat="46.2113304138184" lon="7.34637832641602">
    <ele>667.599975585938</ele>
    <time>2012-05-23T13:29:48Z</time>
   </trkpt>
   <trkpt lat="46.211311340332" lon="7.34632396697998">
    <ele>667.599975585938</ele>
    <time>2012-05-23T13:29:49Z</time>
   </trkpt>
   <trkpt lat="46.2111511230469" lon="7.34588193893433">
    <ele>668.599975585938</ele>
    <time>2012-05-23T13:29:58Z</time>
   </trkpt>
   <trkpt lat="46.2110481262207" lon="7.34565019607544">
    <ele>669.155517578125</ele>
    <time>2012-05-23T13:30:03Z</time>
   </trkpt>
   <trkpt lat="46.2110214233398" lon="7.34560346603394">
    <ele>669.266662597656</ele>
    <time>2012-05-23T13:30:04Z</time>
   </trkpt>
   <trkpt lat="46.2109985351562" lon="7.34555292129517">
    <ele>669.377746582031</ele>
    <time>2012-05-23T13:30:05Z</time>
   </trkpt>
   <trkpt lat="46.2109794616699" lon="7.34550952911377">
    <ele>669.488891601562</ele>
    <time>2012-05-23T13:30:06Z</time>
   </trkpt>
   <trkpt lat="46.2109527587891" lon="7.34546804428101">
    <ele>669.599975585938</ele>
    <time>2012-05-23T13:30:07Z</time>
   </trkpt>
   <trkpt lat="46.2108039855957" lon="7.3452091217041">
    <ele>669.599975585938</ele>
    <time>2012-05-23T13:30:13Z</time>
   </trkpt>
   <trkpt lat="46.2107810974121" lon="7.34516668319702">
    <ele>670.199951171875</ele>
    <time>2012-05-23T13:30:14Z</time>
   </trkpt>
   <trkpt lat="46.2107543945312" lon="7.34512233734131">
    <ele>670.799987792969</ele>
    <time>2012-05-23T13:30:15Z</time>
   </trkpt>
   <trkpt lat="46.2107276916504" lon="7.34507894515991">
    <ele>671.400024414062</ele>
    <time>2012-05-23T13:30:16Z</time>
   </trkpt>
   <trkpt lat="46.2107009887695" lon="7.34503507614136">
    <ele>672</ele>
    <time>2012-05-23T13:30:17Z</time>
   </trkpt>
   <trkpt lat="46.2105293273926" lon="7.3447380065918">
    <ele>672</ele>
    <time>2012-05-23T13:30:24Z</time>
   </trkpt>
   <trkpt lat="46.2103729248047" lon="7.34446334838867">
    <ele>673.283325195312</ele>
    <time>2012-05-23T13:30:31Z</time>
   </trkpt>
   <trkpt lat="46.2103500366211" lon="7.34442853927612">
    <ele>673.466674804688</ele>
    <time>2012-05-23T13:30:32Z</time>
   </trkpt>
   <trkpt lat="46.2103309631348" lon="7.34439563751221">
    <ele>673.650024414062</ele>
    <time>2012-05-23T13:30:33Z</time>
   </trkpt>
   <trkpt lat="46.2103118896484" lon="7.3443603515625">
    <ele>673.833374023438</ele>
    <time>2012-05-23T13:30:34Z</time>
   </trkpt>
   <trkpt lat="46.2102890014648" lon="7.34432554244995">
    <ele>674.016662597656</ele>
    <time>2012-05-23T13:30:35Z</time>
   </trkpt>
   <trkpt lat="46.2102699279785" lon="7.34428787231445">
    <ele>674.200012207031</ele>
    <time>2012-05-23T13:30:36Z</time>
   </trkpt>
   <trkpt lat="46.2102088928223" lon="7.34418678283691">
    <ele>674.200012207031</ele>
    <time>2012-05-23T13:30:39Z</time>
   </trkpt>
   <trkpt lat="46.2101020812988" lon="7.34397268295288">
    <ele>675.400024414062</ele>
    <time>2012-05-23T13:30:45Z</time>
   </trkpt>
   <trkpt lat="46.210075378418" lon="7.34392642974854">
    <ele>675.600036621094</ele>
    <time>2012-05-23T13:30:46Z</time>
   </trkpt>
   <trkpt lat="46.2100563049316" lon="7.34388732910156">
    <ele>675.800048828125</ele>
    <time>2012-05-23T13:30:47Z</time>
   </trkpt>
   <trkpt lat="46.2100410461426" lon="7.34384918212891">
    <ele>676</ele>
    <time>2012-05-23T13:30:48Z</time>
   </trkpt>
   <trkpt lat="46.2100219726562" lon="7.34380912780762">
    <ele>676.200012207031</ele>
    <time>2012-05-23T13:30:49Z</time>
   </trkpt>
   <trkpt lat="46.2099990844727" lon="7.34377098083496">
    <ele>676.400024414062</ele>
    <time>2012-05-23T13:30:50Z</time>
   </trkpt>
   <trkpt lat="46.2099189758301" lon="7.34357500076294">
    <ele>676.400024414062</ele>
    <time>2012-05-23T13:30:55Z</time>
   </trkpt>
   <trkpt lat="46.209903717041" lon="7.34353685379028">
    <ele>676.840026855469</ele>
    <time>2012-05-23T13:30:56Z</time>
   </trkpt>
   <trkpt lat="46.2098808288574" lon="7.34349679946899">
    <ele>677.280029296875</ele>
    <time>2012-05-23T13:30:57Z</time>
   </trkpt>
   <trkpt lat="46.2098617553711" lon="7.34345722198486">
    <ele>677.719970703125</ele>
    <time>2012-05-23T13:30:58Z</time>
   </trkpt>
   <trkpt lat="46.209846496582" lon="7.3434100151062">
    <ele>678.159973144531</ele>
    <time>2012-05-23T13:30:59Z</time>
   </trkpt>
   <trkpt lat="46.2098236083984" lon="7.34336566925049">
    <ele>678.599975585938</ele>
    <time>2012-05-23T13:31:00Z</time>
   </trkpt>
   <trkpt lat="46.2097663879394" lon="7.34324645996094">
    <ele>678.599975585938</ele>
    <time>2012-05-23T13:31:03Z</time>
   </trkpt>
   <trkpt lat="46.2096900939941" lon="7.3431134223938">
    <ele>679</ele>
    <time>2012-05-23T13:31:06Z</time>
   </trkpt>
   <trkpt lat="46.209644317627" lon="7.3430233001709">
    <ele>679.266662597656</ele>
    <time>2012-05-23T13:31:08Z</time>
   </trkpt>
   <trkpt lat="46.2094688415527" lon="7.34281492233276">
    <ele>680.066650390625</ele>
    <time>2012-05-23T13:31:14Z</time>
   </trkpt>
   <trkpt lat="46.2094306945801" lon="7.34281539916992">
    <ele>680.199951171875</ele>
    <time>2012-05-23T13:31:15Z</time>
   </trkpt>
   <trkpt lat="46.2093963623047" lon="7.34283494949341">
    <ele>680.333312988281</ele>
    <time>2012-05-23T13:31:16Z</time>
   </trkpt>
   <trkpt lat="46.2093696594238" lon="7.34287214279175">
    <ele>680.466613769531</ele>
    <time>2012-05-23T13:31:17Z</time>
   </trkpt>
   <trkpt lat="46.2093544006348" lon="7.34292030334473">
    <ele>680.599975585938</ele>
    <time>2012-05-23T13:31:18Z</time>
   </trkpt>
   <trkpt lat="46.209342956543" lon="7.34313440322876">
    <ele>680.599975585938</ele>
    <time>2012-05-23T13:31:22Z</time>
   </trkpt>
   <trkpt lat="46.2093963623047" lon="7.34326696395874">
    <ele>681.149963378906</ele>
    <time>2012-05-23T13:31:25Z</time>
   </trkpt>
   <trkpt lat="46.209415435791" lon="7.34330987930298">
    <ele>681.333312988281</ele>
    <time>2012-05-23T13:31:26Z</time>
   </trkpt>
   <trkpt lat="46.2094917297363" lon="7.34348106384277">
    <ele>682.066650390625</ele>
    <time>2012-05-23T13:31:30Z</time>
   </trkpt>
   <trkpt lat="46.2095108032227" lon="7.34352111816406">
    <ele>682.25</ele>
    <time>2012-05-23T13:31:31Z</time>
   </trkpt>
   <trkpt lat="46.2095260620117" lon="7.34355926513672">
    <ele>682.433349609375</ele>
    <time>2012-05-23T13:31:32Z</time>
   </trkpt>
   <trkpt lat="46.2095413208008" lon="7.34359931945801">
    <ele>682.616638183594</ele>
    <time>2012-05-23T13:31:33Z</time>
   </trkpt>
   <trkpt lat="46.2095527648926" lon="7.34364652633667">
    <ele>682.799987792969</ele>
    <time>2012-05-23T13:31:34Z</time>
   </trkpt>
   <trkpt lat="46.2096481323242" lon="7.34389305114746">
    <ele>682.799987792969</ele>
    <time>2012-05-23T13:31:40Z</time>
   </trkpt>
   <trkpt lat="46.2096786499023" lon="7.34396409988403">
    <ele>683.418151855469</ele>
    <time>2012-05-23T13:31:42Z</time>
   </trkpt>
   <trkpt lat="46.2096939086914" lon="7.34400367736816">
    <ele>683.727233886719</ele>
    <time>2012-05-23T13:31:43Z</time>
   </trkpt>
   <trkpt lat="46.2096977233887" lon="7.34404230117798">
    <ele>684.036376953125</ele>
    <time>2012-05-23T13:31:44Z</time>
   </trkpt>
   <trkpt lat="46.2097053527832" lon="7.34408807754517">
    <ele>684.345458984375</ele>
    <time>2012-05-23T13:31:45Z</time>
   </trkpt>
   <trkpt lat="46.2097244262695" lon="7.34412479400635">
    <ele>684.654541015625</ele>
    <time>2012-05-23T13:31:46Z</time>
   </trkpt>
   <trkpt lat="46.2097854614258" lon="7.34429264068604">
    <ele>685.890869140625</ele>
    <time>2012-05-23T13:31:50Z</time>
   </trkpt>
   <trkpt lat="46.2098007202148" lon="7.34433555603027">
    <ele>686.199951171875</ele>
    <time>2012-05-23T13:31:51Z</time>
   </trkpt>
   <trkpt lat="46.2098121643066" lon="7.34437561035156">
    <ele>686.509094238281</ele>
    <time>2012-05-23T13:31:52Z</time>
   </trkpt>
   <trkpt lat="46.2098236083984" lon="7.3444185256958">
    <ele>686.818176269531</ele>
    <time>2012-05-23T13:31:53Z</time>
   </trkpt>
   <trkpt lat="46.209831237793" lon="7.34446477890015">
    <ele>687.127258300781</ele>
    <time>2012-05-23T13:31:54Z</time>
   </trkpt>
   <trkpt lat="46.2098808288574" lon="7.34462594985962">
    <ele>688.363586425781</ele>
    <time>2012-05-23T13:31:58Z</time>
   </trkpt>
   <trkpt lat="46.209888458252" lon="7.34467029571533">
    <ele>688.672729492188</ele>
    <time>2012-05-23T13:31:59Z</time>
   </trkpt>
   <trkpt lat="46.209888458252" lon="7.34470987319946">
    <ele>688.981811523438</ele>
    <time>2012-05-23T13:32:00Z</time>
   </trkpt>
   <trkpt lat="46.2098999023438" lon="7.34475612640381">
    <ele>689.290893554688</ele>
    <time>2012-05-23T13:32:01Z</time>
   </trkpt>
   <trkpt lat="46.2099075317383" lon="7.34479665756226">
    <ele>689.599975585938</ele>
    <time>2012-05-23T13:32:02Z</time>
   </trkpt>
   <trkpt lat="46.2099189758301" lon="7.34487438201904">
    <ele>689.599975585938</ele>
    <time>2012-05-23T13:32:04Z</time>
   </trkpt>
   <trkpt lat="46.2099266052246" lon="7.34496212005615">
    <ele>690.173889160156</ele>
    <time>2012-05-23T13:32:06Z</time>
   </trkpt>
   <trkpt lat="46.2099266052246" lon="7.34501934051514">
    <ele>690.460876464844</ele>
    <time>2012-05-23T13:32:07Z</time>
   </trkpt>
   <trkpt lat="46.2099304199219" lon="7.3450608253479">
    <ele>690.747802734375</ele>
    <time>2012-05-23T13:32:08Z</time>
   </trkpt>
   <trkpt lat="46.2099342346191" lon="7.3451042175293">
    <ele>691.034790039062</ele>
    <time>2012-05-23T13:32:09Z</time>
   </trkpt>
   <trkpt lat="46.2099342346191" lon="7.34514617919922">
    <ele>691.321716308594</ele>
    <time>2012-05-23T13:32:10Z</time>
   </trkpt>
   <trkpt lat="46.2099456787109" lon="7.34539270401001">
    <ele>693.04345703125</ele>
    <time>2012-05-23T13:32:16Z</time>
   </trkpt>
   <trkpt lat="46.2099456787109" lon="7.34542942047119">
    <ele>693.330444335938</ele>
    <time>2012-05-23T13:32:17Z</time>
   </trkpt>
   <trkpt lat="46.2099456787109" lon="7.34546899795532">
    <ele>693.617370605469</ele>
    <time>2012-05-23T13:32:18Z</time>
   </trkpt>
   <trkpt lat="46.2099494934082" lon="7.34550666809082">
    <ele>693.904357910156</ele>
    <time>2012-05-23T13:32:19Z</time>
   </trkpt>
   <trkpt lat="46.2099571228027" lon="7.34566259384155">
    <ele>695.052185058594</ele>
    <time>2012-05-23T13:32:23Z</time>
   </trkpt>
   <trkpt lat="46.2099609375" lon="7.34569835662842">
    <ele>695.339111328125</ele>
    <time>2012-05-23T13:32:24Z</time>
   </trkpt>
   <trkpt lat="46.2099685668945" lon="7.3457293510437">
    <ele>695.626098632812</ele>
    <time>2012-05-23T13:32:25Z</time>
   </trkpt>
   <trkpt lat="46.2099685668945" lon="7.34576511383057">
    <ele>695.913024902344</ele>
    <time>2012-05-23T13:32:26Z</time>
   </trkpt>
   <trkpt lat="46.2099685668945" lon="7.34580326080322">
    <ele>696.200012207031</ele>
    <time>2012-05-23T13:32:27Z</time>
   </trkpt>
   <trkpt lat="46.2099838256836" lon="7.34595346450806">
    <ele>696.200012207031</ele>
    <time>2012-05-23T13:32:31Z</time>
   </trkpt>
   <trkpt lat="46.2099990844727" lon="7.34602403640747">
    <ele>696.933349609375</ele>
    <time>2012-05-23T13:32:33Z</time>
   </trkpt>
   <trkpt lat="46.2099990844727" lon="7.34605932235718">
    <ele>697.300048828125</ele>
    <time>2012-05-23T13:32:34Z</time>
   </trkpt>
   <trkpt lat="46.2100067138672" lon="7.34609365463257">
    <ele>697.666687011719</ele>
    <time>2012-05-23T13:32:35Z</time>
   </trkpt>
   <trkpt lat="46.2100105285644" lon="7.34612941741943">
    <ele>698.033325195312</ele>
    <time>2012-05-23T13:32:36Z</time>
   </trkpt>
   <trkpt lat="46.210018157959" lon="7.34616565704346">
    <ele>698.400024414062</ele>
    <time>2012-05-23T13:32:37Z</time>
   </trkpt>
   <trkpt lat="46.2100257873535" lon="7.34620094299316">
    <ele>698.400024414062</ele>
    <time>2012-05-23T13:32:38Z</time>
   </trkpt>
   <trkpt lat="46.2100791931152" lon="7.34638500213623">
    <ele>699.775024414062</ele>
    <time>2012-05-23T13:32:43Z</time>
   </trkpt>
   <trkpt lat="46.2100944519043" lon="7.34643268585205">
    <ele>700.049987792969</ele>
    <time>2012-05-23T13:32:44Z</time>
   </trkpt>
   <trkpt lat="46.2101020812988" lon="7.34646511077881">
    <ele>700.324951171875</ele>
    <time>2012-05-23T13:32:45Z</time>
   </trkpt>
   <trkpt lat="46.2101097106934" lon="7.3464994430542">
    <ele>700.599975585938</ele>
    <time>2012-05-23T13:32:46Z</time>
   </trkpt>
   <trkpt lat="46.210147857666" lon="7.3465986251831">
    <ele>700.599975585938</ele>
    <time>2012-05-23T13:32:49Z</time>
   </trkpt>
   <trkpt lat="46.2101860046387" lon="7.34669876098633">
    <ele>701.542846679688</ele>
    <time>2012-05-23T13:32:52Z</time>
   </trkpt>
   <trkpt lat="46.2102012634277" lon="7.3467321395874">
    <ele>701.857116699219</ele>
    <time>2012-05-23T13:32:53Z</time>
   </trkpt>
   <trkpt lat="46.2102165222168" lon="7.34676599502564">
    <ele>702.17138671875</ele>
    <time>2012-05-23T13:32:54Z</time>
   </trkpt>
   <trkpt lat="46.2102279663086" lon="7.34679841995239">
    <ele>702.485717773438</ele>
    <time>2012-05-23T13:32:55Z</time>
   </trkpt>
   <trkpt lat="46.2102394104004" lon="7.34683179855347">
    <ele>702.799987792969</ele>
    <time>2012-05-23T13:32:56Z</time>
   </trkpt>
   <trkpt lat="46.2102661132812" lon="7.3468976020813">
    <ele>702.799987792969</ele>
    <time>2012-05-23T13:32:58Z</time>
   </trkpt>
   <trkpt lat="46.2102966308594" lon="7.34700155258179">
    <ele>703.657104492188</ele>
    <time>2012-05-23T13:33:01Z</time>
   </trkpt>
   <trkpt lat="46.2103080749512" lon="7.34703540802002">
    <ele>703.94287109375</ele>
    <time>2012-05-23T13:33:02Z</time>
   </trkpt>
   <trkpt lat="46.2103157043457" lon="7.34707069396973">
    <ele>704.228576660156</ele>
    <time>2012-05-23T13:33:03Z</time>
   </trkpt>
   <trkpt lat="46.210319519043" lon="7.34710502624512">
    <ele>704.514282226562</ele>
    <time>2012-05-23T13:33:04Z</time>
   </trkpt>
   <trkpt lat="46.2103271484375" lon="7.34713983535767">
    <ele>704.799987792969</ele>
    <time>2012-05-23T13:33:05Z</time>
   </trkpt>
   <trkpt lat="46.2103424072266" lon="7.3472089767456">
    <ele>704.799987792969</ele>
    <time>2012-05-23T13:33:07Z</time>
   </trkpt>
   <trkpt lat="46.2103538513184" lon="7.3473539352417">
    <ele>705.748168945312</ele>
    <time>2012-05-23T13:33:11Z</time>
   </trkpt>
   <trkpt lat="46.2103576660156" lon="7.34738969802856">
    <ele>705.985168457031</ele>
    <time>2012-05-23T13:33:12Z</time>
   </trkpt>
   <trkpt lat="46.2103538513184" lon="7.34742403030396">
    <ele>706.222229003906</ele>
    <time>2012-05-23T13:33:13Z</time>
   </trkpt>
   <trkpt lat="46.2103538513184" lon="7.34745836257935">
    <ele>706.459228515625</ele>
    <time>2012-05-23T13:33:14Z</time>
   </trkpt>
   <trkpt lat="46.2103576660156" lon="7.347496509552">
    <ele>706.6962890625</ele>
    <time>2012-05-23T13:33:15Z</time>
   </trkpt>
   <trkpt lat="46.2103652954102" lon="7.34767580032349">
    <ele>707.881469726562</ele>
    <time>2012-05-23T13:33:20Z</time>
   </trkpt>
   <trkpt lat="46.2103691101074" lon="7.34771203994751">
    <ele>708.118530273438</ele>
    <time>2012-05-23T13:33:21Z</time>
   </trkpt>
   <trkpt lat="46.2103691101074" lon="7.34774923324585">
    <ele>708.355529785156</ele>
    <time>2012-05-23T13:33:22Z</time>
   </trkpt>
   <trkpt lat="46.2103729248047" lon="7.34778261184692">
    <ele>708.592590332031</ele>
    <time>2012-05-23T13:33:23Z</time>
   </trkpt>
   <trkpt lat="46.210376739502" lon="7.34781789779663">
    <ele>708.829650878906</ele>
    <time>2012-05-23T13:33:24Z</time>
   </trkpt>
   <trkpt lat="46.2104110717773" lon="7.34802913665772">
    <ele>710.251831054688</ele>
    <time>2012-05-23T13:33:30Z</time>
   </trkpt>
   <trkpt lat="46.2104187011719" lon="7.34806632995606">
    <ele>710.488891601562</ele>
    <time>2012-05-23T13:33:31Z</time>
   </trkpt>
   <trkpt lat="46.2104263305664" lon="7.34810590744018">
    <ele>710.725952148438</ele>
    <time>2012-05-23T13:33:32Z</time>
   </trkpt>
   <trkpt lat="46.2104339599609" lon="7.34814214706421">
    <ele>710.962951660156</ele>
    <time>2012-05-23T13:33:33Z</time>
   </trkpt>
   <trkpt lat="46.2104415893555" lon="7.34817743301392">
    <ele>711.200012207031</ele>
    <time>2012-05-23T13:33:34Z</time>
   </trkpt>
   <trkpt lat="46.21044921875" lon="7.34821224212646">
    <ele>711.200012207031</ele>
    <time>2012-05-23T13:33:35Z</time>
   </trkpt>
   <trkpt lat="46.2104530334473" lon="7.34824752807617">
    <ele>711.450012207031</ele>
    <time>2012-05-23T13:33:36Z</time>
   </trkpt>
   <trkpt lat="46.2104759216309" lon="7.34835386276245">
    <ele>712.200012207031</ele>
    <time>2012-05-23T13:33:39Z</time>
   </trkpt>
   <trkpt lat="46.2104835510254" lon="7.34838914871216">
    <ele>712.450012207031</ele>
    <time>2012-05-23T13:33:40Z</time>
   </trkpt>
   <trkpt lat="46.2104949951172" lon="7.34842109680176">
    <ele>712.700012207031</ele>
    <time>2012-05-23T13:33:41Z</time>
   </trkpt>
   <trkpt lat="46.2104988098144" lon="7.34845352172852">
    <ele>712.950012207031</ele>
    <time>2012-05-23T13:33:42Z</time>
   </trkpt>
   <trkpt lat="46.210506439209" lon="7.34848690032959">
    <ele>713.200012207031</ele>
    <time>2012-05-23T13:33:43Z</time>
   </trkpt>
   <trkpt lat="46.2105178833008" lon="7.34855699539185">
    <ele>713.200012207031</ele>
    <time>2012-05-23T13:33:45Z</time>
   </trkpt>
   <trkpt lat="46.210563659668" lon="7.34873962402344">
    <ele>714.435302734375</ele>
    <time>2012-05-23T13:33:50Z</time>
   </trkpt>
   <trkpt lat="46.2105712890625" lon="7.34877872467041">
    <ele>714.682373046875</ele>
    <time>2012-05-23T13:33:51Z</time>
   </trkpt>
   <trkpt lat="46.2105751037598" lon="7.34881544113159">
    <ele>714.929443359375</ele>
    <time>2012-05-23T13:33:52Z</time>
   </trkpt>
   <trkpt lat="46.2105865478516" lon="7.34885025024414">
    <ele>715.176513671875</ele>
    <time>2012-05-23T13:33:53Z</time>
   </trkpt>
   <trkpt lat="46.2106246948242" lon="7.3490195274353">
    <ele>716.411804199219</ele>
    <time>2012-05-23T13:33:58Z</time>
   </trkpt>
   <trkpt lat="46.2106323242188" lon="7.34905529022217">
    <ele>716.658874511719</ele>
    <time>2012-05-23T13:33:59Z</time>
   </trkpt>
   <trkpt lat="46.2106399536133" lon="7.34909296035767">
    <ele>716.905883789062</ele>
    <time>2012-05-23T13:34:00Z</time>
   </trkpt>
   <trkpt lat="46.2106475830078" lon="7.34912729263306">
    <ele>717.152954101562</ele>
    <time>2012-05-23T13:34:01Z</time>
   </trkpt>
   <trkpt lat="46.2106590270996" lon="7.34916019439697">
    <ele>717.400024414062</ele>
    <time>2012-05-23T13:34:02Z</time>
   </trkpt>
   <trkpt lat="46.2106819152832" lon="7.3492636680603">
    <ele>717.400024414062</ele>
    <time>2012-05-23T13:34:05Z</time>
   </trkpt>
   <trkpt lat="46.2107048034668" lon="7.34937429428101">
    <ele>718.14404296875</ele>
    <time>2012-05-23T13:34:08Z</time>
   </trkpt>
   <trkpt lat="46.2107124328613" lon="7.3494086265564">
    <ele>718.392028808594</ele>
    <time>2012-05-23T13:34:09Z</time>
   </trkpt>
   <trkpt lat="46.2107200622559" lon="7.34944248199463">
    <ele>718.640014648438</ele>
    <time>2012-05-23T13:34:10Z</time>
   </trkpt>
   <trkpt lat="46.2107276916504" lon="7.34947872161865">
    <ele>718.888000488281</ele>
    <time>2012-05-23T13:34:11Z</time>
   </trkpt>
   <trkpt lat="46.2107353210449" lon="7.34951591491699">
    <ele>719.135986328125</ele>
    <time>2012-05-23T13:34:12Z</time>
   </trkpt>
   <trkpt lat="46.2107734680176" lon="7.34965467453003">
    <ele>720.127990722656</ele>
    <time>2012-05-23T13:34:16Z</time>
   </trkpt>
   <trkpt lat="46.2107849121094" lon="7.34968614578247">
    <ele>720.3759765625</ele>
    <time>2012-05-23T13:34:17Z</time>
   </trkpt>
   <trkpt lat="46.2107925415039" lon="7.34971761703491">
    <ele>720.6240234375</ele>
    <time>2012-05-23T13:34:18Z</time>
   </trkpt>
   <trkpt lat="46.2108001708984" lon="7.34975147247314">
    <ele>720.872009277344</ele>
    <time>2012-05-23T13:34:19Z</time>
   </trkpt>
   <trkpt lat="46.2108116149902" lon="7.34978675842285">
    <ele>721.119995117188</ele>
    <time>2012-05-23T13:34:20Z</time>
   </trkpt>
   <trkpt lat="46.2108879089356" lon="7.35000038146973">
    <ele>722.607971191406</ele>
    <time>2012-05-23T13:34:26Z</time>
   </trkpt>
   <trkpt lat="46.2109031677246" lon="7.3500337600708">
    <ele>722.85595703125</ele>
    <time>2012-05-23T13:34:27Z</time>
   </trkpt>
   <trkpt lat="46.2109146118164" lon="7.3500657081604">
    <ele>723.10400390625</ele>
    <time>2012-05-23T13:34:28Z</time>
   </trkpt>
   <trkpt lat="46.2109222412109" lon="7.35009670257568">
    <ele>723.351989746094</ele>
    <time>2012-05-23T13:34:29Z</time>
   </trkpt>
   <trkpt lat="46.2109336853027" lon="7.35012817382812">
    <ele>723.599975585938</ele>
    <time>2012-05-23T13:34:30Z</time>
   </trkpt>
   <trkpt lat="46.2109756469727" lon="7.35022211074829">
    <ele>723.599975585938</ele>
    <time>2012-05-23T13:34:33Z</time>
   </trkpt>
   <trkpt lat="46.2110290527344" lon="7.35035228729248">
    <ele>724.63525390625</ele>
    <time>2012-05-23T13:34:37Z</time>
   </trkpt>
   <trkpt lat="46.2110404968262" lon="7.35038423538208">
    <ele>724.894104003906</ele>
    <time>2012-05-23T13:34:38Z</time>
   </trkpt>
   <trkpt lat="46.211051940918" lon="7.35041809082031">
    <ele>725.152954101562</ele>
    <time>2012-05-23T13:34:39Z</time>
   </trkpt>
   <trkpt lat="46.2110633850098" lon="7.35045003890991">
    <ele>725.411743164062</ele>
    <time>2012-05-23T13:34:40Z</time>
   </trkpt>
   <trkpt lat="46.2111320495606" lon="7.35065460205078">
    <ele>726.964721679688</ele>
    <time>2012-05-23T13:34:46Z</time>
   </trkpt>
   <trkpt lat="46.2111396789551" lon="7.3506908416748">
    <ele>727.223510742188</ele>
    <time>2012-05-23T13:34:47Z</time>
   </trkpt>
   <trkpt lat="46.2111473083496" lon="7.35072708129883">
    <ele>727.482360839844</ele>
    <time>2012-05-23T13:34:48Z</time>
   </trkpt>
   <trkpt lat="46.2111587524414" lon="7.35076141357422">
    <ele>727.741149902344</ele>
    <time>2012-05-23T13:34:49Z</time>
   </trkpt>
   <trkpt lat="46.2111663818359" lon="7.35079479217529">
    <ele>728</ele>
    <time>2012-05-23T13:34:50Z</time>
   </trkpt>
   <trkpt lat="46.2112159729004" lon="7.35103893280029">
    <ele>728</ele>
    <time>2012-05-23T13:34:57Z</time>
   </trkpt>
   <trkpt lat="46.2112197875977" lon="7.35107135772705">
    <ele>728.440002441406</ele>
    <time>2012-05-23T13:34:58Z</time>
   </trkpt>
   <trkpt lat="46.2112236022949" lon="7.35110282897949">
    <ele>728.880004882812</ele>
    <time>2012-05-23T13:34:59Z</time>
   </trkpt>
   <trkpt lat="46.2112236022949" lon="7.35113763809204">
    <ele>729.320007324219</ele>
    <time>2012-05-23T13:35:00Z</time>
   </trkpt>
   <trkpt lat="46.2112274169922" lon="7.35117340087891">
    <ele>729.760009765625</ele>
    <time>2012-05-23T13:35:01Z</time>
   </trkpt>
   <trkpt lat="46.2112312316894" lon="7.35120725631714">
    <ele>730.200012207031</ele>
    <time>2012-05-23T13:35:02Z</time>
   </trkpt>
   <trkpt lat="46.2112426757812" lon="7.35127925872803">
    <ele>730.200012207031</ele>
    <time>2012-05-23T13:35:04Z</time>
   </trkpt>
   <trkpt lat="46.2112464904785" lon="7.35131931304932">
    <ele>730.640014648438</ele>
    <time>2012-05-23T13:35:05Z</time>
   </trkpt>
   <trkpt lat="46.211254119873" lon="7.35135889053345">
    <ele>731.080017089844</ele>
    <time>2012-05-23T13:35:06Z</time>
   </trkpt>
   <trkpt lat="46.2112579345703" lon="7.3513970375061">
    <ele>731.52001953125</ele>
    <time>2012-05-23T13:35:07Z</time>
   </trkpt>
   <trkpt lat="46.2112617492676" lon="7.35143661499024">
    <ele>731.960021972656</ele>
    <time>2012-05-23T13:35:08Z</time>
   </trkpt>
   <trkpt lat="46.2112693786621" lon="7.35147571563721">
    <ele>732.400024414062</ele>
    <time>2012-05-23T13:35:09Z</time>
   </trkpt>
   <trkpt lat="46.2112770080566" lon="7.35155248641968">
    <ele>732.400024414062</ele>
    <time>2012-05-23T13:35:11Z</time>
   </trkpt>
   <trkpt lat="46.2112846374512" lon="7.35177087783814">
    <ele>733.719970703125</ele>
    <time>2012-05-23T13:35:17Z</time>
   </trkpt>
   <trkpt lat="46.2112846374512" lon="7.35180807113648">
    <ele>733.940002441406</ele>
    <time>2012-05-23T13:35:18Z</time>
   </trkpt>
   <trkpt lat="46.2112846374512" lon="7.3518443107605">
    <ele>734.159973144531</ele>
    <time>2012-05-23T13:35:19Z</time>
   </trkpt>
   <trkpt lat="46.2112808227539" lon="7.35187864303589">
    <ele>734.380004882812</ele>
    <time>2012-05-23T13:35:20Z</time>
   </trkpt>
   <trkpt lat="46.2112808227539" lon="7.35191488265991">
    <ele>734.599975585938</ele>
    <time>2012-05-23T13:35:21Z</time>
   </trkpt>
   <trkpt lat="46.2112846374512" lon="7.35205173492432">
    <ele>734.599975585938</ele>
    <time>2012-05-23T13:35:25Z</time>
   </trkpt>
   <trkpt lat="46.2112846374512" lon="7.35208654403686">
    <ele>735</ele>
    <time>2012-05-23T13:35:26Z</time>
   </trkpt>
   <trkpt lat="46.2112808227539" lon="7.35212278366089">
    <ele>735.399963378906</ele>
    <time>2012-05-23T13:35:27Z</time>
   </trkpt>
   <trkpt lat="46.2112808227539" lon="7.35215950012207">
    <ele>735.799987792969</ele>
    <time>2012-05-23T13:35:28Z</time>
   </trkpt>
   <trkpt lat="46.2112846374512" lon="7.35219383239746">
    <ele>736.199951171875</ele>
    <time>2012-05-23T13:35:29Z</time>
   </trkpt>
   <trkpt lat="46.2112884521484" lon="7.35223340988159">
    <ele>736.599975585938</ele>
    <time>2012-05-23T13:35:30Z</time>
   </trkpt>
   <trkpt lat="46.2112998962402" lon="7.35233926773071">
    <ele>736.599975585938</ele>
    <time>2012-05-23T13:35:33Z</time>
   </trkpt>
   <trkpt lat="46.2113037109375" lon="7.352370262146">
    <ele>737.039978027344</ele>
    <time>2012-05-23T13:35:34Z</time>
   </trkpt>
   <trkpt lat="46.2113075256348" lon="7.35240364074707">
    <ele>737.47998046875</ele>
    <time>2012-05-23T13:35:35Z</time>
   </trkpt>
   <trkpt lat="46.2113151550293" lon="7.35243511199951">
    <ele>737.919982910156</ele>
    <time>2012-05-23T13:35:36Z</time>
   </trkpt>
   <trkpt lat="46.2113189697266" lon="7.35246658325195">
    <ele>738.359985351562</ele>
    <time>2012-05-23T13:35:37Z</time>
   </trkpt>
   <trkpt lat="46.2113265991211" lon="7.35249710083008">
    <ele>738.799987792969</ele>
    <time>2012-05-23T13:35:38Z</time>
   </trkpt>
   <trkpt lat="46.2113571166992" lon="7.3526029586792">
    <ele>738.799987792969</ele>
    <time>2012-05-23T13:35:41Z</time>
   </trkpt>
   <trkpt lat="46.2113990783691" lon="7.35273694992065">
    <ele>739.7919921875</ele>
    <time>2012-05-23T13:35:45Z</time>
   </trkpt>
   <trkpt lat="46.2114105224609" lon="7.35276985168457">
    <ele>740.039978027344</ele>
    <time>2012-05-23T13:35:46Z</time>
   </trkpt>
   <trkpt lat="46.2114219665527" lon="7.35280227661133">
    <ele>740.287963867188</ele>
    <time>2012-05-23T13:35:47Z</time>
   </trkpt>
   <trkpt lat="46.2114295959473" lon="7.35283660888672">
    <ele>740.536010742188</ele>
    <time>2012-05-23T13:35:48Z</time>
   </trkpt>
   <trkpt lat="46.2114372253418" lon="7.35286903381348">
    <ele>740.783996582031</ele>
    <time>2012-05-23T13:35:49Z</time>
   </trkpt>
   <trkpt lat="46.211483001709" lon="7.35303783416748">
    <ele>742.023986816406</ele>
    <time>2012-05-23T13:35:54Z</time>
   </trkpt>
   <trkpt lat="46.2114868164062" lon="7.35307168960571">
    <ele>742.27197265625</ele>
    <time>2012-05-23T13:35:55Z</time>
   </trkpt>
   <trkpt lat="46.2114944458008" lon="7.35310649871826">
    <ele>742.52001953125</ele>
    <time>2012-05-23T13:35:56Z</time>
   </trkpt>
   <trkpt lat="46.211498260498" lon="7.35314083099365">
    <ele>742.768005371094</ele>
    <time>2012-05-23T13:35:57Z</time>
   </trkpt>
   <trkpt lat="46.2114944458008" lon="7.35317373275757">
    <ele>743.015991210938</ele>
    <time>2012-05-23T13:35:58Z</time>
   </trkpt>
   <trkpt lat="46.211483001709" lon="7.35331058502197">
    <ele>744.007995605469</ele>
    <time>2012-05-23T13:36:02Z</time>
   </trkpt>
   <trkpt lat="46.211483001709" lon="7.35333824157715">
    <ele>744.255981445312</ele>
    <time>2012-05-23T13:36:03Z</time>
   </trkpt>
   <trkpt lat="46.211483001709" lon="7.35336494445801">
    <ele>744.504028320312</ele>
    <time>2012-05-23T13:36:04Z</time>
   </trkpt>
   <trkpt lat="46.2114791870117" lon="7.35338401794434">
    <ele>744.752014160156</ele>
    <time>2012-05-23T13:36:05Z</time>
   </trkpt>
   <trkpt lat="46.2114791870117" lon="7.35341882705688">
    <ele>745</ele>
    <time>2012-05-23T13:36:06Z</time>
   </trkpt>
   <trkpt lat="46.2115058898926" lon="7.35353755950928">
    <ele>745</ele>
    <time>2012-05-23T13:36:09Z</time>
   </trkpt>
   <trkpt lat="46.2115173339844" lon="7.3535737991333">
    <ele>745.25</ele>
    <time>2012-05-23T13:36:10Z</time>
   </trkpt>
   <trkpt lat="46.211555480957" lon="7.35368490219116">
    <ele>746</ele>
    <time>2012-05-23T13:36:13Z</time>
   </trkpt>
   <trkpt lat="46.2115707397461" lon="7.35371255874634">
    <ele>746.25</ele>
    <time>2012-05-23T13:36:14Z</time>
   </trkpt>
   <trkpt lat="46.2115821838379" lon="7.35374402999878">
    <ele>746.5</ele>
    <time>2012-05-23T13:36:15Z</time>
   </trkpt>
   <trkpt lat="46.211597442627" lon="7.3537802696228">
    <ele>746.75</ele>
    <time>2012-05-23T13:36:16Z</time>
   </trkpt>
   <trkpt lat="46.2116088867188" lon="7.35381507873535">
    <ele>747</ele>
    <time>2012-05-23T13:36:17Z</time>
   </trkpt>
   <trkpt lat="46.2116584777832" lon="7.3539457321167">
    <ele>748</ele>
    <time>2012-05-23T13:36:21Z</time>
   </trkpt>
   <trkpt lat="46.2116775512695" lon="7.35397672653198">
    <ele>748.25</ele>
    <time>2012-05-23T13:36:22Z</time>
   </trkpt>
   <trkpt lat="46.2116889953613" lon="7.35400581359863">
    <ele>748.5</ele>
    <time>2012-05-23T13:36:23Z</time>
   </trkpt>
   <trkpt lat="46.2117042541504" lon="7.35403394699097">
    <ele>748.75</ele>
    <time>2012-05-23T13:36:24Z</time>
   </trkpt>
   <trkpt lat="46.2117156982422" lon="7.35406160354614">
    <ele>749</ele>
    <time>2012-05-23T13:36:25Z</time>
   </trkpt>
   <trkpt lat="46.2117538452148" lon="7.35419225692749">
    <ele>749</ele>
    <time>2012-05-23T13:36:29Z</time>
   </trkpt>
   <trkpt lat="46.2117652893066" lon="7.3542628288269">
    <ele>749.733337402344</ele>
    <time>2012-05-23T13:36:31Z</time>
   </trkpt>
   <trkpt lat="46.2117691040039" lon="7.35430383682251">
    <ele>750.099975585938</ele>
    <time>2012-05-23T13:36:32Z</time>
   </trkpt>
   <trkpt lat="46.2117729187012" lon="7.35434246063232">
    <ele>750.466674804688</ele>
    <time>2012-05-23T13:36:33Z</time>
   </trkpt>
   <trkpt lat="46.211784362793" lon="7.35438108444214">
    <ele>750.833374023438</ele>
    <time>2012-05-23T13:36:34Z</time>
   </trkpt>
   <trkpt lat="46.2117958068848" lon="7.35442066192627">
    <ele>751.200012207031</ele>
    <time>2012-05-23T13:36:35Z</time>
   </trkpt>
   <trkpt lat="46.2118034362793" lon="7.35445642471314">
    <ele>751.200012207031</ele>
    <time>2012-05-23T13:36:36Z</time>
   </trkpt>
   <trkpt lat="46.2118225097656" lon="7.35452032089233">
    <ele>751.725036621094</ele>
    <time>2012-05-23T13:36:38Z</time>
   </trkpt>
   <trkpt lat="46.2118339538574" lon="7.35455322265625">
    <ele>751.987487792969</ele>
    <time>2012-05-23T13:36:39Z</time>
   </trkpt>
   <trkpt lat="46.211841583252" lon="7.35458707809448">
    <ele>752.25</ele>
    <time>2012-05-23T13:36:40Z</time>
   </trkpt>
   <trkpt lat="46.2118530273438" lon="7.35462284088135">
    <ele>752.512512207031</ele>
    <time>2012-05-23T13:36:41Z</time>
   </trkpt>
   <trkpt lat="46.2118644714356" lon="7.35465908050537">
    <ele>752.775024414062</ele>
    <time>2012-05-23T13:36:42Z</time>
   </trkpt>
   <trkpt lat="46.2119331359863" lon="7.35486078262329">
    <ele>754.350036621094</ele>
    <time>2012-05-23T13:36:48Z</time>
   </trkpt>
   <trkpt lat="46.2119483947754" lon="7.35489273071289">
    <ele>754.612548828125</ele>
    <time>2012-05-23T13:36:49Z</time>
   </trkpt>
   <trkpt lat="46.2119636535644" lon="7.35492849349976">
    <ele>754.875</ele>
    <time>2012-05-23T13:36:50Z</time>
   </trkpt>
   <trkpt lat="46.2119750976562" lon="7.35496616363525">
    <ele>755.137512207031</ele>
    <time>2012-05-23T13:36:51Z</time>
   </trkpt>
   <trkpt lat="46.2119827270508" lon="7.35500049591064">
    <ele>755.400024414062</ele>
    <time>2012-05-23T13:36:52Z</time>
   </trkpt>
   <trkpt lat="46.2120361328125" lon="7.35512685775757">
    <ele>755.400024414062</ele>
    <time>2012-05-23T13:36:56Z</time>
   </trkpt>
   <trkpt lat="46.212085723877" lon="7.35525846481323">
    <ele>756.5</ele>
    <time>2012-05-23T13:37:00Z</time>
   </trkpt>
   <trkpt lat="46.2120933532715" lon="7.35529279708862">
    <ele>756.775024414062</ele>
    <time>2012-05-23T13:37:01Z</time>
   </trkpt>
   <trkpt lat="46.212100982666" lon="7.35532855987549">
    <ele>757.049987792969</ele>
    <time>2012-05-23T13:37:02Z</time>
   </trkpt>
   <trkpt lat="46.2121047973633" lon="7.35536193847656">
    <ele>757.324951171875</ele>
    <time>2012-05-23T13:37:03Z</time>
   </trkpt>
   <trkpt lat="46.2121124267578" lon="7.3553957939148">
    <ele>757.599975585938</ele>
    <time>2012-05-23T13:37:04Z</time>
   </trkpt>
   <trkpt lat="46.2121276855469" lon="7.35550403594971">
    <ele>757.599975585938</ele>
    <time>2012-05-23T13:37:07Z</time>
   </trkpt>
   <trkpt lat="46.2120895385742" lon="7.35554456710815">
    <ele>758.17138671875</ele>
    <time>2012-05-23T13:37:09Z</time>
   </trkpt>
   <trkpt lat="46.2120628356934" lon="7.35553503036499">
    <ele>758.457092285156</ele>
    <time>2012-05-23T13:37:10Z</time>
   </trkpt>
   <trkpt lat="46.2120361328125" lon="7.35551500320435">
    <ele>758.742858886719</ele>
    <time>2012-05-23T13:37:11Z</time>
   </trkpt>
   <trkpt lat="46.2120132446289" lon="7.35548639297485">
    <ele>759.028564453125</ele>
    <time>2012-05-23T13:37:12Z</time>
   </trkpt>
   <trkpt lat="46.2119941711426" lon="7.35545444488525">
    <ele>759.314270019531</ele>
    <time>2012-05-23T13:37:13Z</time>
   </trkpt>
   <trkpt lat="46.2119789123535" lon="7.35542488098144">
    <ele>759.599975585938</ele>
    <time>2012-05-23T13:37:14Z</time>
   </trkpt>
   <trkpt lat="46.2119102478027" lon="7.35531330108643">
    <ele>759.599975585938</ele>
    <time>2012-05-23T13:37:18Z</time>
   </trkpt>
   <trkpt lat="46.2118949890137" lon="7.35528564453125">
    <ele>759.849975585938</ele>
    <time>2012-05-23T13:37:19Z</time>
   </trkpt>
   <trkpt lat="46.2118377685547" lon="7.35521221160889">
    <ele>760.599975585938</ele>
    <time>2012-05-23T13:37:22Z</time>
   </trkpt>
   <trkpt lat="46.2118186950684" lon="7.35518598556518">
    <ele>760.849975585938</ele>
    <time>2012-05-23T13:37:23Z</time>
   </trkpt>
   <trkpt lat="46.211799621582" lon="7.35515928268433">
    <ele>761.099975585938</ele>
    <time>2012-05-23T13:37:24Z</time>
   </trkpt>
   <trkpt lat="46.2117805480957" lon="7.35513162612915">
    <ele>761.349975585938</ele>
    <time>2012-05-23T13:37:25Z</time>
   </trkpt>
   <trkpt lat="46.2117652893066" lon="7.35510540008545">
    <ele>761.599975585938</ele>
    <time>2012-05-23T13:37:26Z</time>
   </trkpt>
   <trkpt lat="46.2116584777832" lon="7.35495138168335">
    <ele>761.599975585938</ele>
    <time>2012-05-23T13:37:32Z</time>
   </trkpt>
   <trkpt lat="46.2116394042969" lon="7.35492324829102">
    <ele>762.099975585938</ele>
    <time>2012-05-23T13:37:33Z</time>
   </trkpt>
   <trkpt lat="46.2116203308106" lon="7.35489749908447">
    <ele>762.599975585938</ele>
    <time>2012-05-23T13:37:34Z</time>
   </trkpt>
   <trkpt lat="46.2116012573242" lon="7.35487174987793">
    <ele>763.099975585938</ele>
    <time>2012-05-23T13:37:35Z</time>
   </trkpt>
   <trkpt lat="46.2115821838379" lon="7.35484600067139">
    <ele>763.599975585938</ele>
    <time>2012-05-23T13:37:36Z</time>
   </trkpt>
   <trkpt lat="46.2115097045898" lon="7.35473537445068">
    <ele>763.599975585938</ele>
    <time>2012-05-23T13:37:40Z</time>
   </trkpt>
   <trkpt lat="46.2114715576172" lon="7.35468626022339">
    <ele>764.333312988281</ele>
    <time>2012-05-23T13:37:42Z</time>
   </trkpt>
   <trkpt lat="46.2114524841309" lon="7.35466194152832">
    <ele>764.699951171875</ele>
    <time>2012-05-23T13:37:43Z</time>
   </trkpt>
   <trkpt lat="46.2114334106445" lon="7.35463666915894">
    <ele>765.066650390625</ele>
    <time>2012-05-23T13:37:44Z</time>
   </trkpt>
   <trkpt lat="46.2114181518555" lon="7.35460996627808">
    <ele>765.433349609375</ele>
    <time>2012-05-23T13:37:45Z</time>
   </trkpt>
   <trkpt lat="46.2113990783691" lon="7.35458374023438">
    <ele>765.799987792969</ele>
    <time>2012-05-23T13:37:46Z</time>
   </trkpt>
   <trkpt lat="46.2113647460938" lon="7.3545298576355">
    <ele>765.799987792969</ele>
    <time>2012-05-23T13:37:48Z</time>
   </trkpt>
   <trkpt lat="46.2112922668457" lon="7.35443353652954">
    <ele>766.799987792969</ele>
    <time>2012-05-23T13:37:52Z</time>
   </trkpt>
   <trkpt lat="46.2112770080566" lon="7.35440874099732">
    <ele>767.049987792969</ele>
    <time>2012-05-23T13:37:53Z</time>
   </trkpt>
   <trkpt lat="46.2112579345703" lon="7.35438585281372">
    <ele>767.299987792969</ele>
    <time>2012-05-23T13:37:54Z</time>
   </trkpt>
   <trkpt lat="46.211238861084" lon="7.35436058044434">
    <ele>767.549987792969</ele>
    <time>2012-05-23T13:37:55Z</time>
   </trkpt>
   <trkpt lat="46.2112197875977" lon="7.35433101654053">
    <ele>767.799987792969</ele>
    <time>2012-05-23T13:37:56Z</time>
   </trkpt>
   <trkpt lat="46.2111358642578" lon="7.35420417785644">
    <ele>767.799987792969</ele>
    <time>2012-05-23T13:38:01Z</time>
   </trkpt>
   <trkpt lat="46.2111015319824" lon="7.35415410995483">
    <ele>768.293029785156</ele>
    <time>2012-05-23T13:38:03Z</time>
   </trkpt>
   <trkpt lat="46.2110862731934" lon="7.35412502288818">
    <ele>768.53955078125</ele>
    <time>2012-05-23T13:38:04Z</time>
   </trkpt>
   <trkpt lat="46.211067199707" lon="7.35409641265869">
    <ele>768.786010742188</ele>
    <time>2012-05-23T13:38:05Z</time>
   </trkpt>
   <trkpt lat="46.211051940918" lon="7.35407018661499">
    <ele>769.032531738281</ele>
    <time>2012-05-23T13:38:06Z</time>
   </trkpt>
   <trkpt lat="46.2110328674316" lon="7.35404348373413">
    <ele>769.279052734375</ele>
    <time>2012-05-23T13:38:07Z</time>
   </trkpt>
   <trkpt lat="46.2109489440918" lon="7.35390758514404">
    <ele>770.511596679688</ele>
    <time>2012-05-23T13:38:12Z</time>
   </trkpt>
   <trkpt lat="46.2109298706055" lon="7.35387802124024">
    <ele>770.758117675781</ele>
    <time>2012-05-23T13:38:13Z</time>
   </trkpt>
   <trkpt lat="46.2109184265137" lon="7.35384654998779">
    <ele>771.004638671875</ele>
    <time>2012-05-23T13:38:14Z</time>
   </trkpt>
   <trkpt lat="46.2109031677246" lon="7.35381507873535">
    <ele>771.251159667969</ele>
    <time>2012-05-23T13:38:15Z</time>
   </trkpt>
   <trkpt lat="46.2108917236328" lon="7.35378217697144">
    <ele>771.497680664062</ele>
    <time>2012-05-23T13:38:16Z</time>
   </trkpt>
   <trkpt lat="46.2108459472656" lon="7.35356760025024">
    <ele>772.976745605469</ele>
    <time>2012-05-23T13:38:22Z</time>
   </trkpt>
   <trkpt lat="46.2108421325684" lon="7.35353326797485">
    <ele>773.223266601562</ele>
    <time>2012-05-23T13:38:23Z</time>
   </trkpt>
   <trkpt lat="46.2108383178711" lon="7.3534984588623">
    <ele>773.469787597656</ele>
    <time>2012-05-23T13:38:24Z</time>
   </trkpt>
   <trkpt lat="46.2108345031738" lon="7.35346174240112">
    <ele>773.71630859375</ele>
    <time>2012-05-23T13:38:25Z</time>
   </trkpt>
   <trkpt lat="46.2108268737793" lon="7.35328531265259">
    <ele>774.948852539062</ele>
    <time>2012-05-23T13:38:30Z</time>
   </trkpt>
   <trkpt lat="46.210823059082" lon="7.35324811935425">
    <ele>775.195373535156</ele>
    <time>2012-05-23T13:38:31Z</time>
   </trkpt>
   <trkpt lat="46.2108154296875" lon="7.35321283340454">
    <ele>775.44189453125</ele>
    <time>2012-05-23T13:38:32Z</time>
   </trkpt>
   <trkpt lat="46.210807800293" lon="7.35317850112915">
    <ele>775.688415527344</ele>
    <time>2012-05-23T13:38:33Z</time>
   </trkpt>
   <trkpt lat="46.2108039855957" lon="7.35314416885376">
    <ele>775.934875488281</ele>
    <time>2012-05-23T13:38:34Z</time>
   </trkpt>
   <trkpt lat="46.210765838623" lon="7.35294771194458">
    <ele>777.414001464844</ele>
    <time>2012-05-23T13:38:40Z</time>
   </trkpt>
   <trkpt lat="46.2107582092285" lon="7.35291624069214">
    <ele>777.660461425781</ele>
    <time>2012-05-23T13:38:41Z</time>
   </trkpt>
   <trkpt lat="46.210750579834" lon="7.35288524627686">
    <ele>777.906982421875</ele>
    <time>2012-05-23T13:38:42Z</time>
   </trkpt>
   <trkpt lat="46.2107391357422" lon="7.35285139083862">
    <ele>778.153503417969</ele>
    <time>2012-05-23T13:38:43Z</time>
   </trkpt>
   <trkpt lat="46.2107276916504" lon="7.35281991958618">
    <ele>778.400024414062</ele>
    <time>2012-05-23T13:38:44Z</time>
   </trkpt>
   <trkpt lat="46.2106895446777" lon="7.35272932052612">
    <ele>778.400024414062</ele>
    <time>2012-05-23T13:38:47Z</time>
   </trkpt>
   <trkpt lat="46.2106285095215" lon="7.35261487960815">
    <ele>779.400024414062</ele>
    <time>2012-05-23T13:38:51Z</time>
   </trkpt>
   <trkpt lat="46.2106132507324" lon="7.35258626937866">
    <ele>779.650024414062</ele>
    <time>2012-05-23T13:38:52Z</time>
   </trkpt>
   <trkpt lat="46.2105979919434" lon="7.35256004333496">
    <ele>779.900024414062</ele>
    <time>2012-05-23T13:38:53Z</time>
   </trkpt>
   <trkpt lat="46.2105827331543" lon="7.35253524780274">
    <ele>780.150024414062</ele>
    <time>2012-05-23T13:38:54Z</time>
   </trkpt>
   <trkpt lat="46.2105674743652" lon="7.35250759124756">
    <ele>780.400024414062</ele>
    <time>2012-05-23T13:38:55Z</time>
   </trkpt>
   <trkpt lat="46.2104606628418" lon="7.35236024856567">
    <ele>780.400024414062</ele>
    <time>2012-05-23T13:39:01Z</time>
   </trkpt>
   <trkpt lat="46.2104072570801" lon="7.35228729248047">
    <ele>781.161560058594</ele>
    <time>2012-05-23T13:39:04Z</time>
   </trkpt>
   <trkpt lat="46.2103881835938" lon="7.35226154327393">
    <ele>781.415405273438</ele>
    <time>2012-05-23T13:39:05Z</time>
   </trkpt>
   <trkpt lat="46.2103729248047" lon="7.35223722457886">
    <ele>781.669250488281</ele>
    <time>2012-05-23T13:39:06Z</time>
   </trkpt>
   <trkpt lat="46.2103538513184" lon="7.35221242904663">
    <ele>781.923095703125</ele>
    <time>2012-05-23T13:39:07Z</time>
   </trkpt>
   <trkpt lat="46.210334777832" lon="7.3521876335144">
    <ele>782.176940917969</ele>
    <time>2012-05-23T13:39:08Z</time>
   </trkpt>
   <trkpt lat="46.2102432250977" lon="7.35204696655274">
    <ele>783.446166992188</ele>
    <time>2012-05-23T13:39:13Z</time>
   </trkpt>
   <trkpt lat="46.2102279663086" lon="7.35201406478882">
    <ele>783.700012207031</ele>
    <time>2012-05-23T13:39:14Z</time>
   </trkpt>
   <trkpt lat="46.2102127075195" lon="7.35198497772217">
    <ele>783.953857421875</ele>
    <time>2012-05-23T13:39:15Z</time>
   </trkpt>
   <trkpt lat="46.2101974487305" lon="7.35195255279541">
    <ele>784.207702636719</ele>
    <time>2012-05-23T13:39:16Z</time>
   </trkpt>
   <trkpt lat="46.2101821899414" lon="7.35191917419434">
    <ele>784.461547851562</ele>
    <time>2012-05-23T13:39:17Z</time>
   </trkpt>
   <trkpt lat="46.2100944519043" lon="7.35173797607422">
    <ele>785.984619140625</ele>
    <time>2012-05-23T13:39:23Z</time>
   </trkpt>
   <trkpt lat="46.2100791931152" lon="7.35170698165894">
    <ele>786.238464355469</ele>
    <time>2012-05-23T13:39:24Z</time>
   </trkpt>
   <trkpt lat="46.2100677490234" lon="7.35167980194092">
    <ele>786.492309570312</ele>
    <time>2012-05-23T13:39:25Z</time>
   </trkpt>
   <trkpt lat="46.2100524902344" lon="7.35165357589722">
    <ele>786.746154785156</ele>
    <time>2012-05-23T13:39:26Z</time>
   </trkpt>
   <trkpt lat="46.2100372314453" lon="7.35162782669067">
    <ele>787</ele>
    <time>2012-05-23T13:39:27Z</time>
   </trkpt>
   <trkpt lat="46.2099685668945" lon="7.35152530670166">
    <ele>787</ele>
    <time>2012-05-23T13:39:31Z</time>
   </trkpt>
   <trkpt lat="46.2099113464356" lon="7.35145282745361">
    <ele>788</ele>
    <time>2012-05-23T13:39:34Z</time>
   </trkpt>
   <trkpt lat="46.2098922729492" lon="7.35143041610718">
    <ele>788.333312988281</ele>
    <time>2012-05-23T13:39:35Z</time>
   </trkpt>
   <trkpt lat="46.2098693847656" lon="7.35140752792358">
    <ele>788.666687011719</ele>
    <time>2012-05-23T13:39:36Z</time>
   </trkpt>
   <trkpt lat="46.2098503112793" lon="7.3513879776001">
    <ele>789</ele>
    <time>2012-05-23T13:39:37Z</time>
   </trkpt>
   <trkpt lat="46.2098045349121" lon="7.35134840011597">
    <ele>789</ele>
    <time>2012-05-23T13:39:39Z</time>
   </trkpt>
   <trkpt lat="46.2096862792969" lon="7.35124778747559">
    <ele>790.105285644531</ele>
    <time>2012-05-23T13:39:44Z</time>
   </trkpt>
   <trkpt lat="46.2096633911133" lon="7.35122585296631">
    <ele>790.326293945312</ele>
    <time>2012-05-23T13:39:45Z</time>
   </trkpt>
   <trkpt lat="46.2096405029297" lon="7.3512020111084">
    <ele>790.54736328125</ele>
    <time>2012-05-23T13:39:46Z</time>
   </trkpt>
   <trkpt lat="46.2096176147461" lon="7.3511815071106">
    <ele>790.768432617188</ele>
    <time>2012-05-23T13:39:47Z</time>
   </trkpt>
   <trkpt lat="46.2095947265625" lon="7.35116052627564">
    <ele>790.989501953125</ele>
    <time>2012-05-23T13:39:48Z</time>
   </trkpt>
   <trkpt lat="46.2094764709473" lon="7.350989818573">
    <ele>792.315795898438</ele>
    <time>2012-05-23T13:39:54Z</time>
   </trkpt>
   <trkpt lat="46.2094612121582" lon="7.35095167160034">
    <ele>792.536865234375</ele>
    <time>2012-05-23T13:39:55Z</time>
   </trkpt>
   <trkpt lat="46.2094497680664" lon="7.35091304779053">
    <ele>792.757934570312</ele>
    <time>2012-05-23T13:39:56Z</time>
   </trkpt>
   <trkpt lat="46.2094421386719" lon="7.35087728500366">
    <ele>792.978942871094</ele>
    <time>2012-05-23T13:39:57Z</time>
   </trkpt>
   <trkpt lat="46.2094306945801" lon="7.35084009170532">
    <ele>793.200012207031</ele>
    <time>2012-05-23T13:39:58Z</time>
   </trkpt>
   <trkpt lat="46.2094192504883" lon="7.350754737854">
    <ele>793.200012207031</ele>
    <time>2012-05-23T13:40:00Z</time>
   </trkpt>
   <trkpt lat="46.2093963623047" lon="7.3506350517273">
    <ele>793.950012207031</ele>
    <time>2012-05-23T13:40:03Z</time>
   </trkpt>
   <trkpt lat="46.2093887329102" lon="7.35059404373169">
    <ele>794.200012207031</ele>
    <time>2012-05-23T13:40:04Z</time>
   </trkpt>
   <trkpt lat="46.2093811035156" lon="7.35055589675903">
    <ele>794.450012207031</ele>
    <time>2012-05-23T13:40:05Z</time>
   </trkpt>
   <trkpt lat="46.2093734741211" lon="7.35051774978638">
    <ele>794.700012207031</ele>
    <time>2012-05-23T13:40:06Z</time>
   </trkpt>
   <trkpt lat="46.2093658447266" lon="7.35047912597656">
    <ele>794.950012207031</ele>
    <time>2012-05-23T13:40:07Z</time>
   </trkpt>
   <trkpt lat="46.209358215332" lon="7.35027027130127">
    <ele>796.200012207031</ele>
    <time>2012-05-23T13:40:12Z</time>
   </trkpt>
   <trkpt lat="46.209358215332" lon="7.35022068023682">
    <ele>796.450012207031</ele>
    <time>2012-05-23T13:40:13Z</time>
   </trkpt>
   <trkpt lat="46.2093544006348" lon="7.35017204284668">
    <ele>796.700012207031</ele>
    <time>2012-05-23T13:40:14Z</time>
   </trkpt>
   <trkpt lat="46.2093467712402" lon="7.35012531280518">
    <ele>796.950012207031</ele>
    <time>2012-05-23T13:40:15Z</time>
   </trkpt>
   <trkpt lat="46.2093391418457" lon="7.35008478164673">
    <ele>797.200012207031</ele>
    <time>2012-05-23T13:40:16Z</time>
   </trkpt>
   <trkpt lat="46.2093048095703" lon="7.35002040863037">
    <ele>797.200012207031</ele>
    <time>2012-05-23T13:40:18Z</time>
   </trkpt>
   <trkpt lat="46.2091827392578" lon="7.3499755859375">
    <ele>798.311096191406</ele>
    <time>2012-05-23T13:40:23Z</time>
   </trkpt>
   <trkpt lat="46.2091598510742" lon="7.34998941421509">
    <ele>798.533325195312</ele>
    <time>2012-05-23T13:40:24Z</time>
   </trkpt>
   <trkpt lat="46.2091407775879" lon="7.35000896453857">
    <ele>798.755554199219</ele>
    <time>2012-05-23T13:40:25Z</time>
   </trkpt>
   <trkpt lat="46.2091255187988" lon="7.35003709793091">
    <ele>798.977783203125</ele>
    <time>2012-05-23T13:40:26Z</time>
   </trkpt>
   <trkpt lat="46.209114074707" lon="7.3500714302063">
    <ele>799.200012207031</ele>
    <time>2012-05-23T13:40:27Z</time>
   </trkpt>
   <trkpt lat="46.209098815918" lon="7.35028314590454">
    <ele>799.200012207031</ele>
    <time>2012-05-23T13:40:32Z</time>
   </trkpt>
   <trkpt lat="46.209156036377" lon="7.35046052932739">
    <ele>799.688903808594</ele>
    <time>2012-05-23T13:40:36Z</time>
   </trkpt>
   <trkpt lat="46.2091674804688" lon="7.35051155090332">
    <ele>799.811157226562</ele>
    <time>2012-05-23T13:40:37Z</time>
   </trkpt>
   <trkpt lat="46.2092208862305" lon="7.3508791923523">
    <ele>800.666687011719</ele>
    <time>2012-05-23T13:40:44Z</time>
   </trkpt>
   <trkpt lat="46.2092208862305" lon="7.35097455978394">
    <ele>800.9111328125</ele>
    <time>2012-05-23T13:40:46Z</time>
   </trkpt>
   <trkpt lat="46.2092170715332" lon="7.35101985931396">
    <ele>801.033325195312</ele>
    <time>2012-05-23T13:40:47Z</time>
   </trkpt>
   <trkpt lat="46.2092132568359" lon="7.35106420516968">
    <ele>801.155578613281</ele>
    <time>2012-05-23T13:40:48Z</time>
   </trkpt>
   <trkpt lat="46.2092132568359" lon="7.35110712051392">
    <ele>801.27783203125</ele>
    <time>2012-05-23T13:40:49Z</time>
   </trkpt>
   <trkpt lat="46.2092094421387" lon="7.35114860534668">
    <ele>801.400024414062</ele>
    <time>2012-05-23T13:40:50Z</time>
   </trkpt>
   <trkpt lat="46.2092094421387" lon="7.35118675231934">
    <ele>801.400024414062</ele>
    <time>2012-05-23T13:40:51Z</time>
   </trkpt>
   <trkpt lat="46.2092475891113" lon="7.35137414932251">
    <ele>802.622192382812</ele>
    <time>2012-05-23T13:40:56Z</time>
   </trkpt>
   <trkpt lat="46.2092552185059" lon="7.35141038894653">
    <ele>802.866638183594</ele>
    <time>2012-05-23T13:40:57Z</time>
   </trkpt>
   <trkpt lat="46.2092628479004" lon="7.35144710540772">
    <ele>803.111083984375</ele>
    <time>2012-05-23T13:40:58Z</time>
   </trkpt>
   <trkpt lat="46.2092742919922" lon="7.35148239135742">
    <ele>803.355529785156</ele>
    <time>2012-05-23T13:40:59Z</time>
   </trkpt>
   <trkpt lat="46.209285736084" lon="7.35151767730713">
    <ele>803.599975585938</ele>
    <time>2012-05-23T13:41:00Z</time>
   </trkpt>
   <trkpt lat="46.209300994873" lon="7.35155344009399">
    <ele>803.599975585938</ele>
    <time>2012-05-23T13:41:01Z</time>
   </trkpt>
   <trkpt lat="46.2094078063965" lon="7.35182952880859">
    <ele>805.066650390625</ele>
    <time>2012-05-23T13:41:09Z</time>
   </trkpt>
   <trkpt lat="46.2094268798828" lon="7.35186100006104">
    <ele>805.25</ele>
    <time>2012-05-23T13:41:10Z</time>
   </trkpt>
   <trkpt lat="46.2094383239746" lon="7.35189199447632">
    <ele>805.433349609375</ele>
    <time>2012-05-23T13:41:11Z</time>
   </trkpt>
   <trkpt lat="46.2094535827637" lon="7.35192346572876">
    <ele>805.616638183594</ele>
    <time>2012-05-23T13:41:12Z</time>
   </trkpt>
   <trkpt lat="46.2094688415527" lon="7.35195779800415">
    <ele>805.799987792969</ele>
    <time>2012-05-23T13:41:13Z</time>
   </trkpt>
   <trkpt lat="46.2095718383789" lon="7.35217761993408">
    <ele>805.799987792969</ele>
    <time>2012-05-23T13:41:20Z</time>
   </trkpt>
   <trkpt lat="46.2095832824707" lon="7.35220766067505">
    <ele>806.239990234375</ele>
    <time>2012-05-23T13:41:21Z</time>
   </trkpt>
   <trkpt lat="46.2095985412598" lon="7.35224199295044">
    <ele>806.679992675781</ele>
    <time>2012-05-23T13:41:22Z</time>
   </trkpt>
   <trkpt lat="46.2096138000488" lon="7.3522777557373">
    <ele>807.119995117188</ele>
    <time>2012-05-23T13:41:23Z</time>
   </trkpt>
   <trkpt lat="46.2096290588379" lon="7.35231113433838">
    <ele>807.559997558594</ele>
    <time>2012-05-23T13:41:24Z</time>
   </trkpt>
   <trkpt lat="46.2096405029297" lon="7.35234498977661">
    <ele>808</ele>
    <time>2012-05-23T13:41:25Z</time>
   </trkpt>
   <trkpt lat="46.2096710205078" lon="7.35245227813721">
    <ele>808</ele>
    <time>2012-05-23T13:41:28Z</time>
   </trkpt>
   <trkpt lat="46.2096862792969" lon="7.35248470306396">
    <ele>808.400024414062</ele>
    <time>2012-05-23T13:41:29Z</time>
   </trkpt>
   <trkpt lat="46.2096977233887" lon="7.35252046585083">
    <ele>808.799987792969</ele>
    <time>2012-05-23T13:41:30Z</time>
   </trkpt>
   <trkpt lat="46.2097091674805" lon="7.35255765914917">
    <ele>809.200012207031</ele>
    <time>2012-05-23T13:41:31Z</time>
   </trkpt>
   <trkpt lat="46.209716796875" lon="7.35259246826172">
    <ele>809.599975585938</ele>
    <time>2012-05-23T13:41:32Z</time>
   </trkpt>
   <trkpt lat="46.2097282409668" lon="7.35262584686279">
    <ele>810</ele>
    <time>2012-05-23T13:41:33Z</time>
   </trkpt>
   <trkpt lat="46.2097587585449" lon="7.3527307510376">
    <ele>810</ele>
    <time>2012-05-23T13:41:36Z</time>
   </trkpt>
   <trkpt lat="46.2097816467285" lon="7.35283708572388">
    <ele>811</ele>
    <time>2012-05-23T13:41:39Z</time>
   </trkpt>
   <trkpt lat="46.2097854614258" lon="7.35287141799927">
    <ele>811.333312988281</ele>
    <time>2012-05-23T13:41:40Z</time>
   </trkpt>
   <trkpt lat="46.2097969055176" lon="7.35290622711182">
    <ele>811.666687011719</ele>
    <time>2012-05-23T13:41:41Z</time>
   </trkpt>
   <trkpt lat="46.2098007202148" lon="7.352942943573">
    <ele>812</ele>
    <time>2012-05-23T13:41:42Z</time>
   </trkpt>
   <trkpt lat="46.2098274230957" lon="7.35305786132812">
    <ele>812</ele>
    <time>2012-05-23T13:41:45Z</time>
   </trkpt>
   <trkpt lat="46.2098541259766" lon="7.35320377349854">
    <ele>812.933349609375</ele>
    <time>2012-05-23T13:41:49Z</time>
   </trkpt>
   <trkpt lat="46.2098617553711" lon="7.35323858261108">
    <ele>813.166687011719</ele>
    <time>2012-05-23T13:41:50Z</time>
   </trkpt>
   <trkpt lat="46.2098655700684" lon="7.35327196121216">
    <ele>813.400024414062</ele>
    <time>2012-05-23T13:41:51Z</time>
   </trkpt>
   <trkpt lat="46.2098731994629" lon="7.35330772399902">
    <ele>813.633361816406</ele>
    <time>2012-05-23T13:41:52Z</time>
   </trkpt>
   <trkpt lat="46.2098846435547" lon="7.35334777832031">
    <ele>813.86669921875</ele>
    <time>2012-05-23T13:41:53Z</time>
   </trkpt>
   <trkpt lat="46.2099113464356" lon="7.3535737991333">
    <ele>815.266662597656</ele>
    <time>2012-05-23T13:41:59Z</time>
   </trkpt>
   <trkpt lat="46.2099189758301" lon="7.35361480712891">
    <ele>815.5</ele>
    <time>2012-05-23T13:42:00Z</time>
   </trkpt>
   <trkpt lat="46.2099189758301" lon="7.35365343093872">
    <ele>815.733337402344</ele>
    <time>2012-05-23T13:42:01Z</time>
   </trkpt>
   <trkpt lat="46.2099227905273" lon="7.35369062423706">
    <ele>815.966674804688</ele>
    <time>2012-05-23T13:42:02Z</time>
   </trkpt>
   <trkpt lat="46.2099266052246" lon="7.35372972488403">
    <ele>816.200012207031</ele>
    <time>2012-05-23T13:42:03Z</time>
   </trkpt>
   <trkpt lat="46.2099380493164" lon="7.35396003723144">
    <ele>816.200012207031</ele>
    <time>2012-05-23T13:42:09Z</time>
   </trkpt>
   <trkpt lat="46.2099380493164" lon="7.35399866104126">
    <ele>816.640014648438</ele>
    <time>2012-05-23T13:42:10Z</time>
   </trkpt>
   <trkpt lat="46.2099418640137" lon="7.35403728485107">
    <ele>817.080017089844</ele>
    <time>2012-05-23T13:42:11Z</time>
   </trkpt>
   <trkpt lat="46.2099418640137" lon="7.35407447814941">
    <ele>817.52001953125</ele>
    <time>2012-05-23T13:42:12Z</time>
   </trkpt>
   <trkpt lat="46.2099418640137" lon="7.35411024093628">
    <ele>817.960021972656</ele>
    <time>2012-05-23T13:42:13Z</time>
   </trkpt>
   <trkpt lat="46.2099456787109" lon="7.35414981842041">
    <ele>818.400024414062</ele>
    <time>2012-05-23T13:42:14Z</time>
   </trkpt>
   <trkpt lat="46.2099571228027" lon="7.35426330566406">
    <ele>818.400024414062</ele>
    <time>2012-05-23T13:42:17Z</time>
   </trkpt>
   <trkpt lat="46.2099647521973" lon="7.35437059402466">
    <ele>819.111145019531</ele>
    <time>2012-05-23T13:42:20Z</time>
   </trkpt>
   <trkpt lat="46.2099723815918" lon="7.35440683364868">
    <ele>819.34814453125</ele>
    <time>2012-05-23T13:42:21Z</time>
   </trkpt>
   <trkpt lat="46.2099838256836" lon="7.3544430732727">
    <ele>819.585205078125</ele>
    <time>2012-05-23T13:42:22Z</time>
   </trkpt>
   <trkpt lat="46.2099914550781" lon="7.35447978973389">
    <ele>819.822265625</ele>
    <time>2012-05-23T13:42:23Z</time>
   </trkpt>
   <trkpt lat="46.2100028991699" lon="7.35451316833496">
    <ele>820.059265136719</ele>
    <time>2012-05-23T13:42:24Z</time>
   </trkpt>
   <trkpt lat="46.2100639343262" lon="7.35472774505615">
    <ele>821.481506347656</ele>
    <time>2012-05-23T13:42:30Z</time>
   </trkpt>
   <trkpt lat="46.210075378418" lon="7.35476541519165">
    <ele>821.718505859375</ele>
    <time>2012-05-23T13:42:31Z</time>
   </trkpt>
   <trkpt lat="46.2100830078125" lon="7.35480165481567">
    <ele>821.95556640625</ele>
    <time>2012-05-23T13:42:32Z</time>
   </trkpt>
   <trkpt lat="46.210090637207" lon="7.35483551025391">
    <ele>822.192565917969</ele>
    <time>2012-05-23T13:42:33Z</time>
   </trkpt>
   <trkpt lat="46.2101554870606" lon="7.35507678985596">
    <ele>823.851867675781</ele>
    <time>2012-05-23T13:42:40Z</time>
   </trkpt>
   <trkpt lat="46.2101631164551" lon="7.35510921478272">
    <ele>824.0888671875</ele>
    <time>2012-05-23T13:42:41Z</time>
   </trkpt>
   <trkpt lat="46.2101707458496" lon="7.35514211654663">
    <ele>824.325927734375</ele>
    <time>2012-05-23T13:42:42Z</time>
   </trkpt>
   <trkpt lat="46.2101783752441" lon="7.35517501831055">
    <ele>824.562927246094</ele>
    <time>2012-05-23T13:42:43Z</time>
   </trkpt>
   <trkpt lat="46.2101898193359" lon="7.35521030426025">
    <ele>824.799987792969</ele>
    <time>2012-05-23T13:42:44Z</time>
   </trkpt>
   <trkpt lat="46.2102432250977" lon="7.35531377792358">
    <ele>824.799987792969</ele>
    <time>2012-05-23T13:42:47Z</time>
   </trkpt>
   <trkpt lat="46.2102966308594" lon="7.3554105758667">
    <ele>825.657104492188</ele>
    <time>2012-05-23T13:42:50Z</time>
   </trkpt>
   <trkpt lat="46.2103118896484" lon="7.35544204711914">
    <ele>825.94287109375</ele>
    <time>2012-05-23T13:42:51Z</time>
   </trkpt>
   <trkpt lat="46.2103271484375" lon="7.35547208786011">
    <ele>826.228576660156</ele>
    <time>2012-05-23T13:42:52Z</time>
   </trkpt>
   <trkpt lat="46.2103424072266" lon="7.35550260543823">
    <ele>826.514282226562</ele>
    <time>2012-05-23T13:42:53Z</time>
   </trkpt>
   <trkpt lat="46.2103538513184" lon="7.35553312301636">
    <ele>826.799987792969</ele>
    <time>2012-05-23T13:42:54Z</time>
   </trkpt>
   <trkpt lat="46.2103691101074" lon="7.35556411743164">
    <ele>826.799987792969</ele>
    <time>2012-05-23T13:42:55Z</time>
   </trkpt>
   <trkpt lat="46.2104606628418" lon="7.35574531555176">
    <ele>828.126281738281</ele>
    <time>2012-05-23T13:43:01Z</time>
   </trkpt>
   <trkpt lat="46.2104682922363" lon="7.35578346252441">
    <ele>828.347351074219</ele>
    <time>2012-05-23T13:43:02Z</time>
   </trkpt>
   <trkpt lat="46.2104721069336" lon="7.35582160949707">
    <ele>828.568420410156</ele>
    <time>2012-05-23T13:43:03Z</time>
   </trkpt>
   <trkpt lat="46.2104797363281" lon="7.35585927963257">
    <ele>828.789489746094</ele>
    <time>2012-05-23T13:43:04Z</time>
   </trkpt>
   <trkpt lat="46.2104797363281" lon="7.35589456558228">
    <ele>829.010498046875</ele>
    <time>2012-05-23T13:43:05Z</time>
   </trkpt>
   <trkpt lat="46.2105026245117" lon="7.35608196258545">
    <ele>830.115783691406</ele>
    <time>2012-05-23T13:43:10Z</time>
   </trkpt>
   <trkpt lat="46.2105102539062" lon="7.35611772537232">
    <ele>830.336853027344</ele>
    <time>2012-05-23T13:43:11Z</time>
   </trkpt>
   <trkpt lat="46.2105140686035" lon="7.35615396499634">
    <ele>830.557922363281</ele>
    <time>2012-05-23T13:43:12Z</time>
   </trkpt>
   <trkpt lat="46.2105178833008" lon="7.3561897277832">
    <ele>830.778930664062</ele>
    <time>2012-05-23T13:43:13Z</time>
   </trkpt>
   <trkpt lat="46.210521697998" lon="7.3562273979187">
    <ele>831</ele>
    <time>2012-05-23T13:43:14Z</time>
   </trkpt>
   <trkpt lat="46.2105293273926" lon="7.35630416870117">
    <ele>831</ele>
    <time>2012-05-23T13:43:16Z</time>
   </trkpt>
   <trkpt lat="46.2105522155762" lon="7.3564624786377">
    <ele>831.988220214844</ele>
    <time>2012-05-23T13:43:20Z</time>
   </trkpt>
   <trkpt lat="46.2105560302734" lon="7.35649824142456">
    <ele>832.235290527344</ele>
    <time>2012-05-23T13:43:21Z</time>
   </trkpt>
   <trkpt lat="46.2105560302734" lon="7.35653495788574">
    <ele>832.482360839844</ele>
    <time>2012-05-23T13:43:22Z</time>
   </trkpt>
   <trkpt lat="46.2105598449707" lon="7.35656785964966">
    <ele>832.729431152344</ele>
    <time>2012-05-23T13:43:23Z</time>
   </trkpt>
   <trkpt lat="46.2105979919434" lon="7.35678100585938">
    <ele>834.211791992188</ele>
    <time>2012-05-23T13:43:29Z</time>
   </trkpt>
   <trkpt lat="46.2106056213379" lon="7.35682153701782">
    <ele>834.458862304688</ele>
    <time>2012-05-23T13:43:30Z</time>
   </trkpt>
   <trkpt lat="46.2106170654297" lon="7.35686254501343">
    <ele>834.705871582031</ele>
    <time>2012-05-23T13:43:31Z</time>
   </trkpt>
   <trkpt lat="46.2106285095215" lon="7.35690069198608">
    <ele>834.952941894531</ele>
    <time>2012-05-23T13:43:32Z</time>
   </trkpt>
   <trkpt lat="46.2106399536133" lon="7.35693788528442">
    <ele>835.200012207031</ele>
    <time>2012-05-23T13:43:33Z</time>
   </trkpt>
   <trkpt lat="46.2106666564941" lon="7.35712480545044">
    <ele>835.200012207031</ele>
    <time>2012-05-23T13:43:38Z</time>
   </trkpt>
   <trkpt lat="46.2106590270996" lon="7.35716152191162">
    <ele>835.533325195312</ele>
    <time>2012-05-23T13:43:39Z</time>
   </trkpt>
   <trkpt lat="46.210636138916" lon="7.35718727111816">
    <ele>835.86669921875</ele>
    <time>2012-05-23T13:43:40Z</time>
   </trkpt>
   <trkpt lat="46.2106094360352" lon="7.35720014572144">
    <ele>836.200012207031</ele>
    <time>2012-05-23T13:43:41Z</time>
   </trkpt>
   <trkpt lat="46.2105712890625" lon="7.35719299316406">
    <ele>836.86669921875</ele>
    <time>2012-05-23T13:43:43Z</time>
   </trkpt>
   <trkpt lat="46.2105445861816" lon="7.35715961456299">
    <ele>837.200012207031</ele>
    <time>2012-05-23T13:43:44Z</time>
   </trkpt>
   <trkpt lat="46.2105255126953" lon="7.3571195602417">
    <ele>837.200012207031</ele>
    <time>2012-05-23T13:43:45Z</time>
   </trkpt>
   <trkpt lat="46.2104949951172" lon="7.35702991485596">
    <ele>837.36669921875</ele>
    <time>2012-05-23T13:43:47Z</time>
   </trkpt>
   <trkpt lat="46.2104301452637" lon="7.35685634613037">
    <ele>837.700012207031</ele>
    <time>2012-05-23T13:43:51Z</time>
   </trkpt>
   <trkpt lat="46.2103652954102" lon="7.35656642913818">
    <ele>838.200012207031</ele>
    <time>2012-05-23T13:43:57Z</time>
   </trkpt>
   <trkpt lat="46.2102737426758" lon="7.35616397857666">
    <ele>838.86669921875</ele>
    <time>2012-05-23T13:44:05Z</time>
   </trkpt>
   <trkpt lat="46.2102584838867" lon="7.35611438751221">
    <ele>838.950012207031</ele>
    <time>2012-05-23T13:44:06Z</time>
   </trkpt>
   <trkpt lat="46.2102432250977" lon="7.35606861114502">
    <ele>839.033325195312</ele>
    <time>2012-05-23T13:44:07Z</time>
   </trkpt>
   <trkpt lat="46.2102279663086" lon="7.35602331161499">
    <ele>839.11669921875</ele>
    <time>2012-05-23T13:44:08Z</time>
   </trkpt>
   <trkpt lat="46.2102088928223" lon="7.35598039627075">
    <ele>839.200012207031</ele>
    <time>2012-05-23T13:44:09Z</time>
   </trkpt>
   <trkpt lat="46.2100982666016" lon="7.35584545135498">
    <ele>839.200012207031</ele>
    <time>2012-05-23T13:44:13Z</time>
   </trkpt>
   <trkpt lat="46.2099075317383" lon="7.35564184188843">
    <ele>840.727233886719</ele>
    <time>2012-05-23T13:44:20Z</time>
   </trkpt>
   <trkpt lat="46.209888458252" lon="7.35561037063599">
    <ele>840.945434570312</ele>
    <time>2012-05-23T13:44:21Z</time>
   </trkpt>
   <trkpt lat="46.2098731994629" lon="7.35557413101196">
    <ele>841.163635253906</ele>
    <time>2012-05-23T13:44:22Z</time>
   </trkpt>
   <trkpt lat="46.2098541259766" lon="7.35554361343384">
    <ele>841.381774902344</ele>
    <time>2012-05-23T13:44:23Z</time>
   </trkpt>
   <trkpt lat="46.2098426818848" lon="7.3555121421814">
    <ele>841.599975585938</ele>
    <time>2012-05-23T13:44:24Z</time>
   </trkpt>
   <trkpt lat="46.209831237793" lon="7.35547876358032">
    <ele>841.599975585938</ele>
    <time>2012-05-23T13:44:25Z</time>
   </trkpt>
   <trkpt lat="46.2098045349121" lon="7.35535955429077">
    <ele>842.418151855469</ele>
    <time>2012-05-23T13:44:28Z</time>
   </trkpt>
   <trkpt lat="46.2097969055176" lon="7.35532522201538">
    <ele>842.690856933594</ele>
    <time>2012-05-23T13:44:29Z</time>
   </trkpt>
   <trkpt lat="46.2097930908203" lon="7.35528469085693">
    <ele>842.963623046875</ele>
    <time>2012-05-23T13:44:30Z</time>
   </trkpt>
   <trkpt lat="46.2097854614258" lon="7.35524463653564">
    <ele>843.236328125</ele>
    <time>2012-05-23T13:44:31Z</time>
   </trkpt>
   <trkpt lat="46.2097434997559" lon="7.35514163970947">
    <ele>844.054504394531</ele>
    <time>2012-05-23T13:44:34Z</time>
   </trkpt>
   <trkpt lat="46.2097282409668" lon="7.35510873794556">
    <ele>844.327270507812</ele>
    <time>2012-05-23T13:44:35Z</time>
   </trkpt>
   <trkpt lat="46.2097091674805" lon="7.35507726669312">
    <ele>844.599975585938</ele>
    <time>2012-05-23T13:44:36Z</time>
   </trkpt>
   <trkpt lat="46.2096862792969" lon="7.35504722595215">
    <ele>844.872680664062</ele>
    <time>2012-05-23T13:44:37Z</time>
   </trkpt>
   <trkpt lat="46.2096672058106" lon="7.35501670837402">
    <ele>845.145446777344</ele>
    <time>2012-05-23T13:44:38Z</time>
   </trkpt>
   <trkpt lat="46.2095565795898" lon="7.35487031936646">
    <ele>846.509094238281</ele>
    <time>2012-05-23T13:44:43Z</time>
   </trkpt>
   <trkpt lat="46.2095375061035" lon="7.35484647750854">
    <ele>846.781799316406</ele>
    <time>2012-05-23T13:44:44Z</time>
   </trkpt>
   <trkpt lat="46.2095146179199" lon="7.35482263565064">
    <ele>847.054504394531</ele>
    <time>2012-05-23T13:44:45Z</time>
   </trkpt>
   <trkpt lat="46.2094955444336" lon="7.3547945022583">
    <ele>847.327270507812</ele>
    <time>2012-05-23T13:44:46Z</time>
   </trkpt>
   <trkpt lat="46.2094764709473" lon="7.35477685928345">
    <ele>847.599975585938</ele>
    <time>2012-05-23T13:44:47Z</time>
   </trkpt>
   <trkpt lat="46.2094345092773" lon="7.35473537445068">
    <ele>847.599975585938</ele>
    <time>2012-05-23T13:44:49Z</time>
   </trkpt>
   <trkpt lat="46.209400177002" lon="7.3546929359436">
    <ele>848.47998046875</ele>
    <time>2012-05-23T13:44:51Z</time>
   </trkpt>
   <trkpt lat="46.2093811035156" lon="7.35466718673706">
    <ele>848.919982910156</ele>
    <time>2012-05-23T13:44:52Z</time>
   </trkpt>
   <trkpt lat="46.2093620300293" lon="7.35464572906494">
    <ele>849.359985351562</ele>
    <time>2012-05-23T13:44:53Z</time>
   </trkpt>
   <trkpt lat="46.209342956543" lon="7.35462713241577">
    <ele>849.799987792969</ele>
    <time>2012-05-23T13:44:54Z</time>
   </trkpt>
   <trkpt lat="46.2093238830566" lon="7.35460758209228">
    <ele>849.799987792969</ele>
    <time>2012-05-23T13:44:55Z</time>
   </trkpt>
   <trkpt lat="46.2092704772949" lon="7.35454702377319">
    <ele>850.533325195312</ele>
    <time>2012-05-23T13:44:58Z</time>
   </trkpt>
   <trkpt lat="46.2092552185059" lon="7.35452747344971">
    <ele>850.777770996094</ele>
    <time>2012-05-23T13:44:59Z</time>
   </trkpt>
   <trkpt lat="46.2092361450195" lon="7.35450792312622">
    <ele>851.022216796875</ele>
    <time>2012-05-23T13:45:00Z</time>
   </trkpt>
   <trkpt lat="46.2092208862305" lon="7.35448312759399">
    <ele>851.266662597656</ele>
    <time>2012-05-23T13:45:01Z</time>
   </trkpt>
   <trkpt lat="46.2092018127441" lon="7.35446500778198">
    <ele>851.511108398438</ele>
    <time>2012-05-23T13:45:02Z</time>
   </trkpt>
   <trkpt lat="46.2090797424316" lon="7.35431051254272">
    <ele>853.222229003906</ele>
    <time>2012-05-23T13:45:09Z</time>
   </trkpt>
   <trkpt lat="46.2090644836426" lon="7.35429191589356">
    <ele>853.466674804688</ele>
    <time>2012-05-23T13:45:10Z</time>
   </trkpt>
   <trkpt lat="46.2090454101562" lon="7.35426998138428">
    <ele>853.711120605469</ele>
    <time>2012-05-23T13:45:11Z</time>
   </trkpt>
   <trkpt lat="46.2090301513672" lon="7.35425043106079">
    <ele>853.95556640625</ele>
    <time>2012-05-23T13:45:12Z</time>
   </trkpt>
   <trkpt lat="46.2090110778809" lon="7.35422992706299">
    <ele>854.200012207031</ele>
    <time>2012-05-23T13:45:13Z</time>
   </trkpt>
   <trkpt lat="46.2089385986328" lon="7.35414886474609">
    <ele>854.200012207031</ele>
    <time>2012-05-23T13:45:17Z</time>
   </trkpt>
   <trkpt lat="46.2089195251465" lon="7.35413026809692">
    <ele>854.600036621094</ele>
    <time>2012-05-23T13:45:18Z</time>
   </trkpt>
   <trkpt lat="46.2089042663574" lon="7.35410928726196">
    <ele>855</ele>
    <time>2012-05-23T13:45:19Z</time>
   </trkpt>
   <trkpt lat="46.2088813781738" lon="7.35409021377564">
    <ele>855.400024414062</ele>
    <time>2012-05-23T13:45:20Z</time>
   </trkpt>
   <trkpt lat="46.2088661193848" lon="7.35407257080078">
    <ele>855.799987792969</ele>
    <time>2012-05-23T13:45:21Z</time>
   </trkpt>
   <trkpt lat="46.2088508605957" lon="7.35404968261719">
    <ele>856.200012207031</ele>
    <time>2012-05-23T13:45:22Z</time>
   </trkpt>
   <trkpt lat="46.208797454834" lon="7.35398626327515">
    <ele>856.200012207031</ele>
    <time>2012-05-23T13:45:25Z</time>
   </trkpt>
   <trkpt lat="46.2087631225586" lon="7.35394144058228">
    <ele>856.933349609375</ele>
    <time>2012-05-23T13:45:27Z</time>
   </trkpt>
   <trkpt lat="46.2087440490723" lon="7.35392093658447">
    <ele>857.300048828125</ele>
    <time>2012-05-23T13:45:28Z</time>
   </trkpt>
   <trkpt lat="46.2087249755859" lon="7.35389947891235">
    <ele>857.666687011719</ele>
    <time>2012-05-23T13:45:29Z</time>
   </trkpt>
   <trkpt lat="46.2087059020996" lon="7.35387992858887">
    <ele>858.033325195312</ele>
    <time>2012-05-23T13:45:30Z</time>
   </trkpt>
   <trkpt lat="46.2086906433106" lon="7.35386037826538">
    <ele>858.400024414062</ele>
    <time>2012-05-23T13:45:31Z</time>
   </trkpt>
   <trkpt lat="46.2086143493652" lon="7.35378265380859">
    <ele>858.400024414062</ele>
    <time>2012-05-23T13:45:35Z</time>
   </trkpt>
   <trkpt lat="46.2085418701172" lon="7.35370492935181">
    <ele>859.8857421875</ele>
    <time>2012-05-23T13:45:39Z</time>
   </trkpt>
   <trkpt lat="46.2085227966309" lon="7.35368490219116">
    <ele>860.257141113281</ele>
    <time>2012-05-23T13:45:40Z</time>
   </trkpt>
   <trkpt lat="46.2085037231445" lon="7.35367012023926">
    <ele>860.628601074219</ele>
    <time>2012-05-23T13:45:41Z</time>
   </trkpt>
   <trkpt lat="46.2084846496582" lon="7.35364818572998">
    <ele>861</ele>
    <time>2012-05-23T13:45:42Z</time>
   </trkpt>
   <trkpt lat="46.2084655761719" lon="7.35362720489502">
    <ele>861</ele>
    <time>2012-05-23T13:45:43Z</time>
   </trkpt>
   <trkpt lat="46.2083358764648" lon="7.35349130630493">
    <ele>862.539978027344</ele>
    <time>2012-05-23T13:45:50Z</time>
   </trkpt>
   <trkpt lat="46.2083168029785" lon="7.35347080230713">
    <ele>862.760009765625</ele>
    <time>2012-05-23T13:45:51Z</time>
   </trkpt>
   <trkpt lat="46.2083015441894" lon="7.3534517288208">
    <ele>862.97998046875</ele>
    <time>2012-05-23T13:45:52Z</time>
   </trkpt>
   <trkpt lat="46.2082824707031" lon="7.35343408584595">
    <ele>863.200012207031</ele>
    <time>2012-05-23T13:45:53Z</time>
   </trkpt>
   <trkpt lat="46.2082633972168" lon="7.35341310501099">
    <ele>863.419982910156</ele>
    <time>2012-05-23T13:45:54Z</time>
   </trkpt>
   <trkpt lat="46.2081718444824" lon="7.35330152511597">
    <ele>864.519958496094</ele>
    <time>2012-05-23T13:45:59Z</time>
   </trkpt>
   <trkpt lat="46.2081565856934" lon="7.35328388214111">
    <ele>864.739990234375</ele>
    <time>2012-05-23T13:46:00Z</time>
   </trkpt>
   <trkpt lat="46.208137512207" lon="7.35326433181763">
    <ele>864.9599609375</ele>
    <time>2012-05-23T13:46:01Z</time>
   </trkpt>
   <trkpt lat="46.208122253418" lon="7.35324430465698">
    <ele>865.179992675781</ele>
    <time>2012-05-23T13:46:02Z</time>
   </trkpt>
   <trkpt lat="46.2081069946289" lon="7.35322332382202">
    <ele>865.399963378906</ele>
    <time>2012-05-23T13:46:03Z</time>
   </trkpt>
   <trkpt lat="46.2080116271973" lon="7.3530855178833">
    <ele>866.719970703125</ele>
    <time>2012-05-23T13:46:09Z</time>
   </trkpt>
   <trkpt lat="46.2079963684082" lon="7.35306167602539">
    <ele>866.940002441406</ele>
    <time>2012-05-23T13:46:10Z</time>
   </trkpt>
   <trkpt lat="46.2079811096191" lon="7.35303640365601">
    <ele>867.159973144531</ele>
    <time>2012-05-23T13:46:11Z</time>
   </trkpt>
   <trkpt lat="46.2079696655273" lon="7.35301399230957">
    <ele>867.380004882812</ele>
    <time>2012-05-23T13:46:12Z</time>
   </trkpt>
   <trkpt lat="46.2079582214356" lon="7.35299015045166">
    <ele>867.599975585938</ele>
    <time>2012-05-23T13:46:13Z</time>
   </trkpt>
   <trkpt lat="46.2079238891602" lon="7.35290861129761">
    <ele>867.599975585938</ele>
    <time>2012-05-23T13:46:16Z</time>
   </trkpt>
   <trkpt lat="46.2079010009766" lon="7.35285472869873">
    <ele>868.333312988281</ele>
    <time>2012-05-23T13:46:18Z</time>
   </trkpt>
   <trkpt lat="46.2078857421875" lon="7.3528265953064">
    <ele>868.699951171875</ele>
    <time>2012-05-23T13:46:19Z</time>
   </trkpt>
   <trkpt lat="46.2078704833984" lon="7.35279941558838">
    <ele>869.066650390625</ele>
    <time>2012-05-23T13:46:20Z</time>
   </trkpt>
   <trkpt lat="46.2078590393066" lon="7.35277414321899">
    <ele>869.433349609375</ele>
    <time>2012-05-23T13:46:21Z</time>
   </trkpt>
   <trkpt lat="46.2078437805176" lon="7.35274505615234">
    <ele>869.799987792969</ele>
    <time>2012-05-23T13:46:22Z</time>
   </trkpt>
   <trkpt lat="46.2078170776367" lon="7.35269594192505">
    <ele>869.799987792969</ele>
    <time>2012-05-23T13:46:24Z</time>
   </trkpt>
   <trkpt lat="46.2077751159668" lon="7.3526177406311">
    <ele>870.567993164062</ele>
    <time>2012-05-23T13:46:27Z</time>
   </trkpt>
   <trkpt lat="46.2077598571777" lon="7.35259056091309">
    <ele>870.823974609375</ele>
    <time>2012-05-23T13:46:28Z</time>
   </trkpt>
   <trkpt lat="46.2077484130859" lon="7.35256290435791">
    <ele>871.080017089844</ele>
    <time>2012-05-23T13:46:29Z</time>
   </trkpt>
   <trkpt lat="46.2077293395996" lon="7.35253047943115">
    <ele>871.335998535156</ele>
    <time>2012-05-23T13:46:30Z</time>
   </trkpt>
   <trkpt lat="46.2077217102051" lon="7.35249710083008">
    <ele>871.591979980469</ele>
    <time>2012-05-23T13:46:31Z</time>
   </trkpt>
   <trkpt lat="46.2076797485352" lon="7.35238552093506">
    <ele>872.616027832031</ele>
    <time>2012-05-23T13:46:35Z</time>
   </trkpt>
   <trkpt lat="46.2076683044434" lon="7.35235691070557">
    <ele>872.872009277344</ele>
    <time>2012-05-23T13:46:36Z</time>
   </trkpt>
   <trkpt lat="46.2076606750488" lon="7.35232925415039">
    <ele>873.127990722656</ele>
    <time>2012-05-23T13:46:37Z</time>
   </trkpt>
   <trkpt lat="46.207649230957" lon="7.35229444503784">
    <ele>873.383972167969</ele>
    <time>2012-05-23T13:46:38Z</time>
   </trkpt>
   <trkpt lat="46.2076377868652" lon="7.35226154327393">
    <ele>873.640014648438</ele>
    <time>2012-05-23T13:46:39Z</time>
   </trkpt>
   <trkpt lat="46.2075729370117" lon="7.35207366943359">
    <ele>875.176025390625</ele>
    <time>2012-05-23T13:46:45Z</time>
   </trkpt>
   <trkpt lat="46.2075614929199" lon="7.35204553604126">
    <ele>875.432006835938</ele>
    <time>2012-05-23T13:46:46Z</time>
   </trkpt>
   <trkpt lat="46.2075500488281" lon="7.35202026367188">
    <ele>875.68798828125</ele>
    <time>2012-05-23T13:46:47Z</time>
   </trkpt>
   <trkpt lat="46.2075347900391" lon="7.35199165344238">
    <ele>875.944030761719</ele>
    <time>2012-05-23T13:46:48Z</time>
   </trkpt>
   <trkpt lat="46.2075233459473" lon="7.35196256637573">
    <ele>876.200012207031</ele>
    <time>2012-05-23T13:46:49Z</time>
   </trkpt>
   <trkpt lat="46.2074890136719" lon="7.35183429718018">
    <ele>876.200012207031</ele>
    <time>2012-05-23T13:46:53Z</time>
   </trkpt>
   <trkpt lat="46.2074661254883" lon="7.35177040100098">
    <ele>876.786682128906</ele>
    <time>2012-05-23T13:46:55Z</time>
   </trkpt>
   <trkpt lat="46.2074546813965" lon="7.35174369812012">
    <ele>877.080017089844</ele>
    <time>2012-05-23T13:46:56Z</time>
   </trkpt>
   <trkpt lat="46.2074508666992" lon="7.35171318054199">
    <ele>877.373352050781</ele>
    <time>2012-05-23T13:46:57Z</time>
   </trkpt>
   <trkpt lat="46.2074394226074" lon="7.35168743133545">
    <ele>877.666687011719</ele>
    <time>2012-05-23T13:46:58Z</time>
   </trkpt>
   <trkpt lat="46.2074317932129" lon="7.35165929794312">
    <ele>877.960021972656</ele>
    <time>2012-05-23T13:46:59Z</time>
   </trkpt>
   <trkpt lat="46.2073822021484" lon="7.35150098800659">
    <ele>879.426635742188</ele>
    <time>2012-05-23T13:47:04Z</time>
   </trkpt>
   <trkpt lat="46.2073745727539" lon="7.35146760940552">
    <ele>879.719970703125</ele>
    <time>2012-05-23T13:47:05Z</time>
   </trkpt>
   <trkpt lat="46.2073669433594" lon="7.35143899917602">
    <ele>880.013305664062</ele>
    <time>2012-05-23T13:47:06Z</time>
   </trkpt>
   <trkpt lat="46.2073669433594" lon="7.35140419006348">
    <ele>880.306640625</ele>
    <time>2012-05-23T13:47:07Z</time>
   </trkpt>
   <trkpt lat="46.2073669433594" lon="7.35137224197388">
    <ele>880.599975585938</ele>
    <time>2012-05-23T13:47:08Z</time>
   </trkpt>
   <trkpt lat="46.2073440551758" lon="7.35127973556518">
    <ele>880.599975585938</ele>
    <time>2012-05-23T13:47:11Z</time>
   </trkpt>
   <trkpt lat="46.207332611084" lon="7.35119104385376">
    <ele>881.424987792969</ele>
    <time>2012-05-23T13:47:14Z</time>
   </trkpt>
   <trkpt lat="46.2073287963867" lon="7.35115718841553">
    <ele>881.699951171875</ele>
    <time>2012-05-23T13:47:15Z</time>
   </trkpt>
   <trkpt lat="46.2073211669922" lon="7.3511233329773">
    <ele>881.974975585938</ele>
    <time>2012-05-23T13:47:16Z</time>
   </trkpt>
   <trkpt lat="46.2073135375977" lon="7.3510947227478">
    <ele>882.25</ele>
    <time>2012-05-23T13:47:17Z</time>
   </trkpt>
   <trkpt lat="46.2073097229004" lon="7.3510570526123">
    <ele>882.524963378906</ele>
    <time>2012-05-23T13:47:18Z</time>
   </trkpt>
   <trkpt lat="46.2072792053223" lon="7.35089635848999">
    <ele>883.900024414062</ele>
    <time>2012-05-23T13:47:23Z</time>
   </trkpt>
   <trkpt lat="46.207275390625" lon="7.35086107254028">
    <ele>884.174987792969</ele>
    <time>2012-05-23T13:47:24Z</time>
   </trkpt>
   <trkpt lat="46.2072715759277" lon="7.3508243560791">
    <ele>884.450012207031</ele>
    <time>2012-05-23T13:47:25Z</time>
   </trkpt>
   <trkpt lat="46.2072677612305" lon="7.35079002380371">
    <ele>884.724975585938</ele>
    <time>2012-05-23T13:47:26Z</time>
   </trkpt>
   <trkpt lat="46.2072639465332" lon="7.35075807571411">
    <ele>885</ele>
    <time>2012-05-23T13:47:27Z</time>
   </trkpt>
   <trkpt lat="46.2072410583496" lon="7.35065507888794">
    <ele>885</ele>
    <time>2012-05-23T13:47:30Z</time>
   </trkpt>
   <trkpt lat="46.2072067260742" lon="7.35057258605957">
    <ele>885.744018554688</ele>
    <time>2012-05-23T13:47:33Z</time>
   </trkpt>
   <trkpt lat="46.2071990966797" lon="7.35054397583008">
    <ele>885.992004394531</ele>
    <time>2012-05-23T13:47:34Z</time>
   </trkpt>
   <trkpt lat="46.2071914672852" lon="7.35051107406616">
    <ele>886.239990234375</ele>
    <time>2012-05-23T13:47:35Z</time>
   </trkpt>
   <trkpt lat="46.2071838378906" lon="7.3504810333252">
    <ele>886.487976074219</ele>
    <time>2012-05-23T13:47:36Z</time>
   </trkpt>
   <trkpt lat="46.2071723937988" lon="7.35045146942139">
    <ele>886.736022949219</ele>
    <time>2012-05-23T13:47:37Z</time>
   </trkpt>
   <trkpt lat="46.2071113586426" lon="7.35029792785644">
    <ele>887.976013183594</ele>
    <time>2012-05-23T13:47:42Z</time>
   </trkpt>
   <trkpt lat="46.207103729248" lon="7.35026979446411">
    <ele>888.223999023438</ele>
    <time>2012-05-23T13:47:43Z</time>
   </trkpt>
   <trkpt lat="46.2070922851562" lon="7.35023784637451">
    <ele>888.471984863281</ele>
    <time>2012-05-23T13:47:44Z</time>
   </trkpt>
   <trkpt lat="46.2070846557617" lon="7.35020971298218">
    <ele>888.720031738281</ele>
    <time>2012-05-23T13:47:45Z</time>
   </trkpt>
   <trkpt lat="46.2070159912109" lon="7.35002422332764">
    <ele>890.2080078125</ele>
    <time>2012-05-23T13:47:51Z</time>
   </trkpt>
   <trkpt lat="46.2070045471191" lon="7.34999227523804">
    <ele>890.455993652344</ele>
    <time>2012-05-23T13:47:52Z</time>
   </trkpt>
   <trkpt lat="46.2069931030273" lon="7.3499608039856">
    <ele>890.704040527344</ele>
    <time>2012-05-23T13:47:53Z</time>
   </trkpt>
   <trkpt lat="46.2069816589356" lon="7.34992933273315">
    <ele>890.952026367188</ele>
    <time>2012-05-23T13:47:54Z</time>
   </trkpt>
   <trkpt lat="46.206974029541" lon="7.34989738464356">
    <ele>891.200012207031</ele>
    <time>2012-05-23T13:47:55Z</time>
   </trkpt>
   <trkpt lat="46.206916809082" lon="7.34975099563599">
    <ele>891.200012207031</ele>
    <time>2012-05-23T13:48:00Z</time>
   </trkpt>
   <trkpt lat="46.2069091796875" lon="7.34972238540649">
    <ele>891.600036621094</ele>
    <time>2012-05-23T13:48:01Z</time>
   </trkpt>
   <trkpt lat="46.2068977355957" lon="7.34969425201416">
    <ele>892</ele>
    <time>2012-05-23T13:48:02Z</time>
   </trkpt>
   <trkpt lat="46.2068862915039" lon="7.34966421127319">
    <ele>892.400024414062</ele>
    <time>2012-05-23T13:48:03Z</time>
   </trkpt>
   <trkpt lat="46.2068748474121" lon="7.34963417053223">
    <ele>892.799987792969</ele>
    <time>2012-05-23T13:48:04Z</time>
   </trkpt>
   <trkpt lat="46.2068672180176" lon="7.34960460662842">
    <ele>893.200012207031</ele>
    <time>2012-05-23T13:48:05Z</time>
   </trkpt>
   <trkpt lat="46.2068328857422" lon="7.34951782226562">
    <ele>893.200012207031</ele>
    <time>2012-05-23T13:48:08Z</time>
   </trkpt>
   <trkpt lat="46.2067909240723" lon="7.34936618804932">
    <ele>894.422241210938</ele>
    <time>2012-05-23T13:48:13Z</time>
   </trkpt>
   <trkpt lat="46.2067794799805" lon="7.34933662414551">
    <ele>894.666687011719</ele>
    <time>2012-05-23T13:48:14Z</time>
   </trkpt>
   <trkpt lat="46.2067718505859" lon="7.3493070602417">
    <ele>894.9111328125</ele>
    <time>2012-05-23T13:48:15Z</time>
   </trkpt>
   <trkpt lat="46.2067604064941" lon="7.34928035736084">
    <ele>895.155578613281</ele>
    <time>2012-05-23T13:48:16Z</time>
   </trkpt>
   <trkpt lat="46.2067489624023" lon="7.34924221038818">
    <ele>895.400024414062</ele>
    <time>2012-05-23T13:48:17Z</time>
   </trkpt>
   <trkpt lat="46.2067260742188" lon="7.34918212890625">
    <ele>895.400024414062</ele>
    <time>2012-05-23T13:48:19Z</time>
   </trkpt>
   <trkpt lat="46.2066841125488" lon="7.34910106658936">
    <ele>896.225036621094</ele>
    <time>2012-05-23T13:48:22Z</time>
   </trkpt>
   <trkpt lat="46.2066688537598" lon="7.3490777015686">
    <ele>896.5</ele>
    <time>2012-05-23T13:48:23Z</time>
   </trkpt>
   <trkpt lat="46.206657409668" lon="7.3490514755249">
    <ele>896.775024414062</ele>
    <time>2012-05-23T13:48:24Z</time>
   </trkpt>
   <trkpt lat="46.2066421508789" lon="7.34902238845825">
    <ele>897.050048828125</ele>
    <time>2012-05-23T13:48:25Z</time>
   </trkpt>
   <trkpt lat="46.2066230773926" lon="7.34900426864624">
    <ele>897.325012207031</ele>
    <time>2012-05-23T13:48:26Z</time>
   </trkpt>
   <trkpt lat="46.2065391540527" lon="7.34889078140259">
    <ele>898.700012207031</ele>
    <time>2012-05-23T13:48:31Z</time>
   </trkpt>
   <trkpt lat="46.2065162658691" lon="7.34887170791626">
    <ele>898.975036621094</ele>
    <time>2012-05-23T13:48:32Z</time>
   </trkpt>
   <trkpt lat="46.2065010070801" lon="7.34884881973267">
    <ele>899.25</ele>
    <time>2012-05-23T13:48:33Z</time>
   </trkpt>
   <trkpt lat="46.2064895629883" lon="7.34882545471191">
    <ele>899.525024414062</ele>
    <time>2012-05-23T13:48:34Z</time>
   </trkpt>
   <trkpt lat="46.2064170837402" lon="7.34870290756226">
    <ele>900.900024414062</ele>
    <time>2012-05-23T13:48:39Z</time>
   </trkpt>
   <trkpt lat="46.2064056396484" lon="7.34867715835571">
    <ele>901.174987792969</ele>
    <time>2012-05-23T13:48:40Z</time>
   </trkpt>
   <trkpt lat="46.2063941955566" lon="7.34864521026611">
    <ele>901.450012207031</ele>
    <time>2012-05-23T13:48:41Z</time>
   </trkpt>
   <trkpt lat="46.2063827514648" lon="7.3486156463623">
    <ele>901.724975585938</ele>
    <time>2012-05-23T13:48:42Z</time>
   </trkpt>
   <trkpt lat="46.2063751220703" lon="7.34858560562134">
    <ele>902</ele>
    <time>2012-05-23T13:48:43Z</time>
   </trkpt>
   <trkpt lat="46.2063522338867" lon="7.34848880767822">
    <ele>902</ele>
    <time>2012-05-23T13:48:46Z</time>
   </trkpt>
   <trkpt lat="46.2063255310059" lon="7.34838962554932">
    <ele>902.880004882812</ele>
    <time>2012-05-23T13:48:49Z</time>
   </trkpt>
   <trkpt lat="46.2063179016113" lon="7.34835863113403">
    <ele>903.17333984375</ele>
    <time>2012-05-23T13:48:50Z</time>
   </trkpt>
   <trkpt lat="46.2063140869141" lon="7.3483247756958">
    <ele>903.466674804688</ele>
    <time>2012-05-23T13:48:51Z</time>
   </trkpt>
   <trkpt lat="46.2063102722168" lon="7.34829235076904">
    <ele>903.760009765625</ele>
    <time>2012-05-23T13:48:52Z</time>
   </trkpt>
   <trkpt lat="46.2063026428223" lon="7.34825944900513">
    <ele>904.053344726562</ele>
    <time>2012-05-23T13:48:53Z</time>
   </trkpt>
   <trkpt lat="46.2062759399414" lon="7.34810829162598">
    <ele>905.52001953125</ele>
    <time>2012-05-23T13:48:58Z</time>
   </trkpt>
   <trkpt lat="46.2062721252441" lon="7.3480749130249">
    <ele>905.813354492188</ele>
    <time>2012-05-23T13:48:59Z</time>
   </trkpt>
   <trkpt lat="46.2062606811523" lon="7.34804582595825">
    <ele>906.106689453125</ele>
    <time>2012-05-23T13:49:00Z</time>
   </trkpt>
   <trkpt lat="46.2062492370606" lon="7.34801530838013">
    <ele>906.400024414062</ele>
    <time>2012-05-23T13:49:01Z</time>
   </trkpt>
   <trkpt lat="46.2062377929688" lon="7.34798622131348">
    <ele>906.400024414062</ele>
    <time>2012-05-23T13:49:02Z</time>
   </trkpt>
   <trkpt lat="46.2061805725098" lon="7.34782075881958">
    <ele>907.599975585938</ele>
    <time>2012-05-23T13:49:08Z</time>
   </trkpt>
   <trkpt lat="46.2061767578125" lon="7.34779214859009">
    <ele>907.799987792969</ele>
    <time>2012-05-23T13:49:09Z</time>
   </trkpt>
   <trkpt lat="46.2061653137207" lon="7.34776544570923">
    <ele>908</ele>
    <time>2012-05-23T13:49:10Z</time>
   </trkpt>
   <trkpt lat="46.2061576843262" lon="7.34773635864258">
    <ele>908.200012207031</ele>
    <time>2012-05-23T13:49:11Z</time>
   </trkpt>
   <trkpt lat="46.2061462402344" lon="7.34770965576172">
    <ele>908.399963378906</ele>
    <time>2012-05-23T13:49:12Z</time>
   </trkpt>
   <trkpt lat="46.2061386108398" lon="7.34768056869507">
    <ele>908.599975585938</ele>
    <time>2012-05-23T13:49:13Z</time>
   </trkpt>
   <trkpt lat="46.206111907959" lon="7.34759950637817">
    <ele>908.599975585938</ele>
    <time>2012-05-23T13:49:16Z</time>
   </trkpt>
   <trkpt lat="46.2061042785644" lon="7.34757280349732">
    <ele>909</ele>
    <time>2012-05-23T13:49:17Z</time>
   </trkpt>
   <trkpt lat="46.2060928344727" lon="7.34754705429077">
    <ele>909.399963378906</ele>
    <time>2012-05-23T13:49:18Z</time>
   </trkpt>
   <trkpt lat="46.2060775756836" lon="7.34751510620117">
    <ele>909.799987792969</ele>
    <time>2012-05-23T13:49:19Z</time>
   </trkpt>
   <trkpt lat="46.2060661315918" lon="7.34748601913452">
    <ele>910.199951171875</ele>
    <time>2012-05-23T13:49:20Z</time>
   </trkpt>
   <trkpt lat="46.2060585021973" lon="7.34745597839356">
    <ele>910.599975585938</ele>
    <time>2012-05-23T13:49:21Z</time>
   </trkpt>
   <trkpt lat="46.2060394287109" lon="7.34740161895752">
    <ele>910.599975585938</ele>
    <time>2012-05-23T13:49:23Z</time>
   </trkpt>
   <trkpt lat="46.2060127258301" lon="7.34735012054443">
    <ele>911.266662597656</ele>
    <time>2012-05-23T13:49:25Z</time>
   </trkpt>
   <trkpt lat="46.2060012817383" lon="7.34731912612915">
    <ele>911.599975585938</ele>
    <time>2012-05-23T13:49:26Z</time>
   </trkpt>
   <trkpt lat="46.2059898376465" lon="7.34728765487671">
    <ele>911.933288574219</ele>
    <time>2012-05-23T13:49:27Z</time>
   </trkpt>
   <trkpt lat="46.205982208252" lon="7.3472638130188">
    <ele>912.266662597656</ele>
    <time>2012-05-23T13:49:28Z</time>
   </trkpt>
   <trkpt lat="46.2059669494629" lon="7.34723520278931">
    <ele>912.599975585938</ele>
    <time>2012-05-23T13:49:29Z</time>
   </trkpt>
   <trkpt lat="46.2059478759766" lon="7.34717655181885">
    <ele>912.599975585938</ele>
    <time>2012-05-23T13:49:31Z</time>
   </trkpt>
   <trkpt lat="46.2058792114258" lon="7.3470287322998">
    <ele>913.822204589844</ele>
    <time>2012-05-23T13:49:36Z</time>
   </trkpt>
   <trkpt lat="46.205867767334" lon="7.34699773788452">
    <ele>914.066650390625</ele>
    <time>2012-05-23T13:49:37Z</time>
   </trkpt>
   <trkpt lat="46.2058601379394" lon="7.34696435928345">
    <ele>914.311096191406</ele>
    <time>2012-05-23T13:49:38Z</time>
   </trkpt>
   <trkpt lat="46.2058486938477" lon="7.34693670272827">
    <ele>914.555541992188</ele>
    <time>2012-05-23T13:49:39Z</time>
   </trkpt>
   <trkpt lat="46.2058372497559" lon="7.34690713882446">
    <ele>914.799987792969</ele>
    <time>2012-05-23T13:49:40Z</time>
   </trkpt>
   <trkpt lat="46.2058029174805" lon="7.34681272506714">
    <ele>914.799987792969</ele>
    <time>2012-05-23T13:49:43Z</time>
   </trkpt>
   <trkpt lat="46.2057571411133" lon="7.34673833847046">
    <ele>915.799987792969</ele>
    <time>2012-05-23T13:49:46Z</time>
   </trkpt>
   <trkpt lat="46.2057418823242" lon="7.34671258926392">
    <ele>916.13330078125</ele>
    <time>2012-05-23T13:49:47Z</time>
   </trkpt>
   <trkpt lat="46.2057228088379" lon="7.34668731689453">
    <ele>916.466674804688</ele>
    <time>2012-05-23T13:49:48Z</time>
   </trkpt>
   <trkpt lat="46.2057075500488" lon="7.34666585922241">
    <ele>916.799987792969</ele>
    <time>2012-05-23T13:49:49Z</time>
   </trkpt>
   <trkpt lat="46.205696105957" lon="7.3466420173645">
    <ele>916.799987792969</ele>
    <time>2012-05-23T13:49:50Z</time>
   </trkpt>
   <trkpt lat="46.2056274414062" lon="7.34651231765747">
    <ele>918.022216796875</ele>
    <time>2012-05-23T13:49:55Z</time>
   </trkpt>
   <trkpt lat="46.2056083679199" lon="7.34648084640503">
    <ele>918.266662597656</ele>
    <time>2012-05-23T13:49:56Z</time>
   </trkpt>
   <trkpt lat="46.2055892944336" lon="7.3464527130127">
    <ele>918.511108398438</ele>
    <time>2012-05-23T13:49:57Z</time>
   </trkpt>
   <trkpt lat="46.2055702209473" lon="7.34642362594604">
    <ele>918.755554199219</ele>
    <time>2012-05-23T13:49:58Z</time>
   </trkpt>
   <trkpt lat="46.2055511474609" lon="7.34639978408814">
    <ele>919</ele>
    <time>2012-05-23T13:49:59Z</time>
   </trkpt>
   <trkpt lat="46.2054977416992" lon="7.34631013870239">
    <ele>919</ele>
    <time>2012-05-23T13:50:03Z</time>
   </trkpt>
   <trkpt lat="46.2054672241211" lon="7.34626197814941">
    <ele>919.666687011719</ele>
    <time>2012-05-23T13:50:05Z</time>
   </trkpt>
   <trkpt lat="46.205451965332" lon="7.34623527526856">
    <ele>920</ele>
    <time>2012-05-23T13:50:06Z</time>
   </trkpt>
   <trkpt lat="46.2054328918457" lon="7.34620952606201">
    <ele>920.333312988281</ele>
    <time>2012-05-23T13:50:07Z</time>
   </trkpt>
   <trkpt lat="46.2054176330566" lon="7.3461856842041">
    <ele>920.666687011719</ele>
    <time>2012-05-23T13:50:08Z</time>
   </trkpt>
   <trkpt lat="46.2054023742676" lon="7.34616184234619">
    <ele>921</ele>
    <time>2012-05-23T13:50:09Z</time>
   </trkpt>
   <trkpt lat="46.2053871154785" lon="7.34613847732544">
    <ele>921</ele>
    <time>2012-05-23T13:50:10Z</time>
   </trkpt>
   <trkpt lat="46.2053489685059" lon="7.34606838226318">
    <ele>921.799987792969</ele>
    <time>2012-05-23T13:50:13Z</time>
   </trkpt>
   <trkpt lat="46.2053337097168" lon="7.3460488319397">
    <ele>922.066650390625</ele>
    <time>2012-05-23T13:50:14Z</time>
   </trkpt>
   <trkpt lat="46.2053146362305" lon="7.34602928161621">
    <ele>922.333312988281</ele>
    <time>2012-05-23T13:50:15Z</time>
   </trkpt>
   <trkpt lat="46.2053031921387" lon="7.34600210189819">
    <ele>922.599975585938</ele>
    <time>2012-05-23T13:50:16Z</time>
   </trkpt>
   <trkpt lat="46.2052879333496" lon="7.34597635269165">
    <ele>922.86669921875</ele>
    <time>2012-05-23T13:50:17Z</time>
   </trkpt>
   <trkpt lat="46.2051963806152" lon="7.34583902359009">
    <ele>924.200012207031</ele>
    <time>2012-05-23T13:50:22Z</time>
   </trkpt>
   <trkpt lat="46.2051849365234" lon="7.34580516815186">
    <ele>924.466674804688</ele>
    <time>2012-05-23T13:50:23Z</time>
   </trkpt>
   <trkpt lat="46.2051696777344" lon="7.34577894210815">
    <ele>924.733337402344</ele>
    <time>2012-05-23T13:50:24Z</time>
   </trkpt>
   <trkpt lat="46.2051582336426" lon="7.34575033187866">
    <ele>925</ele>
    <time>2012-05-23T13:50:25Z</time>
   </trkpt>
   <trkpt lat="46.2051429748535" lon="7.34572458267212">
    <ele>925.266662597656</ele>
    <time>2012-05-23T13:50:26Z</time>
   </trkpt>
   <trkpt lat="46.205078125" lon="7.34562110900879">
    <ele>926.333374023438</ele>
    <time>2012-05-23T13:50:30Z</time>
   </trkpt>
   <trkpt lat="46.2050666809082" lon="7.3455924987793">
    <ele>926.600036621094</ele>
    <time>2012-05-23T13:50:31Z</time>
   </trkpt>
   <trkpt lat="46.2050514221191" lon="7.34556531906128">
    <ele>926.86669921875</ele>
    <time>2012-05-23T13:50:32Z</time>
   </trkpt>
   <trkpt lat="46.2050399780273" lon="7.34553861618042">
    <ele>927.133361816406</ele>
    <time>2012-05-23T13:50:33Z</time>
   </trkpt>
   <trkpt lat="46.205020904541" lon="7.34552001953125">
    <ele>927.400024414062</ele>
    <time>2012-05-23T13:50:34Z</time>
   </trkpt>
   <trkpt lat="46.2050094604492" lon="7.34549522399902">
    <ele>927.400024414062</ele>
    <time>2012-05-23T13:50:35Z</time>
   </trkpt>
   <trkpt lat="46.2049751281738" lon="7.3454475402832">
    <ele>927.900024414062</ele>
    <time>2012-05-23T13:50:37Z</time>
   </trkpt>
   <trkpt lat="46.204948425293" lon="7.34539031982422">
    <ele>928.400024414062</ele>
    <time>2012-05-23T13:50:39Z</time>
   </trkpt>
   <trkpt lat="46.2049331665039" lon="7.34536170959473">
    <ele>928.650024414062</ele>
    <time>2012-05-23T13:50:40Z</time>
   </trkpt>
   <trkpt lat="46.2049179077148" lon="7.3453369140625">
    <ele>928.900024414062</ele>
    <time>2012-05-23T13:50:41Z</time>
   </trkpt>
   <trkpt lat="46.2049026489258" lon="7.34530925750732">
    <ele>929.150024414062</ele>
    <time>2012-05-23T13:50:42Z</time>
   </trkpt>
   <trkpt lat="46.2048835754394" lon="7.34528636932373">
    <ele>929.400024414062</ele>
    <time>2012-05-23T13:50:43Z</time>
   </trkpt>
   <trkpt lat="46.2048530578613" lon="7.34522485733032">
    <ele>929.400024414062</ele>
    <time>2012-05-23T13:50:45Z</time>
   </trkpt>
   <trkpt lat="46.2047920227051" lon="7.34512281417847">
    <ele>930.455993652344</ele>
    <time>2012-05-23T13:50:49Z</time>
   </trkpt>
   <trkpt lat="46.2047805786133" lon="7.34509229660034">
    <ele>930.720031738281</ele>
    <time>2012-05-23T13:50:50Z</time>
   </trkpt>
   <trkpt lat="46.2047653198242" lon="7.34506607055664">
    <ele>930.984008789062</ele>
    <time>2012-05-23T13:50:51Z</time>
   </trkpt>
   <trkpt lat="46.2047462463379" lon="7.3450436592102">
    <ele>931.248046875</ele>
    <time>2012-05-23T13:50:52Z</time>
   </trkpt>
   <trkpt lat="46.2047309875488" lon="7.34502458572388">
    <ele>931.512023925781</ele>
    <time>2012-05-23T13:50:53Z</time>
   </trkpt>
   <trkpt lat="46.2046203613281" lon="7.34485006332398">
    <ele>933.359985351562</ele>
    <time>2012-05-23T13:51:00Z</time>
   </trkpt>
   <trkpt lat="46.2046012878418" lon="7.34482908248901">
    <ele>933.6240234375</ele>
    <time>2012-05-23T13:51:01Z</time>
   </trkpt>
   <trkpt lat="46.2045860290527" lon="7.34480333328247">
    <ele>933.888000488281</ele>
    <time>2012-05-23T13:51:02Z</time>
   </trkpt>
   <trkpt lat="46.2045669555664" lon="7.34477663040161">
    <ele>934.151977539062</ele>
    <time>2012-05-23T13:51:03Z</time>
   </trkpt>
   <trkpt lat="46.2045097351074" lon="7.34469747543335">
    <ele>934.944030761719</ele>
    <time>2012-05-23T13:51:06Z</time>
   </trkpt>
   <trkpt lat="46.2044944763184" lon="7.34467267990112">
    <ele>935.2080078125</ele>
    <time>2012-05-23T13:51:07Z</time>
   </trkpt>
   <trkpt lat="46.2044792175293" lon="7.3446478843689">
    <ele>935.471984863281</ele>
    <time>2012-05-23T13:51:08Z</time>
   </trkpt>
   <trkpt lat="46.2044639587402" lon="7.34461832046509">
    <ele>935.736022949219</ele>
    <time>2012-05-23T13:51:09Z</time>
   </trkpt>
   <trkpt lat="46.2044486999512" lon="7.34458684921265">
    <ele>936</ele>
    <time>2012-05-23T13:51:10Z</time>
   </trkpt>
   <trkpt lat="46.2043952941894" lon="7.34451484680176">
    <ele>936</ele>
    <time>2012-05-23T13:51:13Z</time>
   </trkpt>
   <trkpt lat="46.2043342590332" lon="7.34440994262695">
    <ele>937.099975585938</ele>
    <time>2012-05-23T13:51:17Z</time>
   </trkpt>
   <trkpt lat="46.2043228149414" lon="7.34438133239746">
    <ele>937.375</ele>
    <time>2012-05-23T13:51:18Z</time>
   </trkpt>
   <trkpt lat="46.2043075561523" lon="7.34435224533081">
    <ele>937.650024414062</ele>
    <time>2012-05-23T13:51:19Z</time>
   </trkpt>
   <trkpt lat="46.2042922973633" lon="7.34431600570679">
    <ele>937.924987792969</ele>
    <time>2012-05-23T13:51:20Z</time>
   </trkpt>
   <trkpt lat="46.2042846679688" lon="7.34428071975708">
    <ele>938.200012207031</ele>
    <time>2012-05-23T13:51:21Z</time>
   </trkpt>
   <trkpt lat="46.2042579650879" lon="7.34417629241943">
    <ele>938.200012207031</ele>
    <time>2012-05-23T13:51:24Z</time>
   </trkpt>
   <trkpt lat="46.2042465209961" lon="7.34414672851562">
    <ele>938.444458007812</ele>
    <time>2012-05-23T13:51:25Z</time>
   </trkpt>
   <trkpt lat="46.204231262207" lon="7.34412050247192">
    <ele>938.688903808594</ele>
    <time>2012-05-23T13:51:26Z</time>
   </trkpt>
   <trkpt lat="46.2042083740234" lon="7.34409427642822">
    <ele>938.933349609375</ele>
    <time>2012-05-23T13:51:27Z</time>
   </trkpt>
   <trkpt lat="46.204158782959" lon="7.34405994415283">
    <ele>939.422241210938</ele>
    <time>2012-05-23T13:51:29Z</time>
   </trkpt>
   <trkpt lat="46.2041320800781" lon="7.3440670967102">
    <ele>939.666687011719</ele>
    <time>2012-05-23T13:51:30Z</time>
   </trkpt>
   <trkpt lat="46.2041168212891" lon="7.34408855438232">
    <ele>939.9111328125</ele>
    <time>2012-05-23T13:51:31Z</time>
   </trkpt>
   <trkpt lat="46.2041091918945" lon="7.34412240982056">
    <ele>940.155578613281</ele>
    <time>2012-05-23T13:51:32Z</time>
   </trkpt>
   <trkpt lat="46.2041091918945" lon="7.34416484832764">
    <ele>940.400024414062</ele>
    <time>2012-05-23T13:51:33Z</time>
   </trkpt>
   <trkpt lat="46.2041130065918" lon="7.34420156478882">
    <ele>940.400024414062</ele>
    <time>2012-05-23T13:51:34Z</time>
   </trkpt>
   <trkpt lat="46.2041358947754" lon="7.34437990188599">
    <ele>941.011108398438</ele>
    <time>2012-05-23T13:51:39Z</time>
   </trkpt>
   <trkpt lat="46.2041664123535" lon="7.34443855285644">
    <ele>941.255554199219</ele>
    <time>2012-05-23T13:51:41Z</time>
   </trkpt>
   <trkpt lat="46.204273223877" lon="7.34460210800171">
    <ele>941.988891601562</ele>
    <time>2012-05-23T13:51:47Z</time>
   </trkpt>
   <trkpt lat="46.2043037414551" lon="7.34465932846069">
    <ele>942.233337402344</ele>
    <time>2012-05-23T13:51:49Z</time>
   </trkpt>
   <trkpt lat="46.2043151855469" lon="7.34469032287598">
    <ele>942.355529785156</ele>
    <time>2012-05-23T13:51:50Z</time>
   </trkpt>
   <trkpt lat="46.2043266296387" lon="7.34471893310547">
    <ele>942.477783203125</ele>
    <time>2012-05-23T13:51:51Z</time>
   </trkpt>
   <trkpt lat="46.2043418884277" lon="7.3447470664978">
    <ele>942.599975585938</ele>
    <time>2012-05-23T13:51:52Z</time>
   </trkpt>
   <trkpt lat="46.2043533325195" lon="7.34477710723877">
    <ele>942.599975585938</ele>
    <time>2012-05-23T13:51:53Z</time>
   </trkpt>
   <trkpt lat="46.2043991088867" lon="7.34489679336548">
    <ele>943.588195800781</ele>
    <time>2012-05-23T13:51:57Z</time>
   </trkpt>
   <trkpt lat="46.2044105529785" lon="7.3449296951294">
    <ele>943.835266113281</ele>
    <time>2012-05-23T13:51:58Z</time>
   </trkpt>
   <trkpt lat="46.204418182373" lon="7.3449559211731">
    <ele>944.082336425781</ele>
    <time>2012-05-23T13:51:59Z</time>
   </trkpt>
   <trkpt lat="46.2044334411621" lon="7.34498596191406">
    <ele>944.329406738281</ele>
    <time>2012-05-23T13:52:00Z</time>
   </trkpt>
   <trkpt lat="46.2044410705566" lon="7.34502124786377">
    <ele>944.576477050781</ele>
    <time>2012-05-23T13:52:01Z</time>
   </trkpt>
   <trkpt lat="46.2044639587402" lon="7.3451714515686">
    <ele>945.811767578125</ele>
    <time>2012-05-23T13:52:06Z</time>
   </trkpt>
   <trkpt lat="46.2044677734375" lon="7.34520244598389">
    <ele>946.058837890625</ele>
    <time>2012-05-23T13:52:07Z</time>
   </trkpt>
   <trkpt lat="46.2044677734375" lon="7.34523677825928">
    <ele>946.305847167969</ele>
    <time>2012-05-23T13:52:08Z</time>
   </trkpt>
   <trkpt lat="46.204475402832" lon="7.34526538848877">
    <ele>946.552917480469</ele>
    <time>2012-05-23T13:52:09Z</time>
   </trkpt>
   <trkpt lat="46.2044792175293" lon="7.34529161453247">
    <ele>946.799987792969</ele>
    <time>2012-05-23T13:52:10Z</time>
   </trkpt>
   <trkpt lat="46.2044982910156" lon="7.34537935256958">
    <ele>946.799987792969</ele>
    <time>2012-05-23T13:52:13Z</time>
   </trkpt>
   <trkpt lat="46.2045211791992" lon="7.34543943405151">
    <ele>947.599975585938</ele>
    <time>2012-05-23T13:52:15Z</time>
   </trkpt>
   <trkpt lat="46.2045364379883" lon="7.3454737663269">
    <ele>948</ele>
    <time>2012-05-23T13:52:16Z</time>
   </trkpt>
   <trkpt lat="46.2045516967773" lon="7.34550666809082">
    <ele>948.399963378906</ele>
    <time>2012-05-23T13:52:17Z</time>
   </trkpt>
   <trkpt lat="46.2045631408691" lon="7.34553909301758">
    <ele>948.799987792969</ele>
    <time>2012-05-23T13:52:18Z</time>
   </trkpt>
   <trkpt lat="46.2045745849609" lon="7.3455696105957">
    <ele>948.799987792969</ele>
    <time>2012-05-23T13:52:19Z</time>
   </trkpt>
   <trkpt lat="46.2046127319336" lon="7.34571552276611">
    <ele>949.88232421875</ele>
    <time>2012-05-23T13:52:23Z</time>
   </trkpt>
   <trkpt lat="46.2046203613281" lon="7.34574556350708">
    <ele>950.152954101562</ele>
    <time>2012-05-23T13:52:24Z</time>
   </trkpt>
   <trkpt lat="46.2046279907227" lon="7.34577417373657">
    <ele>950.423522949219</ele>
    <time>2012-05-23T13:52:25Z</time>
   </trkpt>
   <trkpt lat="46.2046432495117" lon="7.34580659866333">
    <ele>950.694091796875</ele>
    <time>2012-05-23T13:52:26Z</time>
   </trkpt>
   <trkpt lat="46.2046585083008" lon="7.34583950042725">
    <ele>950.964721679688</ele>
    <time>2012-05-23T13:52:27Z</time>
   </trkpt>
   <trkpt lat="46.2047309875488" lon="7.34601640701294">
    <ele>952.317687988281</ele>
    <time>2012-05-23T13:52:32Z</time>
   </trkpt>
   <trkpt lat="46.2047348022461" lon="7.34604930877686">
    <ele>952.588256835938</ele>
    <time>2012-05-23T13:52:33Z</time>
   </trkpt>
   <trkpt lat="46.2047462463379" lon="7.34608125686646">
    <ele>952.858825683594</ele>
    <time>2012-05-23T13:52:34Z</time>
   </trkpt>
   <trkpt lat="46.2047538757324" lon="7.34611225128174">
    <ele>953.129455566406</ele>
    <time>2012-05-23T13:52:35Z</time>
   </trkpt>
   <trkpt lat="46.2047653198242" lon="7.34614419937134">
    <ele>953.400024414062</ele>
    <time>2012-05-23T13:52:36Z</time>
   </trkpt>
   <trkpt lat="46.204776763916" lon="7.34623432159424">
    <ele>953.400024414062</ele>
    <time>2012-05-23T13:52:39Z</time>
   </trkpt>
   <trkpt lat="46.2047882080078" lon="7.34630060195923">
    <ele>954.066711425781</ele>
    <time>2012-05-23T13:52:41Z</time>
   </trkpt>
   <trkpt lat="46.2047920227051" lon="7.34633636474609">
    <ele>954.400024414062</ele>
    <time>2012-05-23T13:52:42Z</time>
   </trkpt>
   <trkpt lat="46.2047920227051" lon="7.34637355804443">
    <ele>954.733337402344</ele>
    <time>2012-05-23T13:52:43Z</time>
   </trkpt>
   <trkpt lat="46.2047882080078" lon="7.34640455245972">
    <ele>955.066711425781</ele>
    <time>2012-05-23T13:52:44Z</time>
   </trkpt>
   <trkpt lat="46.2047882080078" lon="7.34643697738648">
    <ele>955.400024414062</ele>
    <time>2012-05-23T13:52:45Z</time>
   </trkpt>
   <trkpt lat="46.2047958374023" lon="7.3464994430542">
    <ele>955.400024414062</ele>
    <time>2012-05-23T13:52:47Z</time>
   </trkpt>
   <trkpt lat="46.2048149108887" lon="7.34662914276123">
    <ele>956.333374023438</ele>
    <time>2012-05-23T13:52:51Z</time>
   </trkpt>
   <trkpt lat="46.2048225402832" lon="7.34666395187378">
    <ele>956.566650390625</ele>
    <time>2012-05-23T13:52:52Z</time>
   </trkpt>
   <trkpt lat="46.2048263549805" lon="7.34670209884644">
    <ele>956.799987792969</ele>
    <time>2012-05-23T13:52:53Z</time>
   </trkpt>
   <trkpt lat="46.2048416137695" lon="7.34674024581909">
    <ele>957.033325195312</ele>
    <time>2012-05-23T13:52:54Z</time>
   </trkpt>
   <trkpt lat="46.2048492431641" lon="7.34677124023438">
    <ele>957.266662597656</ele>
    <time>2012-05-23T13:52:55Z</time>
   </trkpt>
   <trkpt lat="46.2048530578613" lon="7.34680700302124">
    <ele>957.5</ele>
    <time>2012-05-23T13:52:56Z</time>
   </trkpt>
   <trkpt lat="46.2048835754394" lon="7.34701538085938">
    <ele>958.899963378906</ele>
    <time>2012-05-23T13:53:02Z</time>
   </trkpt>
   <trkpt lat="46.2048950195312" lon="7.34704923629761">
    <ele>959.13330078125</ele>
    <time>2012-05-23T13:53:03Z</time>
   </trkpt>
   <trkpt lat="46.2048988342285" lon="7.34708070755005">
    <ele>959.366638183594</ele>
    <time>2012-05-23T13:53:04Z</time>
   </trkpt>
   <trkpt lat="46.2049026489258" lon="7.34711217880249">
    <ele>959.599975585938</ele>
    <time>2012-05-23T13:53:05Z</time>
   </trkpt>
   <trkpt lat="46.2049255371094" lon="7.34717082977295">
    <ele>959.599975585938</ele>
    <time>2012-05-23T13:53:07Z</time>
   </trkpt>
   <trkpt lat="46.2049446105957" lon="7.34726285934448">
    <ele>960.399963378906</ele>
    <time>2012-05-23T13:53:10Z</time>
   </trkpt>
   <trkpt lat="46.2049522399902" lon="7.34728956222534">
    <ele>960.666625976562</ele>
    <time>2012-05-23T13:53:11Z</time>
   </trkpt>
   <trkpt lat="46.2049560546875" lon="7.34731721878052">
    <ele>960.933288574219</ele>
    <time>2012-05-23T13:53:12Z</time>
   </trkpt>
   <trkpt lat="46.2049598693848" lon="7.34734344482422">
    <ele>961.199951171875</ele>
    <time>2012-05-23T13:53:13Z</time>
   </trkpt>
   <trkpt lat="46.2049713134766" lon="7.34737586975098">
    <ele>961.466613769531</ele>
    <time>2012-05-23T13:53:14Z</time>
   </trkpt>
   <trkpt lat="46.2049942016602" lon="7.34748983383179">
    <ele>962.533325195312</ele>
    <time>2012-05-23T13:53:18Z</time>
   </trkpt>
   <trkpt lat="46.2049980163574" lon="7.34751653671265">
    <ele>962.799987792969</ele>
    <time>2012-05-23T13:53:19Z</time>
   </trkpt>
   <trkpt lat="46.205005645752" lon="7.34755039215088">
    <ele>963.066650390625</ele>
    <time>2012-05-23T13:53:20Z</time>
   </trkpt>
   <trkpt lat="46.2050132751465" lon="7.3475866317749">
    <ele>963.333312988281</ele>
    <time>2012-05-23T13:53:21Z</time>
   </trkpt>
   <trkpt lat="46.2050170898438" lon="7.34762382507324">
    <ele>963.599975585938</ele>
    <time>2012-05-23T13:53:22Z</time>
   </trkpt>
   <trkpt lat="46.2050323486328" lon="7.34770631790161">
    <ele>963.599975585938</ele>
    <time>2012-05-23T13:53:25Z</time>
   </trkpt>
   <trkpt lat="46.2050361633301" lon="7.34773921966553">
    <ele>964</ele>
    <time>2012-05-23T13:53:26Z</time>
   </trkpt>
   <trkpt lat="46.2050361633301" lon="7.34777021408081">
    <ele>964.399963378906</ele>
    <time>2012-05-23T13:53:27Z</time>
   </trkpt>
   <trkpt lat="46.2050361633301" lon="7.34780263900757">
    <ele>964.799987792969</ele>
    <time>2012-05-23T13:53:28Z</time>
   </trkpt>
   <trkpt lat="46.2050399780273" lon="7.34783601760864">
    <ele>965.199951171875</ele>
    <time>2012-05-23T13:53:29Z</time>
   </trkpt>
   <trkpt lat="46.2050399780273" lon="7.34787464141846">
    <ele>965.599975585938</ele>
    <time>2012-05-23T13:53:30Z</time>
   </trkpt>
   <trkpt lat="46.2050361633301" lon="7.34793615341186">
    <ele>965.599975585938</ele>
    <time>2012-05-23T13:53:32Z</time>
   </trkpt>
   <trkpt lat="46.2050361633301" lon="7.3480544090271">
    <ele>966.577758789062</ele>
    <time>2012-05-23T13:53:36Z</time>
   </trkpt>
   <trkpt lat="46.2050399780273" lon="7.34808397293091">
    <ele>966.822204589844</ele>
    <time>2012-05-23T13:53:37Z</time>
   </trkpt>
   <trkpt lat="46.2050399780273" lon="7.34811449050903">
    <ele>967.066650390625</ele>
    <time>2012-05-23T13:53:38Z</time>
   </trkpt>
   <trkpt lat="46.2050399780273" lon="7.34814214706421">
    <ele>967.311096191406</ele>
    <time>2012-05-23T13:53:39Z</time>
   </trkpt>
   <trkpt lat="46.2050323486328" lon="7.34816837310791">
    <ele>967.555541992188</ele>
    <time>2012-05-23T13:53:40Z</time>
   </trkpt>
   <trkpt lat="46.2050132751465" lon="7.34834241867065">
    <ele>969.022216796875</ele>
    <time>2012-05-23T13:53:46Z</time>
   </trkpt>
   <trkpt lat="46.2050170898438" lon="7.34837627410889">
    <ele>969.266662597656</ele>
    <time>2012-05-23T13:53:47Z</time>
   </trkpt>
   <trkpt lat="46.2050170898438" lon="7.34840822219849">
    <ele>969.511108398438</ele>
    <time>2012-05-23T13:53:48Z</time>
   </trkpt>
   <trkpt lat="46.205020904541" lon="7.34844923019409">
    <ele>969.755554199219</ele>
    <time>2012-05-23T13:53:49Z</time>
   </trkpt>
   <trkpt lat="46.205020904541" lon="7.34848976135254">
    <ele>970</ele>
    <time>2012-05-23T13:53:50Z</time>
   </trkpt>
   <trkpt lat="46.2050247192383" lon="7.34860563278198">
    <ele>970</ele>
    <time>2012-05-23T13:53:53Z</time>
   </trkpt>
   <trkpt lat="46.2050247192383" lon="7.34868144989014">
    <ele>970.799987792969</ele>
    <time>2012-05-23T13:53:55Z</time>
   </trkpt>
   <trkpt lat="46.205020904541" lon="7.34871959686279">
    <ele>971.200012207031</ele>
    <time>2012-05-23T13:53:56Z</time>
   </trkpt>
   <trkpt lat="46.205020904541" lon="7.34875774383545">
    <ele>971.599975585938</ele>
    <time>2012-05-23T13:53:57Z</time>
   </trkpt>
   <trkpt lat="46.2050247192383" lon="7.34879398345947">
    <ele>972</ele>
    <time>2012-05-23T13:53:58Z</time>
   </trkpt>
   <trkpt lat="46.2050247192383" lon="7.3488302230835">
    <ele>972</ele>
    <time>2012-05-23T13:53:59Z</time>
   </trkpt>
   <trkpt lat="46.2050476074219" lon="7.34900093078613">
    <ele>973.099975585938</ele>
    <time>2012-05-23T13:54:04Z</time>
   </trkpt>
   <trkpt lat="46.2050476074219" lon="7.34903526306152">
    <ele>973.320007324219</ele>
    <time>2012-05-23T13:54:05Z</time>
   </trkpt>
   <trkpt lat="46.2050476074219" lon="7.34906339645386">
    <ele>973.5400390625</ele>
    <time>2012-05-23T13:54:06Z</time>
   </trkpt>
   <trkpt lat="46.2050514221191" lon="7.34909772872925">
    <ele>973.760009765625</ele>
    <time>2012-05-23T13:54:07Z</time>
   </trkpt>
   <trkpt lat="46.2050514221191" lon="7.34912967681885">
    <ele>973.97998046875</ele>
    <time>2012-05-23T13:54:08Z</time>
   </trkpt>
   <trkpt lat="46.2050514221191" lon="7.34916257858276">
    <ele>974.200012207031</ele>
    <time>2012-05-23T13:54:09Z</time>
   </trkpt>
   <trkpt lat="46.2050437927246" lon="7.34926605224609">
    <ele>974.200012207031</ele>
    <time>2012-05-23T13:54:12Z</time>
   </trkpt>
   <trkpt lat="46.2050437927246" lon="7.34934091567993">
    <ele>974.733337402344</ele>
    <time>2012-05-23T13:54:14Z</time>
   </trkpt>
   <trkpt lat="46.2050399780273" lon="7.34937477111816">
    <ele>975</ele>
    <time>2012-05-23T13:54:15Z</time>
   </trkpt>
   <trkpt lat="46.2050361633301" lon="7.34940528869629">
    <ele>975.266662597656</ele>
    <time>2012-05-23T13:54:16Z</time>
   </trkpt>
   <trkpt lat="46.2050323486328" lon="7.34943866729736">
    <ele>975.533325195312</ele>
    <time>2012-05-23T13:54:17Z</time>
   </trkpt>
   <trkpt lat="46.2050285339356" lon="7.34947156906128">
    <ele>975.799987792969</ele>
    <time>2012-05-23T13:54:18Z</time>
   </trkpt>
   <trkpt lat="46.2049942016602" lon="7.3496470451355">
    <ele>977.13330078125</ele>
    <time>2012-05-23T13:54:23Z</time>
   </trkpt>
   <trkpt lat="46.2049865722656" lon="7.34967947006226">
    <ele>977.400024414062</ele>
    <time>2012-05-23T13:54:24Z</time>
   </trkpt>
   <trkpt lat="46.2049827575684" lon="7.34971237182617">
    <ele>977.666687011719</ele>
    <time>2012-05-23T13:54:25Z</time>
   </trkpt>
   <trkpt lat="46.2049751281738" lon="7.34974431991577">
    <ele>977.933349609375</ele>
    <time>2012-05-23T13:54:26Z</time>
   </trkpt>
   <trkpt lat="46.2049751281738" lon="7.34977436065674">
    <ele>978.200012207031</ele>
    <time>2012-05-23T13:54:27Z</time>
   </trkpt>
   <trkpt lat="46.2049560546875" lon="7.34993600845337">
    <ele>979.533325195312</ele>
    <time>2012-05-23T13:54:32Z</time>
   </trkpt>
   <trkpt lat="46.2049522399902" lon="7.34997081756592">
    <ele>979.799987792969</ele>
    <time>2012-05-23T13:54:33Z</time>
   </trkpt>
   <trkpt lat="46.2049598693848" lon="7.34999847412109">
    <ele>980.066650390625</ele>
    <time>2012-05-23T13:54:34Z</time>
   </trkpt>
   <trkpt lat="46.2049598693848" lon="7.3500337600708">
    <ele>980.333312988281</ele>
    <time>2012-05-23T13:54:35Z</time>
   </trkpt>
   <trkpt lat="46.204963684082" lon="7.35006952285767">
    <ele>980.599975585938</ele>
    <time>2012-05-23T13:54:36Z</time>
   </trkpt>
   <trkpt lat="46.2049560546875" lon="7.35013580322266">
    <ele>980.599975585938</ele>
    <time>2012-05-23T13:54:38Z</time>
   </trkpt>
   <trkpt lat="46.204948425293" lon="7.35026550292969">
    <ele>981.63330078125</ele>
    <time>2012-05-23T13:54:42Z</time>
   </trkpt>
   <trkpt lat="46.2049446105957" lon="7.35030174255371">
    <ele>981.891662597656</ele>
    <time>2012-05-23T13:54:43Z</time>
   </trkpt>
   <trkpt lat="46.2049446105957" lon="7.35033655166626">
    <ele>982.149963378906</ele>
    <time>2012-05-23T13:54:44Z</time>
   </trkpt>
   <trkpt lat="46.2049446105957" lon="7.3503680229187">
    <ele>982.408325195312</ele>
    <time>2012-05-23T13:54:45Z</time>
   </trkpt>
   <trkpt lat="46.2049331665039" lon="7.35050678253174">
    <ele>983.441650390625</ele>
    <time>2012-05-23T13:54:49Z</time>
   </trkpt>
   <trkpt lat="46.2049331665039" lon="7.35053634643555">
    <ele>983.699951171875</ele>
    <time>2012-05-23T13:54:50Z</time>
   </trkpt>
   <trkpt lat="46.2049331665039" lon="7.35056591033936">
    <ele>983.958312988281</ele>
    <time>2012-05-23T13:54:51Z</time>
   </trkpt>
   <trkpt lat="46.2049369812012" lon="7.3506007194519">
    <ele>984.216674804688</ele>
    <time>2012-05-23T13:54:52Z</time>
   </trkpt>
   <trkpt lat="46.2049446105957" lon="7.3506350517273">
    <ele>984.474975585938</ele>
    <time>2012-05-23T13:54:53Z</time>
   </trkpt>
   <trkpt lat="46.2049522399902" lon="7.35079336166382">
    <ele>985.766662597656</ele>
    <time>2012-05-23T13:54:58Z</time>
   </trkpt>
   <trkpt lat="46.2049522399902" lon="7.35083389282226">
    <ele>986.024963378906</ele>
    <time>2012-05-23T13:54:59Z</time>
   </trkpt>
   <trkpt lat="46.2049522399902" lon="7.35087013244629">
    <ele>986.283325195312</ele>
    <time>2012-05-23T13:55:00Z</time>
   </trkpt>
   <trkpt lat="46.2049560546875" lon="7.35090589523315">
    <ele>986.541625976562</ele>
    <time>2012-05-23T13:55:01Z</time>
   </trkpt>
   <trkpt lat="46.2049560546875" lon="7.35093879699707">
    <ele>986.799987792969</ele>
    <time>2012-05-23T13:55:02Z</time>
   </trkpt>
   <trkpt lat="46.2049598693848" lon="7.35100030899048">
    <ele>986.799987792969</ele>
    <time>2012-05-23T13:55:04Z</time>
   </trkpt>
   <trkpt lat="46.204963684082" lon="7.35116624832153">
    <ele>988.022216796875</ele>
    <time>2012-05-23T13:55:09Z</time>
   </trkpt>
   <trkpt lat="46.204963684082" lon="7.35120058059692">
    <ele>988.266662597656</ele>
    <time>2012-05-23T13:55:10Z</time>
   </trkpt>
   <trkpt lat="46.204963684082" lon="7.351233959198">
    <ele>988.511108398438</ele>
    <time>2012-05-23T13:55:11Z</time>
   </trkpt>
   <trkpt lat="46.2049598693848" lon="7.35126543045044">
    <ele>988.755554199219</ele>
    <time>2012-05-23T13:55:12Z</time>
   </trkpt>
   <trkpt lat="46.2049446105957" lon="7.35144805908203">
    <ele>990.222229003906</ele>
    <time>2012-05-23T13:55:18Z</time>
   </trkpt>
   <trkpt lat="46.2049407958984" lon="7.3514838218689">
    <ele>990.466674804688</ele>
    <time>2012-05-23T13:55:19Z</time>
   </trkpt>
   <trkpt lat="46.2049407958984" lon="7.35152196884155">
    <ele>990.711120605469</ele>
    <time>2012-05-23T13:55:20Z</time>
   </trkpt>
   <trkpt lat="46.2049407958984" lon="7.35155820846558">
    <ele>990.95556640625</ele>
    <time>2012-05-23T13:55:21Z</time>
   </trkpt>
   <trkpt lat="46.204948425293" lon="7.35159349441528">
    <ele>991.200012207031</ele>
    <time>2012-05-23T13:55:22Z</time>
   </trkpt>
   <trkpt lat="46.2049598693848" lon="7.35166358947754">
    <ele>991.200012207031</ele>
    <time>2012-05-23T13:55:24Z</time>
   </trkpt>
   <trkpt lat="46.2049789428711" lon="7.35181570053101">
    <ele>992.311096191406</ele>
    <time>2012-05-23T13:55:29Z</time>
   </trkpt>
   <trkpt lat="46.2049789428711" lon="7.35185194015503">
    <ele>992.533325195312</ele>
    <time>2012-05-23T13:55:30Z</time>
   </trkpt>
   <trkpt lat="46.2049789428711" lon="7.3518877029419">
    <ele>992.755554199219</ele>
    <time>2012-05-23T13:55:31Z</time>
   </trkpt>
   <trkpt lat="46.2049827575684" lon="7.35192728042602">
    <ele>992.977783203125</ele>
    <time>2012-05-23T13:55:32Z</time>
   </trkpt>
   <trkpt lat="46.2049789428711" lon="7.35195684432983">
    <ele>993.200012207031</ele>
    <time>2012-05-23T13:55:33Z</time>
   </trkpt>
   <trkpt lat="46.2049674987793" lon="7.35209131240845">
    <ele>993.200012207031</ele>
    <time>2012-05-23T13:55:37Z</time>
   </trkpt>
   <trkpt lat="46.2049560546875" lon="7.35216999053955">
    <ele>993.933349609375</ele>
    <time>2012-05-23T13:55:39Z</time>
   </trkpt>
   <trkpt lat="46.2049522399902" lon="7.35219955444336">
    <ele>994.300048828125</ele>
    <time>2012-05-23T13:55:40Z</time>
   </trkpt>
   <trkpt lat="46.2049522399902" lon="7.35223150253296">
    <ele>994.666687011719</ele>
    <time>2012-05-23T13:55:41Z</time>
   </trkpt>
   <trkpt lat="46.2049598693848" lon="7.35225868225098">
    <ele>995.033325195312</ele>
    <time>2012-05-23T13:55:42Z</time>
   </trkpt>
   <trkpt lat="46.2049713134766" lon="7.3522891998291">
    <ele>995.400024414062</ele>
    <time>2012-05-23T13:55:43Z</time>
   </trkpt>
   <trkpt lat="46.2049827575684" lon="7.35231971740723">
    <ele>995.400024414062</ele>
    <time>2012-05-23T13:55:44Z</time>
   </trkpt>
   <trkpt lat="46.2050132751465" lon="7.35240888595581">
    <ele>996.342834472656</ele>
    <time>2012-05-23T13:55:47Z</time>
   </trkpt>
   <trkpt lat="46.2050361633301" lon="7.3524317741394">
    <ele>996.657165527344</ele>
    <time>2012-05-23T13:55:48Z</time>
   </trkpt>
   <trkpt lat="46.2050552368164" lon="7.3524580001831">
    <ele>996.971435546875</ele>
    <time>2012-05-23T13:55:49Z</time>
   </trkpt>
   <trkpt lat="46.2050628662109" lon="7.35248470306396">
    <ele>997.285705566406</ele>
    <time>2012-05-23T13:55:50Z</time>
   </trkpt>
   <trkpt lat="46.205078125" lon="7.35250520706177">
    <ele>997.599975585938</ele>
    <time>2012-05-23T13:55:51Z</time>
   </trkpt>
   <trkpt lat="46.2051429748535" lon="7.35266637802124">
    <ele>997.599975585938</ele>
    <time>2012-05-23T13:55:56Z</time>
   </trkpt>
   <trkpt lat="46.2051544189453" lon="7.35269641876221">
    <ele>998.149963378906</ele>
    <time>2012-05-23T13:55:57Z</time>
   </trkpt>
   <trkpt lat="46.2051620483398" lon="7.35272836685181">
    <ele>998.699951171875</ele>
    <time>2012-05-23T13:55:58Z</time>
   </trkpt>
   <trkpt lat="46.2051773071289" lon="7.35276031494141">
    <ele>999.25</ele>
    <time>2012-05-23T13:55:59Z</time>
   </trkpt>
   <trkpt lat="46.2051963806152" lon="7.35279417037964">
    <ele>999.799987792969</ele>
    <time>2012-05-23T13:56:00Z</time>
   </trkpt>
   <trkpt lat="46.2052307128906" lon="7.3528881072998">
    <ele>999.799987792969</ele>
    <time>2012-05-23T13:56:03Z</time>
   </trkpt>
   <trkpt lat="46.2052383422852" lon="7.35292100906372">
    <ele>1000.23999023438</ele>
    <time>2012-05-23T13:56:04Z</time>
   </trkpt>
   <trkpt lat="46.205249786377" lon="7.35295104980469">
    <ele>1000.67999267578</ele>
    <time>2012-05-23T13:56:05Z</time>
   </trkpt>
   <trkpt lat="46.2052574157715" lon="7.35298776626587">
    <ele>1001.11999511719</ele>
    <time>2012-05-23T13:56:06Z</time>
   </trkpt>
   <trkpt lat="46.2052688598633" lon="7.35301733016968">
    <ele>1001.55999755859</ele>
    <time>2012-05-23T13:56:07Z</time>
   </trkpt>
   <trkpt lat="46.2052803039551" lon="7.35304737091064">
    <ele>1002</ele>
    <time>2012-05-23T13:56:08Z</time>
   </trkpt>
   <trkpt lat="46.2052955627441" lon="7.35307216644287">
    <ele>1002</ele>
    <time>2012-05-23T13:56:09Z</time>
   </trkpt>
   <trkpt lat="46.2053337097168" lon="7.35316276550293">
    <ele>1002.85711669922</ele>
    <time>2012-05-23T13:56:12Z</time>
   </trkpt>
   <trkpt lat="46.2053451538086" lon="7.35319471359253">
    <ele>1003.14288330078</ele>
    <time>2012-05-23T13:56:13Z</time>
   </trkpt>
   <trkpt lat="46.2053489685059" lon="7.35322570800781">
    <ele>1003.42858886719</ele>
    <time>2012-05-23T13:56:14Z</time>
   </trkpt>
   <trkpt lat="46.2053565979004" lon="7.35325813293457">
    <ele>1003.71429443359</ele>
    <time>2012-05-23T13:56:15Z</time>
   </trkpt>
   <trkpt lat="46.2053642272949" lon="7.35329484939575">
    <ele>1004</ele>
    <time>2012-05-23T13:56:16Z</time>
   </trkpt>
   <trkpt lat="46.2053604125977" lon="7.35333013534546">
    <ele>1004</ele>
    <time>2012-05-23T13:56:17Z</time>
   </trkpt>
   <trkpt lat="46.2053260803223" lon="7.35352277755737">
    <ele>1005.46667480469</ele>
    <time>2012-05-23T13:56:23Z</time>
   </trkpt>
   <trkpt lat="46.2053070068359" lon="7.35353565216064">
    <ele>1005.71112060547</ele>
    <time>2012-05-23T13:56:24Z</time>
   </trkpt>
   <trkpt lat="46.2052803039551" lon="7.35354852676392">
    <ele>1005.95556640625</ele>
    <time>2012-05-23T13:56:25Z</time>
   </trkpt>
   <trkpt lat="46.2052536010742" lon="7.3535475730896">
    <ele>1006.20001220703</ele>
    <time>2012-05-23T13:56:26Z</time>
   </trkpt>
   <trkpt lat="46.2052116394043" lon="7.35350561141968">
    <ele>1006.20001220703</ele>
    <time>2012-05-23T13:56:28Z</time>
   </trkpt>
   <trkpt lat="46.205192565918" lon="7.35340070724487">
    <ele>1007.05712890625</ele>
    <time>2012-05-23T13:56:31Z</time>
   </trkpt>
   <trkpt lat="46.2051849365234" lon="7.35336780548096">
    <ele>1007.34289550781</ele>
    <time>2012-05-23T13:56:32Z</time>
   </trkpt>
   <trkpt lat="46.2051849365234" lon="7.3533353805542">
    <ele>1007.62860107422</ele>
    <time>2012-05-23T13:56:33Z</time>
   </trkpt>
   <trkpt lat="46.2051811218262" lon="7.35330295562744">
    <ele>1007.91430664062</ele>
    <time>2012-05-23T13:56:34Z</time>
   </trkpt>
   <trkpt lat="46.2051734924316" lon="7.35327100753784">
    <ele>1008.20001220703</ele>
    <time>2012-05-23T13:56:35Z</time>
   </trkpt>
   <trkpt lat="46.205150604248" lon="7.35317468643188">
    <ele>1008.20001220703</ele>
    <time>2012-05-23T13:56:38Z</time>
   </trkpt>
   <trkpt lat="46.2051277160644" lon="7.3531174659729">
    <ele>1008.86669921875</ele>
    <time>2012-05-23T13:56:40Z</time>
   </trkpt>
   <trkpt lat="46.2051162719727" lon="7.35308885574341">
    <ele>1009.20001220703</ele>
    <time>2012-05-23T13:56:41Z</time>
   </trkpt>
   <trkpt lat="46.2051086425781" lon="7.35306024551392">
    <ele>1009.53332519531</ele>
    <time>2012-05-23T13:56:42Z</time>
   </trkpt>
   <trkpt lat="46.2050971984863" lon="7.35302972793579">
    <ele>1009.86669921875</ele>
    <time>2012-05-23T13:56:43Z</time>
   </trkpt>
   <trkpt lat="46.2050819396973" lon="7.35300445556641">
    <ele>1010.20001220703</ele>
    <time>2012-05-23T13:56:44Z</time>
   </trkpt>
   <trkpt lat="46.2050170898438" lon="7.35291814804077">
    <ele>1010.20001220703</ele>
    <time>2012-05-23T13:56:48Z</time>
   </trkpt>
   <trkpt lat="46.2049598693848" lon="7.35285520553589">
    <ele>1011.14288330078</ele>
    <time>2012-05-23T13:56:51Z</time>
   </trkpt>
   <trkpt lat="46.2049446105957" lon="7.35283422470093">
    <ele>1011.45715332031</ele>
    <time>2012-05-23T13:56:52Z</time>
   </trkpt>
   <trkpt lat="46.2049293518066" lon="7.35281276702881">
    <ele>1011.77142333984</ele>
    <time>2012-05-23T13:56:53Z</time>
   </trkpt>
   <trkpt lat="46.2049140930176" lon="7.35279178619385">
    <ele>1012.08575439453</ele>
    <time>2012-05-23T13:56:54Z</time>
   </trkpt>
   <trkpt lat="46.2048988342285" lon="7.35277271270752">
    <ele>1012.40002441406</ele>
    <time>2012-05-23T13:56:55Z</time>
   </trkpt>
   <trkpt lat="46.2048835754394" lon="7.35275173187256">
    <ele>1012.40002441406</ele>
    <time>2012-05-23T13:56:56Z</time>
   </trkpt>
   <trkpt lat="46.2047843933106" lon="7.35265064239502">
    <ele>1013.40002441406</ele>
    <time>2012-05-23T13:57:01Z</time>
   </trkpt>
   <trkpt lat="46.2047691345215" lon="7.35262107849121">
    <ele>1013.60003662109</ele>
    <time>2012-05-23T13:57:02Z</time>
   </trkpt>
   <trkpt lat="46.2047500610352" lon="7.35259580612183">
    <ele>1013.80004882812</ele>
    <time>2012-05-23T13:57:03Z</time>
   </trkpt>
   <trkpt lat="46.2047309875488" lon="7.35257196426392">
    <ele>1014</ele>
    <time>2012-05-23T13:57:04Z</time>
   </trkpt>
   <trkpt lat="46.2047157287598" lon="7.35254859924316">
    <ele>1014.20001220703</ele>
    <time>2012-05-23T13:57:05Z</time>
   </trkpt>
   <trkpt lat="46.2046966552734" lon="7.35252571105957">
    <ele>1014.40002441406</ele>
    <time>2012-05-23T13:57:06Z</time>
   </trkpt>
   <trkpt lat="46.2046813964844" lon="7.35250902175903">
    <ele>1014.40002441406</ele>
    <time>2012-05-23T13:57:07Z</time>
   </trkpt>
   <trkpt lat="46.2046127319336" lon="7.35240983963013">
    <ele>1015.65716552734</ele>
    <time>2012-05-23T13:57:11Z</time>
   </trkpt>
   <trkpt lat="46.2045974731445" lon="7.35238313674927">
    <ele>1015.97143554688</ele>
    <time>2012-05-23T13:57:12Z</time>
   </trkpt>
   <trkpt lat="46.2045860290527" lon="7.35235738754272">
    <ele>1016.28570556641</ele>
    <time>2012-05-23T13:57:13Z</time>
   </trkpt>
   <trkpt lat="46.2045745849609" lon="7.35232591629028">
    <ele>1016.59997558594</ele>
    <time>2012-05-23T13:57:14Z</time>
   </trkpt>
   <trkpt lat="46.2045669555664" lon="7.35229778289795">
    <ele>1016.59997558594</ele>
    <time>2012-05-23T13:57:15Z</time>
   </trkpt>
   <trkpt lat="46.204532623291" lon="7.35220575332642">
    <ele>1017.34997558594</ele>
    <time>2012-05-23T13:57:18Z</time>
   </trkpt>
   <trkpt lat="46.2045249938965" lon="7.35217523574829">
    <ele>1017.59997558594</ele>
    <time>2012-05-23T13:57:19Z</time>
   </trkpt>
   <trkpt lat="46.2045211791992" lon="7.35213947296143">
    <ele>1017.84997558594</ele>
    <time>2012-05-23T13:57:20Z</time>
   </trkpt>
   <trkpt lat="46.2045135498047" lon="7.35210800170898">
    <ele>1018.09997558594</ele>
    <time>2012-05-23T13:57:21Z</time>
   </trkpt>
   <trkpt lat="46.2045097351074" lon="7.35208129882812">
    <ele>1018.34997558594</ele>
    <time>2012-05-23T13:57:22Z</time>
   </trkpt>
   <trkpt lat="46.2044677734375" lon="7.35193061828613">
    <ele>1019.59997558594</ele>
    <time>2012-05-23T13:57:27Z</time>
   </trkpt>
   <trkpt lat="46.2044639587402" lon="7.35190582275391">
    <ele>1019.84997558594</ele>
    <time>2012-05-23T13:57:28Z</time>
   </trkpt>
   <trkpt lat="46.2044525146484" lon="7.35188627243042">
    <ele>1020.09997558594</ele>
    <time>2012-05-23T13:57:29Z</time>
   </trkpt>
   <trkpt lat="46.2044410705566" lon="7.35185766220093">
    <ele>1020.34997558594</ele>
    <time>2012-05-23T13:57:30Z</time>
   </trkpt>
   <trkpt lat="46.2044219970703" lon="7.35183000564575">
    <ele>1020.59997558594</ele>
    <time>2012-05-23T13:57:31Z</time>
   </trkpt>
   <trkpt lat="46.2043914794922" lon="7.35174894332886">
    <ele>1020.59997558594</ele>
    <time>2012-05-23T13:57:34Z</time>
   </trkpt>
   <trkpt lat="46.2043685913086" lon="7.35166692733765">
    <ele>1021.59997558594</ele>
    <time>2012-05-23T13:57:37Z</time>
   </trkpt>
   <trkpt lat="46.2043571472168" lon="7.3516435623169">
    <ele>1021.93328857422</ele>
    <time>2012-05-23T13:57:38Z</time>
   </trkpt>
   <trkpt lat="46.2043418884277" lon="7.35161828994751">
    <ele>1022.26666259766</ele>
    <time>2012-05-23T13:57:39Z</time>
   </trkpt>
   <trkpt lat="46.2043266296387" lon="7.35158824920654">
    <ele>1022.59997558594</ele>
    <time>2012-05-23T13:57:40Z</time>
   </trkpt>
   <trkpt lat="46.2042846679688" lon="7.35148334503174">
    <ele>1022.59997558594</ele>
    <time>2012-05-23T13:57:43Z</time>
   </trkpt>
   <trkpt lat="46.2042427062988" lon="7.35138845443726">
    <ele>1023.54284667969</ele>
    <time>2012-05-23T13:57:46Z</time>
   </trkpt>
   <trkpt lat="46.2042274475098" lon="7.35135507583618">
    <ele>1023.85717773438</ele>
    <time>2012-05-23T13:57:47Z</time>
   </trkpt>
   <trkpt lat="46.204216003418" lon="7.35132312774658">
    <ele>1024.17150878906</ele>
    <time>2012-05-23T13:57:48Z</time>
   </trkpt>
   <trkpt lat="46.2042045593262" lon="7.35128736495972">
    <ele>1024.48571777344</ele>
    <time>2012-05-23T13:57:49Z</time>
   </trkpt>
   <trkpt lat="46.2041893005371" lon="7.35125541687012">
    <ele>1024.80004882812</ele>
    <time>2012-05-23T13:57:50Z</time>
   </trkpt>
   <trkpt lat="46.2041358947754" lon="7.35112571716309">
    <ele>1024.80004882812</ele>
    <time>2012-05-23T13:57:54Z</time>
   </trkpt>
   <trkpt lat="46.2040977478027" lon="7.35104370117188">
    <ele>1025.6572265625</ele>
    <time>2012-05-23T13:57:57Z</time>
   </trkpt>
   <trkpt lat="46.2040863037109" lon="7.35101318359375">
    <ele>1025.94287109375</ele>
    <time>2012-05-23T13:57:58Z</time>
   </trkpt>
   <trkpt lat="46.2040786743164" lon="7.35098505020142">
    <ele>1026.22863769531</ele>
    <time>2012-05-23T13:57:59Z</time>
   </trkpt>
   <trkpt lat="46.2040672302246" lon="7.35095310211182">
    <ele>1026.51428222656</ele>
    <time>2012-05-23T13:58:00Z</time>
   </trkpt>
   <trkpt lat="46.2040557861328" lon="7.35092306137085">
    <ele>1026.80004882812</ele>
    <time>2012-05-23T13:58:01Z</time>
   </trkpt>
   <trkpt lat="46.2040519714356" lon="7.35088968276978">
    <ele>1026.80004882812</ele>
    <time>2012-05-23T13:58:02Z</time>
   </trkpt>
   <trkpt lat="46.204029083252" lon="7.35082197189331">
    <ele>1027.59997558594</ele>
    <time>2012-05-23T13:58:04Z</time>
   </trkpt>
   <trkpt lat="46.2040176391602" lon="7.35079097747803">
    <ele>1028</ele>
    <time>2012-05-23T13:58:05Z</time>
   </trkpt>
   <trkpt lat="46.2040100097656" lon="7.35076332092285">
    <ele>1028.40002441406</ele>
    <time>2012-05-23T13:58:06Z</time>
   </trkpt>
   <trkpt lat="46.2039985656738" lon="7.35073471069336">
    <ele>1028.79992675781</ele>
    <time>2012-05-23T13:58:07Z</time>
   </trkpt>
   <trkpt lat="46.203987121582" lon="7.35070514678955">
    <ele>1029.19995117188</ele>
    <time>2012-05-23T13:58:08Z</time>
   </trkpt>
   <trkpt lat="46.2039642333984" lon="7.35064649581909">
    <ele>1029.19995117188</ele>
    <time>2012-05-23T13:58:10Z</time>
   </trkpt>
   <trkpt lat="46.203929901123" lon="7.35055637359619">
    <ele>1030.02490234375</ele>
    <time>2012-05-23T13:58:13Z</time>
   </trkpt>
   <trkpt lat="46.2039184570312" lon="7.3505277633667">
    <ele>1030.29992675781</ele>
    <time>2012-05-23T13:58:14Z</time>
   </trkpt>
   <trkpt lat="46.2039070129394" lon="7.35050058364868">
    <ele>1030.57495117188</ele>
    <time>2012-05-23T13:58:15Z</time>
   </trkpt>
   <trkpt lat="46.2038955688477" lon="7.35047149658203">
    <ele>1030.84997558594</ele>
    <time>2012-05-23T13:58:16Z</time>
   </trkpt>
   <trkpt lat="46.2038879394531" lon="7.35043907165527">
    <ele>1031.125</ele>
    <time>2012-05-23T13:58:17Z</time>
   </trkpt>
   <trkpt lat="46.2038421630859" lon="7.35028409957886">
    <ele>1032.5</ele>
    <time>2012-05-23T13:58:22Z</time>
   </trkpt>
   <trkpt lat="46.2038345336914" lon="7.35025215148926">
    <ele>1032.77502441406</ele>
    <time>2012-05-23T13:58:23Z</time>
   </trkpt>
   <trkpt lat="46.2038192749023" lon="7.35021924972534">
    <ele>1033.04992675781</ele>
    <time>2012-05-23T13:58:24Z</time>
   </trkpt>
   <trkpt lat="46.2038040161133" lon="7.3501877784729">
    <ele>1033.32495117188</ele>
    <time>2012-05-23T13:58:25Z</time>
   </trkpt>
   <trkpt lat="46.2037925720215" lon="7.35015535354614">
    <ele>1033.59997558594</ele>
    <time>2012-05-23T13:58:26Z</time>
   </trkpt>
   <trkpt lat="46.2037582397461" lon="7.35007095336914">
    <ele>1033.59997558594</ele>
    <time>2012-05-23T13:58:29Z</time>
   </trkpt>
   <trkpt lat="46.203742980957" lon="7.35004472732544">
    <ele>1034.0400390625</ele>
    <time>2012-05-23T13:58:30Z</time>
   </trkpt>
   <trkpt lat="46.203727722168" lon="7.3500165939331">
    <ele>1034.47998046875</ele>
    <time>2012-05-23T13:58:31Z</time>
   </trkpt>
   <trkpt lat="46.2037124633789" lon="7.34998989105225">
    <ele>1034.92004394531</ele>
    <time>2012-05-23T13:58:32Z</time>
   </trkpt>
   <trkpt lat="46.2036972045898" lon="7.34995985031128">
    <ele>1035.35998535156</ele>
    <time>2012-05-23T13:58:33Z</time>
   </trkpt>
   <trkpt lat="46.203685760498" lon="7.3499321937561">
    <ele>1035.80004882812</ele>
    <time>2012-05-23T13:58:34Z</time>
   </trkpt>
   <trkpt lat="46.2036476135254" lon="7.34984588623047">
    <ele>1035.80004882812</ele>
    <time>2012-05-23T13:58:37Z</time>
   </trkpt>
   <trkpt lat="46.2035903930664" lon="7.34974193572998">
    <ele>1036.80004882812</ele>
    <time>2012-05-23T13:58:41Z</time>
   </trkpt>
   <trkpt lat="46.2035751342773" lon="7.34971570968628">
    <ele>1037.05004882812</ele>
    <time>2012-05-23T13:58:42Z</time>
   </trkpt>
   <trkpt lat="46.2035598754883" lon="7.34968519210815">
    <ele>1037.30004882812</ele>
    <time>2012-05-23T13:58:43Z</time>
   </trkpt>
   <trkpt lat="46.2035484313965" lon="7.34965801239014">
    <ele>1037.55004882812</ele>
    <time>2012-05-23T13:58:44Z</time>
   </trkpt>
   <trkpt lat="46.2035331726074" lon="7.34963226318359">
    <ele>1037.80004882812</ele>
    <time>2012-05-23T13:58:45Z</time>
   </trkpt>
   <trkpt lat="46.2034645080566" lon="7.34953022003174">
    <ele>1037.80004882812</ele>
    <time>2012-05-23T13:58:49Z</time>
   </trkpt>
   <trkpt lat="46.2034492492676" lon="7.3495044708252">
    <ele>1038.35009765625</ele>
    <time>2012-05-23T13:58:50Z</time>
   </trkpt>
   <trkpt lat="46.2034339904785" lon="7.34947729110718">
    <ele>1038.90002441406</ele>
    <time>2012-05-23T13:58:51Z</time>
   </trkpt>
   <trkpt lat="46.2034187316894" lon="7.34944915771484">
    <ele>1039.44995117188</ele>
    <time>2012-05-23T13:58:52Z</time>
   </trkpt>
   <trkpt lat="46.2033996582031" lon="7.34942770004272">
    <ele>1040</ele>
    <time>2012-05-23T13:58:53Z</time>
   </trkpt>
   <trkpt lat="46.2033500671387" lon="7.34935569763184">
    <ele>1040</ele>
    <time>2012-05-23T13:58:56Z</time>
   </trkpt>
   <trkpt lat="46.2032852172852" lon="7.34925651550293">
    <ele>1040.97778320312</ele>
    <time>2012-05-23T13:59:00Z</time>
   </trkpt>
   <trkpt lat="46.2032699584961" lon="7.34923028945923">
    <ele>1041.22216796875</ele>
    <time>2012-05-23T13:59:01Z</time>
   </trkpt>
   <trkpt lat="46.203254699707" lon="7.34920120239258">
    <ele>1041.46667480469</ele>
    <time>2012-05-23T13:59:02Z</time>
   </trkpt>
   <trkpt lat="46.203239440918" lon="7.34917068481445">
    <ele>1041.71118164062</ele>
    <time>2012-05-23T13:59:03Z</time>
   </trkpt>
   <trkpt lat="46.2032279968262" lon="7.34914255142212">
    <ele>1041.95556640625</ele>
    <time>2012-05-23T13:59:04Z</time>
   </trkpt>
   <trkpt lat="46.2031631469727" lon="7.34898042678833">
    <ele>1043.42224121094</ele>
    <time>2012-05-23T13:59:10Z</time>
   </trkpt>
   <trkpt lat="46.2031555175781" lon="7.34895515441894">
    <ele>1043.66674804688</ele>
    <time>2012-05-23T13:59:11Z</time>
   </trkpt>
   <trkpt lat="46.2031402587891" lon="7.34892559051514">
    <ele>1043.9111328125</ele>
    <time>2012-05-23T13:59:12Z</time>
   </trkpt>
   <trkpt lat="46.2031326293945" lon="7.34889268875122">
    <ele>1044.15551757812</ele>
    <time>2012-05-23T13:59:13Z</time>
   </trkpt>
   <trkpt lat="46.2031211853027" lon="7.34886026382446">
    <ele>1044.40002441406</ele>
    <time>2012-05-23T13:59:14Z</time>
   </trkpt>
   <trkpt lat="46.2031059265137" lon="7.34879493713379">
    <ele>1044.40002441406</ele>
    <time>2012-05-23T13:59:16Z</time>
   </trkpt>
   <trkpt lat="46.2030906677246" lon="7.34874296188354">
    <ele>1045</ele>
    <time>2012-05-23T13:59:18Z</time>
   </trkpt>
   <trkpt lat="46.2030792236328" lon="7.34872055053711">
    <ele>1045.30004882812</ele>
    <time>2012-05-23T13:59:19Z</time>
   </trkpt>
   <trkpt lat="46.2030715942383" lon="7.3486852645874">
    <ele>1045.59997558594</ele>
    <time>2012-05-23T13:59:20Z</time>
   </trkpt>
   <trkpt lat="46.2030563354492" lon="7.34865713119507">
    <ele>1045.90002441406</ele>
    <time>2012-05-23T13:59:21Z</time>
   </trkpt>
   <trkpt lat="46.2030487060547" lon="7.34862375259399">
    <ele>1046.19995117188</ele>
    <time>2012-05-23T13:59:22Z</time>
   </trkpt>
   <trkpt lat="46.2030143737793" lon="7.34848928451538">
    <ele>1047.40002441406</ele>
    <time>2012-05-23T13:59:26Z</time>
   </trkpt>
   <trkpt lat="46.2030029296875" lon="7.34845209121704">
    <ele>1047.69995117188</ele>
    <time>2012-05-23T13:59:27Z</time>
   </trkpt>
   <trkpt lat="46.2029876708984" lon="7.34842729568482">
    <ele>1048</ele>
    <time>2012-05-23T13:59:28Z</time>
   </trkpt>
   <trkpt lat="46.2029762268066" lon="7.34840297698975">
    <ele>1048.29992675781</ele>
    <time>2012-05-23T13:59:29Z</time>
   </trkpt>
   <trkpt lat="46.2029647827148" lon="7.34837532043457">
    <ele>1048.59997558594</ele>
    <time>2012-05-23T13:59:30Z</time>
   </trkpt>
   <trkpt lat="46.2029266357422" lon="7.34831953048706">
    <ele>1048.59997558594</ele>
    <time>2012-05-23T13:59:32Z</time>
   </trkpt>
   <trkpt lat="46.2028732299805" lon="7.34820079803467">
    <ele>1049.65002441406</ele>
    <time>2012-05-23T13:59:36Z</time>
   </trkpt>
   <trkpt lat="46.2028656005859" lon="7.34817552566528">
    <ele>1049.91247558594</ele>
    <time>2012-05-23T13:59:37Z</time>
   </trkpt>
   <trkpt lat="46.2028541564941" lon="7.34815120697022">
    <ele>1050.17504882812</ele>
    <time>2012-05-23T13:59:38Z</time>
   </trkpt>
   <trkpt lat="46.2028503417969" lon="7.34811782836914">
    <ele>1050.4375</ele>
    <time>2012-05-23T13:59:39Z</time>
   </trkpt>
   <trkpt lat="46.2028350830078" lon="7.34808731079102">
    <ele>1050.69995117188</ele>
    <time>2012-05-23T13:59:40Z</time>
   </trkpt>
   <trkpt lat="46.2027702331543" lon="7.34795475006104">
    <ele>1051.75</ele>
    <time>2012-05-23T13:59:44Z</time>
   </trkpt>
   <trkpt lat="46.2027587890625" lon="7.34791278839111">
    <ele>1052.01257324219</ele>
    <time>2012-05-23T13:59:45Z</time>
   </trkpt>
   <trkpt lat="46.2027473449707" lon="7.3478889465332">
    <ele>1052.27502441406</ele>
    <time>2012-05-23T13:59:46Z</time>
   </trkpt>
   <trkpt lat="46.2027320861816" lon="7.34785509109497">
    <ele>1052.53759765625</ele>
    <time>2012-05-23T13:59:47Z</time>
   </trkpt>
   <trkpt lat="46.2027168273926" lon="7.34782791137695">
    <ele>1052.80004882812</ele>
    <time>2012-05-23T13:59:48Z</time>
   </trkpt>
   <trkpt lat="46.2026863098144" lon="7.34777736663818">
    <ele>1052.80004882812</ele>
    <time>2012-05-23T13:59:50Z</time>
   </trkpt>
   <trkpt lat="46.2026481628418" lon="7.34769773483276">
    <ele>1053.82861328125</ele>
    <time>2012-05-23T13:59:53Z</time>
   </trkpt>
   <trkpt lat="46.20263671875" lon="7.34766626358032">
    <ele>1054.17138671875</ele>
    <time>2012-05-23T13:59:54Z</time>
   </trkpt>
   <trkpt lat="46.2026252746582" lon="7.34763336181641">
    <ele>1054.51428222656</ele>
    <time>2012-05-23T13:59:55Z</time>
   </trkpt>
   <trkpt lat="46.2026138305664" lon="7.34760808944702">
    <ele>1054.85705566406</ele>
    <time>2012-05-23T13:59:56Z</time>
   </trkpt>
   <trkpt lat="46.2026023864746" lon="7.34757900238037">
    <ele>1055.19995117188</ele>
    <time>2012-05-23T13:59:57Z</time>
   </trkpt>
   <trkpt lat="46.2025260925293" lon="7.34741735458374">
    <ele>1055.19995117188</ele>
    <time>2012-05-23T14:00:03Z</time>
   </trkpt>
   <trkpt lat="46.2025184631348" lon="7.34738492965698">
    <ele>1055.75</ele>
    <time>2012-05-23T14:00:04Z</time>
   </trkpt>
   <trkpt lat="46.202507019043" lon="7.34735727310181">
    <ele>1056.30004882812</ele>
    <time>2012-05-23T14:00:05Z</time>
   </trkpt>
   <trkpt lat="46.2024955749512" lon="7.34733200073242">
    <ele>1056.84997558594</ele>
    <time>2012-05-23T14:00:06Z</time>
   </trkpt>
   <trkpt lat="46.2024841308594" lon="7.34730243682861">
    <ele>1057.40002441406</ele>
    <time>2012-05-23T14:00:07Z</time>
   </trkpt>
   <trkpt lat="46.2024612426758" lon="7.347243309021">
    <ele>1057.40002441406</ele>
    <time>2012-05-23T14:00:09Z</time>
   </trkpt>
   <trkpt lat="46.2024192810059" lon="7.34713077545166">
    <ele>1058.40002441406</ele>
    <time>2012-05-23T14:00:13Z</time>
   </trkpt>
   <trkpt lat="46.2024040222168" lon="7.34710359573364">
    <ele>1058.65002441406</ele>
    <time>2012-05-23T14:00:14Z</time>
   </trkpt>
   <trkpt lat="46.2023811340332" lon="7.34708118438721">
    <ele>1058.90002441406</ele>
    <time>2012-05-23T14:00:15Z</time>
   </trkpt>
   <trkpt lat="46.2023620605469" lon="7.3470630645752">
    <ele>1059.15002441406</ele>
    <time>2012-05-23T14:00:16Z</time>
   </trkpt>
   <trkpt lat="46.2023391723633" lon="7.3470458984375">
    <ele>1059.40002441406</ele>
    <time>2012-05-23T14:00:17Z</time>
   </trkpt>
   <trkpt lat="46.2022590637207" lon="7.34709787368774">
    <ele>1059.40002441406</ele>
    <time>2012-05-23T14:00:21Z</time>
   </trkpt>
   <trkpt lat="46.2022323608398" lon="7.34718227386475">
    <ele>1060.25720214844</ele>
    <time>2012-05-23T14:00:24Z</time>
   </trkpt>
   <trkpt lat="46.2022323608398" lon="7.34721565246582">
    <ele>1060.54284667969</ele>
    <time>2012-05-23T14:00:25Z</time>
   </trkpt>
   <trkpt lat="46.2022361755371" lon="7.34724617004394">
    <ele>1060.82861328125</ele>
    <time>2012-05-23T14:00:26Z</time>
   </trkpt>
   <trkpt lat="46.2022399902344" lon="7.34727573394775">
    <ele>1061.1142578125</ele>
    <time>2012-05-23T14:00:27Z</time>
   </trkpt>
   <trkpt lat="46.2022514343262" lon="7.34730529785156">
    <ele>1061.40002441406</ele>
    <time>2012-05-23T14:00:28Z</time>
   </trkpt>
   <trkpt lat="46.2023010253906" lon="7.34743642807007">
    <ele>1061.40002441406</ele>
    <time>2012-05-23T14:00:32Z</time>
   </trkpt>
   <trkpt lat="46.2023620605469" lon="7.34763479232788">
    <ele>1062.32312011719</ele>
    <time>2012-05-23T14:00:38Z</time>
   </trkpt>
   <trkpt lat="46.2023887634277" lon="7.3477373123169">
    <ele>1062.78466796875</ele>
    <time>2012-05-23T14:00:41Z</time>
   </trkpt>
   <trkpt lat="46.2024078369141" lon="7.34776735305786">
    <ele>1062.9384765625</ele>
    <time>2012-05-23T14:00:42Z</time>
   </trkpt>
   <trkpt lat="46.2024154663086" lon="7.34780025482178">
    <ele>1063.09228515625</ele>
    <time>2012-05-23T14:00:43Z</time>
   </trkpt>
   <trkpt lat="46.2024345397949" lon="7.34782314300537">
    <ele>1063.24621582031</ele>
    <time>2012-05-23T14:00:44Z</time>
   </trkpt>
   <trkpt lat="46.2024459838867" lon="7.34785747528076">
    <ele>1063.40002441406</ele>
    <time>2012-05-23T14:00:45Z</time>
   </trkpt>
   <trkpt lat="46.2024612426758" lon="7.34795570373535">
    <ele>1063.40002441406</ele>
    <time>2012-05-23T14:00:48Z</time>
   </trkpt>
   <trkpt lat="46.2025184631348" lon="7.34815359115601">
    <ele>1064.86669921875</ele>
    <time>2012-05-23T14:00:54Z</time>
   </trkpt>
   <trkpt lat="46.202522277832" lon="7.34818506240845">
    <ele>1065.11108398438</ele>
    <time>2012-05-23T14:00:55Z</time>
   </trkpt>
   <trkpt lat="46.2025260925293" lon="7.3482174873352">
    <ele>1065.35559082031</ele>
    <time>2012-05-23T14:00:56Z</time>
   </trkpt>
   <trkpt lat="46.2025260925293" lon="7.34824991226196">
    <ele>1065.59997558594</ele>
    <time>2012-05-23T14:00:57Z</time>
   </trkpt>
   <trkpt lat="46.2025260925293" lon="7.34836912155151">
    <ele>1065.59997558594</ele>
    <time>2012-05-23T14:01:01Z</time>
   </trkpt>
   <trkpt lat="46.2025337219238" lon="7.34839630126953">
    <ele>1066</ele>
    <time>2012-05-23T14:01:02Z</time>
   </trkpt>
   <trkpt lat="46.2025337219238" lon="7.34842300415039">
    <ele>1066.40002441406</ele>
    <time>2012-05-23T14:01:03Z</time>
   </trkpt>
   <trkpt lat="46.2025451660156" lon="7.34845781326294">
    <ele>1066.79992675781</ele>
    <time>2012-05-23T14:01:04Z</time>
   </trkpt>
   <trkpt lat="46.2025413513184" lon="7.34849643707275">
    <ele>1067.19995117188</ele>
    <time>2012-05-23T14:01:05Z</time>
   </trkpt>
   <trkpt lat="46.2025451660156" lon="7.34853219985962">
    <ele>1067.59997558594</ele>
    <time>2012-05-23T14:01:06Z</time>
   </trkpt>
   <trkpt lat="46.2025527954102" lon="7.34856224060059">
    <ele>1067.59997558594</ele>
    <time>2012-05-23T14:01:07Z</time>
   </trkpt>
   <trkpt lat="46.2025871276856" lon="7.34869146347046">
    <ele>1068.69995117188</ele>
    <time>2012-05-23T14:01:11Z</time>
   </trkpt>
   <trkpt lat="46.2025909423828" lon="7.34872245788574">
    <ele>1068.97497558594</ele>
    <time>2012-05-23T14:01:12Z</time>
   </trkpt>
   <trkpt lat="46.2025985717773" lon="7.34875249862671">
    <ele>1069.25</ele>
    <time>2012-05-23T14:01:13Z</time>
   </trkpt>
   <trkpt lat="46.2026023864746" lon="7.34878444671631">
    <ele>1069.52502441406</ele>
    <time>2012-05-23T14:01:14Z</time>
   </trkpt>
   <trkpt lat="46.2025985717773" lon="7.34882164001465">
    <ele>1069.80004882812</ele>
    <time>2012-05-23T14:01:15Z</time>
   </trkpt>
   <trkpt lat="46.2026100158691" lon="7.34894180297852">
    <ele>1069.80004882812</ele>
    <time>2012-05-23T14:01:19Z</time>
   </trkpt>
   <trkpt lat="46.2026062011719" lon="7.34897947311401">
    <ele>1070.10009765625</ele>
    <time>2012-05-23T14:01:20Z</time>
   </trkpt>
   <trkpt lat="46.2026062011719" lon="7.34901094436646">
    <ele>1070.40002441406</ele>
    <time>2012-05-23T14:01:21Z</time>
   </trkpt>
   <trkpt lat="46.2026023864746" lon="7.34903907775879">
    <ele>1070.70007324219</ele>
    <time>2012-05-23T14:01:22Z</time>
   </trkpt>
   <trkpt lat="46.2026062011719" lon="7.3490686416626">
    <ele>1071</ele>
    <time>2012-05-23T14:01:23Z</time>
   </trkpt>
   <trkpt lat="46.2026023864746" lon="7.34910202026367">
    <ele>1071.30004882812</ele>
    <time>2012-05-23T14:01:24Z</time>
   </trkpt>
   <trkpt lat="46.2026023864746" lon="7.34925413131714">
    <ele>1072.80004882812</ele>
    <time>2012-05-23T14:01:29Z</time>
   </trkpt>
   <trkpt lat="46.2025985717773" lon="7.34927988052368">
    <ele>1073.09997558594</ele>
    <time>2012-05-23T14:01:30Z</time>
   </trkpt>
   <trkpt lat="46.2025947570801" lon="7.34931468963623">
    <ele>1073.40002441406</ele>
    <time>2012-05-23T14:01:31Z</time>
   </trkpt>
   <trkpt lat="46.2025947570801" lon="7.34934091567993">
    <ele>1073.69995117188</ele>
    <time>2012-05-23T14:01:32Z</time>
   </trkpt>
   <trkpt lat="46.2025909423828" lon="7.34937334060669">
    <ele>1074</ele>
    <time>2012-05-23T14:01:33Z</time>
   </trkpt>
   <trkpt lat="46.2025833129883" lon="7.3494725227356">
    <ele>1074</ele>
    <time>2012-05-23T14:01:36Z</time>
   </trkpt>
   <trkpt lat="46.2025909423828" lon="7.34960079193115">
    <ele>1075.375</ele>
    <time>2012-05-23T14:01:41Z</time>
   </trkpt>
   <trkpt lat="46.2025985717773" lon="7.3496208190918">
    <ele>1075.64990234375</ele>
    <time>2012-05-23T14:01:42Z</time>
   </trkpt>
   <trkpt lat="46.2026023864746" lon="7.34965133666992">
    <ele>1075.92492675781</ele>
    <time>2012-05-23T14:01:43Z</time>
   </trkpt>
   <trkpt lat="46.2026062011719" lon="7.34968280792236">
    <ele>1076.19995117188</ele>
    <time>2012-05-23T14:01:44Z</time>
   </trkpt>
   <trkpt lat="46.2026138305664" lon="7.34971332550049">
    <ele>1076.19995117188</ele>
    <time>2012-05-23T14:01:45Z</time>
   </trkpt>
   <trkpt lat="46.2026405334473" lon="7.34979200363159">
    <ele>1077.02502441406</ele>
    <time>2012-05-23T14:01:48Z</time>
   </trkpt>
   <trkpt lat="46.2026519775391" lon="7.34982013702393">
    <ele>1077.30004882812</ele>
    <time>2012-05-23T14:01:49Z</time>
   </trkpt>
   <trkpt lat="46.2026596069336" lon="7.34984588623047">
    <ele>1077.57495117188</ele>
    <time>2012-05-23T14:01:50Z</time>
   </trkpt>
   <trkpt lat="46.2026710510254" lon="7.34987831115723">
    <ele>1077.84997558594</ele>
    <time>2012-05-23T14:01:51Z</time>
   </trkpt>
   <trkpt lat="46.2026786804199" lon="7.34990835189819">
    <ele>1078.125</ele>
    <time>2012-05-23T14:01:52Z</time>
   </trkpt>
   <trkpt lat="46.2026863098144" lon="7.34994173049927">
    <ele>1078.40002441406</ele>
    <time>2012-05-23T14:01:53Z</time>
   </trkpt>
   <trkpt lat="46.2027130126953" lon="7.35003423690796">
    <ele>1078.40002441406</ele>
    <time>2012-05-23T14:01:56Z</time>
   </trkpt>
   <trkpt lat="46.2027587890625" lon="7.35016965866089">
    <ele>1079.62219238281</ele>
    <time>2012-05-23T14:02:01Z</time>
   </trkpt>
   <trkpt lat="46.2027702331543" lon="7.35019445419312">
    <ele>1079.86669921875</ele>
    <time>2012-05-23T14:02:02Z</time>
   </trkpt>
   <trkpt lat="46.2027816772461" lon="7.35022687911987">
    <ele>1080.11108398438</ele>
    <time>2012-05-23T14:02:03Z</time>
   </trkpt>
   <trkpt lat="46.2027931213379" lon="7.35026502609253">
    <ele>1080.35559082031</ele>
    <time>2012-05-23T14:02:04Z</time>
   </trkpt>
   <trkpt lat="46.2028045654297" lon="7.35030126571655">
    <ele>1080.59997558594</ele>
    <time>2012-05-23T14:02:05Z</time>
   </trkpt>
   <trkpt lat="46.2028045654297" lon="7.35033130645752">
    <ele>1080.59997558594</ele>
    <time>2012-05-23T14:02:06Z</time>
   </trkpt>
   <trkpt lat="46.2028160095215" lon="7.35041952133179">
    <ele>1081.42504882812</ele>
    <time>2012-05-23T14:02:09Z</time>
   </trkpt>
   <trkpt lat="46.2028198242188" lon="7.3504490852356">
    <ele>1081.69995117188</ele>
    <time>2012-05-23T14:02:10Z</time>
   </trkpt>
   <trkpt lat="46.202823638916" lon="7.35048389434814">
    <ele>1081.97497558594</ele>
    <time>2012-05-23T14:02:11Z</time>
   </trkpt>
   <trkpt lat="46.2028350830078" lon="7.35051536560059">
    <ele>1082.25</ele>
    <time>2012-05-23T14:02:12Z</time>
   </trkpt>
   <trkpt lat="46.2028503417969" lon="7.3505425453186">
    <ele>1082.52502441406</ele>
    <time>2012-05-23T14:02:13Z</time>
   </trkpt>
   <trkpt lat="46.2028541564941" lon="7.35057830810547">
    <ele>1082.80004882812</ele>
    <time>2012-05-23T14:02:14Z</time>
   </trkpt>
   <trkpt lat="46.2028541564941" lon="7.35060834884644">
    <ele>1082.80004882812</ele>
    <time>2012-05-23T14:02:15Z</time>
   </trkpt>
   <trkpt lat="46.2028617858887" lon="7.35069608688354">
    <ele>1083.55004882812</ele>
    <time>2012-05-23T14:02:18Z</time>
   </trkpt>
   <trkpt lat="46.2028656005859" lon="7.35072708129883">
    <ele>1083.80004882812</ele>
    <time>2012-05-23T14:02:19Z</time>
   </trkpt>
   <trkpt lat="46.2028694152832" lon="7.35075950622559">
    <ele>1084.05004882812</ele>
    <time>2012-05-23T14:02:20Z</time>
   </trkpt>
   <trkpt lat="46.2028846740723" lon="7.35079765319824">
    <ele>1084.30004882812</ele>
    <time>2012-05-23T14:02:21Z</time>
   </trkpt>
   <trkpt lat="46.2028923034668" lon="7.35083293914795">
    <ele>1084.55004882812</ele>
    <time>2012-05-23T14:02:22Z</time>
   </trkpt>
   <trkpt lat="46.2028961181641" lon="7.35087585449219">
    <ele>1084.80004882812</ele>
    <time>2012-05-23T14:02:23Z</time>
   </trkpt>
   <trkpt lat="46.2029075622559" lon="7.35097980499268">
    <ele>1084.80004882812</ele>
    <time>2012-05-23T14:02:26Z</time>
   </trkpt>
   <trkpt lat="46.2029113769531" lon="7.3510799407959">
    <ele>1085.54125976562</ele>
    <time>2012-05-23T14:02:29Z</time>
   </trkpt>
   <trkpt lat="46.2029113769531" lon="7.35111474990845">
    <ele>1085.78833007812</ele>
    <time>2012-05-23T14:02:30Z</time>
   </trkpt>
   <trkpt lat="46.2029190063477" lon="7.35115003585815">
    <ele>1086.03527832031</ele>
    <time>2012-05-23T14:02:31Z</time>
   </trkpt>
   <trkpt lat="46.2029228210449" lon="7.35118627548218">
    <ele>1086.28234863281</ele>
    <time>2012-05-23T14:02:32Z</time>
   </trkpt>
   <trkpt lat="46.2029304504394" lon="7.35122346878052">
    <ele>1086.52941894531</ele>
    <time>2012-05-23T14:02:33Z</time>
   </trkpt>
   <trkpt lat="46.2029113769531" lon="7.35142517089844">
    <ele>1088.01171875</ele>
    <time>2012-05-23T14:02:39Z</time>
   </trkpt>
   <trkpt lat="46.2029037475586" lon="7.35145807266235">
    <ele>1088.2587890625</ele>
    <time>2012-05-23T14:02:40Z</time>
   </trkpt>
   <trkpt lat="46.2028999328613" lon="7.35149431228638">
    <ele>1088.505859375</ele>
    <time>2012-05-23T14:02:41Z</time>
   </trkpt>
   <trkpt lat="46.2028999328613" lon="7.35152339935303">
    <ele>1088.7529296875</ele>
    <time>2012-05-23T14:02:42Z</time>
   </trkpt>
   <trkpt lat="46.2028999328613" lon="7.35155868530274">
    <ele>1089</ele>
    <time>2012-05-23T14:02:43Z</time>
   </trkpt>
   <trkpt lat="46.2028732299805" lon="7.35162353515625">
    <ele>1089</ele>
    <time>2012-05-23T14:02:45Z</time>
   </trkpt>
   <trkpt lat="46.2028465270996" lon="7.35170125961304">
    <ele>1089.85717773438</ele>
    <time>2012-05-23T14:02:48Z</time>
   </trkpt>
   <trkpt lat="46.2028388977051" lon="7.35173463821411">
    <ele>1090.14282226562</ele>
    <time>2012-05-23T14:02:49Z</time>
   </trkpt>
   <trkpt lat="46.2028274536133" lon="7.35176658630371">
    <ele>1090.42858886719</ele>
    <time>2012-05-23T14:02:50Z</time>
   </trkpt>
   <trkpt lat="46.2028274536133" lon="7.35180234909058">
    <ele>1090.71423339844</ele>
    <time>2012-05-23T14:02:51Z</time>
   </trkpt>
   <trkpt lat="46.2028274536133" lon="7.35183715820312">
    <ele>1091</ele>
    <time>2012-05-23T14:02:52Z</time>
   </trkpt>
   <trkpt lat="46.2028198242188" lon="7.35201025009155">
    <ele>1091</ele>
    <time>2012-05-23T14:02:57Z</time>
   </trkpt>
   <trkpt lat="46.2028198242188" lon="7.35202598571777">
    <ele>1091.30004882812</ele>
    <time>2012-05-23T14:02:58Z</time>
   </trkpt>
   <trkpt lat="46.2028274536133" lon="7.35205745697022">
    <ele>1091.59997558594</ele>
    <time>2012-05-23T14:02:59Z</time>
   </trkpt>
   <trkpt lat="46.202823638916" lon="7.35209226608276">
    <ele>1091.90002441406</ele>
    <time>2012-05-23T14:03:00Z</time>
   </trkpt>
   <trkpt lat="46.202823638916" lon="7.35212326049805">
    <ele>1092.19995117188</ele>
    <time>2012-05-23T14:03:01Z</time>
   </trkpt>
   <trkpt lat="46.2028503417969" lon="7.35232782363892">
    <ele>1094</ele>
    <time>2012-05-23T14:03:07Z</time>
   </trkpt>
   <trkpt lat="46.2028656005859" lon="7.35235738754272">
    <ele>1094.29992675781</ele>
    <time>2012-05-23T14:03:08Z</time>
   </trkpt>
   <trkpt lat="46.2028694152832" lon="7.35238313674927">
    <ele>1094.59997558594</ele>
    <time>2012-05-23T14:03:09Z</time>
   </trkpt>
   <trkpt lat="46.2028732299805" lon="7.35241556167602">
    <ele>1094.89990234375</ele>
    <time>2012-05-23T14:03:10Z</time>
   </trkpt>
   <trkpt lat="46.2028846740723" lon="7.35244178771973">
    <ele>1095.19995117188</ele>
    <time>2012-05-23T14:03:11Z</time>
   </trkpt>
   <trkpt lat="46.2028999328613" lon="7.35247182846069">
    <ele>1095.19995117188</ele>
    <time>2012-05-23T14:03:12Z</time>
   </trkpt>
   <trkpt lat="46.2029266357422" lon="7.35263013839722">
    <ele>1096.43530273438</ele>
    <time>2012-05-23T14:03:17Z</time>
   </trkpt>
   <trkpt lat="46.2029266357422" lon="7.35266065597534">
    <ele>1096.68237304688</ele>
    <time>2012-05-23T14:03:18Z</time>
   </trkpt>
   <trkpt lat="46.2029342651367" lon="7.35269260406494">
    <ele>1096.92944335938</ele>
    <time>2012-05-23T14:03:19Z</time>
   </trkpt>
   <trkpt lat="46.2029342651367" lon="7.35272312164307">
    <ele>1097.17651367188</ele>
    <time>2012-05-23T14:03:20Z</time>
   </trkpt>
   <trkpt lat="46.202938079834" lon="7.35275602340698">
    <ele>1097.42346191406</ele>
    <time>2012-05-23T14:03:21Z</time>
   </trkpt>
   <trkpt lat="46.2029685974121" lon="7.35289716720581">
    <ele>1098.41174316406</ele>
    <time>2012-05-23T14:03:25Z</time>
   </trkpt>
   <trkpt lat="46.2029800415039" lon="7.35292911529541">
    <ele>1098.65881347656</ele>
    <time>2012-05-23T14:03:26Z</time>
   </trkpt>
   <trkpt lat="46.2029914855957" lon="7.35296106338501">
    <ele>1098.90588378906</ele>
    <time>2012-05-23T14:03:27Z</time>
   </trkpt>
   <trkpt lat="46.2030029296875" lon="7.35299301147461">
    <ele>1099.15295410156</ele>
    <time>2012-05-23T14:03:28Z</time>
   </trkpt>
   <trkpt lat="46.203010559082" lon="7.35302209854126">
    <ele>1099.40002441406</ele>
    <time>2012-05-23T14:03:29Z</time>
   </trkpt>
   <trkpt lat="46.2030487060547" lon="7.35310363769531">
    <ele>1099.40002441406</ele>
    <time>2012-05-23T14:03:32Z</time>
   </trkpt>
   <trkpt lat="46.2030754089356" lon="7.35319566726685">
    <ele>1100.23999023438</ele>
    <time>2012-05-23T14:03:35Z</time>
   </trkpt>
   <trkpt lat="46.2030906677246" lon="7.35322380065918">
    <ele>1100.52001953125</ele>
    <time>2012-05-23T14:03:36Z</time>
   </trkpt>
   <trkpt lat="46.2031097412109" lon="7.35324668884277">
    <ele>1100.80004882812</ele>
    <time>2012-05-23T14:03:37Z</time>
   </trkpt>
   <trkpt lat="46.203125" lon="7.35327529907226">
    <ele>1101.07995605469</ele>
    <time>2012-05-23T14:03:38Z</time>
   </trkpt>
   <trkpt lat="46.2031402587891" lon="7.35330247879028">
    <ele>1101.35998535156</ele>
    <time>2012-05-23T14:03:39Z</time>
   </trkpt>
   <trkpt lat="46.2032127380371" lon="7.35343980789185">
    <ele>1102.76000976562</ele>
    <time>2012-05-23T14:03:44Z</time>
   </trkpt>
   <trkpt lat="46.2032279968262" lon="7.35346937179565">
    <ele>1103.0400390625</ele>
    <time>2012-05-23T14:03:45Z</time>
   </trkpt>
   <trkpt lat="46.2032470703125" lon="7.35349082946777">
    <ele>1103.31994628906</ele>
    <time>2012-05-23T14:03:46Z</time>
   </trkpt>
   <trkpt lat="46.2032661437988" lon="7.35350894927978">
    <ele>1103.59997558594</ele>
    <time>2012-05-23T14:03:47Z</time>
   </trkpt>
   <trkpt lat="46.203296661377" lon="7.35361623764038">
    <ele>1103.59997558594</ele>
    <time>2012-05-23T14:03:51Z</time>
   </trkpt>
   <trkpt lat="46.2032852172852" lon="7.35364103317261">
    <ele>1103.82214355469</ele>
    <time>2012-05-23T14:03:52Z</time>
   </trkpt>
   <trkpt lat="46.2032127380371" lon="7.35364627838135">
    <ele>1104.48889160156</ele>
    <time>2012-05-23T14:03:55Z</time>
   </trkpt>
   <trkpt lat="46.2031936645508" lon="7.35362482070923">
    <ele>1104.71105957031</ele>
    <time>2012-05-23T14:03:56Z</time>
   </trkpt>
   <trkpt lat="46.2031784057617" lon="7.35360336303711">
    <ele>1104.93334960938</ele>
    <time>2012-05-23T14:03:57Z</time>
   </trkpt>
   <trkpt lat="46.2031593322754" lon="7.35358572006226">
    <ele>1105.15551757812</ele>
    <time>2012-05-23T14:03:58Z</time>
   </trkpt>
   <trkpt lat="46.2031364440918" lon="7.35356760025024">
    <ele>1105.37780761719</ele>
    <time>2012-05-23T14:03:59Z</time>
   </trkpt>
   <trkpt lat="46.2031211853027" lon="7.3535475730896">
    <ele>1105.59997558594</ele>
    <time>2012-05-23T14:04:00Z</time>
   </trkpt>
   <trkpt lat="46.2030143737793" lon="7.35343503952026">
    <ele>1105.59997558594</ele>
    <time>2012-05-23T14:04:06Z</time>
   </trkpt>
   <trkpt lat="46.2029647827148" lon="7.35337495803833">
    <ele>1106.59997558594</ele>
    <time>2012-05-23T14:04:09Z</time>
   </trkpt>
   <trkpt lat="46.2029457092285" lon="7.35335874557495">
    <ele>1106.93334960938</ele>
    <time>2012-05-23T14:04:10Z</time>
   </trkpt>
   <trkpt lat="46.2029266357422" lon="7.35334396362305">
    <ele>1107.2666015625</ele>
    <time>2012-05-23T14:04:11Z</time>
   </trkpt>
   <trkpt lat="46.2029075622559" lon="7.35332822799683">
    <ele>1107.59997558594</ele>
    <time>2012-05-23T14:04:12Z</time>
   </trkpt>
   <trkpt lat="46.2028884887695" lon="7.35331439971924">
    <ele>1107.59997558594</ele>
    <time>2012-05-23T14:04:13Z</time>
   </trkpt>
   <trkpt lat="46.2027931213379" lon="7.35323858261108">
    <ele>1108.77856445312</ele>
    <time>2012-05-23T14:04:18Z</time>
   </trkpt>
   <trkpt lat="46.202751159668" lon="7.35320281982422">
    <ele>1109.25</ele>
    <time>2012-05-23T14:04:20Z</time>
   </trkpt>
   <trkpt lat="46.2027320861816" lon="7.35318946838379">
    <ele>1109.48571777344</ele>
    <time>2012-05-23T14:04:21Z</time>
   </trkpt>
   <trkpt lat="46.202709197998" lon="7.35315465927124">
    <ele>1109.72143554688</ele>
    <time>2012-05-23T14:04:22Z</time>
   </trkpt>
   <trkpt lat="46.2026977539062" lon="7.35311985015869">
    <ele>1109.95715332031</ele>
    <time>2012-05-23T14:04:23Z</time>
   </trkpt>
   <trkpt lat="46.2026824951172" lon="7.35309076309204">
    <ele>1110.19287109375</ele>
    <time>2012-05-23T14:04:24Z</time>
   </trkpt>
   <trkpt lat="46.2025833129883" lon="7.35295057296753">
    <ele>1111.60705566406</ele>
    <time>2012-05-23T14:04:30Z</time>
   </trkpt>
   <trkpt lat="46.202564239502" lon="7.35293436050415">
    <ele>1111.8427734375</ele>
    <time>2012-05-23T14:04:31Z</time>
   </trkpt>
   <trkpt lat="46.2025413513184" lon="7.35291481018066">
    <ele>1112.07849121094</ele>
    <time>2012-05-23T14:04:32Z</time>
   </trkpt>
   <trkpt lat="46.202522277832" lon="7.35289764404297">
    <ele>1112.31420898438</ele>
    <time>2012-05-23T14:04:33Z</time>
   </trkpt>
   <trkpt lat="46.2025032043457" lon="7.35287141799927">
    <ele>1112.54992675781</ele>
    <time>2012-05-23T14:04:34Z</time>
   </trkpt>
   <trkpt lat="46.202465057373" lon="7.35278654098511">
    <ele>1113.25708007812</ele>
    <time>2012-05-23T14:04:37Z</time>
   </trkpt>
   <trkpt lat="46.2024421691894" lon="7.35276556015015">
    <ele>1113.49279785156</ele>
    <time>2012-05-23T14:04:38Z</time>
   </trkpt>
   <trkpt lat="46.2024192810059" lon="7.3527364730835">
    <ele>1113.728515625</ele>
    <time>2012-05-23T14:04:39Z</time>
   </trkpt>
   <trkpt lat="46.2023963928223" lon="7.35271644592285">
    <ele>1113.96423339844</ele>
    <time>2012-05-23T14:04:40Z</time>
   </trkpt>
   <trkpt lat="46.2023811340332" lon="7.35270166397095">
    <ele>1114.19995117188</ele>
    <time>2012-05-23T14:04:41Z</time>
   </trkpt>
   <trkpt lat="46.2023620605469" lon="7.35267877578735">
    <ele>1114.19995117188</ele>
    <time>2012-05-23T14:04:42Z</time>
   </trkpt>
   <trkpt lat="46.2023048400879" lon="7.35261058807373">
    <ele>1115.14282226562</ele>
    <time>2012-05-23T14:04:45Z</time>
   </trkpt>
   <trkpt lat="46.2022819519043" lon="7.35257625579834">
    <ele>1115.45715332031</ele>
    <time>2012-05-23T14:04:46Z</time>
   </trkpt>
   <trkpt lat="46.2022514343262" lon="7.35254430770874">
    <ele>1115.771484375</ele>
    <time>2012-05-23T14:04:47Z</time>
   </trkpt>
   <trkpt lat="46.2022323608398" lon="7.3525242805481">
    <ele>1116.08569335938</ele>
    <time>2012-05-23T14:04:48Z</time>
   </trkpt>
   <trkpt lat="46.2022132873535" lon="7.35250806808472">
    <ele>1116.40002441406</ele>
    <time>2012-05-23T14:04:49Z</time>
   </trkpt>
   <trkpt lat="46.2021675109863" lon="7.35242795944214">
    <ele>1116.40002441406</ele>
    <time>2012-05-23T14:04:52Z</time>
   </trkpt>
   <trkpt lat="46.2021331787109" lon="7.35233306884766">
    <ele>1117.34289550781</ele>
    <time>2012-05-23T14:04:55Z</time>
   </trkpt>
   <trkpt lat="46.2021255493164" lon="7.35229969024658">
    <ele>1117.65710449219</ele>
    <time>2012-05-23T14:04:56Z</time>
   </trkpt>
   <trkpt lat="46.2021255493164" lon="7.35227108001709">
    <ele>1117.97143554688</ele>
    <time>2012-05-23T14:04:57Z</time>
   </trkpt>
   <trkpt lat="46.2021179199219" lon="7.35224103927612">
    <ele>1118.28564453125</ele>
    <time>2012-05-23T14:04:58Z</time>
   </trkpt>
   <trkpt lat="46.2021217346191" lon="7.35220718383789">
    <ele>1118.59997558594</ele>
    <time>2012-05-23T14:04:59Z</time>
   </trkpt>
   <trkpt lat="46.2021446228027" lon="7.35208654403686">
    <ele>1118.59997558594</ele>
    <time>2012-05-23T14:05:03Z</time>
   </trkpt>
   <trkpt lat="46.2021522521973" lon="7.35205078125">
    <ele>1119.0400390625</ele>
    <time>2012-05-23T14:05:04Z</time>
   </trkpt>
   <trkpt lat="46.2021598815918" lon="7.35201978683472">
    <ele>1119.47998046875</ele>
    <time>2012-05-23T14:05:05Z</time>
   </trkpt>
   <trkpt lat="46.2021751403809" lon="7.35198926925659">
    <ele>1119.92004394531</ele>
    <time>2012-05-23T14:05:06Z</time>
   </trkpt>
   <trkpt lat="46.2021789550781" lon="7.35195875167847">
    <ele>1120.35998535156</ele>
    <time>2012-05-23T14:05:07Z</time>
   </trkpt>
   <trkpt lat="46.2021903991699" lon="7.35193395614624">
    <ele>1120.80004882812</ele>
    <time>2012-05-23T14:05:08Z</time>
   </trkpt>
   <trkpt lat="46.2022094726562" lon="7.3518648147583">
    <ele>1120.80004882812</ele>
    <time>2012-05-23T14:05:10Z</time>
   </trkpt>
   <trkpt lat="46.2022132873535" lon="7.35171127319336">
    <ele>1121.9111328125</ele>
    <time>2012-05-23T14:05:15Z</time>
   </trkpt>
   <trkpt lat="46.202205657959" lon="7.35167455673218">
    <ele>1122.13342285156</ele>
    <time>2012-05-23T14:05:16Z</time>
   </trkpt>
   <trkpt lat="46.2021942138672" lon="7.35164260864258">
    <ele>1122.35559082031</ele>
    <time>2012-05-23T14:05:17Z</time>
   </trkpt>
   <trkpt lat="46.2021827697754" lon="7.35161447525024">
    <ele>1122.57788085938</ele>
    <time>2012-05-23T14:05:18Z</time>
   </trkpt>
   <trkpt lat="46.2021675109863" lon="7.35158491134644">
    <ele>1122.80004882812</ele>
    <time>2012-05-23T14:05:19Z</time>
   </trkpt>
   <trkpt lat="46.2020874023438" lon="7.35146856307983">
    <ele>1122.80004882812</ele>
    <time>2012-05-23T14:05:24Z</time>
   </trkpt>
   <trkpt lat="46.2020683288574" lon="7.35145044326782">
    <ele>1123.30004882812</ele>
    <time>2012-05-23T14:05:25Z</time>
   </trkpt>
   <trkpt lat="46.2020530700684" lon="7.35143375396728">
    <ele>1123.80004882812</ele>
    <time>2012-05-23T14:05:26Z</time>
   </trkpt>
   <trkpt lat="46.2020301818848" lon="7.35142707824707">
    <ele>1124.30004882812</ele>
    <time>2012-05-23T14:05:27Z</time>
   </trkpt>
   <trkpt lat="46.2020034790039" lon="7.35141611099243">
    <ele>1124.80004882812</ele>
    <time>2012-05-23T14:05:28Z</time>
   </trkpt>
   <trkpt lat="46.2019424438477" lon="7.35137462615967">
    <ele>1124.80004882812</ele>
    <time>2012-05-23T14:05:31Z</time>
   </trkpt>
   <trkpt lat="46.2018661499023" lon="7.35136127471924">
    <ele>1125.6572265625</ele>
    <time>2012-05-23T14:05:34Z</time>
   </trkpt>
   <trkpt lat="46.2018394470215" lon="7.35135746002197">
    <ele>1125.94287109375</ele>
    <time>2012-05-23T14:05:35Z</time>
   </trkpt>
   <trkpt lat="46.2018165588379" lon="7.3513503074646">
    <ele>1126.22863769531</ele>
    <time>2012-05-23T14:05:36Z</time>
   </trkpt>
   <trkpt lat="46.2017936706543" lon="7.35134887695312">
    <ele>1126.51428222656</ele>
    <time>2012-05-23T14:05:37Z</time>
   </trkpt>
   <trkpt lat="46.201774597168" lon="7.35133981704712">
    <ele>1126.80004882812</ele>
    <time>2012-05-23T14:05:38Z</time>
   </trkpt>
   <trkpt lat="46.2016677856445" lon="7.3513240814209">
    <ele>1126.80004882812</ele>
    <time>2012-05-23T14:05:43Z</time>
   </trkpt>
   <trkpt lat="46.2016448974609" lon="7.35131359100342">
    <ele>1127.23999023438</ele>
    <time>2012-05-23T14:05:44Z</time>
   </trkpt>
   <trkpt lat="46.2016220092773" lon="7.3513126373291">
    <ele>1127.68005371094</ele>
    <time>2012-05-23T14:05:45Z</time>
   </trkpt>
   <trkpt lat="46.201602935791" lon="7.3513011932373">
    <ele>1128.11999511719</ele>
    <time>2012-05-23T14:05:46Z</time>
   </trkpt>
   <trkpt lat="46.2015762329102" lon="7.35129261016846">
    <ele>1128.56005859375</ele>
    <time>2012-05-23T14:05:47Z</time>
   </trkpt>
   <trkpt lat="46.2015533447266" lon="7.35128402709961">
    <ele>1129</ele>
    <time>2012-05-23T14:05:48Z</time>
   </trkpt>
   <trkpt lat="46.2014389038086" lon="7.35117244720459">
    <ele>1129</ele>
    <time>2012-05-23T14:05:54Z</time>
   </trkpt>
   <trkpt lat="46.2014274597168" lon="7.35114336013794">
    <ele>1129.43994140625</ele>
    <time>2012-05-23T14:05:55Z</time>
   </trkpt>
   <trkpt lat="46.201416015625" lon="7.35111904144287">
    <ele>1129.88000488281</ele>
    <time>2012-05-23T14:05:56Z</time>
   </trkpt>
   <trkpt lat="46.2014083862305" lon="7.3510913848877">
    <ele>1130.31994628906</ele>
    <time>2012-05-23T14:05:57Z</time>
   </trkpt>
   <trkpt lat="46.2014007568359" lon="7.35105752944946">
    <ele>1130.76000976562</ele>
    <time>2012-05-23T14:05:58Z</time>
   </trkpt>
   <trkpt lat="46.2013893127441" lon="7.35103178024292">
    <ele>1131.19995117188</ele>
    <time>2012-05-23T14:05:59Z</time>
   </trkpt>
   <trkpt lat="46.2013511657715" lon="7.35091543197632">
    <ele>1131.19995117188</ele>
    <time>2012-05-23T14:06:03Z</time>
   </trkpt>
   <trkpt lat="46.201343536377" lon="7.35088777542114">
    <ele>1131.59997558594</ele>
    <time>2012-05-23T14:06:04Z</time>
   </trkpt>
   <trkpt lat="46.2013320922852" lon="7.35086059570312">
    <ele>1132</ele>
    <time>2012-05-23T14:06:05Z</time>
   </trkpt>
   <trkpt lat="46.2013130187988" lon="7.35083627700806">
    <ele>1132.39990234375</ele>
    <time>2012-05-23T14:06:06Z</time>
   </trkpt>
   <trkpt lat="46.201301574707" lon="7.35080909729004">
    <ele>1132.79992675781</ele>
    <time>2012-05-23T14:06:07Z</time>
   </trkpt>
   <trkpt lat="46.2012901306152" lon="7.35078382492065">
    <ele>1133.19995117188</ele>
    <time>2012-05-23T14:06:08Z</time>
   </trkpt>
   <trkpt lat="46.2012481689453" lon="7.35070943832398">
    <ele>1133.19995117188</ele>
    <time>2012-05-23T14:06:11Z</time>
   </trkpt>
   <trkpt lat="46.2011947631836" lon="7.35061502456665">
    <ele>1134.45715332031</ele>
    <time>2012-05-23T14:06:15Z</time>
   </trkpt>
   <trkpt lat="46.2011756896973" lon="7.35059690475464">
    <ele>1134.771484375</ele>
    <time>2012-05-23T14:06:16Z</time>
   </trkpt>
   <trkpt lat="46.2011566162109" lon="7.35058069229126">
    <ele>1135.08569335938</ele>
    <time>2012-05-23T14:06:17Z</time>
   </trkpt>
   <trkpt lat="46.2011451721191" lon="7.35055685043335">
    <ele>1135.40002441406</ele>
    <time>2012-05-23T14:06:18Z</time>
   </trkpt>
   <trkpt lat="46.2011108398438" lon="7.35051679611206">
    <ele>1135.40002441406</ele>
    <time>2012-05-23T14:06:20Z</time>
   </trkpt>
   <trkpt lat="46.201057434082" lon="7.35045766830444">
    <ele>1136.25720214844</ele>
    <time>2012-05-23T14:06:23Z</time>
   </trkpt>
   <trkpt lat="46.2010498046875" lon="7.35042715072632">
    <ele>1136.54284667969</ele>
    <time>2012-05-23T14:06:24Z</time>
   </trkpt>
   <trkpt lat="46.2010307312012" lon="7.35040616989136">
    <ele>1136.82861328125</ele>
    <time>2012-05-23T14:06:25Z</time>
   </trkpt>
   <trkpt lat="46.2010116577148" lon="7.35038566589356">
    <ele>1137.1142578125</ele>
    <time>2012-05-23T14:06:26Z</time>
   </trkpt>
   <trkpt lat="46.2009887695312" lon="7.35036611557007">
    <ele>1137.40002441406</ele>
    <time>2012-05-23T14:06:27Z</time>
   </trkpt>
   <trkpt lat="46.2008743286133" lon="7.35025358200073">
    <ele>1137.40002441406</ele>
    <time>2012-05-23T14:06:33Z</time>
   </trkpt>
   <trkpt lat="46.2008514404297" lon="7.35023736953735">
    <ele>1137.75</ele>
    <time>2012-05-23T14:06:34Z</time>
   </trkpt>
   <trkpt lat="46.2008323669434" lon="7.35022020339966">
    <ele>1138.09997558594</ele>
    <time>2012-05-23T14:06:35Z</time>
   </trkpt>
   <trkpt lat="46.200813293457" lon="7.3501992225647">
    <ele>1138.44995117188</ele>
    <time>2012-05-23T14:06:36Z</time>
   </trkpt>
   <trkpt lat="46.2007942199707" lon="7.35018634796143">
    <ele>1138.80004882812</ele>
    <time>2012-05-23T14:06:37Z</time>
   </trkpt>
   <trkpt lat="46.2007713317871" lon="7.35017204284668">
    <ele>1139.15002441406</ele>
    <time>2012-05-23T14:06:38Z</time>
   </trkpt>
   <trkpt lat="46.2007141113281" lon="7.35012340545654">
    <ele>1140.19995117188</ele>
    <time>2012-05-23T14:06:41Z</time>
   </trkpt>
   <trkpt lat="46.2006950378418" lon="7.35010862350464">
    <ele>1140.55004882812</ele>
    <time>2012-05-23T14:06:42Z</time>
   </trkpt>
   <trkpt lat="46.2006759643555" lon="7.35009288787842">
    <ele>1140.90002441406</ele>
    <time>2012-05-23T14:06:43Z</time>
   </trkpt>
   <trkpt lat="46.2006568908691" lon="7.35007762908936">
    <ele>1141.25</ele>
    <time>2012-05-23T14:06:44Z</time>
   </trkpt>
   <trkpt lat="46.2006378173828" lon="7.35006618499756">
    <ele>1141.59997558594</ele>
    <time>2012-05-23T14:06:45Z</time>
   </trkpt>
   <trkpt lat="46.200569152832" lon="7.34999084472656">
    <ele>1141.59997558594</ele>
    <time>2012-05-23T14:06:49Z</time>
   </trkpt>
   <trkpt lat="46.2005348205566" lon="7.34995126724243">
    <ele>1142.2666015625</ele>
    <time>2012-05-23T14:06:51Z</time>
   </trkpt>
   <trkpt lat="46.2005195617676" lon="7.34992933273315">
    <ele>1142.59997558594</ele>
    <time>2012-05-23T14:06:52Z</time>
   </trkpt>
   <trkpt lat="46.200511932373" lon="7.34990549087524">
    <ele>1142.93334960938</ele>
    <time>2012-05-23T14:06:53Z</time>
   </trkpt>
   <trkpt lat="46.200496673584" lon="7.34988260269165">
    <ele>1143.2666015625</ele>
    <time>2012-05-23T14:06:54Z</time>
   </trkpt>
   <trkpt lat="46.2004814147949" lon="7.34985256195068">
    <ele>1143.59997558594</ele>
    <time>2012-05-23T14:06:55Z</time>
   </trkpt>
   <trkpt lat="46.2004699707031" lon="7.34982824325562">
    <ele>1143.59997558594</ele>
    <time>2012-05-23T14:06:56Z</time>
   </trkpt>
   <trkpt lat="46.2004203796387" lon="7.3496880531311">
    <ele>1144.89404296875</ele>
    <time>2012-05-23T14:07:01Z</time>
   </trkpt>
   <trkpt lat="46.2004165649414" lon="7.34965181350708">
    <ele>1145.15295410156</ele>
    <time>2012-05-23T14:07:02Z</time>
   </trkpt>
   <trkpt lat="46.2004127502441" lon="7.34961891174316">
    <ele>1145.41174316406</ele>
    <time>2012-05-23T14:07:03Z</time>
   </trkpt>
   <trkpt lat="46.2004127502441" lon="7.34958600997925">
    <ele>1145.67053222656</ele>
    <time>2012-05-23T14:07:04Z</time>
   </trkpt>
   <trkpt lat="46.2004280090332" lon="7.3494348526001">
    <ele>1146.96472167969</ele>
    <time>2012-05-23T14:07:09Z</time>
   </trkpt>
   <trkpt lat="46.2004356384277" lon="7.34940958023071">
    <ele>1147.22351074219</ele>
    <time>2012-05-23T14:07:10Z</time>
   </trkpt>
   <trkpt lat="46.2004432678223" lon="7.34938526153564">
    <ele>1147.48229980469</ele>
    <time>2012-05-23T14:07:11Z</time>
   </trkpt>
   <trkpt lat="46.2004508972168" lon="7.34935617446899">
    <ele>1147.7412109375</ele>
    <time>2012-05-23T14:07:12Z</time>
   </trkpt>
   <trkpt lat="46.2004623413086" lon="7.34932661056518">
    <ele>1148</ele>
    <time>2012-05-23T14:07:13Z</time>
   </trkpt>
   <trkpt lat="46.2005043029785" lon="7.34921455383301">
    <ele>1148</ele>
    <time>2012-05-23T14:07:17Z</time>
   </trkpt>
   <trkpt lat="46.2005310058594" lon="7.34913063049316">
    <ele>1148.77502441406</ele>
    <time>2012-05-23T14:07:20Z</time>
   </trkpt>
   <trkpt lat="46.2005386352539" lon="7.34910488128662">
    <ele>1149.03332519531</ele>
    <time>2012-05-23T14:07:21Z</time>
   </trkpt>
   <trkpt lat="46.2005462646484" lon="7.3490777015686">
    <ele>1149.29162597656</ele>
    <time>2012-05-23T14:07:22Z</time>
   </trkpt>
   <trkpt lat="46.2005577087402" lon="7.3490514755249">
    <ele>1149.55004882812</ele>
    <time>2012-05-23T14:07:23Z</time>
   </trkpt>
   <trkpt lat="46.2005653381348" lon="7.34902381896973">
    <ele>1149.80834960938</ele>
    <time>2012-05-23T14:07:24Z</time>
   </trkpt>
   <trkpt lat="46.2005920410156" lon="7.34891319274902">
    <ele>1150.84167480469</ele>
    <time>2012-05-23T14:07:28Z</time>
   </trkpt>
   <trkpt lat="46.2005996704102" lon="7.34888505935669">
    <ele>1151.09997558594</ele>
    <time>2012-05-23T14:07:29Z</time>
   </trkpt>
   <trkpt lat="46.2006034851074" lon="7.34885835647583">
    <ele>1151.35827636719</ele>
    <time>2012-05-23T14:07:30Z</time>
   </trkpt>
   <trkpt lat="46.200611114502" lon="7.34882402420044">
    <ele>1151.61669921875</ele>
    <time>2012-05-23T14:07:31Z</time>
   </trkpt>
   <trkpt lat="46.2006225585938" lon="7.3486499786377">
    <ele>1153.16662597656</ele>
    <time>2012-05-23T14:07:37Z</time>
   </trkpt>
   <trkpt lat="46.200626373291" lon="7.34861946105957">
    <ele>1153.42492675781</ele>
    <time>2012-05-23T14:07:38Z</time>
   </trkpt>
   <trkpt lat="46.2006340026856" lon="7.34859132766724">
    <ele>1153.68334960938</ele>
    <time>2012-05-23T14:07:39Z</time>
   </trkpt>
   <trkpt lat="46.2006378173828" lon="7.34855651855469">
    <ele>1153.94165039062</ele>
    <time>2012-05-23T14:07:40Z</time>
   </trkpt>
   <trkpt lat="46.2006378173828" lon="7.34852027893066">
    <ele>1154.19995117188</ele>
    <time>2012-05-23T14:07:41Z</time>
   </trkpt>
   <trkpt lat="46.2006301879883" lon="7.34838914871216">
    <ele>1154.19995117188</ele>
    <time>2012-05-23T14:07:45Z</time>
   </trkpt>
   <trkpt lat="46.2006340026856" lon="7.34832715988159">
    <ele>1154.86657714844</ele>
    <time>2012-05-23T14:07:47Z</time>
   </trkpt>
   <trkpt lat="46.2006301879883" lon="7.34829664230347">
    <ele>1155.19995117188</ele>
    <time>2012-05-23T14:07:48Z</time>
   </trkpt>
   <trkpt lat="46.200626373291" lon="7.3482666015625">
    <ele>1155.53332519531</ele>
    <time>2012-05-23T14:07:49Z</time>
   </trkpt>
   <trkpt lat="46.2006187438965" lon="7.34823656082153">
    <ele>1155.86657714844</ele>
    <time>2012-05-23T14:07:50Z</time>
   </trkpt>
   <trkpt lat="46.2006187438965" lon="7.34820604324341">
    <ele>1156.19995117188</ele>
    <time>2012-05-23T14:07:51Z</time>
   </trkpt>
   <trkpt lat="46.2006072998047" lon="7.3481388092041">
    <ele>1156.19995117188</ele>
    <time>2012-05-23T14:07:53Z</time>
   </trkpt>
   <trkpt lat="46.2005615234375" lon="7.34802436828613">
    <ele>1157.30004882812</ele>
    <time>2012-05-23T14:07:57Z</time>
   </trkpt>
   <trkpt lat="46.2005500793457" lon="7.34799432754517">
    <ele>1157.57495117188</ele>
    <time>2012-05-23T14:07:58Z</time>
   </trkpt>
   <trkpt lat="46.2005386352539" lon="7.34796476364136">
    <ele>1157.84997558594</ele>
    <time>2012-05-23T14:07:59Z</time>
   </trkpt>
   <trkpt lat="46.2005310058594" lon="7.34792995452881">
    <ele>1158.125</ele>
    <time>2012-05-23T14:08:00Z</time>
   </trkpt>
   <trkpt lat="46.2005195617676" lon="7.34789943695068">
    <ele>1158.40002441406</ele>
    <time>2012-05-23T14:08:01Z</time>
   </trkpt>
   <trkpt lat="46.2004432678223" lon="7.34773874282837">
    <ele>1158.40002441406</ele>
    <time>2012-05-23T14:08:07Z</time>
   </trkpt>
   <trkpt lat="46.2004280090332" lon="7.34771823883057">
    <ele>1158.83996582031</ele>
    <time>2012-05-23T14:08:08Z</time>
   </trkpt>
   <trkpt lat="46.2004127502441" lon="7.34769678115845">
    <ele>1159.28002929688</ele>
    <time>2012-05-23T14:08:09Z</time>
   </trkpt>
   <trkpt lat="46.2003936767578" lon="7.34767484664917">
    <ele>1159.71997070312</ele>
    <time>2012-05-23T14:08:10Z</time>
   </trkpt>
   <trkpt lat="46.2003784179688" lon="7.34765434265137">
    <ele>1160.16003417969</ele>
    <time>2012-05-23T14:08:11Z</time>
   </trkpt>
   <trkpt lat="46.200366973877" lon="7.34763336181641">
    <ele>1160.59997558594</ele>
    <time>2012-05-23T14:08:12Z</time>
   </trkpt>
   <trkpt lat="46.2003555297852" lon="7.34761238098144">
    <ele>1160.59997558594</ele>
    <time>2012-05-23T14:08:13Z</time>
   </trkpt>
   <trkpt lat="46.2002792358398" lon="7.34751081466675">
    <ele>1161.822265625</ele>
    <time>2012-05-23T14:08:18Z</time>
   </trkpt>
   <trkpt lat="46.2002601623535" lon="7.34748935699463">
    <ele>1162.06665039062</ele>
    <time>2012-05-23T14:08:19Z</time>
   </trkpt>
   <trkpt lat="46.2002449035644" lon="7.34746742248535">
    <ele>1162.31115722656</ele>
    <time>2012-05-23T14:08:20Z</time>
   </trkpt>
   <trkpt lat="46.2002296447754" lon="7.34744024276733">
    <ele>1162.55554199219</ele>
    <time>2012-05-23T14:08:21Z</time>
   </trkpt>
   <trkpt lat="46.2002143859863" lon="7.34741067886352">
    <ele>1162.80004882812</ele>
    <time>2012-05-23T14:08:22Z</time>
   </trkpt>
   <trkpt lat="46.2001457214356" lon="7.34731531143188">
    <ele>1162.80004882812</ele>
    <time>2012-05-23T14:08:26Z</time>
   </trkpt>
   <trkpt lat="46.2001266479492" lon="7.3472900390625">
    <ele>1163.20007324219</ele>
    <time>2012-05-23T14:08:27Z</time>
   </trkpt>
   <trkpt lat="46.2001113891602" lon="7.34726572036743">
    <ele>1163.60009765625</ele>
    <time>2012-05-23T14:08:28Z</time>
   </trkpt>
   <trkpt lat="46.2000961303711" lon="7.34723901748657">
    <ele>1164</ele>
    <time>2012-05-23T14:08:29Z</time>
   </trkpt>
   <trkpt lat="46.200080871582" lon="7.34720706939697">
    <ele>1164.40002441406</ele>
    <time>2012-05-23T14:08:30Z</time>
   </trkpt>
   <trkpt lat="46.200065612793" lon="7.34718227386475">
    <ele>1164.80004882812</ele>
    <time>2012-05-23T14:08:31Z</time>
   </trkpt>
   <trkpt lat="46.2000350952148" lon="7.34713220596314">
    <ele>1164.80004882812</ele>
    <time>2012-05-23T14:08:33Z</time>
   </trkpt>
   <trkpt lat="46.1999931335449" lon="7.34705018997192">
    <ele>1165.54125976562</ele>
    <time>2012-05-23T14:08:36Z</time>
   </trkpt>
   <trkpt lat="46.1999816894531" lon="7.34702205657959">
    <ele>1165.78833007812</ele>
    <time>2012-05-23T14:08:37Z</time>
   </trkpt>
   <trkpt lat="46.1999664306641" lon="7.34699296951294">
    <ele>1166.03527832031</ele>
    <time>2012-05-23T14:08:38Z</time>
   </trkpt>
   <trkpt lat="46.1999549865723" lon="7.34696578979492">
    <ele>1166.28234863281</ele>
    <time>2012-05-23T14:08:39Z</time>
   </trkpt>
   <trkpt lat="46.1999435424805" lon="7.3469386100769">
    <ele>1166.52941894531</ele>
    <time>2012-05-23T14:08:40Z</time>
   </trkpt>
   <trkpt lat="46.1999320983887" lon="7.34690523147583">
    <ele>1166.77648925781</ele>
    <time>2012-05-23T14:08:41Z</time>
   </trkpt>
   <trkpt lat="46.199893951416" lon="7.34674644470215">
    <ele>1168.01171875</ele>
    <time>2012-05-23T14:08:46Z</time>
   </trkpt>
   <trkpt lat="46.1998863220215" lon="7.34671449661255">
    <ele>1168.2587890625</ele>
    <time>2012-05-23T14:08:47Z</time>
   </trkpt>
   <trkpt lat="46.199878692627" lon="7.3466854095459">
    <ele>1168.505859375</ele>
    <time>2012-05-23T14:08:48Z</time>
   </trkpt>
   <trkpt lat="46.1998710632324" lon="7.34665441513062">
    <ele>1168.7529296875</ele>
    <time>2012-05-23T14:08:49Z</time>
   </trkpt>
   <trkpt lat="46.1998634338379" lon="7.34662103652954">
    <ele>1169</ele>
    <time>2012-05-23T14:08:50Z</time>
   </trkpt>
   <trkpt lat="46.1998405456543" lon="7.34652805328369">
    <ele>1169</ele>
    <time>2012-05-23T14:08:53Z</time>
   </trkpt>
   <trkpt lat="46.1998291015625" lon="7.34646415710449">
    <ele>1169.59997558594</ele>
    <time>2012-05-23T14:08:55Z</time>
   </trkpt>
   <trkpt lat="46.199821472168" lon="7.34643173217774">
    <ele>1169.90002441406</ele>
    <time>2012-05-23T14:08:56Z</time>
   </trkpt>
   <trkpt lat="46.1998138427734" lon="7.34640026092529">
    <ele>1170.19995117188</ele>
    <time>2012-05-23T14:08:57Z</time>
   </trkpt>
   <trkpt lat="46.1998100280762" lon="7.34636831283569">
    <ele>1170.5</ele>
    <time>2012-05-23T14:08:58Z</time>
   </trkpt>
   <trkpt lat="46.1997985839844" lon="7.34633874893188">
    <ele>1170.79992675781</ele>
    <time>2012-05-23T14:08:59Z</time>
   </trkpt>
   <trkpt lat="46.1997604370117" lon="7.34622192382812">
    <ele>1172</ele>
    <time>2012-05-23T14:09:03Z</time>
   </trkpt>
   <trkpt lat="46.1997528076172" lon="7.34619331359863">
    <ele>1172.29992675781</ele>
    <time>2012-05-23T14:09:04Z</time>
   </trkpt>
   <trkpt lat="46.1997413635254" lon="7.34616470336914">
    <ele>1172.59997558594</ele>
    <time>2012-05-23T14:09:05Z</time>
   </trkpt>
   <trkpt lat="46.1997261047363" lon="7.34613418579102">
    <ele>1172.89990234375</ele>
    <time>2012-05-23T14:09:06Z</time>
   </trkpt>
   <trkpt lat="46.1997146606445" lon="7.34610462188721">
    <ele>1173.19995117188</ele>
    <time>2012-05-23T14:09:07Z</time>
   </trkpt>
   <trkpt lat="46.1997032165527" lon="7.34607648849487">
    <ele>1173.19995117188</ele>
    <time>2012-05-23T14:09:08Z</time>
   </trkpt>
   <trkpt lat="46.1996231079102" lon="7.34592294692993">
    <ele>1174.52001953125</ele>
    <time>2012-05-23T14:09:14Z</time>
   </trkpt>
   <trkpt lat="46.1996078491211" lon="7.34589576721191">
    <ele>1174.73999023438</ele>
    <time>2012-05-23T14:09:15Z</time>
   </trkpt>
   <trkpt lat="46.1995964050293" lon="7.34586954116821">
    <ele>1174.9599609375</ele>
    <time>2012-05-23T14:09:16Z</time>
   </trkpt>
   <trkpt lat="46.1995849609375" lon="7.34584188461304">
    <ele>1175.18005371094</ele>
    <time>2012-05-23T14:09:17Z</time>
   </trkpt>
   <trkpt lat="46.1995697021484" lon="7.34581756591797">
    <ele>1175.40002441406</ele>
    <time>2012-05-23T14:09:18Z</time>
   </trkpt>
   <trkpt lat="46.1995048522949" lon="7.34569597244263">
    <ele>1175.40002441406</ele>
    <time>2012-05-23T14:09:23Z</time>
   </trkpt>
   <trkpt lat="46.1994705200195" lon="7.34561586380005">
    <ele>1176.25720214844</ele>
    <time>2012-05-23T14:09:26Z</time>
   </trkpt>
   <trkpt lat="46.1994590759277" lon="7.34558868408203">
    <ele>1176.54284667969</ele>
    <time>2012-05-23T14:09:27Z</time>
   </trkpt>
   <trkpt lat="46.1994476318359" lon="7.34556102752686">
    <ele>1176.82861328125</ele>
    <time>2012-05-23T14:09:28Z</time>
   </trkpt>
   <trkpt lat="46.1994361877441" lon="7.3455319404602">
    <ele>1177.1142578125</ele>
    <time>2012-05-23T14:09:29Z</time>
   </trkpt>
   <trkpt lat="46.1994247436523" lon="7.34550380706787">
    <ele>1177.40002441406</ele>
    <time>2012-05-23T14:09:30Z</time>
   </trkpt>
   <trkpt lat="46.1994132995606" lon="7.3454761505127">
    <ele>1177.40002441406</ele>
    <time>2012-05-23T14:09:31Z</time>
   </trkpt>
   <trkpt lat="46.1993637084961" lon="7.34536647796631">
    <ele>1178.40002441406</ele>
    <time>2012-05-23T14:09:35Z</time>
   </trkpt>
   <trkpt lat="46.1993560791016" lon="7.34533739089966">
    <ele>1178.65002441406</ele>
    <time>2012-05-23T14:09:36Z</time>
   </trkpt>
   <trkpt lat="46.1993446350098" lon="7.34530782699585">
    <ele>1178.90002441406</ele>
    <time>2012-05-23T14:09:37Z</time>
   </trkpt>
   <trkpt lat="46.1993370056152" lon="7.34527826309204">
    <ele>1179.15002441406</ele>
    <time>2012-05-23T14:09:38Z</time>
   </trkpt>
   <trkpt lat="46.1993255615234" lon="7.34524822235107">
    <ele>1179.40002441406</ele>
    <time>2012-05-23T14:09:39Z</time>
   </trkpt>
   <trkpt lat="46.199275970459" lon="7.34512615203857">
    <ele>1179.40002441406</ele>
    <time>2012-05-23T14:09:43Z</time>
   </trkpt>
   <trkpt lat="46.1992683410644" lon="7.34509468078613">
    <ele>1179.83996582031</ele>
    <time>2012-05-23T14:09:44Z</time>
   </trkpt>
   <trkpt lat="46.1992568969727" lon="7.34506559371948">
    <ele>1180.28002929688</ele>
    <time>2012-05-23T14:09:45Z</time>
   </trkpt>
   <trkpt lat="46.1992454528809" lon="7.3450345993042">
    <ele>1180.71997070312</ele>
    <time>2012-05-23T14:09:46Z</time>
   </trkpt>
   <trkpt lat="46.1992340087891" lon="7.34500312805176">
    <ele>1181.16003417969</ele>
    <time>2012-05-23T14:09:47Z</time>
   </trkpt>
   <trkpt lat="46.1992263793945" lon="7.34497213363648">
    <ele>1181.59997558594</ele>
    <time>2012-05-23T14:09:48Z</time>
   </trkpt>
   <trkpt lat="46.1992149353027" lon="7.34493970870972">
    <ele>1181.59997558594</ele>
    <time>2012-05-23T14:09:49Z</time>
   </trkpt>
   <trkpt lat="46.1991958618164" lon="7.34480333328247">
    <ele>1182.53332519531</ele>
    <time>2012-05-23T14:09:53Z</time>
   </trkpt>
   <trkpt lat="46.1991920471191" lon="7.34477186203003">
    <ele>1182.7666015625</ele>
    <time>2012-05-23T14:09:54Z</time>
   </trkpt>
   <trkpt lat="46.1991844177246" lon="7.34474325180054">
    <ele>1183</ele>
    <time>2012-05-23T14:09:55Z</time>
   </trkpt>
   <trkpt lat="46.1991806030273" lon="7.34471082687378">
    <ele>1183.2333984375</ele>
    <time>2012-05-23T14:09:56Z</time>
   </trkpt>
   <trkpt lat="46.1991729736328" lon="7.34467697143555">
    <ele>1183.46667480469</ele>
    <time>2012-05-23T14:09:57Z</time>
   </trkpt>
   <trkpt lat="46.199146270752" lon="7.34448099136352">
    <ele>1184.86669921875</ele>
    <time>2012-05-23T14:10:03Z</time>
   </trkpt>
   <trkpt lat="46.1991424560547" lon="7.34444856643677">
    <ele>1185.10009765625</ele>
    <time>2012-05-23T14:10:04Z</time>
   </trkpt>
   <trkpt lat="46.1991386413574" lon="7.34441518783569">
    <ele>1185.33337402344</ele>
    <time>2012-05-23T14:10:05Z</time>
   </trkpt>
   <trkpt lat="46.1991348266602" lon="7.34438180923462">
    <ele>1185.56665039062</ele>
    <time>2012-05-23T14:10:06Z</time>
   </trkpt>
   <trkpt lat="46.1991310119629" lon="7.34434700012207">
    <ele>1185.80004882812</ele>
    <time>2012-05-23T14:10:07Z</time>
   </trkpt>
   <trkpt lat="46.1991081237793" lon="7.3441972732544">
    <ele>1185.80004882812</ele>
    <time>2012-05-23T14:10:12Z</time>
   </trkpt>
   <trkpt lat="46.1991004943848" lon="7.34413576126099">
    <ele>1186.46667480469</ele>
    <time>2012-05-23T14:10:14Z</time>
   </trkpt>
   <trkpt lat="46.1990966796875" lon="7.34410238265991">
    <ele>1186.80004882812</ele>
    <time>2012-05-23T14:10:15Z</time>
   </trkpt>
   <trkpt lat="46.1990966796875" lon="7.344069480896">
    <ele>1187.13342285156</ele>
    <time>2012-05-23T14:10:16Z</time>
   </trkpt>
   <trkpt lat="46.1990928649902" lon="7.34403944015503">
    <ele>1187.46667480469</ele>
    <time>2012-05-23T14:10:17Z</time>
   </trkpt>
   <trkpt lat="46.199089050293" lon="7.34400796890259">
    <ele>1187.80004882812</ele>
    <time>2012-05-23T14:10:18Z</time>
   </trkpt>
   <trkpt lat="46.1990699768066" lon="7.34391927719116">
    <ele>1187.80004882812</ele>
    <time>2012-05-23T14:10:21Z</time>
   </trkpt>
   <trkpt lat="46.1990623474121" lon="7.3438868522644">
    <ele>1188.28002929688</ele>
    <time>2012-05-23T14:10:22Z</time>
   </trkpt>
   <trkpt lat="46.1990585327148" lon="7.34385585784912">
    <ele>1188.76000976562</ele>
    <time>2012-05-23T14:10:23Z</time>
   </trkpt>
   <trkpt lat="46.1990547180176" lon="7.34382438659668">
    <ele>1189.23999023438</ele>
    <time>2012-05-23T14:10:24Z</time>
   </trkpt>
   <trkpt lat="46.199047088623" lon="7.34379005432129">
    <ele>1189.71997070312</ele>
    <time>2012-05-23T14:10:25Z</time>
   </trkpt>
   <trkpt lat="46.1990432739258" lon="7.34375715255737">
    <ele>1190.19995117188</ele>
    <time>2012-05-23T14:10:26Z</time>
   </trkpt>
   <trkpt lat="46.199031829834" lon="7.34369707107544">
    <ele>1190.19995117188</ele>
    <time>2012-05-23T14:10:28Z</time>
   </trkpt>
   <trkpt lat="46.1990203857422" lon="7.3435378074646">
    <ele>1191.25256347656</ele>
    <time>2012-05-23T14:10:33Z</time>
   </trkpt>
   <trkpt lat="46.1990203857422" lon="7.34350681304932">
    <ele>1191.46313476562</ele>
    <time>2012-05-23T14:10:34Z</time>
   </trkpt>
   <trkpt lat="46.1990203857422" lon="7.34347295761108">
    <ele>1191.67358398438</ele>
    <time>2012-05-23T14:10:35Z</time>
   </trkpt>
   <trkpt lat="46.1990165710449" lon="7.34343862533569">
    <ele>1191.88415527344</ele>
    <time>2012-05-23T14:10:36Z</time>
   </trkpt>
   <trkpt lat="46.1990165710449" lon="7.34340476989746">
    <ele>1192.0947265625</ele>
    <time>2012-05-23T14:10:37Z</time>
   </trkpt>
   <trkpt lat="46.1990165710449" lon="7.34336996078491">
    <ele>1192.30517578125</ele>
    <time>2012-05-23T14:10:38Z</time>
   </trkpt>
   <trkpt lat="46.1990013122559" lon="7.3431806564331">
    <ele>1193.568359375</ele>
    <time>2012-05-23T14:10:44Z</time>
   </trkpt>
   <trkpt lat="46.1989974975586" lon="7.3431453704834">
    <ele>1193.77893066406</ele>
    <time>2012-05-23T14:10:45Z</time>
   </trkpt>
   <trkpt lat="46.1989936828613" lon="7.34311199188232">
    <ele>1193.98937988281</ele>
    <time>2012-05-23T14:10:46Z</time>
   </trkpt>
   <trkpt lat="46.1989898681641" lon="7.34308052062988">
    <ele>1194.19995117188</ele>
    <time>2012-05-23T14:10:47Z</time>
   </trkpt>
   <trkpt lat="46.1989631652832" lon="7.34295463562012">
    <ele>1194.19995117188</ele>
    <time>2012-05-23T14:10:51Z</time>
   </trkpt>
   <trkpt lat="46.1989517211914" lon="7.34292459487915">
    <ele>1194.64001464844</ele>
    <time>2012-05-23T14:10:52Z</time>
   </trkpt>
   <trkpt lat="46.1989479064941" lon="7.34289503097534">
    <ele>1195.07995605469</ele>
    <time>2012-05-23T14:10:53Z</time>
   </trkpt>
   <trkpt lat="46.1989364624023" lon="7.34286785125732">
    <ele>1195.52001953125</ele>
    <time>2012-05-23T14:10:54Z</time>
   </trkpt>
   <trkpt lat="46.1989288330078" lon="7.34284162521362">
    <ele>1195.9599609375</ele>
    <time>2012-05-23T14:10:55Z</time>
   </trkpt>
   <trkpt lat="46.198917388916" lon="7.34281730651856">
    <ele>1196.40002441406</ele>
    <time>2012-05-23T14:10:56Z</time>
   </trkpt>
   <trkpt lat="46.1989059448242" lon="7.34279203414917">
    <ele>1196.40002441406</ele>
    <time>2012-05-23T14:10:57Z</time>
   </trkpt>
   <trkpt lat="46.1988182067871" lon="7.34264278411865">
    <ele>1197.71997070312</ele>
    <time>2012-05-23T14:11:03Z</time>
   </trkpt>
   <trkpt lat="46.1987991333008" lon="7.34262609481812">
    <ele>1197.93994140625</ele>
    <time>2012-05-23T14:11:04Z</time>
   </trkpt>
   <trkpt lat="46.1987800598144" lon="7.34260845184326">
    <ele>1198.16003417969</ele>
    <time>2012-05-23T14:11:05Z</time>
   </trkpt>
   <trkpt lat="46.1987609863281" lon="7.34258890151978">
    <ele>1198.38000488281</ele>
    <time>2012-05-23T14:11:06Z</time>
   </trkpt>
   <trkpt lat="46.1987457275391" lon="7.3425703048706">
    <ele>1198.59997558594</ele>
    <time>2012-05-23T14:11:07Z</time>
   </trkpt>
   <trkpt lat="46.1986694335938" lon="7.34249925613403">
    <ele>1198.59997558594</ele>
    <time>2012-05-23T14:11:11Z</time>
   </trkpt>
   <trkpt lat="46.1986503601074" lon="7.34248161315918">
    <ele>1199</ele>
    <time>2012-05-23T14:11:12Z</time>
   </trkpt>
   <trkpt lat="46.1986312866211" lon="7.34246492385864">
    <ele>1199.40002441406</ele>
    <time>2012-05-23T14:11:13Z</time>
   </trkpt>
   <trkpt lat="46.198616027832" lon="7.34244775772095">
    <ele>1199.79992675781</ele>
    <time>2012-05-23T14:11:14Z</time>
   </trkpt>
   <trkpt lat="46.1985969543457" lon="7.3424334526062">
    <ele>1200.19995117188</ele>
    <time>2012-05-23T14:11:15Z</time>
   </trkpt>
   <trkpt lat="46.1985778808594" lon="7.34242105484009">
    <ele>1200.59997558594</ele>
    <time>2012-05-23T14:11:16Z</time>
   </trkpt>
   <trkpt lat="46.1985282897949" lon="7.34236478805542">
    <ele>1200.59997558594</ele>
    <time>2012-05-23T14:11:19Z</time>
   </trkpt>
   <trkpt lat="46.198429107666" lon="7.34226989746094">
    <ele>1201.822265625</ele>
    <time>2012-05-23T14:11:24Z</time>
   </trkpt>
   <trkpt lat="46.1984100341797" lon="7.34225654602051">
    <ele>1202.06665039062</ele>
    <time>2012-05-23T14:11:25Z</time>
   </trkpt>
   <trkpt lat="46.1983871459961" lon="7.3422417640686">
    <ele>1202.31115722656</ele>
    <time>2012-05-23T14:11:26Z</time>
   </trkpt>
   <trkpt lat="46.1983680725098" lon="7.34222602844238">
    <ele>1202.55554199219</ele>
    <time>2012-05-23T14:11:27Z</time>
   </trkpt>
   <trkpt lat="46.1983528137207" lon="7.34220838546753">
    <ele>1202.80004882812</ele>
    <time>2012-05-23T14:11:28Z</time>
   </trkpt>
   <trkpt lat="46.1983032226562" lon="7.34214782714844">
    <ele>1202.80004882812</ele>
    <time>2012-05-23T14:11:31Z</time>
   </trkpt>
   <trkpt lat="46.1982498168945" lon="7.34209299087524">
    <ele>1203.80004882812</ele>
    <time>2012-05-23T14:11:34Z</time>
   </trkpt>
   <trkpt lat="46.1982307434082" lon="7.34207248687744">
    <ele>1204.13342285156</ele>
    <time>2012-05-23T14:11:35Z</time>
   </trkpt>
   <trkpt lat="46.1982078552246" lon="7.34205293655396">
    <ele>1204.46667480469</ele>
    <time>2012-05-23T14:11:36Z</time>
   </trkpt>
   <trkpt lat="46.1981925964356" lon="7.34203386306763">
    <ele>1204.80004882812</ele>
    <time>2012-05-23T14:11:37Z</time>
   </trkpt>
   <trkpt lat="46.1981735229492" lon="7.34201431274414">
    <ele>1204.80004882812</ele>
    <time>2012-05-23T14:11:38Z</time>
   </trkpt>
   <trkpt lat="46.1981086730957" lon="7.34191846847534">
    <ele>1205.80004882812</ele>
    <time>2012-05-23T14:11:42Z</time>
   </trkpt>
   <trkpt lat="46.1980895996094" lon="7.34189462661743">
    <ele>1206.05004882812</ele>
    <time>2012-05-23T14:11:43Z</time>
   </trkpt>
   <trkpt lat="46.198070526123" lon="7.34187078475952">
    <ele>1206.30004882812</ele>
    <time>2012-05-23T14:11:44Z</time>
   </trkpt>
   <trkpt lat="46.1980514526367" lon="7.3418493270874">
    <ele>1206.55004882812</ele>
    <time>2012-05-23T14:11:45Z</time>
   </trkpt>
   <trkpt lat="46.1980285644531" lon="7.34182834625244">
    <ele>1206.80004882812</ele>
    <time>2012-05-23T14:11:46Z</time>
   </trkpt>
   <trkpt lat="46.1979522705078" lon="7.34171390533447">
    <ele>1206.80004882812</ele>
    <time>2012-05-23T14:11:50Z</time>
   </trkpt>
   <trkpt lat="46.1979141235352" lon="7.34166049957275">
    <ele>1207.47692871094</ele>
    <time>2012-05-23T14:11:52Z</time>
   </trkpt>
   <trkpt lat="46.1978988647461" lon="7.34163236618042">
    <ele>1207.8154296875</ele>
    <time>2012-05-23T14:11:53Z</time>
   </trkpt>
   <trkpt lat="46.197883605957" lon="7.34160327911377">
    <ele>1208.15380859375</ele>
    <time>2012-05-23T14:11:54Z</time>
   </trkpt>
   <trkpt lat="46.1978607177734" lon="7.34157752990723">
    <ele>1208.49230957031</ele>
    <time>2012-05-23T14:11:55Z</time>
   </trkpt>
   <trkpt lat="46.1978416442871" lon="7.34154844284058">
    <ele>1208.83081054688</ele>
    <time>2012-05-23T14:11:56Z</time>
   </trkpt>
   <trkpt lat="46.1977806091309" lon="7.34142017364502">
    <ele>1210.1845703125</ele>
    <time>2012-05-23T14:12:00Z</time>
   </trkpt>
   <trkpt lat="46.1977653503418" lon="7.341383934021">
    <ele>1210.52307128906</ele>
    <time>2012-05-23T14:12:01Z</time>
   </trkpt>
   <trkpt lat="46.19775390625" lon="7.34135150909424">
    <ele>1210.86145019531</ele>
    <time>2012-05-23T14:12:02Z</time>
   </trkpt>
   <trkpt lat="46.1977424621582" lon="7.34131669998169">
    <ele>1211.19995117188</ele>
    <time>2012-05-23T14:12:03Z</time>
   </trkpt>
   <trkpt lat="46.1976890563965" lon="7.34119892120361">
    <ele>1211.19995117188</ele>
    <time>2012-05-23T14:12:07Z</time>
   </trkpt>
   <trkpt lat="46.1976737976074" lon="7.34117412567139">
    <ele>1211.59997558594</ele>
    <time>2012-05-23T14:12:08Z</time>
   </trkpt>
   <trkpt lat="46.1976585388184" lon="7.34115028381348">
    <ele>1212</ele>
    <time>2012-05-23T14:12:09Z</time>
   </trkpt>
   <trkpt lat="46.197639465332" lon="7.34112644195557">
    <ele>1212.39990234375</ele>
    <time>2012-05-23T14:12:10Z</time>
   </trkpt>
   <trkpt lat="46.1976280212402" lon="7.34109973907471">
    <ele>1212.79992675781</ele>
    <time>2012-05-23T14:12:11Z</time>
   </trkpt>
   <trkpt lat="46.1976127624512" lon="7.34107160568237">
    <ele>1213.19995117188</ele>
    <time>2012-05-23T14:12:12Z</time>
   </trkpt>
   <trkpt lat="46.1975936889648" lon="7.34105682373047">
    <ele>1213.19995117188</ele>
    <time>2012-05-23T14:12:13Z</time>
   </trkpt>
   <trkpt lat="46.1975288391113" lon="7.3409628868103">
    <ele>1214.177734375</ele>
    <time>2012-05-23T14:12:17Z</time>
   </trkpt>
   <trkpt lat="46.197509765625" lon="7.34093427658081">
    <ele>1214.42224121094</ele>
    <time>2012-05-23T14:12:18Z</time>
   </trkpt>
   <trkpt lat="46.1974983215332" lon="7.34090662002564">
    <ele>1214.66662597656</ele>
    <time>2012-05-23T14:12:19Z</time>
   </trkpt>
   <trkpt lat="46.1974830627441" lon="7.34087991714478">
    <ele>1214.9111328125</ele>
    <time>2012-05-23T14:12:20Z</time>
   </trkpt>
   <trkpt lat="46.1974716186523" lon="7.34085416793823">
    <ele>1215.15551757812</ele>
    <time>2012-05-23T14:12:21Z</time>
   </trkpt>
   <trkpt lat="46.1974601745606" lon="7.34083080291748">
    <ele>1215.40002441406</ele>
    <time>2012-05-23T14:12:22Z</time>
   </trkpt>
   <trkpt lat="46.1974449157715" lon="7.34080839157104">
    <ele>1215.40002441406</ele>
    <time>2012-05-23T14:12:23Z</time>
   </trkpt>
   <trkpt lat="46.1973991394043" lon="7.34071159362793">
    <ele>1216.40002441406</ele>
    <time>2012-05-23T14:12:27Z</time>
   </trkpt>
   <trkpt lat="46.1973838806152" lon="7.34068822860718">
    <ele>1216.65002441406</ele>
    <time>2012-05-23T14:12:28Z</time>
   </trkpt>
   <trkpt lat="46.1973724365234" lon="7.34066247940064">
    <ele>1216.90002441406</ele>
    <time>2012-05-23T14:12:29Z</time>
   </trkpt>
   <trkpt lat="46.1973609924316" lon="7.34063529968262">
    <ele>1217.15002441406</ele>
    <time>2012-05-23T14:12:30Z</time>
   </trkpt>
   <trkpt lat="46.1973495483398" lon="7.34060525894165">
    <ele>1217.40002441406</ele>
    <time>2012-05-23T14:12:31Z</time>
   </trkpt>
   <trkpt lat="46.1972999572754" lon="7.34049606323242">
    <ele>1217.40002441406</ele>
    <time>2012-05-23T14:12:35Z</time>
   </trkpt>
   <trkpt lat="46.1972923278809" lon="7.34042406082153">
    <ele>1217.95007324219</ele>
    <time>2012-05-23T14:12:37Z</time>
   </trkpt>
   <trkpt lat="46.1972808837891" lon="7.34038496017456">
    <ele>1218.22497558594</ele>
    <time>2012-05-23T14:12:38Z</time>
   </trkpt>
   <trkpt lat="46.1972732543945" lon="7.34035015106201">
    <ele>1218.5</ele>
    <time>2012-05-23T14:12:39Z</time>
   </trkpt>
   <trkpt lat="46.197265625" lon="7.3403172492981">
    <ele>1218.77502441406</ele>
    <time>2012-05-23T14:12:40Z</time>
   </trkpt>
   <trkpt lat="46.1972618103027" lon="7.34028482437134">
    <ele>1219.05004882812</ele>
    <time>2012-05-23T14:12:41Z</time>
   </trkpt>
   <trkpt lat="46.1972312927246" lon="7.34009504318237">
    <ele>1220.70007324219</ele>
    <time>2012-05-23T14:12:47Z</time>
   </trkpt>
   <trkpt lat="46.1972312927246" lon="7.34006118774414">
    <ele>1220.97509765625</ele>
    <time>2012-05-23T14:12:48Z</time>
   </trkpt>
   <trkpt lat="46.1972274780273" lon="7.34003162384033">
    <ele>1221.25</ele>
    <time>2012-05-23T14:12:49Z</time>
   </trkpt>
   <trkpt lat="46.1972236633301" lon="7.34000396728516">
    <ele>1221.52502441406</ele>
    <time>2012-05-23T14:12:50Z</time>
   </trkpt>
   <trkpt lat="46.1972198486328" lon="7.33997392654419">
    <ele>1221.80004882812</ele>
    <time>2012-05-23T14:12:51Z</time>
   </trkpt>
   <trkpt lat="46.1972122192383" lon="7.33987665176392">
    <ele>1221.80004882812</ele>
    <time>2012-05-23T14:12:54Z</time>
   </trkpt>
   <trkpt lat="46.1971893310547" lon="7.33978700637817">
    <ele>1222.56799316406</ele>
    <time>2012-05-23T14:12:57Z</time>
   </trkpt>
   <trkpt lat="46.1971817016602" lon="7.33975696563721">
    <ele>1222.82397460938</ele>
    <time>2012-05-23T14:12:58Z</time>
   </trkpt>
   <trkpt lat="46.1971778869629" lon="7.33972644805908">
    <ele>1223.080078125</ele>
    <time>2012-05-23T14:12:59Z</time>
   </trkpt>
   <trkpt lat="46.1971702575684" lon="7.33969783782959">
    <ele>1223.33605957031</ele>
    <time>2012-05-23T14:13:00Z</time>
   </trkpt>
   <trkpt lat="46.1971588134766" lon="7.33966875076294">
    <ele>1223.59204101562</ele>
    <time>2012-05-23T14:13:01Z</time>
   </trkpt>
   <trkpt lat="46.1971092224121" lon="7.3395299911499">
    <ele>1224.87194824219</ele>
    <time>2012-05-23T14:13:06Z</time>
   </trkpt>
   <trkpt lat="46.1970977783203" lon="7.33950471878052">
    <ele>1225.12805175781</ele>
    <time>2012-05-23T14:13:07Z</time>
   </trkpt>
   <trkpt lat="46.1970863342285" lon="7.33947277069092">
    <ele>1225.38403320312</ele>
    <time>2012-05-23T14:13:08Z</time>
   </trkpt>
   <trkpt lat="46.1970748901367" lon="7.3394455909729">
    <ele>1225.64001464844</ele>
    <time>2012-05-23T14:13:09Z</time>
   </trkpt>
   <trkpt lat="46.1970634460449" lon="7.33941888809204">
    <ele>1225.89599609375</ele>
    <time>2012-05-23T14:13:10Z</time>
   </trkpt>
   <trkpt lat="46.1969947814941" lon="7.33930063247681">
    <ele>1227.17602539062</ele>
    <time>2012-05-23T14:13:15Z</time>
   </trkpt>
   <trkpt lat="46.1969795227051" lon="7.33927297592163">
    <ele>1227.43200683594</ele>
    <time>2012-05-23T14:13:16Z</time>
   </trkpt>
   <trkpt lat="46.1969680786133" lon="7.3392448425293">
    <ele>1227.68798828125</ele>
    <time>2012-05-23T14:13:17Z</time>
   </trkpt>
   <trkpt lat="46.1969528198242" lon="7.33921766281128">
    <ele>1227.94396972656</ele>
    <time>2012-05-23T14:13:18Z</time>
   </trkpt>
   <trkpt lat="46.1969375610352" lon="7.33919286727905">
    <ele>1228.19995117188</ele>
    <time>2012-05-23T14:13:19Z</time>
   </trkpt>
   <trkpt lat="46.1968650817871" lon="7.33904409408569">
    <ele>1228.19995117188</ele>
    <time>2012-05-23T14:13:24Z</time>
   </trkpt>
   <trkpt lat="46.1967468261719" lon="7.33875703811646">
    <ele>1227.7470703125</ele>
    <time>2012-05-23T14:13:31Z</time>
   </trkpt>
   <trkpt lat="46.1966857910156" lon="7.33862161636352">
    <ele>1227.55285644531</ele>
    <time>2012-05-23T14:13:34Z</time>
   </trkpt>
   <trkpt lat="46.1966285705566" lon="7.33852672576904">
    <ele>1227.42346191406</ele>
    <time>2012-05-23T14:13:36Z</time>
   </trkpt>
   <trkpt lat="46.1965217590332" lon="7.33833694458008">
    <ele>1227.09997558594</ele>
    <time>2012-05-23T14:13:41Z</time>
   </trkpt>
   <trkpt lat="46.196460723877" lon="7.3381757736206">
    <ele>1226.77648925781</ele>
    <time>2012-05-23T14:13:46Z</time>
   </trkpt>
   <trkpt lat="46.1964492797852" lon="7.33813858032226">
    <ele>1226.71179199219</ele>
    <time>2012-05-23T14:13:47Z</time>
   </trkpt>
   <trkpt lat="46.1964111328125" lon="7.33797597885132">
    <ele>1226.517578125</ele>
    <time>2012-05-23T14:13:50Z</time>
   </trkpt>
   <trkpt lat="46.1963996887207" lon="7.33791828155518">
    <ele>1226.45288085938</ele>
    <time>2012-05-23T14:13:51Z</time>
   </trkpt>
   <trkpt lat="46.1963806152344" lon="7.33780002593994">
    <ele>1226.32348632812</ele>
    <time>2012-05-23T14:13:53Z</time>
   </trkpt>
   <trkpt lat="46.1963653564453" lon="7.33773756027222">
    <ele>1226.2587890625</ele>
    <time>2012-05-23T14:13:54Z</time>
   </trkpt>
   <trkpt lat="46.196346282959" lon="7.33767223358154">
    <ele>1226.19409179688</ele>
    <time>2012-05-23T14:13:55Z</time>
   </trkpt>
   <trkpt lat="46.1963233947754" lon="7.33761119842529">
    <ele>1226.12939453125</ele>
    <time>2012-05-23T14:13:56Z</time>
   </trkpt>
   <trkpt lat="46.1962928771973" lon="7.33754825592041">
    <ele>1226.06469726562</ele>
    <time>2012-05-23T14:13:57Z</time>
   </trkpt>
   <trkpt lat="46.1962623596191" lon="7.33748292922974">
    <ele>1226</ele>
    <time>2012-05-23T14:13:58Z</time>
   </trkpt>
   <trkpt lat="46.1962394714356" lon="7.3374195098877">
    <ele>1226</ele>
    <time>2012-05-23T14:13:59Z</time>
   </trkpt>
   <trkpt lat="46.196216583252" lon="7.33735656738281">
    <ele>1225.56005859375</ele>
    <time>2012-05-23T14:14:00Z</time>
   </trkpt>
   <trkpt lat="46.1962089538574" lon="7.33728790283203">
    <ele>1225.11999511719</ele>
    <time>2012-05-23T14:14:01Z</time>
   </trkpt>
   <trkpt lat="46.1962089538574" lon="7.3372106552124">
    <ele>1224.67993164062</ele>
    <time>2012-05-23T14:14:02Z</time>
   </trkpt>
   <trkpt lat="46.1962013244629" lon="7.33712434768677">
    <ele>1224.23999023438</ele>
    <time>2012-05-23T14:14:03Z</time>
   </trkpt>
   <trkpt lat="46.1961822509766" lon="7.33704090118408">
    <ele>1223.80004882812</ele>
    <time>2012-05-23T14:14:04Z</time>
   </trkpt>
   <trkpt lat="46.1961517333984" lon="7.33696889877319">
    <ele>1223.35998535156</ele>
    <time>2012-05-23T14:14:05Z</time>
   </trkpt>
   <trkpt lat="46.196117401123" lon="7.33690118789673">
    <ele>1222.919921875</ele>
    <time>2012-05-23T14:14:06Z</time>
   </trkpt>
   <trkpt lat="46.1960792541504" lon="7.33683681488037">
    <ele>1222.47998046875</ele>
    <time>2012-05-23T14:14:07Z</time>
   </trkpt>
   <trkpt lat="46.1960411071777" lon="7.33677101135254">
    <ele>1222.0400390625</ele>
    <time>2012-05-23T14:14:08Z</time>
   </trkpt>
   <trkpt lat="46.1960029602051" lon="7.3367075920105">
    <ele>1221.59997558594</ele>
    <time>2012-05-23T14:14:09Z</time>
   </trkpt>
   <trkpt lat="46.1959266662598" lon="7.33658647537232">
    <ele>1221.59997558594</ele>
    <time>2012-05-23T14:14:11Z</time>
   </trkpt>
   <trkpt lat="46.1958351135254" lon="7.33641195297241">
    <ele>1221.5</ele>
    <time>2012-05-23T14:14:14Z</time>
   </trkpt>
   <trkpt lat="46.1958122253418" lon="7.336341381073">
    <ele>1221.43334960938</ele>
    <time>2012-05-23T14:14:16Z</time>
   </trkpt>
   <trkpt lat="46.1958084106445" lon="7.33633184432983">
    <ele>1221.36669921875</ele>
    <time>2012-05-23T14:14:18Z</time>
   </trkpt>
   <trkpt lat="46.1957702636719" lon="7.33629274368286">
    <ele>1220.19995117188</ele>
    <time>2012-05-23T14:14:53Z</time>
   </trkpt>
   <trkpt lat="46.1956481933594" lon="7.33609390258789">
    <ele>1220</ele>
    <time>2012-05-23T14:14:59Z</time>
   </trkpt>
   <trkpt lat="46.1955680847168" lon="7.33595752716064">
    <ele>1219.90002441406</ele>
    <time>2012-05-23T14:15:02Z</time>
   </trkpt>
   <trkpt lat="46.1955146789551" lon="7.33584547042847">
    <ele>1219.83325195312</ele>
    <time>2012-05-23T14:15:04Z</time>
   </trkpt>
   <trkpt lat="46.1954307556152" lon="7.33564186096191">
    <ele>1219.73327636719</ele>
    <time>2012-05-23T14:15:07Z</time>
   </trkpt>
   <trkpt lat="46.1953887939453" lon="7.3355884552002">
    <ele>1219.69995117188</ele>
    <time>2012-05-23T14:15:08Z</time>
   </trkpt>
   <trkpt lat="46.1953353881836" lon="7.33555173873901">
    <ele>1219.66662597656</ele>
    <time>2012-05-23T14:15:09Z</time>
   </trkpt>
   <trkpt lat="46.1952857971191" lon="7.3355188369751">
    <ele>1219.63330078125</ele>
    <time>2012-05-23T14:15:10Z</time>
   </trkpt>
   <trkpt lat="46.195240020752" lon="7.33548545837402">
    <ele>1219.59997558594</ele>
    <time>2012-05-23T14:15:11Z</time>
   </trkpt>
   <trkpt lat="46.1952018737793" lon="7.33545160293579">
    <ele>1219.59997558594</ele>
    <time>2012-05-23T14:15:12Z</time>
   </trkpt>
   <trkpt lat="46.1950263977051" lon="7.33529615402222">
    <ele>1220.43334960938</ele>
    <time>2012-05-23T14:15:17Z</time>
   </trkpt>
   <trkpt lat="46.1949615478516" lon="7.33524036407471">
    <ele>1220.7666015625</ele>
    <time>2012-05-23T14:15:19Z</time>
   </trkpt>
   <trkpt lat="46.1949310302734" lon="7.33521032333374">
    <ele>1220.93334960938</ele>
    <time>2012-05-23T14:15:20Z</time>
   </trkpt>
   <trkpt lat="46.1949043273926" lon="7.33517837524414">
    <ele>1221.09997558594</ele>
    <time>2012-05-23T14:15:21Z</time>
   </trkpt>
   <trkpt lat="46.1948738098144" lon="7.33514595031738">
    <ele>1221.2666015625</ele>
    <time>2012-05-23T14:15:22Z</time>
   </trkpt>
   <trkpt lat="46.1948432922363" lon="7.33511400222778">
    <ele>1221.43334960938</ele>
    <time>2012-05-23T14:15:23Z</time>
   </trkpt>
   <trkpt lat="46.1948127746582" lon="7.33508682250976">
    <ele>1221.59997558594</ele>
    <time>2012-05-23T14:15:24Z</time>
   </trkpt>
   <trkpt lat="46.1947860717773" lon="7.33506155014038">
    <ele>1221.59997558594</ele>
    <time>2012-05-23T14:15:25Z</time>
   </trkpt>
   <trkpt lat="46.194652557373" lon="7.33494758605957">
    <ele>1222.822265625</ele>
    <time>2012-05-23T14:15:30Z</time>
   </trkpt>
   <trkpt lat="46.1946220397949" lon="7.33493328094482">
    <ele>1223.06665039062</ele>
    <time>2012-05-23T14:15:31Z</time>
   </trkpt>
   <trkpt lat="46.1945915222168" lon="7.33492851257324">
    <ele>1223.31115722656</ele>
    <time>2012-05-23T14:15:32Z</time>
   </trkpt>
   <trkpt lat="46.1945610046387" lon="7.33493709564209">
    <ele>1223.55554199219</ele>
    <time>2012-05-23T14:15:33Z</time>
   </trkpt>
   <trkpt lat="46.1945304870606" lon="7.33495855331421">
    <ele>1223.80004882812</ele>
    <time>2012-05-23T14:15:34Z</time>
   </trkpt>
   <trkpt lat="46.1945114135742" lon="7.33499526977539">
    <ele>1223.80004882812</ele>
    <time>2012-05-23T14:15:35Z</time>
   </trkpt>
   <trkpt lat="46.1945114135742" lon="7.33512687683106">
    <ele>1224.20007324219</ele>
    <time>2012-05-23T14:15:38Z</time>
   </trkpt>
   <trkpt lat="46.1945495605469" lon="7.33519697189331">
    <ele>1224.46667480469</ele>
    <time>2012-05-23T14:15:40Z</time>
   </trkpt>
   <trkpt lat="46.1945915222168" lon="7.33525133132935">
    <ele>1224.7333984375</ele>
    <time>2012-05-23T14:15:42Z</time>
   </trkpt>
   <trkpt lat="46.1947021484375" lon="7.33531761169434">
    <ele>1225.26672363281</ele>
    <time>2012-05-23T14:15:46Z</time>
   </trkpt>
   <trkpt lat="46.1947326660156" lon="7.33532810211182">
    <ele>1225.40002441406</ele>
    <time>2012-05-23T14:15:47Z</time>
   </trkpt>
   <trkpt lat="46.1947631835938" lon="7.33534240722656">
    <ele>1225.53332519531</ele>
    <time>2012-05-23T14:15:48Z</time>
   </trkpt>
   <trkpt lat="46.1947937011719" lon="7.33536148071289">
    <ele>1225.66674804688</ele>
    <time>2012-05-23T14:15:49Z</time>
   </trkpt>
   <trkpt lat="46.1948318481445" lon="7.33538246154785">
    <ele>1225.80004882812</ele>
    <time>2012-05-23T14:15:50Z</time>
   </trkpt>
   <trkpt lat="46.1949195861816" lon="7.33544015884399">
    <ele>1225.80004882812</ele>
    <time>2012-05-23T14:15:53Z</time>
   </trkpt>
   <trkpt lat="46.1949882507324" lon="7.3355131149292">
    <ele>1226.61547851562</ele>
    <time>2012-05-23T14:15:56Z</time>
   </trkpt>
   <trkpt lat="46.1950073242188" lon="7.3355393409729">
    <ele>1226.88720703125</ele>
    <time>2012-05-23T14:15:57Z</time>
   </trkpt>
   <trkpt lat="46.1950225830078" lon="7.33556842803955">
    <ele>1227.15905761719</ele>
    <time>2012-05-23T14:15:58Z</time>
   </trkpt>
   <trkpt lat="46.1950378417969" lon="7.3355975151062">
    <ele>1227.43078613281</ele>
    <time>2012-05-23T14:15:59Z</time>
   </trkpt>
   <trkpt lat="46.1950531005859" lon="7.33562755584717">
    <ele>1227.70263671875</ele>
    <time>2012-05-23T14:16:00Z</time>
   </trkpt>
   <trkpt lat="46.1950988769531" lon="7.33570957183838">
    <ele>1228.51794433594</ele>
    <time>2012-05-23T14:16:03Z</time>
   </trkpt>
   <trkpt lat="46.1951103210449" lon="7.33573722839356">
    <ele>1228.78979492188</ele>
    <time>2012-05-23T14:16:04Z</time>
   </trkpt>
   <trkpt lat="46.1951217651367" lon="7.33576822280884">
    <ele>1229.0615234375</ele>
    <time>2012-05-23T14:16:05Z</time>
   </trkpt>
   <trkpt lat="46.1951293945312" lon="7.33580255508423">
    <ele>1229.33337402344</ele>
    <time>2012-05-23T14:16:06Z</time>
   </trkpt>
   <trkpt lat="46.195140838623" lon="7.33583211898804">
    <ele>1229.60522460938</ele>
    <time>2012-05-23T14:16:07Z</time>
   </trkpt>
   <trkpt lat="46.1951713562012" lon="7.33592462539673">
    <ele>1230.42053222656</ele>
    <time>2012-05-23T14:16:10Z</time>
   </trkpt>
   <trkpt lat="46.1951789855957" lon="7.33595705032349">
    <ele>1230.6923828125</ele>
    <time>2012-05-23T14:16:11Z</time>
   </trkpt>
   <trkpt lat="46.1951866149902" lon="7.33599090576172">
    <ele>1230.96411132812</ele>
    <time>2012-05-23T14:16:12Z</time>
   </trkpt>
   <trkpt lat="46.1951942443848" lon="7.33602046966553">
    <ele>1231.23596191406</ele>
    <time>2012-05-23T14:16:13Z</time>
   </trkpt>
   <trkpt lat="46.1952018737793" lon="7.33604955673218">
    <ele>1231.50769042969</ele>
    <time>2012-05-23T14:16:14Z</time>
   </trkpt>
   <trkpt lat="46.1952285766602" lon="7.33616590499878">
    <ele>1232.59484863281</ele>
    <time>2012-05-23T14:16:18Z</time>
   </trkpt>
   <trkpt lat="46.1952362060547" lon="7.33619785308838">
    <ele>1232.86669921875</ele>
    <time>2012-05-23T14:16:19Z</time>
   </trkpt>
   <trkpt lat="46.1952438354492" lon="7.33623027801514">
    <ele>1233.13854980469</ele>
    <time>2012-05-23T14:16:20Z</time>
   </trkpt>
   <trkpt lat="46.1952514648438" lon="7.3362627029419">
    <ele>1233.41027832031</ele>
    <time>2012-05-23T14:16:21Z</time>
   </trkpt>
   <trkpt lat="46.1952590942383" lon="7.33629560470581">
    <ele>1233.68212890625</ele>
    <time>2012-05-23T14:16:22Z</time>
   </trkpt>
   <trkpt lat="46.1953125" lon="7.33646821975708">
    <ele>1235.31286621094</ele>
    <time>2012-05-23T14:16:28Z</time>
   </trkpt>
   <trkpt lat="46.1953201293945" lon="7.33650255203247">
    <ele>1235.58459472656</ele>
    <time>2012-05-23T14:16:29Z</time>
   </trkpt>
   <trkpt lat="46.1953277587891" lon="7.3365330696106">
    <ele>1235.8564453125</ele>
    <time>2012-05-23T14:16:30Z</time>
   </trkpt>
   <trkpt lat="46.1953353881836" lon="7.33656311035156">
    <ele>1236.12817382812</ele>
    <time>2012-05-23T14:16:31Z</time>
   </trkpt>
   <trkpt lat="46.1953468322754" lon="7.33659172058106">
    <ele>1236.40002441406</ele>
    <time>2012-05-23T14:16:32Z</time>
   </trkpt>
   <trkpt lat="46.1953659057617" lon="7.33664894104004">
    <ele>1236.40002441406</ele>
    <time>2012-05-23T14:16:34Z</time>
   </trkpt>
   <trkpt lat="46.1953887939453" lon="7.33670139312744">
    <ele>1237.06665039062</ele>
    <time>2012-05-23T14:16:36Z</time>
   </trkpt>
   <trkpt lat="46.1953964233398" lon="7.33673238754272">
    <ele>1237.40002441406</ele>
    <time>2012-05-23T14:16:37Z</time>
   </trkpt>
   <trkpt lat="46.1954040527344" lon="7.33676099777222">
    <ele>1237.7333984375</ele>
    <time>2012-05-23T14:16:38Z</time>
   </trkpt>
   <trkpt lat="46.1954154968262" lon="7.33678960800171">
    <ele>1238.06665039062</ele>
    <time>2012-05-23T14:16:39Z</time>
   </trkpt>
   <trkpt lat="46.1954231262207" lon="7.33681917190552">
    <ele>1238.40002441406</ele>
    <time>2012-05-23T14:16:40Z</time>
   </trkpt>
   <trkpt lat="46.1954307556152" lon="7.33684825897217">
    <ele>1238.40002441406</ele>
    <time>2012-05-23T14:16:41Z</time>
   </trkpt>
   <trkpt lat="46.1954650878906" lon="7.33702898025513">
    <ele>1239.59997558594</ele>
    <time>2012-05-23T14:16:47Z</time>
   </trkpt>
   <trkpt lat="46.1954727172852" lon="7.33705806732178">
    <ele>1239.80004882812</ele>
    <time>2012-05-23T14:16:48Z</time>
   </trkpt>
   <trkpt lat="46.1954803466797" lon="7.33708763122559">
    <ele>1240</ele>
    <time>2012-05-23T14:16:49Z</time>
   </trkpt>
   <trkpt lat="46.1954879760742" lon="7.33711671829224">
    <ele>1240.20007324219</ele>
    <time>2012-05-23T14:16:50Z</time>
   </trkpt>
   <trkpt lat="46.1954917907715" lon="7.33714771270752">
    <ele>1240.40002441406</ele>
    <time>2012-05-23T14:16:51Z</time>
   </trkpt>
   <trkpt lat="46.1955413818359" lon="7.33731603622436">
    <ele>1240.40002441406</ele>
    <time>2012-05-23T14:16:57Z</time>
   </trkpt>
   <trkpt lat="46.1955490112305" lon="7.33734464645386">
    <ele>1240.94995117188</ele>
    <time>2012-05-23T14:16:58Z</time>
   </trkpt>
   <trkpt lat="46.195556640625" lon="7.33737182617188">
    <ele>1241.5</ele>
    <time>2012-05-23T14:16:59Z</time>
   </trkpt>
   <trkpt lat="46.1955680847168" lon="7.33739995956421">
    <ele>1242.05004882812</ele>
    <time>2012-05-23T14:17:00Z</time>
   </trkpt>
   <trkpt lat="46.1955757141113" lon="7.33742952346802">
    <ele>1242.59997558594</ele>
    <time>2012-05-23T14:17:01Z</time>
   </trkpt>
   <trkpt lat="46.1956024169922" lon="7.33751630783081">
    <ele>1242.59997558594</ele>
    <time>2012-05-23T14:17:04Z</time>
   </trkpt>
   <trkpt lat="46.1956253051758" lon="7.33762741088867">
    <ele>1243.53332519531</ele>
    <time>2012-05-23T14:17:08Z</time>
   </trkpt>
   <trkpt lat="46.1956329345703" lon="7.33765554428101">
    <ele>1243.7666015625</ele>
    <time>2012-05-23T14:17:09Z</time>
   </trkpt>
   <trkpt lat="46.1956405639648" lon="7.33768224716186">
    <ele>1244</ele>
    <time>2012-05-23T14:17:10Z</time>
   </trkpt>
   <trkpt lat="46.1956481933594" lon="7.33771133422852">
    <ele>1244.2333984375</ele>
    <time>2012-05-23T14:17:11Z</time>
   </trkpt>
   <trkpt lat="46.1956558227539" lon="7.33774042129517">
    <ele>1244.46667480469</ele>
    <time>2012-05-23T14:17:12Z</time>
   </trkpt>
   <trkpt lat="46.1957015991211" lon="7.33791732788086">
    <ele>1245.86669921875</ele>
    <time>2012-05-23T14:17:18Z</time>
   </trkpt>
   <trkpt lat="46.1957054138184" lon="7.33794546127319">
    <ele>1246.10009765625</ele>
    <time>2012-05-23T14:17:19Z</time>
   </trkpt>
   <trkpt lat="46.1957130432129" lon="7.33797311782837">
    <ele>1246.33337402344</ele>
    <time>2012-05-23T14:17:20Z</time>
   </trkpt>
   <trkpt lat="46.1957244873047" lon="7.33800077438354">
    <ele>1246.56665039062</ele>
    <time>2012-05-23T14:17:21Z</time>
   </trkpt>
   <trkpt lat="46.1957359313965" lon="7.3380298614502">
    <ele>1246.80004882812</ele>
    <time>2012-05-23T14:17:22Z</time>
   </trkpt>
   <trkpt lat="46.1957664489746" lon="7.33814191818237">
    <ele>1246.80004882812</ele>
    <time>2012-05-23T14:17:26Z</time>
   </trkpt>
   <trkpt lat="46.1957740783691" lon="7.33817005157471">
    <ele>1247.20007324219</ele>
    <time>2012-05-23T14:17:27Z</time>
   </trkpt>
   <trkpt lat="46.1957778930664" lon="7.3381986618042">
    <ele>1247.60009765625</ele>
    <time>2012-05-23T14:17:28Z</time>
   </trkpt>
   <trkpt lat="46.1957855224609" lon="7.33822584152222">
    <ele>1248</ele>
    <time>2012-05-23T14:17:29Z</time>
   </trkpt>
   <trkpt lat="46.1957931518555" lon="7.33825635910034">
    <ele>1248.40002441406</ele>
    <time>2012-05-23T14:17:30Z</time>
   </trkpt>
   <trkpt lat="46.1957969665527" lon="7.33828735351562">
    <ele>1248.80004882812</ele>
    <time>2012-05-23T14:17:31Z</time>
   </trkpt>
   <trkpt lat="46.1958160400391" lon="7.3383469581604">
    <ele>1248.80004882812</ele>
    <time>2012-05-23T14:17:33Z</time>
   </trkpt>
   <trkpt lat="46.1958465576172" lon="7.3384690284729">
    <ele>1249.71435546875</ele>
    <time>2012-05-23T14:17:37Z</time>
   </trkpt>
   <trkpt lat="46.1958541870117" lon="7.33849716186524">
    <ele>1249.94287109375</ele>
    <time>2012-05-23T14:17:38Z</time>
   </trkpt>
   <trkpt lat="46.195858001709" lon="7.33852338790894">
    <ele>1250.17150878906</ele>
    <time>2012-05-23T14:17:39Z</time>
   </trkpt>
   <trkpt lat="46.1958694458008" lon="7.3385500907898">
    <ele>1250.40002441406</ele>
    <time>2012-05-23T14:17:40Z</time>
   </trkpt>
   <trkpt lat="46.1958770751953" lon="7.33857822418213">
    <ele>1250.62854003906</ele>
    <time>2012-05-23T14:17:41Z</time>
   </trkpt>
   <trkpt lat="46.1959342956543" lon="7.33874368667602">
    <ele>1252</ele>
    <time>2012-05-23T14:17:47Z</time>
   </trkpt>
   <trkpt lat="46.1959457397461" lon="7.33877086639404">
    <ele>1252.228515625</ele>
    <time>2012-05-23T14:17:48Z</time>
   </trkpt>
   <trkpt lat="46.1959533691406" lon="7.33879947662354">
    <ele>1252.45715332031</ele>
    <time>2012-05-23T14:17:49Z</time>
   </trkpt>
   <trkpt lat="46.1959609985352" lon="7.33882713317871">
    <ele>1252.68566894531</ele>
    <time>2012-05-23T14:17:50Z</time>
   </trkpt>
   <trkpt lat="46.1960258483887" lon="7.33903121948242">
    <ele>1254.28564453125</ele>
    <time>2012-05-23T14:17:57Z</time>
   </trkpt>
   <trkpt lat="46.1960334777832" lon="7.33905982971191">
    <ele>1254.51428222656</ele>
    <time>2012-05-23T14:17:58Z</time>
   </trkpt>
   <trkpt lat="46.1960411071777" lon="7.33908557891846">
    <ele>1254.74279785156</ele>
    <time>2012-05-23T14:17:59Z</time>
   </trkpt>
   <trkpt lat="46.1960487365723" lon="7.33911323547363">
    <ele>1254.97143554688</ele>
    <time>2012-05-23T14:18:00Z</time>
   </trkpt>
   <trkpt lat="46.1960563659668" lon="7.33914041519165">
    <ele>1255.19995117188</ele>
    <time>2012-05-23T14:18:01Z</time>
   </trkpt>
   <trkpt lat="46.1960868835449" lon="7.33925867080688">
    <ele>1255.19995117188</ele>
    <time>2012-05-23T14:18:05Z</time>
   </trkpt>
   <trkpt lat="46.1961059570312" lon="7.33934450149536">
    <ele>1256</ele>
    <time>2012-05-23T14:18:08Z</time>
   </trkpt>
   <trkpt lat="46.1961097717285" lon="7.33937215805054">
    <ele>1256.2666015625</ele>
    <time>2012-05-23T14:18:09Z</time>
   </trkpt>
   <trkpt lat="46.196117401123" lon="7.33940076828003">
    <ele>1256.53332519531</ele>
    <time>2012-05-23T14:18:10Z</time>
   </trkpt>
   <trkpt lat="46.1961212158203" lon="7.33942985534668">
    <ele>1256.79992675781</ele>
    <time>2012-05-23T14:18:11Z</time>
   </trkpt>
   <trkpt lat="46.1961250305176" lon="7.33945751190186">
    <ele>1257.06665039062</ele>
    <time>2012-05-23T14:18:12Z</time>
   </trkpt>
   <trkpt lat="46.1961479187012" lon="7.33957576751709">
    <ele>1258.13330078125</ele>
    <time>2012-05-23T14:18:16Z</time>
   </trkpt>
   <trkpt lat="46.1961555480957" lon="7.3396053314209">
    <ele>1258.39990234375</ele>
    <time>2012-05-23T14:18:17Z</time>
   </trkpt>
   <trkpt lat="46.1961631774902" lon="7.33963632583618">
    <ele>1258.66662597656</ele>
    <time>2012-05-23T14:18:18Z</time>
   </trkpt>
   <trkpt lat="46.1961631774902" lon="7.33966493606567">
    <ele>1258.93334960938</ele>
    <time>2012-05-23T14:18:19Z</time>
   </trkpt>
   <trkpt lat="46.1961669921875" lon="7.33969306945801">
    <ele>1259.19995117188</ele>
    <time>2012-05-23T14:18:20Z</time>
   </trkpt>
   <trkpt lat="46.1961898803711" lon="7.3398323059082">
    <ele>1260.53332519531</ele>
    <time>2012-05-23T14:18:25Z</time>
   </trkpt>
   <trkpt lat="46.1961936950684" lon="7.33986139297485">
    <ele>1260.79992675781</ele>
    <time>2012-05-23T14:18:26Z</time>
   </trkpt>
   <trkpt lat="46.1962013244629" lon="7.33988952636719">
    <ele>1261.06665039062</ele>
    <time>2012-05-23T14:18:27Z</time>
   </trkpt>
   <trkpt lat="46.1962051391602" lon="7.33991956710815">
    <ele>1261.33325195312</ele>
    <time>2012-05-23T14:18:28Z</time>
   </trkpt>
   <trkpt lat="46.1962127685547" lon="7.3399510383606">
    <ele>1261.59997558594</ele>
    <time>2012-05-23T14:18:29Z</time>
   </trkpt>
   <trkpt lat="46.196231842041" lon="7.34007120132446">
    <ele>1261.59997558594</ele>
    <time>2012-05-23T14:18:33Z</time>
   </trkpt>
   <trkpt lat="46.1962394714356" lon="7.34016275405884">
    <ele>1262.69995117188</ele>
    <time>2012-05-23T14:18:36Z</time>
   </trkpt>
   <trkpt lat="46.1962432861328" lon="7.34019613265991">
    <ele>1263.06665039062</ele>
    <time>2012-05-23T14:18:37Z</time>
   </trkpt>
   <trkpt lat="46.1962471008301" lon="7.34022808074951">
    <ele>1263.43334960938</ele>
    <time>2012-05-23T14:18:38Z</time>
   </trkpt>
   <trkpt lat="46.1962471008301" lon="7.34026145935059">
    <ele>1263.80004882812</ele>
    <time>2012-05-23T14:18:39Z</time>
   </trkpt>
   <trkpt lat="46.1962623596191" lon="7.3404130935669">
    <ele>1263.80004882812</ele>
    <time>2012-05-23T14:18:44Z</time>
   </trkpt>
   <trkpt lat="46.1962661743164" lon="7.34044408798218">
    <ele>1264.20007324219</ele>
    <time>2012-05-23T14:18:45Z</time>
   </trkpt>
   <trkpt lat="46.1962699890137" lon="7.34047603607178">
    <ele>1264.60009765625</ele>
    <time>2012-05-23T14:18:46Z</time>
   </trkpt>
   <trkpt lat="46.1962738037109" lon="7.34050703048706">
    <ele>1265</ele>
    <time>2012-05-23T14:18:47Z</time>
   </trkpt>
   <trkpt lat="46.1962776184082" lon="7.34053754806518">
    <ele>1265.40002441406</ele>
    <time>2012-05-23T14:18:48Z</time>
   </trkpt>
   <trkpt lat="46.1962852478027" lon="7.34056663513184">
    <ele>1265.80004882812</ele>
    <time>2012-05-23T14:18:49Z</time>
   </trkpt>
   <trkpt lat="46.1962928771973" lon="7.34062719345093">
    <ele>1265.80004882812</ele>
    <time>2012-05-23T14:18:51Z</time>
   </trkpt>
   <trkpt lat="46.1963272094727" lon="7.34077405929565">
    <ele>1267.02221679688</ele>
    <time>2012-05-23T14:18:56Z</time>
   </trkpt>
   <trkpt lat="46.1963348388672" lon="7.34080171585083">
    <ele>1267.26672363281</ele>
    <time>2012-05-23T14:18:57Z</time>
   </trkpt>
   <trkpt lat="46.1963424682617" lon="7.3408317565918">
    <ele>1267.51110839844</ele>
    <time>2012-05-23T14:18:58Z</time>
   </trkpt>
   <trkpt lat="46.1963539123535" lon="7.34086227416992">
    <ele>1267.75561523438</ele>
    <time>2012-05-23T14:18:59Z</time>
   </trkpt>
   <trkpt lat="46.196361541748" lon="7.34089088439941">
    <ele>1268</ele>
    <time>2012-05-23T14:19:00Z</time>
   </trkpt>
   <trkpt lat="46.1963958740234" lon="7.34103202819824">
    <ele>1269.22216796875</ele>
    <time>2012-05-23T14:19:05Z</time>
   </trkpt>
   <trkpt lat="46.1964073181152" lon="7.34106159210205">
    <ele>1269.46667480469</ele>
    <time>2012-05-23T14:19:06Z</time>
   </trkpt>
   <trkpt lat="46.1964149475098" lon="7.34109210968018">
    <ele>1269.71105957031</ele>
    <time>2012-05-23T14:19:07Z</time>
   </trkpt>
   <trkpt lat="46.1964225769043" lon="7.34112024307251">
    <ele>1269.95556640625</ele>
    <time>2012-05-23T14:19:08Z</time>
   </trkpt>
   <trkpt lat="46.1964302062988" lon="7.34114837646484">
    <ele>1270.19995117188</ele>
    <time>2012-05-23T14:19:09Z</time>
   </trkpt>
   <trkpt lat="46.196460723877" lon="7.34126949310303">
    <ele>1270.19995117188</ele>
    <time>2012-05-23T14:19:13Z</time>
   </trkpt>
   <trkpt lat="46.196475982666" lon="7.3413290977478">
    <ele>1271</ele>
    <time>2012-05-23T14:19:15Z</time>
   </trkpt>
   <trkpt lat="46.1964874267578" lon="7.34135961532593">
    <ele>1271.39990234375</ele>
    <time>2012-05-23T14:19:16Z</time>
   </trkpt>
   <trkpt lat="46.1964950561523" lon="7.34139060974121">
    <ele>1271.79992675781</ele>
    <time>2012-05-23T14:19:17Z</time>
   </trkpt>
   <trkpt lat="46.1964988708496" lon="7.34142017364502">
    <ele>1272.19995117188</ele>
    <time>2012-05-23T14:19:18Z</time>
   </trkpt>
   <trkpt lat="46.1965065002441" lon="7.34145069122314">
    <ele>1272.59997558594</ele>
    <time>2012-05-23T14:19:19Z</time>
   </trkpt>
   <trkpt lat="46.1965141296387" lon="7.34148263931274">
    <ele>1272.59997558594</ele>
    <time>2012-05-23T14:19:20Z</time>
   </trkpt>
   <trkpt lat="46.1965217590332" lon="7.34160137176514">
    <ele>1273.59997558594</ele>
    <time>2012-05-23T14:19:24Z</time>
   </trkpt>
   <trkpt lat="46.1965255737305" lon="7.34163522720337">
    <ele>1273.84997558594</ele>
    <time>2012-05-23T14:19:25Z</time>
   </trkpt>
   <trkpt lat="46.1965255737305" lon="7.34166622161865">
    <ele>1274.09997558594</ele>
    <time>2012-05-23T14:19:26Z</time>
   </trkpt>
   <trkpt lat="46.1965293884277" lon="7.34169816970825">
    <ele>1274.34997558594</ele>
    <time>2012-05-23T14:19:27Z</time>
   </trkpt>
   <trkpt lat="46.1965560913086" lon="7.34186410903931">
    <ele>1275.59997558594</ele>
    <time>2012-05-23T14:19:32Z</time>
   </trkpt>
   <trkpt lat="46.1965637207031" lon="7.34189653396606">
    <ele>1275.84997558594</ele>
    <time>2012-05-23T14:19:33Z</time>
   </trkpt>
   <trkpt lat="46.1965637207031" lon="7.34192752838135">
    <ele>1276.09997558594</ele>
    <time>2012-05-23T14:19:34Z</time>
   </trkpt>
   <trkpt lat="46.1965713500977" lon="7.34195852279663">
    <ele>1276.34997558594</ele>
    <time>2012-05-23T14:19:35Z</time>
   </trkpt>
   <trkpt lat="46.1965751647949" lon="7.34198951721191">
    <ele>1276.59997558594</ele>
    <time>2012-05-23T14:19:36Z</time>
   </trkpt>
   <trkpt lat="46.196590423584" lon="7.34211349487305">
    <ele>1276.59997558594</ele>
    <time>2012-05-23T14:19:40Z</time>
   </trkpt>
   <trkpt lat="46.1965942382812" lon="7.34214735031128">
    <ele>1277</ele>
    <time>2012-05-23T14:19:41Z</time>
   </trkpt>
   <trkpt lat="46.1965980529785" lon="7.34218120574951">
    <ele>1277.40002441406</ele>
    <time>2012-05-23T14:19:42Z</time>
   </trkpt>
   <trkpt lat="46.1966018676758" lon="7.34221601486206">
    <ele>1277.79992675781</ele>
    <time>2012-05-23T14:19:43Z</time>
   </trkpt>
   <trkpt lat="46.196605682373" lon="7.34224939346314">
    <ele>1278.19995117188</ele>
    <time>2012-05-23T14:19:44Z</time>
   </trkpt>
   <trkpt lat="46.1966133117676" lon="7.34228324890137">
    <ele>1278.59997558594</ele>
    <time>2012-05-23T14:19:45Z</time>
   </trkpt>
   <trkpt lat="46.1966133117676" lon="7.34231233596802">
    <ele>1278.59997558594</ele>
    <time>2012-05-23T14:19:46Z</time>
   </trkpt>
   <trkpt lat="46.1966247558594" lon="7.34243488311768">
    <ele>1279.85717773438</ele>
    <time>2012-05-23T14:19:50Z</time>
   </trkpt>
   <trkpt lat="46.1966209411621" lon="7.34246778488159">
    <ele>1280.17150878906</ele>
    <time>2012-05-23T14:19:51Z</time>
   </trkpt>
   <trkpt lat="46.1966247558594" lon="7.34250211715698">
    <ele>1280.48571777344</ele>
    <time>2012-05-23T14:19:52Z</time>
   </trkpt>
   <trkpt lat="46.1966247558594" lon="7.3425350189209">
    <ele>1280.80004882812</ele>
    <time>2012-05-23T14:19:53Z</time>
   </trkpt>
   <trkpt lat="46.1966247558594" lon="7.34256792068482">
    <ele>1280.80004882812</ele>
    <time>2012-05-23T14:19:54Z</time>
   </trkpt>
   <trkpt lat="46.1966361999512" lon="7.34271430969238">
    <ele>1281.95788574219</ele>
    <time>2012-05-23T14:19:59Z</time>
   </trkpt>
   <trkpt lat="46.1966400146484" lon="7.34274196624756">
    <ele>1282.189453125</ele>
    <time>2012-05-23T14:20:00Z</time>
   </trkpt>
   <trkpt lat="46.1966438293457" lon="7.34277153015137">
    <ele>1282.42102050781</ele>
    <time>2012-05-23T14:20:01Z</time>
   </trkpt>
   <trkpt lat="46.1966438293457" lon="7.34280347824097">
    <ele>1282.65258789062</ele>
    <time>2012-05-23T14:20:02Z</time>
   </trkpt>
   <trkpt lat="46.1966438293457" lon="7.34283351898193">
    <ele>1282.88415527344</ele>
    <time>2012-05-23T14:20:03Z</time>
   </trkpt>
   <trkpt lat="46.196662902832" lon="7.34302186965942">
    <ele>1284.27368164062</ele>
    <time>2012-05-23T14:20:09Z</time>
   </trkpt>
   <trkpt lat="46.1966705322266" lon="7.34305286407471">
    <ele>1284.50524902344</ele>
    <time>2012-05-23T14:20:10Z</time>
   </trkpt>
   <trkpt lat="46.1966743469238" lon="7.34308481216431">
    <ele>1284.73681640625</ele>
    <time>2012-05-23T14:20:11Z</time>
   </trkpt>
   <trkpt lat="46.1966857910156" lon="7.34311389923096">
    <ele>1284.96838378906</ele>
    <time>2012-05-23T14:20:12Z</time>
   </trkpt>
   <trkpt lat="46.1966934204102" lon="7.34314823150635">
    <ele>1285.19995117188</ele>
    <time>2012-05-23T14:20:13Z</time>
   </trkpt>
   <trkpt lat="46.1967010498047" lon="7.34321737289429">
    <ele>1285.19995117188</ele>
    <time>2012-05-23T14:20:15Z</time>
   </trkpt>
   <trkpt lat="46.196720123291" lon="7.34330940246582">
    <ele>1286.14282226562</ele>
    <time>2012-05-23T14:20:18Z</time>
   </trkpt>
   <trkpt lat="46.1967239379883" lon="7.34333896636963">
    <ele>1286.45715332031</ele>
    <time>2012-05-23T14:20:19Z</time>
   </trkpt>
   <trkpt lat="46.1967315673828" lon="7.34337043762207">
    <ele>1286.771484375</ele>
    <time>2012-05-23T14:20:20Z</time>
   </trkpt>
   <trkpt lat="46.1967391967773" lon="7.34339904785156">
    <ele>1287.08569335938</ele>
    <time>2012-05-23T14:20:21Z</time>
   </trkpt>
   <trkpt lat="46.1967430114746" lon="7.34342670440674">
    <ele>1287.40002441406</ele>
    <time>2012-05-23T14:20:22Z</time>
   </trkpt>
   <trkpt lat="46.1967506408691" lon="7.3434567451477">
    <ele>1287.40002441406</ele>
    <time>2012-05-23T14:20:23Z</time>
   </trkpt>
   <trkpt lat="46.1967926025391" lon="7.34360933303833">
    <ele>1288.51110839844</ele>
    <time>2012-05-23T14:20:28Z</time>
   </trkpt>
   <trkpt lat="46.1967964172363" lon="7.34363746643066">
    <ele>1288.7333984375</ele>
    <time>2012-05-23T14:20:29Z</time>
   </trkpt>
   <trkpt lat="46.1968040466309" lon="7.34367036819458">
    <ele>1288.95556640625</ele>
    <time>2012-05-23T14:20:30Z</time>
   </trkpt>
   <trkpt lat="46.1968116760254" lon="7.34370136260986">
    <ele>1289.17785644531</ele>
    <time>2012-05-23T14:20:31Z</time>
   </trkpt>
   <trkpt lat="46.1968154907227" lon="7.34373331069946">
    <ele>1289.40002441406</ele>
    <time>2012-05-23T14:20:32Z</time>
   </trkpt>
   <trkpt lat="46.1967964172363" lon="7.3438138961792">
    <ele>1289.40002441406</ele>
    <time>2012-05-23T14:20:35Z</time>
   </trkpt>
   <trkpt lat="46.19677734375" lon="7.34383201599121">
    <ele>1289.71435546875</ele>
    <time>2012-05-23T14:20:36Z</time>
   </trkpt>
   <trkpt lat="46.196720123291" lon="7.34381914138794">
    <ele>1290.65710449219</ele>
    <time>2012-05-23T14:20:39Z</time>
   </trkpt>
   <trkpt lat="46.1967086791992" lon="7.34379529953003">
    <ele>1290.97143554688</ele>
    <time>2012-05-23T14:20:40Z</time>
   </trkpt>
   <trkpt lat="46.196704864502" lon="7.34376525878906">
    <ele>1291.28564453125</ele>
    <time>2012-05-23T14:20:41Z</time>
   </trkpt>
   <trkpt lat="46.1967086791992" lon="7.34373092651367">
    <ele>1291.59997558594</ele>
    <time>2012-05-23T14:20:42Z</time>
   </trkpt>
   <trkpt lat="46.1967086791992" lon="7.34366798400879">
    <ele>1291.59997558594</ele>
    <time>2012-05-23T14:20:44Z</time>
   </trkpt>
   <trkpt lat="46.1967086791992" lon="7.34360361099243">
    <ele>1292.04443359375</ele>
    <time>2012-05-23T14:20:46Z</time>
   </trkpt>
   <trkpt lat="46.1967010498047" lon="7.34350872039795">
    <ele>1292.71105957031</ele>
    <time>2012-05-23T14:20:49Z</time>
   </trkpt>
   <trkpt lat="46.1966934204102" lon="7.3434796333313">
    <ele>1292.93334960938</ele>
    <time>2012-05-23T14:20:50Z</time>
   </trkpt>
   <trkpt lat="46.1966896057129" lon="7.34344863891602">
    <ele>1293.15551757812</ele>
    <time>2012-05-23T14:20:51Z</time>
   </trkpt>
   <trkpt lat="46.1966819763184" lon="7.343421459198">
    <ele>1293.37780761719</ele>
    <time>2012-05-23T14:20:52Z</time>
   </trkpt>
   <trkpt lat="46.1966705322266" lon="7.34339666366577">
    <ele>1293.59997558594</ele>
    <time>2012-05-23T14:20:53Z</time>
   </trkpt>
   <trkpt lat="46.1966361999512" lon="7.34329462051392">
    <ele>1293.59997558594</ele>
    <time>2012-05-23T14:20:57Z</time>
   </trkpt>
   <trkpt lat="46.196605682373" lon="7.34322261810303">
    <ele>1294.47998046875</ele>
    <time>2012-05-23T14:21:00Z</time>
   </trkpt>
   <trkpt lat="46.1965942382812" lon="7.34320497512817">
    <ele>1294.77331542969</ele>
    <time>2012-05-23T14:21:01Z</time>
   </trkpt>
   <trkpt lat="46.1965827941894" lon="7.34318494796753">
    <ele>1295.06665039062</ele>
    <time>2012-05-23T14:21:02Z</time>
   </trkpt>
   <trkpt lat="46.1965713500977" lon="7.34316349029541">
    <ele>1295.35998535156</ele>
    <time>2012-05-23T14:21:03Z</time>
   </trkpt>
   <trkpt lat="46.1965599060059" lon="7.3431396484375">
    <ele>1295.6533203125</ele>
    <time>2012-05-23T14:21:04Z</time>
   </trkpt>
   <trkpt lat="46.1965217590332" lon="7.34305047988892">
    <ele>1296.82666015625</ele>
    <time>2012-05-23T14:21:08Z</time>
   </trkpt>
   <trkpt lat="46.1965103149414" lon="7.34302139282226">
    <ele>1297.11999511719</ele>
    <time>2012-05-23T14:21:09Z</time>
   </trkpt>
   <trkpt lat="46.1964950561523" lon="7.34299659729004">
    <ele>1297.41333007812</ele>
    <time>2012-05-23T14:21:10Z</time>
   </trkpt>
   <trkpt lat="46.1964836120606" lon="7.34296751022339">
    <ele>1297.70666503906</ele>
    <time>2012-05-23T14:21:11Z</time>
   </trkpt>
   <trkpt lat="46.1964683532715" lon="7.342942237854">
    <ele>1298</ele>
    <time>2012-05-23T14:21:12Z</time>
   </trkpt>
   <trkpt lat="46.1964073181152" lon="7.34280252456665">
    <ele>1298</ele>
    <time>2012-05-23T14:21:17Z</time>
   </trkpt>
   <trkpt lat="46.1963958740234" lon="7.34277772903442">
    <ele>1298.40002441406</ele>
    <time>2012-05-23T14:21:18Z</time>
   </trkpt>
   <trkpt lat="46.1963844299316" lon="7.34275579452515">
    <ele>1298.80004882812</ele>
    <time>2012-05-23T14:21:19Z</time>
   </trkpt>
   <trkpt lat="46.1963729858398" lon="7.3427324295044">
    <ele>1299.19995117188</ele>
    <time>2012-05-23T14:21:20Z</time>
   </trkpt>
   <trkpt lat="46.196361541748" lon="7.34271049499512">
    <ele>1299.59997558594</ele>
    <time>2012-05-23T14:21:21Z</time>
   </trkpt>
   <trkpt lat="46.1963500976562" lon="7.34268712997436">
    <ele>1300</ele>
    <time>2012-05-23T14:21:22Z</time>
   </trkpt>
   <trkpt lat="46.1963386535644" lon="7.34266090393066">
    <ele>1300</ele>
    <time>2012-05-23T14:21:23Z</time>
   </trkpt>
   <trkpt lat="46.1963005065918" lon="7.34255504608154">
    <ele>1301.03527832031</ele>
    <time>2012-05-23T14:21:27Z</time>
   </trkpt>
   <trkpt lat="46.1962928771973" lon="7.34252500534058">
    <ele>1301.29406738281</ele>
    <time>2012-05-23T14:21:28Z</time>
   </trkpt>
   <trkpt lat="46.1962852478027" lon="7.34249830245972">
    <ele>1301.55297851562</ele>
    <time>2012-05-23T14:21:29Z</time>
   </trkpt>
   <trkpt lat="46.1962738037109" lon="7.3424711227417">
    <ele>1301.81176757812</ele>
    <time>2012-05-23T14:21:30Z</time>
   </trkpt>
   <trkpt lat="46.196216583252" lon="7.34231662750244">
    <ele>1303.36474609375</ele>
    <time>2012-05-23T14:21:36Z</time>
   </trkpt>
   <trkpt lat="46.1962013244629" lon="7.34228229522705">
    <ele>1303.62353515625</ele>
    <time>2012-05-23T14:21:37Z</time>
   </trkpt>
   <trkpt lat="46.1961898803711" lon="7.34224939346314">
    <ele>1303.88232421875</ele>
    <time>2012-05-23T14:21:38Z</time>
   </trkpt>
   <trkpt lat="46.1961708068848" lon="7.34222507476807">
    <ele>1304.14123535156</ele>
    <time>2012-05-23T14:21:39Z</time>
   </trkpt>
   <trkpt lat="46.1961555480957" lon="7.34219980239868">
    <ele>1304.40002441406</ele>
    <time>2012-05-23T14:21:40Z</time>
   </trkpt>
   <trkpt lat="46.1961250305176" lon="7.34216022491455">
    <ele>1304.40002441406</ele>
    <time>2012-05-23T14:21:42Z</time>
   </trkpt>
   <trkpt lat="46.1960792541504" lon="7.3420991897583">
    <ele>1305.1875</ele>
    <time>2012-05-23T14:21:45Z</time>
   </trkpt>
   <trkpt lat="46.1960639953613" lon="7.34208059310913">
    <ele>1305.44995117188</ele>
    <time>2012-05-23T14:21:46Z</time>
   </trkpt>
   <trkpt lat="46.1960487365723" lon="7.34205913543701">
    <ele>1305.71252441406</ele>
    <time>2012-05-23T14:21:47Z</time>
   </trkpt>
   <trkpt lat="46.1960372924805" lon="7.34203577041626">
    <ele>1305.97497558594</ele>
    <time>2012-05-23T14:21:48Z</time>
   </trkpt>
   <trkpt lat="46.1960220336914" lon="7.34201240539551">
    <ele>1306.23754882812</ele>
    <time>2012-05-23T14:21:49Z</time>
   </trkpt>
   <trkpt lat="46.1959342956543" lon="7.34188652038574">
    <ele>1307.8125</ele>
    <time>2012-05-23T14:21:55Z</time>
   </trkpt>
   <trkpt lat="46.1959190368652" lon="7.34186315536499">
    <ele>1308.07495117188</ele>
    <time>2012-05-23T14:21:56Z</time>
   </trkpt>
   <trkpt lat="46.1958999633789" lon="7.34184646606445">
    <ele>1308.33752441406</ele>
    <time>2012-05-23T14:21:57Z</time>
   </trkpt>
   <trkpt lat="46.1958808898926" lon="7.34182691574097">
    <ele>1308.59997558594</ele>
    <time>2012-05-23T14:21:58Z</time>
   </trkpt>
   <trkpt lat="46.1958465576172" lon="7.34179019927978">
    <ele>1308.59997558594</ele>
    <time>2012-05-23T14:22:00Z</time>
   </trkpt>
   <trkpt lat="46.1957855224609" lon="7.34172058105469">
    <ele>1309.63525390625</ele>
    <time>2012-05-23T14:22:04Z</time>
   </trkpt>
   <trkpt lat="46.1957702636719" lon="7.3417010307312">
    <ele>1309.89404296875</ele>
    <time>2012-05-23T14:22:05Z</time>
   </trkpt>
   <trkpt lat="46.1957550048828" lon="7.34168338775635">
    <ele>1310.15295410156</ele>
    <time>2012-05-23T14:22:06Z</time>
   </trkpt>
   <trkpt lat="46.1957397460938" lon="7.34166383743286">
    <ele>1310.41174316406</ele>
    <time>2012-05-23T14:22:07Z</time>
   </trkpt>
   <trkpt lat="46.1957244873047" lon="7.34163761138916">
    <ele>1310.67053222656</ele>
    <time>2012-05-23T14:22:08Z</time>
   </trkpt>
   <trkpt lat="46.1956520080566" lon="7.34151983261108">
    <ele>1311.96472167969</ele>
    <time>2012-05-23T14:22:13Z</time>
   </trkpt>
   <trkpt lat="46.1956367492676" lon="7.34149980545044">
    <ele>1312.22351074219</ele>
    <time>2012-05-23T14:22:14Z</time>
   </trkpt>
   <trkpt lat="46.1956214904785" lon="7.34148120880127">
    <ele>1312.48229980469</ele>
    <time>2012-05-23T14:22:15Z</time>
   </trkpt>
   <trkpt lat="46.1956062316894" lon="7.34146356582642">
    <ele>1312.7412109375</ele>
    <time>2012-05-23T14:22:16Z</time>
   </trkpt>
   <trkpt lat="46.1955909729004" lon="7.34144306182861">
    <ele>1313</ele>
    <time>2012-05-23T14:22:17Z</time>
   </trkpt>
   <trkpt lat="46.1955337524414" lon="7.34135484695435">
    <ele>1313</ele>
    <time>2012-05-23T14:22:21Z</time>
   </trkpt>
   <trkpt lat="46.1955032348633" lon="7.34130144119263">
    <ele>1313.73327636719</ele>
    <time>2012-05-23T14:22:23Z</time>
   </trkpt>
   <trkpt lat="46.1954879760742" lon="7.34127855300903">
    <ele>1314.09997558594</ele>
    <time>2012-05-23T14:22:24Z</time>
   </trkpt>
   <trkpt lat="46.1954689025879" lon="7.34125757217407">
    <ele>1314.46667480469</ele>
    <time>2012-05-23T14:22:25Z</time>
   </trkpt>
   <trkpt lat="46.1954536437988" lon="7.34123706817627">
    <ele>1314.83325195312</ele>
    <time>2012-05-23T14:22:26Z</time>
   </trkpt>
   <trkpt lat="46.1954383850098" lon="7.34121608734131">
    <ele>1315.19995117188</ele>
    <time>2012-05-23T14:22:27Z</time>
   </trkpt>
   <trkpt lat="46.1953506469727" lon="7.34108734130859">
    <ele>1315.19995117188</ele>
    <time>2012-05-23T14:22:33Z</time>
   </trkpt>
   <trkpt lat="46.1953353881836" lon="7.34106779098511">
    <ele>1315.59997558594</ele>
    <time>2012-05-23T14:22:34Z</time>
   </trkpt>
   <trkpt lat="46.1953163146973" lon="7.34104681015015">
    <ele>1316</ele>
    <time>2012-05-23T14:22:35Z</time>
   </trkpt>
   <trkpt lat="46.1952934265137" lon="7.3410382270813">
    <ele>1316.39990234375</ele>
    <time>2012-05-23T14:22:36Z</time>
   </trkpt>
   <trkpt lat="46.1952705383301" lon="7.34103631973267">
    <ele>1316.79992675781</ele>
    <time>2012-05-23T14:22:37Z</time>
   </trkpt>
   <trkpt lat="46.1952438354492" lon="7.34103679656982">
    <ele>1317.19995117188</ele>
    <time>2012-05-23T14:22:38Z</time>
   </trkpt>
   <trkpt lat="46.1951599121094" lon="7.34107065200806">
    <ele>1317.19995117188</ele>
    <time>2012-05-23T14:22:42Z</time>
   </trkpt>
   <trkpt lat="46.1951484680176" lon="7.34109592437744">
    <ele>1317.69995117188</ele>
    <time>2012-05-23T14:22:43Z</time>
   </trkpt>
   <trkpt lat="46.1951446533203" lon="7.34112453460693">
    <ele>1318.19995117188</ele>
    <time>2012-05-23T14:22:44Z</time>
   </trkpt>
   <trkpt lat="46.1951484680176" lon="7.34115934371948">
    <ele>1318.69995117188</ele>
    <time>2012-05-23T14:22:45Z</time>
   </trkpt>
   <trkpt lat="46.1951560974121" lon="7.34119510650635">
    <ele>1319.19995117188</ele>
    <time>2012-05-23T14:22:46Z</time>
   </trkpt>
   <trkpt lat="46.1951637268066" lon="7.34123086929321">
    <ele>1319.19995117188</ele>
    <time>2012-05-23T14:22:47Z</time>
   </trkpt>
   <trkpt lat="46.1951904296875" lon="7.34129953384399">
    <ele>1319.51428222656</ele>
    <time>2012-05-23T14:22:49Z</time>
   </trkpt>
   <trkpt lat="46.1952629089356" lon="7.34140968322754">
    <ele>1320.14282226562</ele>
    <time>2012-05-23T14:22:53Z</time>
   </trkpt>
   <trkpt lat="46.1953277587891" lon="7.3415207862854">
    <ele>1320.771484375</ele>
    <time>2012-05-23T14:22:57Z</time>
   </trkpt>
   <trkpt lat="46.1953392028809" lon="7.34155130386352">
    <ele>1320.92858886719</ele>
    <time>2012-05-23T14:22:58Z</time>
   </trkpt>
   <trkpt lat="46.1953544616699" lon="7.34157609939575">
    <ele>1321.08569335938</ele>
    <time>2012-05-23T14:22:59Z</time>
   </trkpt>
   <trkpt lat="46.1953659057617" lon="7.34160280227661">
    <ele>1321.24291992188</ele>
    <time>2012-05-23T14:23:00Z</time>
   </trkpt>
   <trkpt lat="46.1953735351562" lon="7.34162950515747">
    <ele>1321.40002441406</ele>
    <time>2012-05-23T14:23:01Z</time>
   </trkpt>
   <trkpt lat="46.1954040527344" lon="7.34170198440552">
    <ele>1321.40002441406</ele>
    <time>2012-05-23T14:23:04Z</time>
   </trkpt>
   <trkpt lat="46.1954231262207" lon="7.34175205230713">
    <ele>1322.20007324219</ele>
    <time>2012-05-23T14:23:06Z</time>
   </trkpt>
   <trkpt lat="46.1954345703125" lon="7.34177875518799">
    <ele>1322.59997558594</ele>
    <time>2012-05-23T14:23:07Z</time>
   </trkpt>
   <trkpt lat="46.195442199707" lon="7.34180641174316">
    <ele>1323</ele>
    <time>2012-05-23T14:23:08Z</time>
   </trkpt>
   <trkpt lat="46.1954498291016" lon="7.34183692932129">
    <ele>1323.40002441406</ele>
    <time>2012-05-23T14:23:09Z</time>
   </trkpt>
   <trkpt lat="46.1954689025879" lon="7.34189748764038">
    <ele>1323.40002441406</ele>
    <time>2012-05-23T14:23:11Z</time>
   </trkpt>
   <trkpt lat="46.195499420166" lon="7.34198379516602">
    <ele>1324.14404296875</ele>
    <time>2012-05-23T14:23:14Z</time>
   </trkpt>
   <trkpt lat="46.1955108642578" lon="7.34201908111572">
    <ele>1324.39196777344</ele>
    <time>2012-05-23T14:23:15Z</time>
   </trkpt>
   <trkpt lat="46.1955299377441" lon="7.34204959869385">
    <ele>1324.64001464844</ele>
    <time>2012-05-23T14:23:16Z</time>
   </trkpt>
   <trkpt lat="46.1955413818359" lon="7.3420786857605">
    <ele>1324.88806152344</ele>
    <time>2012-05-23T14:23:17Z</time>
   </trkpt>
   <trkpt lat="46.195556640625" lon="7.34210824966431">
    <ele>1325.13598632812</ele>
    <time>2012-05-23T14:23:18Z</time>
   </trkpt>
   <trkpt lat="46.1956253051758" lon="7.34226989746094">
    <ele>1326.3759765625</ele>
    <time>2012-05-23T14:23:23Z</time>
   </trkpt>
   <trkpt lat="46.1956367492676" lon="7.34230327606201">
    <ele>1326.6240234375</ele>
    <time>2012-05-23T14:23:24Z</time>
   </trkpt>
   <trkpt lat="46.1956481933594" lon="7.34232950210571">
    <ele>1326.87194824219</ele>
    <time>2012-05-23T14:23:25Z</time>
   </trkpt>
   <trkpt lat="46.1956596374512" lon="7.34235668182373">
    <ele>1327.11999511719</ele>
    <time>2012-05-23T14:23:26Z</time>
   </trkpt>
   <trkpt lat="46.195671081543" lon="7.34238290786743">
    <ele>1327.36804199219</ele>
    <time>2012-05-23T14:23:27Z</time>
   </trkpt>
   <trkpt lat="46.195728302002" lon="7.34255075454712">
    <ele>1328.85595703125</ele>
    <time>2012-05-23T14:23:33Z</time>
   </trkpt>
   <trkpt lat="46.1957359313965" lon="7.34258031845093">
    <ele>1329.10400390625</ele>
    <time>2012-05-23T14:23:34Z</time>
   </trkpt>
   <trkpt lat="46.1957397460938" lon="7.34261131286621">
    <ele>1329.35192871094</ele>
    <time>2012-05-23T14:23:35Z</time>
   </trkpt>
   <trkpt lat="46.1957511901856" lon="7.3426399230957">
    <ele>1329.59997558594</ele>
    <time>2012-05-23T14:23:36Z</time>
   </trkpt>
   <trkpt lat="46.1957740783691" lon="7.34272766113281">
    <ele>1329.59997558594</ele>
    <time>2012-05-23T14:23:39Z</time>
   </trkpt>
   <trkpt lat="46.1957778930664" lon="7.3427586555481">
    <ele>1330.0400390625</ele>
    <time>2012-05-23T14:23:40Z</time>
   </trkpt>
   <trkpt lat="46.1957778930664" lon="7.34279012680054">
    <ele>1330.47998046875</ele>
    <time>2012-05-23T14:23:41Z</time>
   </trkpt>
   <trkpt lat="46.1957855224609" lon="7.3428201675415">
    <ele>1330.92004394531</ele>
    <time>2012-05-23T14:23:42Z</time>
   </trkpt>
   <trkpt lat="46.1957855224609" lon="7.34285306930542">
    <ele>1331.35998535156</ele>
    <time>2012-05-23T14:23:43Z</time>
   </trkpt>
   <trkpt lat="46.1957893371582" lon="7.34288692474365">
    <ele>1331.80004882812</ele>
    <time>2012-05-23T14:23:44Z</time>
   </trkpt>
   <trkpt lat="46.1957855224609" lon="7.34291934967041">
    <ele>1331.80004882812</ele>
    <time>2012-05-23T14:23:45Z</time>
   </trkpt>
   <trkpt lat="46.1957969665527" lon="7.34306144714356">
    <ele>1332.9111328125</ele>
    <time>2012-05-23T14:23:50Z</time>
   </trkpt>
   <trkpt lat="46.1958084106445" lon="7.3430871963501">
    <ele>1333.13342285156</ele>
    <time>2012-05-23T14:23:51Z</time>
   </trkpt>
   <trkpt lat="46.1958122253418" lon="7.34311437606812">
    <ele>1333.35559082031</ele>
    <time>2012-05-23T14:23:52Z</time>
   </trkpt>
   <trkpt lat="46.1958160400391" lon="7.34314155578613">
    <ele>1333.57788085938</ele>
    <time>2012-05-23T14:23:53Z</time>
   </trkpt>
   <trkpt lat="46.1958198547363" lon="7.34317111968994">
    <ele>1333.80004882812</ele>
    <time>2012-05-23T14:23:54Z</time>
   </trkpt>
   <trkpt lat="46.1958351135254" lon="7.34326553344726">
    <ele>1333.80004882812</ele>
    <time>2012-05-23T14:23:57Z</time>
   </trkpt>
   <trkpt lat="46.1958465576172" lon="7.34336185455322">
    <ele>1334.74291992188</ele>
    <time>2012-05-23T14:24:00Z</time>
   </trkpt>
   <trkpt lat="46.1958465576172" lon="7.34339284896851">
    <ele>1335.05712890625</ele>
    <time>2012-05-23T14:24:01Z</time>
   </trkpt>
   <trkpt lat="46.1958503723144" lon="7.34342336654663">
    <ele>1335.37145996094</ele>
    <time>2012-05-23T14:24:02Z</time>
   </trkpt>
   <trkpt lat="46.1958541870117" lon="7.3434534072876">
    <ele>1335.68566894531</ele>
    <time>2012-05-23T14:24:03Z</time>
   </trkpt>
   <trkpt lat="46.195858001709" lon="7.34348344802856">
    <ele>1336</ele>
    <time>2012-05-23T14:24:04Z</time>
   </trkpt>
   <trkpt lat="46.195858001709" lon="7.34351444244385">
    <ele>1336</ele>
    <time>2012-05-23T14:24:05Z</time>
   </trkpt>
   <trkpt lat="46.1958618164062" lon="7.3436074256897">
    <ele>1336.69995117188</ele>
    <time>2012-05-23T14:24:08Z</time>
   </trkpt>
   <trkpt lat="46.1958618164062" lon="7.34363985061646">
    <ele>1336.93334960938</ele>
    <time>2012-05-23T14:24:09Z</time>
   </trkpt>
   <trkpt lat="46.1958656311035" lon="7.34366941452026">
    <ele>1337.16662597656</ele>
    <time>2012-05-23T14:24:10Z</time>
   </trkpt>
   <trkpt lat="46.1958618164062" lon="7.34370136260986">
    <ele>1337.40002441406</ele>
    <time>2012-05-23T14:24:11Z</time>
   </trkpt>
   <trkpt lat="46.195858001709" lon="7.34373188018799">
    <ele>1337.63330078125</ele>
    <time>2012-05-23T14:24:12Z</time>
   </trkpt>
   <trkpt lat="46.1958198547363" lon="7.34394931793213">
    <ele>1339.2666015625</ele>
    <time>2012-05-23T14:24:19Z</time>
   </trkpt>
   <trkpt lat="46.1958084106445" lon="7.34397840499878">
    <ele>1339.5</ele>
    <time>2012-05-23T14:24:20Z</time>
   </trkpt>
   <trkpt lat="46.1957969665527" lon="7.34400844573975">
    <ele>1339.73327636719</ele>
    <time>2012-05-23T14:24:21Z</time>
   </trkpt>
   <trkpt lat="46.1957931518555" lon="7.34404182434082">
    <ele>1339.96667480469</ele>
    <time>2012-05-23T14:24:22Z</time>
   </trkpt>
   <trkpt lat="46.1957893371582" lon="7.34407472610474">
    <ele>1340.19995117188</ele>
    <time>2012-05-23T14:24:23Z</time>
   </trkpt>
   <trkpt lat="46.1957740783691" lon="7.34416675567627">
    <ele>1340.19995117188</ele>
    <time>2012-05-23T14:24:26Z</time>
   </trkpt>
   <trkpt lat="46.1957702636719" lon="7.34422445297241">
    <ele>1340.82849121094</ele>
    <time>2012-05-23T14:24:28Z</time>
   </trkpt>
   <trkpt lat="46.1957664489746" lon="7.34425163269043">
    <ele>1341.14282226562</ele>
    <time>2012-05-23T14:24:29Z</time>
   </trkpt>
   <trkpt lat="46.1957664489746" lon="7.34428405761719">
    <ele>1341.45715332031</ele>
    <time>2012-05-23T14:24:30Z</time>
   </trkpt>
   <trkpt lat="46.1957626342773" lon="7.34431409835815">
    <ele>1341.77136230469</ele>
    <time>2012-05-23T14:24:31Z</time>
   </trkpt>
   <trkpt lat="46.1957588195801" lon="7.34434461593628">
    <ele>1342.08569335938</ele>
    <time>2012-05-23T14:24:32Z</time>
   </trkpt>
   <trkpt lat="46.1957397460938" lon="7.34447383880615">
    <ele>1343.3427734375</ele>
    <time>2012-05-23T14:24:36Z</time>
   </trkpt>
   <trkpt lat="46.1957359313965" lon="7.34450817108154">
    <ele>1343.65710449219</ele>
    <time>2012-05-23T14:24:37Z</time>
   </trkpt>
   <trkpt lat="46.1957321166992" lon="7.34454393386841">
    <ele>1343.97143554688</ele>
    <time>2012-05-23T14:24:38Z</time>
   </trkpt>
   <trkpt lat="46.1957321166992" lon="7.34457635879517">
    <ele>1344.28564453125</ele>
    <time>2012-05-23T14:24:39Z</time>
   </trkpt>
   <trkpt lat="46.195728302002" lon="7.34460783004761">
    <ele>1344.59997558594</ele>
    <time>2012-05-23T14:24:40Z</time>
   </trkpt>
   <trkpt lat="46.1957130432129" lon="7.34473276138306">
    <ele>1344.59997558594</ele>
    <time>2012-05-23T14:24:44Z</time>
   </trkpt>
   <trkpt lat="46.1957092285156" lon="7.34476232528686">
    <ele>1345.15002441406</ele>
    <time>2012-05-23T14:24:45Z</time>
   </trkpt>
   <trkpt lat="46.1957054138184" lon="7.34479522705078">
    <ele>1345.69995117188</ele>
    <time>2012-05-23T14:24:46Z</time>
   </trkpt>
   <trkpt lat="46.1956977844238" lon="7.34483098983765">
    <ele>1346.25</ele>
    <time>2012-05-23T14:24:47Z</time>
   </trkpt>
   <trkpt lat="46.1956901550293" lon="7.34486389160156">
    <ele>1346.80004882812</ele>
    <time>2012-05-23T14:24:48Z</time>
   </trkpt>
   <trkpt lat="46.1956634521484" lon="7.34494686126709">
    <ele>1346.80004882812</ele>
    <time>2012-05-23T14:24:51Z</time>
   </trkpt>
   <trkpt lat="46.1956634521484" lon="7.34497737884522">
    <ele>1347.20007324219</ele>
    <time>2012-05-23T14:24:52Z</time>
   </trkpt>
   <trkpt lat="46.1956558227539" lon="7.34500646591186">
    <ele>1347.60009765625</ele>
    <time>2012-05-23T14:24:53Z</time>
   </trkpt>
   <trkpt lat="46.1956520080566" lon="7.34504175186157">
    <ele>1348</ele>
    <time>2012-05-23T14:24:54Z</time>
   </trkpt>
   <trkpt lat="46.1956405639648" lon="7.3450722694397">
    <ele>1348.40002441406</ele>
    <time>2012-05-23T14:24:55Z</time>
   </trkpt>
   <trkpt lat="46.1956329345703" lon="7.34510517120361">
    <ele>1348.80004882812</ele>
    <time>2012-05-23T14:24:56Z</time>
   </trkpt>
   <trkpt lat="46.1956253051758" lon="7.34514284133911">
    <ele>1348.80004882812</ele>
    <time>2012-05-23T14:24:57Z</time>
   </trkpt>
   <trkpt lat="46.1955947875977" lon="7.34527015686035">
    <ele>1349.7919921875</ele>
    <time>2012-05-23T14:25:01Z</time>
   </trkpt>
   <trkpt lat="46.1955871582031" lon="7.34530305862427">
    <ele>1350.0400390625</ele>
    <time>2012-05-23T14:25:02Z</time>
   </trkpt>
   <trkpt lat="46.1955795288086" lon="7.34533405303955">
    <ele>1350.2880859375</ele>
    <time>2012-05-23T14:25:03Z</time>
   </trkpt>
   <trkpt lat="46.1955795288086" lon="7.3453631401062">
    <ele>1350.53601074219</ele>
    <time>2012-05-23T14:25:04Z</time>
   </trkpt>
   <trkpt lat="46.1955757141113" lon="7.34539413452148">
    <ele>1350.78405761719</ele>
    <time>2012-05-23T14:25:05Z</time>
   </trkpt>
   <trkpt lat="46.1955757141113" lon="7.34555292129517">
    <ele>1352.02404785156</ele>
    <time>2012-05-23T14:25:10Z</time>
   </trkpt>
   <trkpt lat="46.1955718994141" lon="7.34558391571045">
    <ele>1352.27197265625</ele>
    <time>2012-05-23T14:25:11Z</time>
   </trkpt>
   <trkpt lat="46.1955642700195" lon="7.34561252593994">
    <ele>1352.52001953125</ele>
    <time>2012-05-23T14:25:12Z</time>
   </trkpt>
   <trkpt lat="46.1955604553223" lon="7.34564542770386">
    <ele>1352.76806640625</ele>
    <time>2012-05-23T14:25:13Z</time>
   </trkpt>
   <trkpt lat="46.1955642700195" lon="7.34579515457153">
    <ele>1354.00805664062</ele>
    <time>2012-05-23T14:25:18Z</time>
   </trkpt>
   <trkpt lat="46.1955642700195" lon="7.3458251953125">
    <ele>1354.25598144531</ele>
    <time>2012-05-23T14:25:19Z</time>
   </trkpt>
   <trkpt lat="46.1955604553223" lon="7.3458571434021">
    <ele>1354.50402832031</ele>
    <time>2012-05-23T14:25:20Z</time>
   </trkpt>
   <trkpt lat="46.1955604553223" lon="7.3458890914917">
    <ele>1354.751953125</ele>
    <time>2012-05-23T14:25:21Z</time>
   </trkpt>
   <trkpt lat="46.1955604553223" lon="7.34592151641846">
    <ele>1355</ele>
    <time>2012-05-23T14:25:22Z</time>
   </trkpt>
   <trkpt lat="46.1955642700195" lon="7.34601068496704">
    <ele>1355</ele>
    <time>2012-05-23T14:25:25Z</time>
   </trkpt>
   <trkpt lat="46.1955642700195" lon="7.34607315063476">
    <ele>1355.66662597656</ele>
    <time>2012-05-23T14:25:27Z</time>
   </trkpt>
   <trkpt lat="46.1955604553223" lon="7.3461012840271">
    <ele>1356</ele>
    <time>2012-05-23T14:25:28Z</time>
   </trkpt>
   <trkpt lat="46.1955642700195" lon="7.34613275527954">
    <ele>1356.33337402344</ele>
    <time>2012-05-23T14:25:29Z</time>
   </trkpt>
   <trkpt lat="46.1955642700195" lon="7.34616565704346">
    <ele>1356.66662597656</ele>
    <time>2012-05-23T14:25:30Z</time>
   </trkpt>
   <trkpt lat="46.1955680847168" lon="7.34619617462158">
    <ele>1357</ele>
    <time>2012-05-23T14:25:31Z</time>
   </trkpt>
   <trkpt lat="46.1955680847168" lon="7.34622859954834">
    <ele>1357</ele>
    <time>2012-05-23T14:25:32Z</time>
   </trkpt>
   <trkpt lat="46.1955757141113" lon="7.34635734558106">
    <ele>1358.14282226562</ele>
    <time>2012-05-23T14:25:36Z</time>
   </trkpt>
   <trkpt lat="46.1955718994141" lon="7.34639024734497">
    <ele>1358.42858886719</ele>
    <time>2012-05-23T14:25:37Z</time>
   </trkpt>
   <trkpt lat="46.1955680847168" lon="7.34642171859741">
    <ele>1358.71423339844</ele>
    <time>2012-05-23T14:25:38Z</time>
   </trkpt>
   <trkpt lat="46.1955642700195" lon="7.34645318984985">
    <ele>1359</ele>
    <time>2012-05-23T14:25:39Z</time>
   </trkpt>
   <trkpt lat="46.1955642700195" lon="7.34660911560059">
    <ele>1359</ele>
    <time>2012-05-23T14:25:44Z</time>
   </trkpt>
   <trkpt lat="46.1955642700195" lon="7.34663963317871">
    <ele>1359.40002441406</ele>
    <time>2012-05-23T14:25:45Z</time>
   </trkpt>
   <trkpt lat="46.1955680847168" lon="7.34667158126831">
    <ele>1359.80004882812</ele>
    <time>2012-05-23T14:25:46Z</time>
   </trkpt>
   <trkpt lat="46.1955718994141" lon="7.34669923782349">
    <ele>1360.19995117188</ele>
    <time>2012-05-23T14:25:47Z</time>
   </trkpt>
   <trkpt lat="46.1955757141113" lon="7.34672975540161">
    <ele>1360.59997558594</ele>
    <time>2012-05-23T14:25:48Z</time>
   </trkpt>
   <trkpt lat="46.1955795288086" lon="7.34676122665405">
    <ele>1361</ele>
    <time>2012-05-23T14:25:49Z</time>
   </trkpt>
   <trkpt lat="46.1955871582031" lon="7.34682750701904">
    <ele>1361</ele>
    <time>2012-05-23T14:25:51Z</time>
   </trkpt>
   <trkpt lat="46.1955680847168" lon="7.34694910049438">
    <ele>1362.03527832031</ele>
    <time>2012-05-23T14:25:55Z</time>
   </trkpt>
   <trkpt lat="46.1955642700195" lon="7.34697866439819">
    <ele>1362.29406738281</ele>
    <time>2012-05-23T14:25:56Z</time>
   </trkpt>
   <trkpt lat="46.1955604553223" lon="7.34701013565064">
    <ele>1362.55297851562</ele>
    <time>2012-05-23T14:25:57Z</time>
   </trkpt>
   <trkpt lat="46.1955604553223" lon="7.34704351425171">
    <ele>1362.81176757812</ele>
    <time>2012-05-23T14:25:58Z</time>
   </trkpt>
   <trkpt lat="46.1955604553223" lon="7.34708118438721">
    <ele>1363.07055664062</ele>
    <time>2012-05-23T14:25:59Z</time>
   </trkpt>
   <trkpt lat="46.1955451965332" lon="7.3472490310669">
    <ele>1364.36474609375</ele>
    <time>2012-05-23T14:26:04Z</time>
   </trkpt>
   <trkpt lat="46.1955337524414" lon="7.34728336334228">
    <ele>1364.62353515625</ele>
    <time>2012-05-23T14:26:05Z</time>
   </trkpt>
   <trkpt lat="46.1955261230469" lon="7.34731340408325">
    <ele>1364.88232421875</ele>
    <time>2012-05-23T14:26:06Z</time>
   </trkpt>
   <trkpt lat="46.1955184936523" lon="7.34734678268433">
    <ele>1365.14123535156</ele>
    <time>2012-05-23T14:26:07Z</time>
   </trkpt>
   <trkpt lat="46.1955108642578" lon="7.34737920761108">
    <ele>1365.40002441406</ele>
    <time>2012-05-23T14:26:08Z</time>
   </trkpt>
   <trkpt lat="46.1955032348633" lon="7.34747457504272">
    <ele>1365.40002441406</ele>
    <time>2012-05-23T14:26:11Z</time>
   </trkpt>
   <trkpt lat="46.195499420166" lon="7.34753561019898">
    <ele>1366.13330078125</ele>
    <time>2012-05-23T14:26:13Z</time>
   </trkpt>
   <trkpt lat="46.1954917907715" lon="7.34756803512573">
    <ele>1366.5</ele>
    <time>2012-05-23T14:26:14Z</time>
   </trkpt>
   <trkpt lat="46.1954917907715" lon="7.34759473800659">
    <ele>1366.86669921875</ele>
    <time>2012-05-23T14:26:15Z</time>
   </trkpt>
   <trkpt lat="46.195484161377" lon="7.34762144088745">
    <ele>1367.23327636719</ele>
    <time>2012-05-23T14:26:16Z</time>
   </trkpt>
   <trkpt lat="46.1954803466797" lon="7.34765005111694">
    <ele>1367.59997558594</ele>
    <time>2012-05-23T14:26:17Z</time>
   </trkpt>
   <trkpt lat="46.1954765319824" lon="7.34767723083496">
    <ele>1367.59997558594</ele>
    <time>2012-05-23T14:26:18Z</time>
   </trkpt>
   <trkpt lat="46.1954689025879" lon="7.34783887863159">
    <ele>1368.822265625</ele>
    <time>2012-05-23T14:26:23Z</time>
   </trkpt>
   <trkpt lat="46.1954650878906" lon="7.34786510467529">
    <ele>1369.06665039062</ele>
    <time>2012-05-23T14:26:24Z</time>
   </trkpt>
   <trkpt lat="46.1954650878906" lon="7.34789133071899">
    <ele>1369.31115722656</ele>
    <time>2012-05-23T14:26:25Z</time>
   </trkpt>
   <trkpt lat="46.1954650878906" lon="7.34792041778564">
    <ele>1369.55554199219</ele>
    <time>2012-05-23T14:26:26Z</time>
   </trkpt>
   <trkpt lat="46.1954612731934" lon="7.34795093536377">
    <ele>1369.80004882812</ele>
    <time>2012-05-23T14:26:27Z</time>
   </trkpt>
   <trkpt lat="46.1954612731934" lon="7.34805917739868">
    <ele>1369.80004882812</ele>
    <time>2012-05-23T14:26:30Z</time>
   </trkpt>
   <trkpt lat="46.1954612731934" lon="7.3480954170227">
    <ele>1370.20007324219</ele>
    <time>2012-05-23T14:26:31Z</time>
   </trkpt>
   <trkpt lat="46.1954650878906" lon="7.34812927246094">
    <ele>1370.60009765625</ele>
    <time>2012-05-23T14:26:32Z</time>
   </trkpt>
   <trkpt lat="46.1954727172852" lon="7.34816408157349">
    <ele>1371</ele>
    <time>2012-05-23T14:26:33Z</time>
   </trkpt>
   <trkpt lat="46.1954765319824" lon="7.34819936752319">
    <ele>1371.40002441406</ele>
    <time>2012-05-23T14:26:34Z</time>
   </trkpt>
   <trkpt lat="46.1954803466797" lon="7.34823513031006">
    <ele>1371.80004882812</ele>
    <time>2012-05-23T14:26:35Z</time>
   </trkpt>
   <trkpt lat="46.1954879760742" lon="7.34827041625976">
    <ele>1371.80004882812</ele>
    <time>2012-05-23T14:26:36Z</time>
   </trkpt>
   <trkpt lat="46.1955032348633" lon="7.34839344024658">
    <ele>1372.80004882812</ele>
    <time>2012-05-23T14:26:40Z</time>
   </trkpt>
   <trkpt lat="46.1955108642578" lon="7.34842920303345">
    <ele>1373.05004882812</ele>
    <time>2012-05-23T14:26:41Z</time>
   </trkpt>
   <trkpt lat="46.1955146789551" lon="7.34846305847168">
    <ele>1373.30004882812</ele>
    <time>2012-05-23T14:26:42Z</time>
   </trkpt>
   <trkpt lat="46.1955184936523" lon="7.34849643707275">
    <ele>1373.55004882812</ele>
    <time>2012-05-23T14:26:43Z</time>
   </trkpt>
   <trkpt lat="46.1955261230469" lon="7.34853553771973">
    <ele>1373.80004882812</ele>
    <time>2012-05-23T14:26:44Z</time>
   </trkpt>
   <trkpt lat="46.1955490112305" lon="7.34867095947266">
    <ele>1373.80004882812</ele>
    <time>2012-05-23T14:26:48Z</time>
   </trkpt>
   <trkpt lat="46.1955604553223" lon="7.34870529174805">
    <ele>1374.35009765625</ele>
    <time>2012-05-23T14:26:49Z</time>
   </trkpt>
   <trkpt lat="46.1955757141113" lon="7.34874534606934">
    <ele>1374.90002441406</ele>
    <time>2012-05-23T14:26:50Z</time>
   </trkpt>
   <trkpt lat="46.1955871582031" lon="7.3487811088562">
    <ele>1375.44995117188</ele>
    <time>2012-05-23T14:26:51Z</time>
   </trkpt>
   <trkpt lat="46.1955871582031" lon="7.34881591796875">
    <ele>1376</ele>
    <time>2012-05-23T14:26:52Z</time>
   </trkpt>
   <trkpt lat="46.1955947875977" lon="7.34885263442993">
    <ele>1376</ele>
    <time>2012-05-23T14:26:53Z</time>
   </trkpt>
   <trkpt lat="46.1956024169922" lon="7.34888887405396">
    <ele>1376.2587890625</ele>
    <time>2012-05-23T14:26:54Z</time>
   </trkpt>
   <trkpt lat="46.1956253051758" lon="7.3489933013916">
    <ele>1377.03527832031</ele>
    <time>2012-05-23T14:26:57Z</time>
   </trkpt>
   <trkpt lat="46.195629119873" lon="7.3490252494812">
    <ele>1377.29406738281</ele>
    <time>2012-05-23T14:26:58Z</time>
   </trkpt>
   <trkpt lat="46.195629119873" lon="7.34905910491943">
    <ele>1377.55297851562</ele>
    <time>2012-05-23T14:26:59Z</time>
   </trkpt>
   <trkpt lat="46.1956329345703" lon="7.34908962249756">
    <ele>1377.81176757812</ele>
    <time>2012-05-23T14:27:00Z</time>
   </trkpt>
   <trkpt lat="46.1956367492676" lon="7.34911870956421">
    <ele>1378.07055664062</ele>
    <time>2012-05-23T14:27:01Z</time>
   </trkpt>
   <trkpt lat="46.1956329345703" lon="7.34927606582642">
    <ele>1379.36474609375</ele>
    <time>2012-05-23T14:27:06Z</time>
   </trkpt>
   <trkpt lat="46.1956329345703" lon="7.34930944442749">
    <ele>1379.62353515625</ele>
    <time>2012-05-23T14:27:07Z</time>
   </trkpt>
   <trkpt lat="46.1956329345703" lon="7.34933996200562">
    <ele>1379.88232421875</ele>
    <time>2012-05-23T14:27:08Z</time>
   </trkpt>
   <trkpt lat="46.1956329345703" lon="7.34937286376953">
    <ele>1380.14123535156</ele>
    <time>2012-05-23T14:27:09Z</time>
   </trkpt>
   <trkpt lat="46.195629119873" lon="7.34940195083618">
    <ele>1380.40002441406</ele>
    <time>2012-05-23T14:27:10Z</time>
   </trkpt>
   <trkpt lat="46.1956214904785" lon="7.34949636459351">
    <ele>1380.40002441406</ele>
    <time>2012-05-23T14:27:13Z</time>
   </trkpt>
   <trkpt lat="46.1956062316894" lon="7.34960174560547">
    <ele>1381.5</ele>
    <time>2012-05-23T14:27:16Z</time>
   </trkpt>
   <trkpt lat="46.1955986022949" lon="7.3496356010437">
    <ele>1381.86669921875</ele>
    <time>2012-05-23T14:27:17Z</time>
   </trkpt>
   <trkpt lat="46.1956024169922" lon="7.34967041015625">
    <ele>1382.23327636719</ele>
    <time>2012-05-23T14:27:18Z</time>
   </trkpt>
   <trkpt lat="46.1956024169922" lon="7.34970283508301">
    <ele>1382.59997558594</ele>
    <time>2012-05-23T14:27:19Z</time>
   </trkpt>
   <trkpt lat="46.1955986022949" lon="7.34973859786987">
    <ele>1382.59997558594</ele>
    <time>2012-05-23T14:27:20Z</time>
   </trkpt>
   <trkpt lat="46.195613861084" lon="7.34990882873535">
    <ele>1383.71105957031</ele>
    <time>2012-05-23T14:27:25Z</time>
   </trkpt>
   <trkpt lat="46.1956176757812" lon="7.34994173049927">
    <ele>1383.93334960938</ele>
    <time>2012-05-23T14:27:26Z</time>
   </trkpt>
   <trkpt lat="46.1956253051758" lon="7.34997367858887">
    <ele>1384.15551757812</ele>
    <time>2012-05-23T14:27:27Z</time>
   </trkpt>
   <trkpt lat="46.1956329345703" lon="7.35001087188721">
    <ele>1384.37780761719</ele>
    <time>2012-05-23T14:27:28Z</time>
   </trkpt>
   <trkpt lat="46.1956405639648" lon="7.35004663467407">
    <ele>1384.59997558594</ele>
    <time>2012-05-23T14:27:29Z</time>
   </trkpt>
   <trkpt lat="46.1956672668457" lon="7.35015964508057">
    <ele>1384.59997558594</ele>
    <time>2012-05-23T14:27:32Z</time>
   </trkpt>
   <trkpt lat="46.1957054138184" lon="7.35026979446411">
    <ele>1385.38745117188</ele>
    <time>2012-05-23T14:27:35Z</time>
   </trkpt>
   <trkpt lat="46.1957168579102" lon="7.35030126571655">
    <ele>1385.65002441406</ele>
    <time>2012-05-23T14:27:36Z</time>
   </trkpt>
   <trkpt lat="46.1957244873047" lon="7.35033559799194">
    <ele>1385.91247558594</ele>
    <time>2012-05-23T14:27:37Z</time>
   </trkpt>
   <trkpt lat="46.1957359313965" lon="7.35036563873291">
    <ele>1386.17504882812</ele>
    <time>2012-05-23T14:27:38Z</time>
   </trkpt>
   <trkpt lat="46.1957473754883" lon="7.35039710998535">
    <ele>1386.4375</ele>
    <time>2012-05-23T14:27:39Z</time>
   </trkpt>
   <trkpt lat="46.1958122253418" lon="7.35055541992188">
    <ele>1387.75</ele>
    <time>2012-05-23T14:27:44Z</time>
   </trkpt>
   <trkpt lat="46.1958236694336" lon="7.35058641433716">
    <ele>1388.01257324219</ele>
    <time>2012-05-23T14:27:45Z</time>
   </trkpt>
   <trkpt lat="46.1958351135254" lon="7.35061836242676">
    <ele>1388.27502441406</ele>
    <time>2012-05-23T14:27:46Z</time>
   </trkpt>
   <trkpt lat="46.1958427429199" lon="7.35065031051636">
    <ele>1388.53759765625</ele>
    <time>2012-05-23T14:27:47Z</time>
   </trkpt>
   <trkpt lat="46.1958541870117" lon="7.35068225860596">
    <ele>1388.80004882812</ele>
    <time>2012-05-23T14:27:48Z</time>
   </trkpt>
   <trkpt lat="46.1958999633789" lon="7.35085821151733">
    <ele>1388.80004882812</ele>
    <time>2012-05-23T14:27:53Z</time>
   </trkpt>
   <trkpt lat="46.1959190368652" lon="7.35092878341675">
    <ele>1389.53332519531</ele>
    <time>2012-05-23T14:27:55Z</time>
   </trkpt>
   <trkpt lat="46.1959266662598" lon="7.35096216201782">
    <ele>1389.90002441406</ele>
    <time>2012-05-23T14:27:56Z</time>
   </trkpt>
   <trkpt lat="46.1959381103516" lon="7.35099506378174">
    <ele>1390.26672363281</ele>
    <time>2012-05-23T14:27:57Z</time>
   </trkpt>
   <trkpt lat="46.1959419250488" lon="7.3510308265686">
    <ele>1390.63330078125</ele>
    <time>2012-05-23T14:27:58Z</time>
   </trkpt>
   <trkpt lat="46.1959533691406" lon="7.35106515884399">
    <ele>1391</ele>
    <time>2012-05-23T14:27:59Z</time>
   </trkpt>
   <trkpt lat="46.1959609985352" lon="7.35110092163086">
    <ele>1391</ele>
    <time>2012-05-23T14:28:00Z</time>
   </trkpt>
   <trkpt lat="46.195987701416" lon="7.35128021240234">
    <ele>1392.375</ele>
    <time>2012-05-23T14:28:05Z</time>
   </trkpt>
   <trkpt lat="46.1959915161133" lon="7.35131788253784">
    <ele>1392.64990234375</ele>
    <time>2012-05-23T14:28:06Z</time>
   </trkpt>
   <trkpt lat="46.1959953308106" lon="7.35135269165039">
    <ele>1392.92492675781</ele>
    <time>2012-05-23T14:28:07Z</time>
   </trkpt>
   <trkpt lat="46.1959991455078" lon="7.35138416290283">
    <ele>1393.19995117188</ele>
    <time>2012-05-23T14:28:08Z</time>
   </trkpt>
   <trkpt lat="46.1960105895996" lon="7.35156726837158">
    <ele>1393.19995117188</ele>
    <time>2012-05-23T14:28:13Z</time>
   </trkpt>
   <trkpt lat="46.1960105895996" lon="7.35167789459228">
    <ele>1393.98742675781</ele>
    <time>2012-05-23T14:28:16Z</time>
   </trkpt>
   <trkpt lat="46.1960105895996" lon="7.35170888900757">
    <ele>1394.25</ele>
    <time>2012-05-23T14:28:17Z</time>
   </trkpt>
   <trkpt lat="46.1960144042969" lon="7.35174083709717">
    <ele>1394.51245117188</ele>
    <time>2012-05-23T14:28:18Z</time>
   </trkpt>
   <trkpt lat="46.1960182189941" lon="7.3517746925354">
    <ele>1394.77502441406</ele>
    <time>2012-05-23T14:28:19Z</time>
   </trkpt>
   <trkpt lat="46.1960220336914" lon="7.35181427001953">
    <ele>1395.03747558594</ele>
    <time>2012-05-23T14:28:20Z</time>
   </trkpt>
   <trkpt lat="46.196044921875" lon="7.35198402404785">
    <ele>1396.34997558594</ele>
    <time>2012-05-23T14:28:25Z</time>
   </trkpt>
   <trkpt lat="46.196044921875" lon="7.35201835632324">
    <ele>1396.61254882812</ele>
    <time>2012-05-23T14:28:26Z</time>
   </trkpt>
   <trkpt lat="46.1960487365723" lon="7.35205364227295">
    <ele>1396.875</ele>
    <time>2012-05-23T14:28:27Z</time>
   </trkpt>
   <trkpt lat="46.1960525512695" lon="7.35208892822266">
    <ele>1397.13757324219</ele>
    <time>2012-05-23T14:28:28Z</time>
   </trkpt>
   <trkpt lat="46.1960563659668" lon="7.35212278366089">
    <ele>1397.40002441406</ele>
    <time>2012-05-23T14:28:29Z</time>
   </trkpt>
   <trkpt lat="46.1960830688477" lon="7.35230541229248">
    <ele>1397.40002441406</ele>
    <time>2012-05-23T14:28:34Z</time>
   </trkpt>
   <trkpt lat="46.1960906982422" lon="7.35233736038208">
    <ele>1397.83996582031</ele>
    <time>2012-05-23T14:28:35Z</time>
   </trkpt>
   <trkpt lat="46.1960945129394" lon="7.352370262146">
    <ele>1398.28002929688</ele>
    <time>2012-05-23T14:28:36Z</time>
   </trkpt>
   <trkpt lat="46.196102142334" lon="7.3524055480957">
    <ele>1398.71997070312</ele>
    <time>2012-05-23T14:28:37Z</time>
   </trkpt>
   <trkpt lat="46.1961135864258" lon="7.35243797302246">
    <ele>1399.16003417969</ele>
    <time>2012-05-23T14:28:38Z</time>
   </trkpt>
   <trkpt lat="46.1961212158203" lon="7.35247087478638">
    <ele>1399.59997558594</ele>
    <time>2012-05-23T14:28:39Z</time>
   </trkpt>
   <trkpt lat="46.1961402893066" lon="7.35253190994263">
    <ele>1399.59997558594</ele>
    <time>2012-05-23T14:28:41Z</time>
   </trkpt>
   <trkpt lat="46.1961936950684" lon="7.35263586044312">
    <ele>1400.59997558594</ele>
    <time>2012-05-23T14:28:45Z</time>
   </trkpt>
   <trkpt lat="46.1962089538574" lon="7.35266256332398">
    <ele>1400.84997558594</ele>
    <time>2012-05-23T14:28:46Z</time>
   </trkpt>
   <trkpt lat="46.1962280273438" lon="7.35268878936768">
    <ele>1401.09997558594</ele>
    <time>2012-05-23T14:28:47Z</time>
   </trkpt>
   <trkpt lat="46.1962432861328" lon="7.35271453857422">
    <ele>1401.34997558594</ele>
    <time>2012-05-23T14:28:48Z</time>
   </trkpt>
   <trkpt lat="46.1962585449219" lon="7.35274600982666">
    <ele>1401.59997558594</ele>
    <time>2012-05-23T14:28:49Z</time>
   </trkpt>
   <trkpt lat="46.1963081359863" lon="7.35292482376099">
    <ele>1401.59997558594</ele>
    <time>2012-05-23T14:28:54Z</time>
   </trkpt>
   <trkpt lat="46.1963157653809" lon="7.35295820236206">
    <ele>1402.15002441406</ele>
    <time>2012-05-23T14:28:55Z</time>
   </trkpt>
   <trkpt lat="46.1963195800781" lon="7.35299301147461">
    <ele>1402.69995117188</ele>
    <time>2012-05-23T14:28:56Z</time>
   </trkpt>
   <trkpt lat="46.1963157653809" lon="7.35302734375">
    <ele>1403.25</ele>
    <time>2012-05-23T14:28:57Z</time>
   </trkpt>
   <trkpt lat="46.1963119506836" lon="7.35306024551392">
    <ele>1403.80004882812</ele>
    <time>2012-05-23T14:28:58Z</time>
   </trkpt>
   <trkpt lat="46.1963043212891" lon="7.3531379699707">
    <ele>1403.80004882812</ele>
    <time>2012-05-23T14:29:00Z</time>
   </trkpt>
   <trkpt lat="46.1962814331055" lon="7.35324954986572">
    <ele>1404.54125976562</ele>
    <time>2012-05-23T14:29:03Z</time>
   </trkpt>
   <trkpt lat="46.1962699890137" lon="7.35328578948975">
    <ele>1404.78833007812</ele>
    <time>2012-05-23T14:29:04Z</time>
   </trkpt>
   <trkpt lat="46.1962661743164" lon="7.35332202911377">
    <ele>1405.03527832031</ele>
    <time>2012-05-23T14:29:05Z</time>
   </trkpt>
   <trkpt lat="46.1962585449219" lon="7.35335874557495">
    <ele>1405.28234863281</ele>
    <time>2012-05-23T14:29:06Z</time>
   </trkpt>
   <trkpt lat="46.1962509155273" lon="7.35339450836182">
    <ele>1405.52941894531</ele>
    <time>2012-05-23T14:29:07Z</time>
   </trkpt>
   <trkpt lat="46.196231842041" lon="7.35363960266113">
    <ele>1407.01171875</ele>
    <time>2012-05-23T14:29:13Z</time>
   </trkpt>
   <trkpt lat="46.1962356567383" lon="7.35367631912232">
    <ele>1407.2587890625</ele>
    <time>2012-05-23T14:29:14Z</time>
   </trkpt>
   <trkpt lat="46.1962356567383" lon="7.35371541976929">
    <ele>1407.505859375</ele>
    <time>2012-05-23T14:29:15Z</time>
   </trkpt>
   <trkpt lat="46.1962356567383" lon="7.35375213623047">
    <ele>1407.7529296875</ele>
    <time>2012-05-23T14:29:16Z</time>
   </trkpt>
   <trkpt lat="46.1962356567383" lon="7.3537859916687">
    <ele>1408</ele>
    <time>2012-05-23T14:29:17Z</time>
   </trkpt>
   <trkpt lat="46.1962203979492" lon="7.35393810272217">
    <ele>1408</ele>
    <time>2012-05-23T14:29:21Z</time>
   </trkpt>
   <trkpt lat="46.1962242126465" lon="7.35398006439209">
    <ele>1408.40002441406</ele>
    <time>2012-05-23T14:29:22Z</time>
   </trkpt>
   <trkpt lat="46.1962203979492" lon="7.35402059555054">
    <ele>1408.80004882812</ele>
    <time>2012-05-23T14:29:23Z</time>
   </trkpt>
   <trkpt lat="46.1962203979492" lon="7.35405683517456">
    <ele>1409.19995117188</ele>
    <time>2012-05-23T14:29:24Z</time>
   </trkpt>
   <trkpt lat="46.196216583252" lon="7.35409784317017">
    <ele>1409.59997558594</ele>
    <time>2012-05-23T14:29:25Z</time>
   </trkpt>
   <trkpt lat="46.196216583252" lon="7.35413455963135">
    <ele>1410</ele>
    <time>2012-05-23T14:29:26Z</time>
   </trkpt>
   <trkpt lat="46.196216583252" lon="7.35416984558106">
    <ele>1410</ele>
    <time>2012-05-23T14:29:27Z</time>
   </trkpt>
   <trkpt lat="46.1962394714356" lon="7.35438871383667">
    <ele>1411.19995117188</ele>
    <time>2012-05-23T14:29:33Z</time>
   </trkpt>
   <trkpt lat="46.1962432861328" lon="7.35442447662354">
    <ele>1411.40002441406</ele>
    <time>2012-05-23T14:29:34Z</time>
   </trkpt>
   <trkpt lat="46.1962509155273" lon="7.35446166992188">
    <ele>1411.59997558594</ele>
    <time>2012-05-23T14:29:35Z</time>
   </trkpt>
   <trkpt lat="46.1962585449219" lon="7.35449600219726">
    <ele>1411.80004882812</ele>
    <time>2012-05-23T14:29:36Z</time>
   </trkpt>
   <trkpt lat="46.1962623596191" lon="7.35453224182129">
    <ele>1412</ele>
    <time>2012-05-23T14:29:37Z</time>
   </trkpt>
   <trkpt lat="46.1962814331055" lon="7.35464763641357">
    <ele>1412</ele>
    <time>2012-05-23T14:29:40Z</time>
   </trkpt>
   <trkpt lat="46.1963081359863" lon="7.35482311248779">
    <ele>1413.46667480469</ele>
    <time>2012-05-23T14:29:44Z</time>
   </trkpt>
   <trkpt lat="46.1963157653809" lon="7.3548698425293">
    <ele>1413.83337402344</ele>
    <time>2012-05-23T14:29:45Z</time>
   </trkpt>
   <trkpt lat="46.1963233947754" lon="7.35491180419922">
    <ele>1414.19995117188</ele>
    <time>2012-05-23T14:29:46Z</time>
   </trkpt>
   <trkpt lat="46.1963233947754" lon="7.35495233535767">
    <ele>1414.56665039062</ele>
    <time>2012-05-23T14:29:47Z</time>
   </trkpt>
   <trkpt lat="46.1963272094727" lon="7.3549919128418">
    <ele>1414.93334960938</ele>
    <time>2012-05-23T14:29:48Z</time>
   </trkpt>
   <trkpt lat="46.1963272094727" lon="7.35502862930298">
    <ele>1415.30004882812</ele>
    <time>2012-05-23T14:29:49Z</time>
   </trkpt>
   <trkpt lat="46.1963233947754" lon="7.35506439208984">
    <ele>1415.66674804688</ele>
    <time>2012-05-23T14:29:50Z</time>
   </trkpt>
   <trkpt lat="46.1963195800781" lon="7.35509872436524">
    <ele>1416.03332519531</ele>
    <time>2012-05-23T14:29:51Z</time>
   </trkpt>
   <trkpt lat="46.1963195800781" lon="7.35513353347778">
    <ele>1416.40002441406</ele>
    <time>2012-05-23T14:29:52Z</time>
   </trkpt>
   <trkpt lat="46.1963233947754" lon="7.35516738891602">
    <ele>1416.40002441406</ele>
    <time>2012-05-23T14:29:53Z</time>
   </trkpt>
   <trkpt lat="46.196346282959" lon="7.35530757904053">
    <ele>1417.40002441406</ele>
    <time>2012-05-23T14:29:57Z</time>
   </trkpt>
   <trkpt lat="46.1963500976562" lon="7.35533905029297">
    <ele>1417.65002441406</ele>
    <time>2012-05-23T14:29:58Z</time>
   </trkpt>
   <trkpt lat="46.1963577270508" lon="7.35537004470825">
    <ele>1417.90002441406</ele>
    <time>2012-05-23T14:29:59Z</time>
   </trkpt>
   <trkpt lat="46.196361541748" lon="7.3553991317749">
    <ele>1418.15002441406</ele>
    <time>2012-05-23T14:30:00Z</time>
   </trkpt>
   <trkpt lat="46.1963691711426" lon="7.35543489456177">
    <ele>1418.40002441406</ele>
    <time>2012-05-23T14:30:01Z</time>
   </trkpt>
   <trkpt lat="46.1963806152344" lon="7.35556840896606">
    <ele>1418.40002441406</ele>
    <time>2012-05-23T14:30:05Z</time>
   </trkpt>
   <trkpt lat="46.1963844299316" lon="7.35563230514526">
    <ele>1419.28002929688</ele>
    <time>2012-05-23T14:30:07Z</time>
   </trkpt>
   <trkpt lat="46.1963806152344" lon="7.35565996170044">
    <ele>1419.71997070312</ele>
    <time>2012-05-23T14:30:08Z</time>
   </trkpt>
   <trkpt lat="46.1963806152344" lon="7.35569190979004">
    <ele>1420.16003417969</ele>
    <time>2012-05-23T14:30:09Z</time>
   </trkpt>
   <trkpt lat="46.1963806152344" lon="7.35572528839111">
    <ele>1420.59997558594</ele>
    <time>2012-05-23T14:30:10Z</time>
   </trkpt>
   <trkpt lat="46.1963729858398" lon="7.35575771331787">
    <ele>1420.59997558594</ele>
    <time>2012-05-23T14:30:11Z</time>
   </trkpt>
   <trkpt lat="46.1963005065918" lon="7.35592031478882">
    <ele>1421.92004394531</ele>
    <time>2012-05-23T14:30:17Z</time>
   </trkpt>
   <trkpt lat="46.1962852478027" lon="7.35594367980957">
    <ele>1422.14001464844</ele>
    <time>2012-05-23T14:30:18Z</time>
   </trkpt>
   <trkpt lat="46.1962699890137" lon="7.35596561431885">
    <ele>1422.35998535156</ele>
    <time>2012-05-23T14:30:19Z</time>
   </trkpt>
   <trkpt lat="46.1962623596191" lon="7.35599231719971">
    <ele>1422.580078125</ele>
    <time>2012-05-23T14:30:20Z</time>
   </trkpt>
   <trkpt lat="46.1962509155273" lon="7.35601854324341">
    <ele>1422.80004882812</ele>
    <time>2012-05-23T14:30:21Z</time>
   </trkpt>
   <trkpt lat="46.1962013244629" lon="7.35611343383789">
    <ele>1422.80004882812</ele>
    <time>2012-05-23T14:30:26Z</time>
   </trkpt>
   <trkpt lat="46.1961631774902" lon="7.35614824295044">
    <ele>1423.46667480469</ele>
    <time>2012-05-23T14:30:28Z</time>
   </trkpt>
   <trkpt lat="46.1961479187012" lon="7.35617208480835">
    <ele>1423.80004882812</ele>
    <time>2012-05-23T14:30:29Z</time>
   </trkpt>
   <trkpt lat="46.1961288452148" lon="7.35619401931763">
    <ele>1424.13342285156</ele>
    <time>2012-05-23T14:30:30Z</time>
   </trkpt>
   <trkpt lat="46.1961097717285" lon="7.35622262954712">
    <ele>1424.46667480469</ele>
    <time>2012-05-23T14:30:31Z</time>
   </trkpt>
   <trkpt lat="46.1960868835449" lon="7.35624694824219">
    <ele>1424.80004882812</ele>
    <time>2012-05-23T14:30:32Z</time>
   </trkpt>
   <trkpt lat="46.1960334777832" lon="7.3563404083252">
    <ele>1424.80004882812</ele>
    <time>2012-05-23T14:30:36Z</time>
   </trkpt>
   <trkpt lat="46.1960182189941" lon="7.35636949539185">
    <ele>1425.23999023438</ele>
    <time>2012-05-23T14:30:37Z</time>
   </trkpt>
   <trkpt lat="46.1960029602051" lon="7.35639476776123">
    <ele>1425.68005371094</ele>
    <time>2012-05-23T14:30:38Z</time>
   </trkpt>
   <trkpt lat="46.1959838867188" lon="7.35642671585083">
    <ele>1426.11999511719</ele>
    <time>2012-05-23T14:30:39Z</time>
   </trkpt>
   <trkpt lat="46.1959609985352" lon="7.35645341873169">
    <ele>1426.56005859375</ele>
    <time>2012-05-23T14:30:40Z</time>
   </trkpt>
   <trkpt lat="46.1959419250488" lon="7.35647964477539">
    <ele>1427</ele>
    <time>2012-05-23T14:30:41Z</time>
   </trkpt>
   <trkpt lat="46.1958770751953" lon="7.3566460609436">
    <ele>1427</ele>
    <time>2012-05-23T14:30:46Z</time>
   </trkpt>
   <trkpt lat="46.1958847045898" lon="7.35668468475342">
    <ele>1427.40002441406</ele>
    <time>2012-05-23T14:30:47Z</time>
   </trkpt>
   <trkpt lat="46.1958999633789" lon="7.35672664642334">
    <ele>1427.80004882812</ele>
    <time>2012-05-23T14:30:48Z</time>
   </trkpt>
   <trkpt lat="46.1959228515625" lon="7.35675859451294">
    <ele>1428.19995117188</ele>
    <time>2012-05-23T14:30:49Z</time>
   </trkpt>
   <trkpt lat="46.1959457397461" lon="7.35678243637085">
    <ele>1428.59997558594</ele>
    <time>2012-05-23T14:30:50Z</time>
   </trkpt>
   <trkpt lat="46.195972442627" lon="7.35680198669434">
    <ele>1429</ele>
    <time>2012-05-23T14:30:51Z</time>
   </trkpt>
   <trkpt lat="46.196044921875" lon="7.35682535171509">
    <ele>1429</ele>
    <time>2012-05-23T14:30:54Z</time>
   </trkpt>
   <trkpt lat="46.1960906982422" lon="7.35682916641235">
    <ele>1429.55004882812</ele>
    <time>2012-05-23T14:30:56Z</time>
   </trkpt>
   <trkpt lat="46.196159362793" lon="7.35680913925171">
    <ele>1430.375</ele>
    <time>2012-05-23T14:30:59Z</time>
   </trkpt>
   <trkpt lat="46.1961822509766" lon="7.3568000793457">
    <ele>1430.64990234375</ele>
    <time>2012-05-23T14:31:00Z</time>
   </trkpt>
   <trkpt lat="46.1962051391602" lon="7.3567943572998">
    <ele>1430.92492675781</ele>
    <time>2012-05-23T14:31:01Z</time>
   </trkpt>
   <trkpt lat="46.196231842041" lon="7.35679578781128">
    <ele>1431.19995117188</ele>
    <time>2012-05-23T14:31:02Z</time>
   </trkpt>
   <trkpt lat="46.1963157653809" lon="7.35679912567139">
    <ele>1431.19995117188</ele>
    <time>2012-05-23T14:31:06Z</time>
   </trkpt>
   <trkpt lat="46.1963958740234" lon="7.35685110092163">
    <ele>1432.30004882812</ele>
    <time>2012-05-23T14:31:10Z</time>
   </trkpt>
   <trkpt lat="46.1964149475098" lon="7.35687017440796">
    <ele>1432.57495117188</ele>
    <time>2012-05-23T14:31:11Z</time>
   </trkpt>
   <trkpt lat="46.1964302062988" lon="7.35689687728882">
    <ele>1432.84997558594</ele>
    <time>2012-05-23T14:31:12Z</time>
   </trkpt>
   <trkpt lat="46.1964416503906" lon="7.35692358016968">
    <ele>1433.125</ele>
    <time>2012-05-23T14:31:13Z</time>
   </trkpt>
   <trkpt lat="46.1964530944824" lon="7.35694742202759">
    <ele>1433.40002441406</ele>
    <time>2012-05-23T14:31:14Z</time>
   </trkpt>
   <trkpt lat="46.1964530944824" lon="7.3570122718811">
    <ele>1433.40002441406</ele>
    <time>2012-05-23T14:31:16Z</time>
   </trkpt>
   <trkpt lat="46.1964569091797" lon="7.35705184936524">
    <ele>1433.71435546875</ele>
    <time>2012-05-23T14:31:17Z</time>
   </trkpt>
   <trkpt lat="46.1964569091797" lon="7.35708808898926">
    <ele>1434.02856445312</ele>
    <time>2012-05-23T14:31:18Z</time>
   </trkpt>
   <trkpt lat="46.1964530944824" lon="7.35712289810181">
    <ele>1434.34289550781</ele>
    <time>2012-05-23T14:31:19Z</time>
   </trkpt>
   <trkpt lat="46.1964492797852" lon="7.35715436935425">
    <ele>1434.6572265625</ele>
    <time>2012-05-23T14:31:20Z</time>
   </trkpt>
   <trkpt lat="46.1964416503906" lon="7.35718488693237">
    <ele>1434.97143554688</ele>
    <time>2012-05-23T14:31:21Z</time>
   </trkpt>
   <trkpt lat="46.1963882446289" lon="7.35732889175415">
    <ele>1436.54284667969</ele>
    <time>2012-05-23T14:31:26Z</time>
   </trkpt>
   <trkpt lat="46.1963729858398" lon="7.35735273361206">
    <ele>1436.85717773438</ele>
    <time>2012-05-23T14:31:27Z</time>
   </trkpt>
   <trkpt lat="46.1963577270508" lon="7.35737609863281">
    <ele>1437.17150878906</ele>
    <time>2012-05-23T14:31:28Z</time>
   </trkpt>
   <trkpt lat="46.196346282959" lon="7.35739660263062">
    <ele>1437.48571777344</ele>
    <time>2012-05-23T14:31:29Z</time>
   </trkpt>
   <trkpt lat="46.1963310241699" lon="7.35741138458252">
    <ele>1437.80004882812</ele>
    <time>2012-05-23T14:31:30Z</time>
   </trkpt>
   <trkpt lat="46.1962738037109" lon="7.35747051239014">
    <ele>1437.80004882812</ele>
    <time>2012-05-23T14:31:33Z</time>
   </trkpt>
   <trkpt lat="46.196231842041" lon="7.35750579833984">
    <ele>1438.46667480469</ele>
    <time>2012-05-23T14:31:35Z</time>
   </trkpt>
   <trkpt lat="46.1962127685547" lon="7.3575234413147">
    <ele>1438.80004882812</ele>
    <time>2012-05-23T14:31:36Z</time>
   </trkpt>
   <trkpt lat="46.1961898803711" lon="7.35753917694092">
    <ele>1439.13342285156</ele>
    <time>2012-05-23T14:31:37Z</time>
   </trkpt>
   <trkpt lat="46.1961669921875" lon="7.35755681991577">
    <ele>1439.46667480469</ele>
    <time>2012-05-23T14:31:38Z</time>
   </trkpt>
   <trkpt lat="46.1961441040039" lon="7.35756874084473">
    <ele>1439.80004882812</ele>
    <time>2012-05-23T14:31:39Z</time>
   </trkpt>
   <trkpt lat="46.1961250305176" lon="7.35757970809936">
    <ele>1439.80004882812</ele>
    <time>2012-05-23T14:31:40Z</time>
   </trkpt>
   <trkpt lat="46.1960296630859" lon="7.35766315460205">
    <ele>1441.02221679688</ele>
    <time>2012-05-23T14:31:45Z</time>
   </trkpt>
   <trkpt lat="46.1960105895996" lon="7.35768222808838">
    <ele>1441.26672363281</ele>
    <time>2012-05-23T14:31:46Z</time>
   </trkpt>
   <trkpt lat="46.1959915161133" lon="7.3576979637146">
    <ele>1441.51110839844</ele>
    <time>2012-05-23T14:31:47Z</time>
   </trkpt>
   <trkpt lat="46.195972442627" lon="7.35772085189819">
    <ele>1441.75561523438</ele>
    <time>2012-05-23T14:31:48Z</time>
   </trkpt>
   <trkpt lat="46.1959533691406" lon="7.35774183273315">
    <ele>1442</ele>
    <time>2012-05-23T14:31:49Z</time>
   </trkpt>
   <trkpt lat="46.1958808898926" lon="7.35782146453857">
    <ele>1442</ele>
    <time>2012-05-23T14:31:53Z</time>
   </trkpt>
   <trkpt lat="46.1958618164062" lon="7.35785102844238">
    <ele>1442.40002441406</ele>
    <time>2012-05-23T14:31:54Z</time>
   </trkpt>
   <trkpt lat="46.1958465576172" lon="7.35788059234619">
    <ele>1442.80004882812</ele>
    <time>2012-05-23T14:31:55Z</time>
   </trkpt>
   <trkpt lat="46.1958389282227" lon="7.35790395736694">
    <ele>1443.19995117188</ele>
    <time>2012-05-23T14:31:56Z</time>
   </trkpt>
   <trkpt lat="46.1958312988281" lon="7.35793352127075">
    <ele>1443.59997558594</ele>
    <time>2012-05-23T14:31:57Z</time>
   </trkpt>
   <trkpt lat="46.1958198547363" lon="7.3579626083374">
    <ele>1444</ele>
    <time>2012-05-23T14:31:58Z</time>
   </trkpt>
   <trkpt lat="46.1958045959473" lon="7.3579912185669">
    <ele>1444</ele>
    <time>2012-05-23T14:31:59Z</time>
   </trkpt>
   <trkpt lat="46.1957740783691" lon="7.35818529129028">
    <ele>1445.31994628906</ele>
    <time>2012-05-23T14:32:05Z</time>
   </trkpt>
   <trkpt lat="46.1957740783691" lon="7.35822343826294">
    <ele>1445.53991699219</ele>
    <time>2012-05-23T14:32:06Z</time>
   </trkpt>
   <trkpt lat="46.1957778930664" lon="7.35826253890991">
    <ele>1445.76000976562</ele>
    <time>2012-05-23T14:32:07Z</time>
   </trkpt>
   <trkpt lat="46.1957893371582" lon="7.3582911491394">
    <ele>1445.97998046875</ele>
    <time>2012-05-23T14:32:08Z</time>
   </trkpt>
   <trkpt lat="46.19580078125" lon="7.35831260681152">
    <ele>1446.19995117188</ele>
    <time>2012-05-23T14:32:09Z</time>
   </trkpt>
   <trkpt lat="46.1958122253418" lon="7.35833120346069">
    <ele>1446.19995117188</ele>
    <time>2012-05-23T14:32:10Z</time>
   </trkpt>
   <trkpt lat="46.195858001709" lon="7.35834980010986">
    <ele>1446.64208984375</ele>
    <time>2012-05-23T14:32:12Z</time>
   </trkpt>
   <trkpt lat="46.1959037780762" lon="7.35837841033936">
    <ele>1447.08422851562</ele>
    <time>2012-05-23T14:32:14Z</time>
   </trkpt>
   <trkpt lat="46.1959495544434" lon="7.35839939117432">
    <ele>1447.52624511719</ele>
    <time>2012-05-23T14:32:16Z</time>
   </trkpt>
   <trkpt lat="46.195972442627" lon="7.35839700698852">
    <ele>1447.74731445312</ele>
    <time>2012-05-23T14:32:17Z</time>
   </trkpt>
   <trkpt lat="46.1959915161133" lon="7.35839748382568">
    <ele>1447.96838378906</ele>
    <time>2012-05-23T14:32:18Z</time>
   </trkpt>
   <trkpt lat="46.1960144042969" lon="7.35839176177978">
    <ele>1448.189453125</ele>
    <time>2012-05-23T14:32:19Z</time>
   </trkpt>
   <trkpt lat="46.1960411071777" lon="7.35839033126831">
    <ele>1448.41052246094</ele>
    <time>2012-05-23T14:32:20Z</time>
   </trkpt>
   <trkpt lat="46.1961708068848" lon="7.35842943191528">
    <ele>1449.51574707031</ele>
    <time>2012-05-23T14:32:25Z</time>
   </trkpt>
   <trkpt lat="46.1961936950684" lon="7.35843658447266">
    <ele>1449.73681640625</ele>
    <time>2012-05-23T14:32:26Z</time>
   </trkpt>
   <trkpt lat="46.1962127685547" lon="7.35845232009888">
    <ele>1449.95788574219</ele>
    <time>2012-05-23T14:32:27Z</time>
   </trkpt>
   <trkpt lat="46.1962394714356" lon="7.35846614837646">
    <ele>1450.17895507812</ele>
    <time>2012-05-23T14:32:28Z</time>
   </trkpt>
   <trkpt lat="46.1962585449219" lon="7.35848140716553">
    <ele>1450.40002441406</ele>
    <time>2012-05-23T14:32:29Z</time>
   </trkpt>
   <trkpt lat="46.1962928771973" lon="7.35852289199829">
    <ele>1450.40002441406</ele>
    <time>2012-05-23T14:32:31Z</time>
   </trkpt>
   <trkpt lat="46.1963539123535" lon="7.35860729217529">
    <ele>1451.25720214844</ele>
    <time>2012-05-23T14:32:34Z</time>
   </trkpt>
   <trkpt lat="46.1963768005371" lon="7.35863876342774">
    <ele>1451.54284667969</ele>
    <time>2012-05-23T14:32:35Z</time>
   </trkpt>
   <trkpt lat="46.1963958740234" lon="7.35867309570312">
    <ele>1451.82861328125</ele>
    <time>2012-05-23T14:32:36Z</time>
   </trkpt>
   <trkpt lat="46.1964073181152" lon="7.35870838165283">
    <ele>1452.1142578125</ele>
    <time>2012-05-23T14:32:37Z</time>
   </trkpt>
   <trkpt lat="46.196418762207" lon="7.35874557495117">
    <ele>1452.40002441406</ele>
    <time>2012-05-23T14:32:38Z</time>
   </trkpt>
   <trkpt lat="46.1964340209961" lon="7.3589596748352">
    <ele>1452.40002441406</ele>
    <time>2012-05-23T14:32:43Z</time>
   </trkpt>
   <trkpt lat="46.196346282959" lon="7.35925388336182">
    <ele>1450.51110839844</ele>
    <time>2012-05-23T14:32:48Z</time>
   </trkpt>
   <trkpt lat="46.1962928771973" lon="7.35941648483276">
    <ele>1449.75561523438</ele>
    <time>2012-05-23T14:32:50Z</time>
   </trkpt>
   <trkpt lat="46.1962738037109" lon="7.3595175743103">
    <ele>1449.37780761719</ele>
    <time>2012-05-23T14:32:51Z</time>
   </trkpt>
   <trkpt lat="46.1962699890137" lon="7.359619140625">
    <ele>1449</ele>
    <time>2012-05-23T14:32:52Z</time>
   </trkpt>
   <trkpt lat="46.1962890625" lon="7.35972118377686">
    <ele>1448.62219238281</ele>
    <time>2012-05-23T14:32:53Z</time>
   </trkpt>
   <trkpt lat="46.1963157653809" lon="7.35980987548828">
    <ele>1448.24438476562</ele>
    <time>2012-05-23T14:32:54Z</time>
   </trkpt>
   <trkpt lat="46.196361541748" lon="7.35988235473633">
    <ele>1447.86669921875</ele>
    <time>2012-05-23T14:32:55Z</time>
   </trkpt>
   <trkpt lat="46.196418762207" lon="7.35994911193848">
    <ele>1447.48889160156</ele>
    <time>2012-05-23T14:32:56Z</time>
   </trkpt>
   <trkpt lat="46.196475982666" lon="7.36000299453735">
    <ele>1447.11108398438</ele>
    <time>2012-05-23T14:32:57Z</time>
   </trkpt>
   <trkpt lat="46.1965408325195" lon="7.36005306243896">
    <ele>1446.73327636719</ele>
    <time>2012-05-23T14:32:58Z</time>
   </trkpt>
   <trkpt lat="46.1965980529785" lon="7.36010646820068">
    <ele>1446.35559082031</ele>
    <time>2012-05-23T14:32:59Z</time>
   </trkpt>
   <trkpt lat="46.1966514587402" lon="7.36016321182251">
    <ele>1445.97778320312</ele>
    <time>2012-05-23T14:33:00Z</time>
   </trkpt>
   <trkpt lat="46.1967124938965" lon="7.36022329330444">
    <ele>1445.59997558594</ele>
    <time>2012-05-23T14:33:01Z</time>
   </trkpt>
   <trkpt lat="46.1969299316406" lon="7.36047601699829">
    <ele>1445.59997558594</ele>
    <time>2012-05-23T14:33:05Z</time>
   </trkpt>
   <trkpt lat="46.1971778869629" lon="7.36078357696533">
    <ele>1445.90295410156</ele>
    <time>2012-05-23T14:33:10Z</time>
   </trkpt>
   <trkpt lat="46.1973915100098" lon="7.36114168167114">
    <ele>1446.2060546875</ele>
    <time>2012-05-23T14:33:15Z</time>
   </trkpt>
   <trkpt lat="46.1974182128906" lon="7.3612208366394">
    <ele>1446.2666015625</ele>
    <time>2012-05-23T14:33:16Z</time>
   </trkpt>
   <trkpt lat="46.1974449157715" lon="7.36129570007324">
    <ele>1446.32727050781</ele>
    <time>2012-05-23T14:33:17Z</time>
   </trkpt>
   <trkpt lat="46.1975364685059" lon="7.36154222488403">
    <ele>1446.56970214844</ele>
    <time>2012-05-23T14:33:21Z</time>
   </trkpt>
   <trkpt lat="46.1975402832031" lon="7.36157608032226">
    <ele>1446.63024902344</ele>
    <time>2012-05-23T14:33:22Z</time>
   </trkpt>
   <trkpt lat="46.1975631713867" lon="7.36159515380859">
    <ele>1446.69091796875</ele>
    <time>2012-05-23T14:33:23Z</time>
   </trkpt>
   <trkpt lat="46.197566986084" lon="7.36153888702393">
    <ele>1446.81213378906</ele>
    <time>2012-05-23T14:33:25Z</time>
   </trkpt>
   <trkpt lat="46.1975059509277" lon="7.36137676239014">
    <ele>1447.05456542969</ele>
    <time>2012-05-23T14:33:29Z</time>
   </trkpt>
   <trkpt lat="46.197437286377" lon="7.36116027832031">
    <ele>1447.29699707031</ele>
    <time>2012-05-23T14:33:33Z</time>
   </trkpt>
   <trkpt lat="46.1974182128906" lon="7.36110687255859">
    <ele>1447.35754394531</ele>
    <time>2012-05-23T14:33:34Z</time>
   </trkpt>
   <trkpt lat="46.1973991394043" lon="7.36105060577393">
    <ele>1447.41821289062</ele>
    <time>2012-05-23T14:33:35Z</time>
   </trkpt>
   <trkpt lat="46.1973648071289" lon="7.36099767684936">
    <ele>1447.47875976562</ele>
    <time>2012-05-23T14:33:36Z</time>
   </trkpt>
   <trkpt lat="46.1973342895508" lon="7.36094331741333">
    <ele>1447.53942871094</ele>
    <time>2012-05-23T14:33:37Z</time>
   </trkpt>
   <trkpt lat="46.1973037719727" lon="7.36089038848877">
    <ele>1447.59997558594</ele>
    <time>2012-05-23T14:33:38Z</time>
   </trkpt>
   <trkpt lat="46.1970977783203" lon="7.36057996749878">
    <ele>1447.59997558594</ele>
    <time>2012-05-23T14:33:44Z</time>
   </trkpt>
   <trkpt lat="46.1968650817871" lon="7.36033582687378">
    <ele>1448.28564453125</ele>
    <time>2012-05-23T14:33:50Z</time>
   </trkpt>
   <trkpt lat="46.1968307495117" lon="7.36029434204102">
    <ele>1448.40002441406</ele>
    <time>2012-05-23T14:33:51Z</time>
   </trkpt>
   <trkpt lat="46.1966514587402" lon="7.36010074615478">
    <ele>1448.97143554688</ele>
    <time>2012-05-23T14:33:56Z</time>
   </trkpt>
   <trkpt lat="46.1964912414551" lon="7.35996961593628">
    <ele>1449.42858886719</ele>
    <time>2012-05-23T14:34:00Z</time>
   </trkpt>
   <trkpt lat="46.1964530944824" lon="7.3599328994751">
    <ele>1449.54284667969</ele>
    <time>2012-05-23T14:34:01Z</time>
   </trkpt>
   <trkpt lat="46.1963157653809" lon="7.35975313186646">
    <ele>1450</ele>
    <time>2012-05-23T14:34:05Z</time>
   </trkpt>
   <trkpt lat="46.1962928771973" lon="7.35969734191894">
    <ele>1450.1142578125</ele>
    <time>2012-05-23T14:34:06Z</time>
   </trkpt>
   <trkpt lat="46.1962890625" lon="7.3595175743103">
    <ele>1450.45715332031</ele>
    <time>2012-05-23T14:34:09Z</time>
   </trkpt>
   <trkpt lat="46.1963043212891" lon="7.35946321487427">
    <ele>1450.57141113281</ele>
    <time>2012-05-23T14:34:10Z</time>
   </trkpt>
   <trkpt lat="46.1963233947754" lon="7.35941982269287">
    <ele>1450.68566894531</ele>
    <time>2012-05-23T14:34:11Z</time>
   </trkpt>
   <trkpt lat="46.1963424682617" lon="7.35936450958252">
    <ele>1450.79992675781</ele>
    <time>2012-05-23T14:34:12Z</time>
   </trkpt>
   <trkpt lat="46.196361541748" lon="7.35931587219238">
    <ele>1450.91430664062</ele>
    <time>2012-05-23T14:34:13Z</time>
   </trkpt>
   <trkpt lat="46.1963920593262" lon="7.35921859741211">
    <ele>1451.14282226562</ele>
    <time>2012-05-23T14:34:15Z</time>
   </trkpt>
   <trkpt lat="46.1964111328125" lon="7.35917329788208">
    <ele>1451.25708007812</ele>
    <time>2012-05-23T14:34:16Z</time>
   </trkpt>
   <trkpt lat="46.1964263916016" lon="7.35913181304932">
    <ele>1451.37145996094</ele>
    <time>2012-05-23T14:34:17Z</time>
   </trkpt>
   <trkpt lat="46.1964378356934" lon="7.35908603668213">
    <ele>1451.48571777344</ele>
    <time>2012-05-23T14:34:18Z</time>
   </trkpt>
   <trkpt lat="46.1964492797852" lon="7.35903549194336">
    <ele>1451.59997558594</ele>
    <time>2012-05-23T14:34:19Z</time>
   </trkpt>
   <trkpt lat="46.1964492797852" lon="7.35872936248779">
    <ele>1451.59997558594</ele>
    <time>2012-05-23T14:34:25Z</time>
   </trkpt>
   <trkpt lat="46.1963577270508" lon="7.35848569869995">
    <ele>1446.64538574219</ele>
    <time>2012-05-23T14:34:30Z</time>
   </trkpt>
   <trkpt lat="46.1963195800781" lon="7.3584394454956">
    <ele>1445.65454101562</ele>
    <time>2012-05-23T14:34:31Z</time>
   </trkpt>
   <trkpt lat="46.1961402893066" lon="7.35832452774048">
    <ele>1441.69091796875</ele>
    <time>2012-05-23T14:34:35Z</time>
   </trkpt>
   <trkpt lat="46.1960945129394" lon="7.35832500457764">
    <ele>1440.69995117188</ele>
    <time>2012-05-23T14:34:36Z</time>
   </trkpt>
   <trkpt lat="46.1959342956543" lon="7.35833740234375">
    <ele>1437.72729492188</ele>
    <time>2012-05-23T14:34:39Z</time>
   </trkpt>
   <trkpt lat="46.1958656311035" lon="7.35834407806396">
    <ele>1436.736328125</ele>
    <time>2012-05-23T14:34:40Z</time>
   </trkpt>
   <trkpt lat="46.1957969665527" lon="7.35830640792847">
    <ele>1435.74548339844</ele>
    <time>2012-05-23T14:34:41Z</time>
   </trkpt>
   <trkpt lat="46.195728302002" lon="7.35825204849243">
    <ele>1434.75451660156</ele>
    <time>2012-05-23T14:34:42Z</time>
   </trkpt>
   <trkpt lat="46.1956787109375" lon="7.35818767547607">
    <ele>1433.763671875</ele>
    <time>2012-05-23T14:34:43Z</time>
   </trkpt>
   <trkpt lat="46.1956481933594" lon="7.35813570022583">
    <ele>1432.77270507812</ele>
    <time>2012-05-23T14:34:44Z</time>
   </trkpt>
   <trkpt lat="46.1956520080566" lon="7.35808038711548">
    <ele>1431.78186035156</ele>
    <time>2012-05-23T14:34:45Z</time>
   </trkpt>
   <trkpt lat="46.1956939697266" lon="7.35800504684448">
    <ele>1430.79089355469</ele>
    <time>2012-05-23T14:34:46Z</time>
   </trkpt>
   <trkpt lat="46.1957550048828" lon="7.3579273223877">
    <ele>1429.80004882812</ele>
    <time>2012-05-23T14:34:47Z</time>
   </trkpt>
   <trkpt lat="46.1958312988281" lon="7.35786151885986">
    <ele>1428.80908203125</ele>
    <time>2012-05-23T14:34:48Z</time>
   </trkpt>
   <trkpt lat="46.1959190368652" lon="7.35779714584351">
    <ele>1427.81811523438</ele>
    <time>2012-05-23T14:34:49Z</time>
   </trkpt>
   <trkpt lat="46.1960067749023" lon="7.35774755477905">
    <ele>1426.82727050781</ele>
    <time>2012-05-23T14:34:50Z</time>
   </trkpt>
   <trkpt lat="46.1960945129394" lon="7.35767364501953">
    <ele>1425.83630371094</ele>
    <time>2012-05-23T14:34:51Z</time>
   </trkpt>
   <trkpt lat="46.1961822509766" lon="7.35757446289062">
    <ele>1424.84545898438</ele>
    <time>2012-05-23T14:34:52Z</time>
   </trkpt>
   <trkpt lat="46.1962585449219" lon="7.35745143890381">
    <ele>1423.8544921875</ele>
    <time>2012-05-23T14:34:53Z</time>
   </trkpt>
   <trkpt lat="46.1963157653809" lon="7.35730314254761">
    <ele>1422.86364746094</ele>
    <time>2012-05-23T14:34:54Z</time>
   </trkpt>
   <trkpt lat="46.196361541748" lon="7.35713291168213">
    <ele>1421.87268066406</ele>
    <time>2012-05-23T14:34:55Z</time>
   </trkpt>
   <trkpt lat="46.1963768005371" lon="7.35697555541992">
    <ele>1420.8818359375</ele>
    <time>2012-05-23T14:34:56Z</time>
   </trkpt>
   <trkpt lat="46.1963729858398" lon="7.3568229675293">
    <ele>1419.89086914062</ele>
    <time>2012-05-23T14:34:57Z</time>
   </trkpt>
   <trkpt lat="46.1963348388672" lon="7.3567271232605">
    <ele>1418.90002441406</ele>
    <time>2012-05-23T14:34:58Z</time>
   </trkpt>
   <trkpt lat="46.1962776184082" lon="7.35669088363648">
    <ele>1417.90905761719</ele>
    <time>2012-05-23T14:34:59Z</time>
   </trkpt>
   <trkpt lat="46.1961784362793" lon="7.35672426223755">
    <ele>1416.91821289062</ele>
    <time>2012-05-23T14:35:00Z</time>
   </trkpt>
   <trkpt lat="46.1959991455078" lon="7.35677480697632">
    <ele>1414.93640136719</ele>
    <time>2012-05-23T14:35:02Z</time>
   </trkpt>
   <trkpt lat="46.195915222168" lon="7.3567271232605">
    <ele>1413.94543457031</ele>
    <time>2012-05-23T14:35:03Z</time>
   </trkpt>
   <trkpt lat="46.1958503723144" lon="7.35664224624634">
    <ele>1412.95458984375</ele>
    <time>2012-05-23T14:35:04Z</time>
   </trkpt>
   <trkpt lat="46.1958122253418" lon="7.35657024383545">
    <ele>1411.96362304688</ele>
    <time>2012-05-23T14:35:05Z</time>
   </trkpt>
   <trkpt lat="46.1957931518555" lon="7.35649538040161">
    <ele>1410.97277832031</ele>
    <time>2012-05-23T14:35:06Z</time>
   </trkpt>
   <trkpt lat="46.1958236694336" lon="7.3563871383667">
    <ele>1409.98181152344</ele>
    <time>2012-05-23T14:35:07Z</time>
   </trkpt>
   <trkpt lat="46.1958885192871" lon="7.35629415512085">
    <ele>1408.99096679688</ele>
    <time>2012-05-23T14:35:08Z</time>
   </trkpt>
   <trkpt lat="46.1959762573242" lon="7.35621452331543">
    <ele>1408</ele>
    <time>2012-05-23T14:35:09Z</time>
   </trkpt>
   <trkpt lat="46.1960601806641" lon="7.35610675811768">
    <ele>1407.00903320312</ele>
    <time>2012-05-23T14:35:10Z</time>
   </trkpt>
   <trkpt lat="46.1961402893066" lon="7.35600519180298">
    <ele>1406.01818847656</ele>
    <time>2012-05-23T14:35:11Z</time>
   </trkpt>
   <trkpt lat="46.1962203979492" lon="7.3558759689331">
    <ele>1405.02722167969</ele>
    <time>2012-05-23T14:35:12Z</time>
   </trkpt>
   <trkpt lat="46.1962776184082" lon="7.35572910308838">
    <ele>1404.03637695312</ele>
    <time>2012-05-23T14:35:13Z</time>
   </trkpt>
   <trkpt lat="46.1963005065918" lon="7.35557270050049">
    <ele>1403.04541015625</ele>
    <time>2012-05-23T14:35:14Z</time>
   </trkpt>
   <trkpt lat="46.1963043212891" lon="7.35539674758911">
    <ele>1402.05456542969</ele>
    <time>2012-05-23T14:35:15Z</time>
   </trkpt>
   <trkpt lat="46.1962928771973" lon="7.35523271560669">
    <ele>1401.06359863281</ele>
    <time>2012-05-23T14:35:16Z</time>
   </trkpt>
   <trkpt lat="46.1962776184082" lon="7.35506534576416">
    <ele>1400.07275390625</ele>
    <time>2012-05-23T14:35:17Z</time>
   </trkpt>
   <trkpt lat="46.1962661743164" lon="7.35489559173584">
    <ele>1399.08178710938</ele>
    <time>2012-05-23T14:35:18Z</time>
   </trkpt>
   <trkpt lat="46.1962623596191" lon="7.3547215461731">
    <ele>1398.09094238281</ele>
    <time>2012-05-23T14:35:19Z</time>
   </trkpt>
   <trkpt lat="46.1962509155273" lon="7.3545446395874">
    <ele>1397.09997558594</ele>
    <time>2012-05-23T14:35:20Z</time>
   </trkpt>
   <trkpt lat="46.1962242126465" lon="7.35437059402466">
    <ele>1396.10913085938</ele>
    <time>2012-05-23T14:35:21Z</time>
   </trkpt>
   <trkpt lat="46.1962051391602" lon="7.35418701171875">
    <ele>1395.1181640625</ele>
    <time>2012-05-23T14:35:22Z</time>
   </trkpt>
   <trkpt lat="46.1961975097656" lon="7.35400629043579">
    <ele>1394.12731933594</ele>
    <time>2012-05-23T14:35:23Z</time>
   </trkpt>
   <trkpt lat="46.1961898803711" lon="7.35381984710693">
    <ele>1393.13635253906</ele>
    <time>2012-05-23T14:35:24Z</time>
   </trkpt>
   <trkpt lat="46.1962051391602" lon="7.35363245010376">
    <ele>1392.1455078125</ele>
    <time>2012-05-23T14:35:25Z</time>
   </trkpt>
   <trkpt lat="46.1962280273438" lon="7.35345029830933">
    <ele>1391.15454101562</ele>
    <time>2012-05-23T14:35:26Z</time>
   </trkpt>
   <trkpt lat="46.1962547302246" lon="7.35328435897827">
    <ele>1390.16369628906</ele>
    <time>2012-05-23T14:35:27Z</time>
   </trkpt>
   <trkpt lat="46.1962928771973" lon="7.35312700271606">
    <ele>1389.17272949219</ele>
    <time>2012-05-23T14:35:28Z</time>
   </trkpt>
   <trkpt lat="46.1963272094727" lon="7.35297107696533">
    <ele>1388.18188476562</ele>
    <time>2012-05-23T14:35:29Z</time>
   </trkpt>
   <trkpt lat="46.1963233947754" lon="7.35281229019165">
    <ele>1387.19091796875</ele>
    <time>2012-05-23T14:35:30Z</time>
   </trkpt>
   <trkpt lat="46.1962890625" lon="7.35266780853272">
    <ele>1386.19995117188</ele>
    <time>2012-05-23T14:35:31Z</time>
   </trkpt>
   <trkpt lat="46.1962280273438" lon="7.35254526138306">
    <ele>1385.20910644531</ele>
    <time>2012-05-23T14:35:32Z</time>
   </trkpt>
   <trkpt lat="46.1961631774902" lon="7.35242176055908">
    <ele>1384.21813964844</ele>
    <time>2012-05-23T14:35:33Z</time>
   </trkpt>
   <trkpt lat="46.1961135864258" lon="7.3522744178772">
    <ele>1383.22729492188</ele>
    <time>2012-05-23T14:35:34Z</time>
   </trkpt>
   <trkpt lat="46.1960830688477" lon="7.35211706161499">
    <ele>1382.236328125</ele>
    <time>2012-05-23T14:35:35Z</time>
   </trkpt>
   <trkpt lat="46.1960716247559" lon="7.35195398330688">
    <ele>1381.24548339844</ele>
    <time>2012-05-23T14:35:36Z</time>
   </trkpt>
   <trkpt lat="46.1960678100586" lon="7.35177755355835">
    <ele>1380.25451660156</ele>
    <time>2012-05-23T14:35:37Z</time>
   </trkpt>
   <trkpt lat="46.1960563659668" lon="7.35160541534424">
    <ele>1379.263671875</ele>
    <time>2012-05-23T14:35:38Z</time>
   </trkpt>
   <trkpt lat="46.196044921875" lon="7.35143613815308">
    <ele>1378.27270507812</ele>
    <time>2012-05-23T14:35:39Z</time>
   </trkpt>
   <trkpt lat="46.1960296630859" lon="7.35126543045044">
    <ele>1377.28186035156</ele>
    <time>2012-05-23T14:35:40Z</time>
   </trkpt>
   <trkpt lat="46.1960105895996" lon="7.35109186172485">
    <ele>1376.29089355469</ele>
    <time>2012-05-23T14:35:41Z</time>
   </trkpt>
   <trkpt lat="46.1959838867188" lon="7.35091686248779">
    <ele>1375.30004882812</ele>
    <time>2012-05-23T14:35:42Z</time>
   </trkpt>
   <trkpt lat="46.1959419250488" lon="7.35074663162232">
    <ele>1374.30908203125</ele>
    <time>2012-05-23T14:35:43Z</time>
   </trkpt>
   <trkpt lat="46.1958961486816" lon="7.35057687759399">
    <ele>1373.31823730469</ele>
    <time>2012-05-23T14:35:44Z</time>
   </trkpt>
   <trkpt lat="46.1958389282227" lon="7.35039806365967">
    <ele>1372.32727050781</ele>
    <time>2012-05-23T14:35:45Z</time>
   </trkpt>
   <trkpt lat="46.1957817077637" lon="7.35023212432861">
    <ele>1371.33642578125</ele>
    <time>2012-05-23T14:35:46Z</time>
   </trkpt>
   <trkpt lat="46.1957244873047" lon="7.35006999969482">
    <ele>1370.34545898438</ele>
    <time>2012-05-23T14:35:47Z</time>
   </trkpt>
   <trkpt lat="46.1956787109375" lon="7.34990644454956">
    <ele>1369.35461425781</ele>
    <time>2012-05-23T14:35:48Z</time>
   </trkpt>
   <trkpt lat="46.1956558227539" lon="7.34973239898682">
    <ele>1368.36364746094</ele>
    <time>2012-05-23T14:35:49Z</time>
   </trkpt>
   <trkpt lat="46.1956558227539" lon="7.34955310821533">
    <ele>1367.37280273438</ele>
    <time>2012-05-23T14:35:50Z</time>
   </trkpt>
   <trkpt lat="46.1956634521484" lon="7.34937572479248">
    <ele>1366.3818359375</ele>
    <time>2012-05-23T14:35:51Z</time>
   </trkpt>
   <trkpt lat="46.1956672668457" lon="7.34920263290405">
    <ele>1365.39099121094</ele>
    <time>2012-05-23T14:35:52Z</time>
   </trkpt>
   <trkpt lat="46.1956596374512" lon="7.34901332855225">
    <ele>1364.40002441406</ele>
    <time>2012-05-23T14:35:53Z</time>
   </trkpt>
   <trkpt lat="46.1956405639648" lon="7.3488302230835">
    <ele>1363.40905761719</ele>
    <time>2012-05-23T14:35:54Z</time>
   </trkpt>
   <trkpt lat="46.1956176757812" lon="7.34864234924316">
    <ele>1362.41821289062</ele>
    <time>2012-05-23T14:35:55Z</time>
   </trkpt>
   <trkpt lat="46.1955871582031" lon="7.34844923019409">
    <ele>1361.42724609375</ele>
    <time>2012-05-23T14:35:56Z</time>
   </trkpt>
   <trkpt lat="46.1955490112305" lon="7.34826374053955">
    <ele>1360.43640136719</ele>
    <time>2012-05-23T14:35:57Z</time>
   </trkpt>
   <trkpt lat="46.1955223083496" lon="7.34807586669922">
    <ele>1359.44543457031</ele>
    <time>2012-05-23T14:35:58Z</time>
   </trkpt>
   <trkpt lat="46.1955108642578" lon="7.34788131713867">
    <ele>1358.45458984375</ele>
    <time>2012-05-23T14:35:59Z</time>
   </trkpt>
   <trkpt lat="46.1955184936523" lon="7.34767627716064">
    <ele>1357.46362304688</ele>
    <time>2012-05-23T14:36:00Z</time>
   </trkpt>
   <trkpt lat="46.1955451965332" lon="7.34748029708862">
    <ele>1356.47277832031</ele>
    <time>2012-05-23T14:36:01Z</time>
   </trkpt>
   <trkpt lat="46.1955757141113" lon="7.34728670120239">
    <ele>1355.48181152344</ele>
    <time>2012-05-23T14:36:02Z</time>
   </trkpt>
   <trkpt lat="46.1956024169922" lon="7.34709024429321">
    <ele>1354.49096679688</ele>
    <time>2012-05-23T14:36:03Z</time>
   </trkpt>
   <trkpt lat="46.1956176757812" lon="7.34689140319824">
    <ele>1353.5</ele>
    <time>2012-05-23T14:36:04Z</time>
   </trkpt>
   <trkpt lat="46.1956253051758" lon="7.34668684005737">
    <ele>1352.50915527344</ele>
    <time>2012-05-23T14:36:05Z</time>
   </trkpt>
   <trkpt lat="46.1956329345703" lon="7.34648084640503">
    <ele>1351.51818847656</ele>
    <time>2012-05-23T14:36:06Z</time>
   </trkpt>
   <trkpt lat="46.1956329345703" lon="7.346275806427">
    <ele>1350.52734375</ele>
    <time>2012-05-23T14:36:07Z</time>
   </trkpt>
   <trkpt lat="46.195629119873" lon="7.34606075286865">
    <ele>1349.53637695312</ele>
    <time>2012-05-23T14:36:08Z</time>
   </trkpt>
   <trkpt lat="46.1956253051758" lon="7.34585857391357">
    <ele>1348.54553222656</ele>
    <time>2012-05-23T14:36:09Z</time>
   </trkpt>
   <trkpt lat="46.1956253051758" lon="7.34566354751587">
    <ele>1347.55456542969</ele>
    <time>2012-05-23T14:36:10Z</time>
   </trkpt>
   <trkpt lat="46.195629119873" lon="7.34547185897827">
    <ele>1346.56372070312</ele>
    <time>2012-05-23T14:36:11Z</time>
   </trkpt>
   <trkpt lat="46.1956481933594" lon="7.345290184021">
    <ele>1345.57275390625</ele>
    <time>2012-05-23T14:36:12Z</time>
   </trkpt>
   <trkpt lat="46.1956634521484" lon="7.34511661529541">
    <ele>1344.58190917969</ele>
    <time>2012-05-23T14:36:13Z</time>
   </trkpt>
   <trkpt lat="46.1956939697266" lon="7.34494829177856">
    <ele>1343.59094238281</ele>
    <time>2012-05-23T14:36:14Z</time>
   </trkpt>
   <trkpt lat="46.1957244873047" lon="7.34477376937866">
    <ele>1342.60009765625</ele>
    <time>2012-05-23T14:36:15Z</time>
   </trkpt>
   <trkpt lat="46.1957588195801" lon="7.3445897102356">
    <ele>1341.60913085938</ele>
    <time>2012-05-23T14:36:16Z</time>
   </trkpt>
   <trkpt lat="46.1957778930664" lon="7.34441614151001">
    <ele>1340.6181640625</ele>
    <time>2012-05-23T14:36:17Z</time>
   </trkpt>
   <trkpt lat="46.1957893371582" lon="7.34424829483032">
    <ele>1339.62731933594</ele>
    <time>2012-05-23T14:36:18Z</time>
   </trkpt>
   <trkpt lat="46.1958198547363" lon="7.3440899848938">
    <ele>1338.63635253906</ele>
    <time>2012-05-23T14:36:19Z</time>
   </trkpt>
   <trkpt lat="46.1958656311035" lon="7.34394359588623">
    <ele>1337.6455078125</ele>
    <time>2012-05-23T14:36:20Z</time>
   </trkpt>
   <trkpt lat="46.1958999633789" lon="7.34378004074097">
    <ele>1336.65454101562</ele>
    <time>2012-05-23T14:36:21Z</time>
   </trkpt>
   <trkpt lat="46.195915222168" lon="7.34360694885254">
    <ele>1335.66369628906</ele>
    <time>2012-05-23T14:36:22Z</time>
   </trkpt>
   <trkpt lat="46.1959114074707" lon="7.34342622756958">
    <ele>1334.67272949219</ele>
    <time>2012-05-23T14:36:23Z</time>
   </trkpt>
   <trkpt lat="46.1959075927734" lon="7.34323883056641">
    <ele>1333.68188476562</ele>
    <time>2012-05-23T14:36:24Z</time>
   </trkpt>
   <trkpt lat="46.1958923339844" lon="7.34304714202881">
    <ele>1332.69091796875</ele>
    <time>2012-05-23T14:36:25Z</time>
   </trkpt>
   <trkpt lat="46.195873260498" lon="7.3428521156311">
    <ele>1331.70007324219</ele>
    <time>2012-05-23T14:36:26Z</time>
   </trkpt>
   <trkpt lat="46.195858001709" lon="7.34265470504761">
    <ele>1330.70910644531</ele>
    <time>2012-05-23T14:36:27Z</time>
   </trkpt>
   <trkpt lat="46.1958122253418" lon="7.34248352050781">
    <ele>1329.71826171875</ele>
    <time>2012-05-23T14:36:28Z</time>
   </trkpt>
   <trkpt lat="46.1957511901856" lon="7.34231901168823">
    <ele>1328.72729492188</ele>
    <time>2012-05-23T14:36:29Z</time>
   </trkpt>
   <trkpt lat="46.1956672668457" lon="7.34215927124024">
    <ele>1327.73645019531</ele>
    <time>2012-05-23T14:36:30Z</time>
   </trkpt>
   <trkpt lat="46.1955909729004" lon="7.34199285507202">
    <ele>1326.74548339844</ele>
    <time>2012-05-23T14:36:31Z</time>
   </trkpt>
   <trkpt lat="46.1955184936523" lon="7.3418288230896">
    <ele>1325.75463867188</ele>
    <time>2012-05-23T14:36:32Z</time>
   </trkpt>
   <trkpt lat="46.1954650878906" lon="7.34166193008423">
    <ele>1324.763671875</ele>
    <time>2012-05-23T14:36:33Z</time>
   </trkpt>
   <trkpt lat="46.1954040527344" lon="7.34151363372803">
    <ele>1323.77282714844</ele>
    <time>2012-05-23T14:36:34Z</time>
   </trkpt>
   <trkpt lat="46.1953392028809" lon="7.34140110015869">
    <ele>1322.78186035156</ele>
    <time>2012-05-23T14:36:35Z</time>
   </trkpt>
   <trkpt lat="46.1952629089356" lon="7.34132146835327">
    <ele>1321.791015625</ele>
    <time>2012-05-23T14:36:36Z</time>
   </trkpt>
   <trkpt lat="46.195198059082" lon="7.34124755859375">
    <ele>1320.80004882812</ele>
    <time>2012-05-23T14:36:37Z</time>
   </trkpt>
   <trkpt lat="46.1951751708984" lon="7.34115266799927">
    <ele>1320.80004882812</ele>
    <time>2012-05-23T14:36:38Z</time>
   </trkpt>
   <trkpt lat="46.1952438354492" lon="7.34101247787476">
    <ele>1318.81604003906</ele>
    <time>2012-05-23T14:36:40Z</time>
   </trkpt>
   <trkpt lat="46.1953430175781" lon="7.34110641479492">
    <ele>1316.83203125</ele>
    <time>2012-05-23T14:36:42Z</time>
   </trkpt>
   <trkpt lat="46.1954383850098" lon="7.3412823677063">
    <ele>1314.84802246094</ele>
    <time>2012-05-23T14:36:44Z</time>
   </trkpt>
   <trkpt lat="46.1954956054688" lon="7.34136772155762">
    <ele>1313.85607910156</ele>
    <time>2012-05-23T14:36:45Z</time>
   </trkpt>
   <trkpt lat="46.1955642700195" lon="7.34146738052368">
    <ele>1312.86401367188</ele>
    <time>2012-05-23T14:36:46Z</time>
   </trkpt>
   <trkpt lat="46.1956367492676" lon="7.34156322479248">
    <ele>1311.8720703125</ele>
    <time>2012-05-23T14:36:47Z</time>
   </trkpt>
   <trkpt lat="46.1957092285156" lon="7.34166669845581">
    <ele>1310.88000488281</ele>
    <time>2012-05-23T14:36:48Z</time>
   </trkpt>
   <trkpt lat="46.1957893371582" lon="7.34177017211914">
    <ele>1309.88806152344</ele>
    <time>2012-05-23T14:36:49Z</time>
   </trkpt>
   <trkpt lat="46.1958770751953" lon="7.34187507629394">
    <ele>1308.89599609375</ele>
    <time>2012-05-23T14:36:50Z</time>
   </trkpt>
   <trkpt lat="46.195972442627" lon="7.34198236465454">
    <ele>1307.90405273438</ele>
    <time>2012-05-23T14:36:51Z</time>
   </trkpt>
   <trkpt lat="46.196044921875" lon="7.34211826324463">
    <ele>1306.91198730469</ele>
    <time>2012-05-23T14:36:52Z</time>
   </trkpt>
   <trkpt lat="46.1961059570312" lon="7.34226751327515">
    <ele>1305.92004394531</ele>
    <time>2012-05-23T14:36:53Z</time>
   </trkpt>
   <trkpt lat="46.1961708068848" lon="7.34242296218872">
    <ele>1304.92797851562</ele>
    <time>2012-05-23T14:36:54Z</time>
   </trkpt>
   <trkpt lat="46.1962356567383" lon="7.34258460998535">
    <ele>1303.93603515625</ele>
    <time>2012-05-23T14:36:55Z</time>
   </trkpt>
   <trkpt lat="46.1963005065918" lon="7.34274530410767">
    <ele>1302.94396972656</ele>
    <time>2012-05-23T14:36:56Z</time>
   </trkpt>
   <trkpt lat="46.1963768005371" lon="7.34289646148682">
    <ele>1301.95202636719</ele>
    <time>2012-05-23T14:36:57Z</time>
   </trkpt>
   <trkpt lat="46.1964530944824" lon="7.34304285049438">
    <ele>1300.9599609375</ele>
    <time>2012-05-23T14:36:58Z</time>
   </trkpt>
   <trkpt lat="46.1965179443359" lon="7.34318208694458">
    <ele>1299.96801757812</ele>
    <time>2012-05-23T14:36:59Z</time>
   </trkpt>
   <trkpt lat="46.1965713500977" lon="7.3433313369751">
    <ele>1298.97595214844</ele>
    <time>2012-05-23T14:37:00Z</time>
   </trkpt>
   <trkpt lat="46.1966209411621" lon="7.34348154067993">
    <ele>1297.98400878906</ele>
    <time>2012-05-23T14:37:01Z</time>
   </trkpt>
   <trkpt lat="46.1966438293457" lon="7.3436222076416">
    <ele>1296.99194335938</ele>
    <time>2012-05-23T14:37:02Z</time>
   </trkpt>
   <trkpt lat="46.196647644043" lon="7.34374761581421">
    <ele>1296</ele>
    <time>2012-05-23T14:37:03Z</time>
   </trkpt>
   <trkpt lat="46.1966705322266" lon="7.34384965896606">
    <ele>1296</ele>
    <time>2012-05-23T14:37:04Z</time>
   </trkpt>
   <trkpt lat="46.1967506408691" lon="7.34392929077148">
    <ele>1293.82763671875</ele>
    <time>2012-05-23T14:37:06Z</time>
   </trkpt>
   <trkpt lat="46.1968116760254" lon="7.34376859664917">
    <ele>1291.65515136719</ele>
    <time>2012-05-23T14:37:08Z</time>
   </trkpt>
   <trkpt lat="46.1967964172363" lon="7.34355878829956">
    <ele>1289.48278808594</ele>
    <time>2012-05-23T14:37:10Z</time>
   </trkpt>
   <trkpt lat="46.19677734375" lon="7.34344911575317">
    <ele>1288.39660644531</ele>
    <time>2012-05-23T14:37:11Z</time>
   </trkpt>
   <trkpt lat="46.1967544555664" lon="7.34333324432373">
    <ele>1287.31030273438</ele>
    <time>2012-05-23T14:37:12Z</time>
   </trkpt>
   <trkpt lat="46.1967353820801" lon="7.34321451187134">
    <ele>1286.22412109375</ele>
    <time>2012-05-23T14:37:13Z</time>
   </trkpt>
   <trkpt lat="46.1967124938965" lon="7.34308385848999">
    <ele>1285.13793945312</ele>
    <time>2012-05-23T14:37:14Z</time>
   </trkpt>
   <trkpt lat="46.1966934204102" lon="7.342942237854">
    <ele>1284.0517578125</ele>
    <time>2012-05-23T14:37:15Z</time>
   </trkpt>
   <trkpt lat="46.1966743469238" lon="7.3427882194519">
    <ele>1282.96557617188</ele>
    <time>2012-05-23T14:37:16Z</time>
   </trkpt>
   <trkpt lat="46.196662902832" lon="7.34263706207275">
    <ele>1281.87927246094</ele>
    <time>2012-05-23T14:37:17Z</time>
   </trkpt>
   <trkpt lat="46.1966552734375" lon="7.34247303009033">
    <ele>1280.79309082031</ele>
    <time>2012-05-23T14:37:18Z</time>
   </trkpt>
   <trkpt lat="46.1966400146484" lon="7.34231519699097">
    <ele>1279.70690917969</ele>
    <time>2012-05-23T14:37:19Z</time>
   </trkpt>
   <trkpt lat="46.1966247558594" lon="7.34214687347412">
    <ele>1278.62072753906</ele>
    <time>2012-05-23T14:37:20Z</time>
   </trkpt>
   <trkpt lat="46.196605682373" lon="7.34197616577148">
    <ele>1277.53442382812</ele>
    <time>2012-05-23T14:37:21Z</time>
   </trkpt>
   <trkpt lat="46.1965866088867" lon="7.34180116653442">
    <ele>1276.4482421875</ele>
    <time>2012-05-23T14:37:22Z</time>
   </trkpt>
   <trkpt lat="46.1965675354004" lon="7.3416109085083">
    <ele>1275.36206054688</ele>
    <time>2012-05-23T14:37:23Z</time>
   </trkpt>
   <trkpt lat="46.1965370178223" lon="7.34143114089966">
    <ele>1274.27587890625</ele>
    <time>2012-05-23T14:37:24Z</time>
   </trkpt>
   <trkpt lat="46.1964988708496" lon="7.3412561416626">
    <ele>1273.18969726562</ele>
    <time>2012-05-23T14:37:25Z</time>
   </trkpt>
   <trkpt lat="46.1964492797852" lon="7.34108781814575">
    <ele>1272.10339355469</ele>
    <time>2012-05-23T14:37:26Z</time>
   </trkpt>
   <trkpt lat="46.1963996887207" lon="7.34092378616333">
    <ele>1271.01721191406</ele>
    <time>2012-05-23T14:37:27Z</time>
   </trkpt>
   <trkpt lat="46.1963577270508" lon="7.34075736999512">
    <ele>1269.93103027344</ele>
    <time>2012-05-23T14:37:28Z</time>
   </trkpt>
   <trkpt lat="46.1963233947754" lon="7.34058713912964">
    <ele>1268.84484863281</ele>
    <time>2012-05-23T14:37:29Z</time>
   </trkpt>
   <trkpt lat="46.1963005065918" lon="7.34039974212646">
    <ele>1267.75866699219</ele>
    <time>2012-05-23T14:37:30Z</time>
   </trkpt>
   <trkpt lat="46.1962814331055" lon="7.34022808074951">
    <ele>1266.67236328125</ele>
    <time>2012-05-23T14:37:31Z</time>
   </trkpt>
   <trkpt lat="46.1962547302246" lon="7.34005832672119">
    <ele>1265.58618164062</ele>
    <time>2012-05-23T14:37:32Z</time>
   </trkpt>
   <trkpt lat="46.196231842041" lon="7.33988571166992">
    <ele>1264.5</ele>
    <time>2012-05-23T14:37:33Z</time>
   </trkpt>
   <trkpt lat="46.1962089538574" lon="7.33971452713013">
    <ele>1263.41381835938</ele>
    <time>2012-05-23T14:37:34Z</time>
   </trkpt>
   <trkpt lat="46.1961898803711" lon="7.3395471572876">
    <ele>1262.32763671875</ele>
    <time>2012-05-23T14:37:35Z</time>
   </trkpt>
   <trkpt lat="46.1961555480957" lon="7.33937120437622">
    <ele>1261.24133300781</ele>
    <time>2012-05-23T14:37:36Z</time>
   </trkpt>
   <trkpt lat="46.1961135864258" lon="7.33920192718506">
    <ele>1260.15515136719</ele>
    <time>2012-05-23T14:37:37Z</time>
   </trkpt>
   <trkpt lat="46.1960678100586" lon="7.33903217315674">
    <ele>1259.06896972656</ele>
    <time>2012-05-23T14:37:38Z</time>
   </trkpt>
   <trkpt lat="46.1960144042969" lon="7.33886671066284">
    <ele>1257.98278808594</ele>
    <time>2012-05-23T14:37:39Z</time>
   </trkpt>
   <trkpt lat="46.1959609985352" lon="7.33870124816894">
    <ele>1256.89660644531</ele>
    <time>2012-05-23T14:37:40Z</time>
   </trkpt>
   <trkpt lat="46.1959037780762" lon="7.33853340148926">
    <ele>1255.81030273438</ele>
    <time>2012-05-23T14:37:41Z</time>
   </trkpt>
   <trkpt lat="46.1958541870117" lon="7.33835792541504">
    <ele>1254.72412109375</ele>
    <time>2012-05-23T14:37:42Z</time>
   </trkpt>
   <trkpt lat="46.1958045959473" lon="7.33818435668945">
    <ele>1253.63793945312</ele>
    <time>2012-05-23T14:37:43Z</time>
   </trkpt>
   <trkpt lat="46.1957588195801" lon="7.33800935745239">
    <ele>1252.5517578125</ele>
    <time>2012-05-23T14:37:44Z</time>
   </trkpt>
   <trkpt lat="46.1957168579102" lon="7.33783531188965">
    <ele>1251.46557617188</ele>
    <time>2012-05-23T14:37:45Z</time>
   </trkpt>
   <trkpt lat="46.195671081543" lon="7.33764934539795">
    <ele>1250.37927246094</ele>
    <time>2012-05-23T14:37:46Z</time>
   </trkpt>
   <trkpt lat="46.195629119873" lon="7.33747053146362">
    <ele>1249.29309082031</ele>
    <time>2012-05-23T14:37:47Z</time>
   </trkpt>
   <trkpt lat="46.1955795288086" lon="7.33729124069214">
    <ele>1248.20690917969</ele>
    <time>2012-05-23T14:37:48Z</time>
   </trkpt>
   <trkpt lat="46.1955337524414" lon="7.33711051940918">
    <ele>1247.12072753906</ele>
    <time>2012-05-23T14:37:49Z</time>
   </trkpt>
   <trkpt lat="46.1954879760742" lon="7.33693170547485">
    <ele>1246.03442382812</ele>
    <time>2012-05-23T14:37:50Z</time>
   </trkpt>
   <trkpt lat="46.1954460144043" lon="7.33676099777222">
    <ele>1244.9482421875</ele>
    <time>2012-05-23T14:37:51Z</time>
   </trkpt>
   <trkpt lat="46.1954002380371" lon="7.33658695220947">
    <ele>1243.86206054688</ele>
    <time>2012-05-23T14:37:52Z</time>
   </trkpt>
   <trkpt lat="46.1953506469727" lon="7.33640956878662">
    <ele>1242.77587890625</ele>
    <time>2012-05-23T14:37:53Z</time>
   </trkpt>
   <trkpt lat="46.1953086853027" lon="7.33624124526978">
    <ele>1241.68969726562</ele>
    <time>2012-05-23T14:37:54Z</time>
   </trkpt>
   <trkpt lat="46.1952629089356" lon="7.33607482910156">
    <ele>1240.60339355469</ele>
    <time>2012-05-23T14:37:55Z</time>
   </trkpt>
   <trkpt lat="46.1952209472656" lon="7.33590507507324">
    <ele>1239.51721191406</ele>
    <time>2012-05-23T14:37:56Z</time>
   </trkpt>
   <trkpt lat="46.195182800293" lon="7.33573389053345">
    <ele>1238.43103027344</ele>
    <time>2012-05-23T14:37:57Z</time>
   </trkpt>
   <trkpt lat="46.1951332092285" lon="7.33558082580566">
    <ele>1237.34484863281</ele>
    <time>2012-05-23T14:37:58Z</time>
   </trkpt>
   <trkpt lat="46.1950607299805" lon="7.33544731140137">
    <ele>1236.25866699219</ele>
    <time>2012-05-23T14:37:59Z</time>
   </trkpt>
   <trkpt lat="46.1949615478516" lon="7.33534336090088">
    <ele>1235.17236328125</ele>
    <time>2012-05-23T14:38:00Z</time>
   </trkpt>
   <trkpt lat="46.1948547363281" lon="7.33527612686157">
    <ele>1234.08618164062</ele>
    <time>2012-05-23T14:38:01Z</time>
   </trkpt>
   <trkpt lat="46.194751739502" lon="7.3352518081665">
    <ele>1233</ele>
    <time>2012-05-23T14:38:02Z</time>
   </trkpt>
   <trkpt lat="46.1946563720703" lon="7.33523750305176">
    <ele>1233</ele>
    <time>2012-05-23T14:38:03Z</time>
   </trkpt>
   <trkpt lat="46.1945381164551" lon="7.33513164520264">
    <ele>1232.17651367188</ele>
    <time>2012-05-23T14:38:05Z</time>
   </trkpt>
   <trkpt lat="46.1945571899414" lon="7.33499145507812">
    <ele>1231.35290527344</ele>
    <time>2012-05-23T14:38:07Z</time>
   </trkpt>
   <trkpt lat="46.1946105957031" lon="7.33498525619507">
    <ele>1230.94116210938</ele>
    <time>2012-05-23T14:38:08Z</time>
   </trkpt>
   <trkpt lat="46.1946678161621" lon="7.33502197265625">
    <ele>1230.52941894531</ele>
    <time>2012-05-23T14:38:09Z</time>
   </trkpt>
   <trkpt lat="46.1947174072266" lon="7.33507680892944">
    <ele>1230.11767578125</ele>
    <time>2012-05-23T14:38:10Z</time>
   </trkpt>
   <trkpt lat="46.1947746276856" lon="7.33513116836548">
    <ele>1229.70593261719</ele>
    <time>2012-05-23T14:38:11Z</time>
   </trkpt>
   <trkpt lat="46.1948356628418" lon="7.3351936340332">
    <ele>1229.29406738281</ele>
    <time>2012-05-23T14:38:12Z</time>
   </trkpt>
   <trkpt lat="46.194896697998" lon="7.33525466918945">
    <ele>1228.88232421875</ele>
    <time>2012-05-23T14:38:13Z</time>
   </trkpt>
   <trkpt lat="46.1949653625488" lon="7.33531761169434">
    <ele>1228.47058105469</ele>
    <time>2012-05-23T14:38:14Z</time>
   </trkpt>
   <trkpt lat="46.1950263977051" lon="7.33538246154785">
    <ele>1228.05883789062</ele>
    <time>2012-05-23T14:38:15Z</time>
   </trkpt>
   <trkpt lat="46.1950950622559" lon="7.33544683456421">
    <ele>1227.64709472656</ele>
    <time>2012-05-23T14:38:16Z</time>
   </trkpt>
   <trkpt lat="46.1951560974121" lon="7.33550786972046">
    <ele>1227.2353515625</ele>
    <time>2012-05-23T14:38:17Z</time>
   </trkpt>
   <trkpt lat="46.1952209472656" lon="7.33557081222534">
    <ele>1226.82348632812</ele>
    <time>2012-05-23T14:38:18Z</time>
   </trkpt>
   <trkpt lat="46.1952857971191" lon="7.33560228347778">
    <ele>1226.41174316406</ele>
    <time>2012-05-23T14:38:19Z</time>
   </trkpt>
   <trkpt lat="46.1953468322754" lon="7.33558034896851">
    <ele>1226</ele>
    <time>2012-05-23T14:38:20Z</time>
   </trkpt>
   <trkpt lat="46.1953811645508" lon="7.33550453186035">
    <ele>1226</ele>
    <time>2012-05-23T14:38:21Z</time>
   </trkpt>
   <trkpt lat="46.1953659057617" lon="7.33529710769653">
    <ele>1224.42578125</ele>
    <time>2012-05-23T14:38:23Z</time>
   </trkpt>
   <trkpt lat="46.1952743530273" lon="7.33512926101685">
    <ele>1222.8515625</ele>
    <time>2012-05-23T14:38:25Z</time>
   </trkpt>
   <trkpt lat="46.1952209472656" lon="7.33504486083984">
    <ele>1222.064453125</ele>
    <time>2012-05-23T14:38:26Z</time>
   </trkpt>
   <trkpt lat="46.1951637268066" lon="7.33495998382568">
    <ele>1221.27746582031</ele>
    <time>2012-05-23T14:38:27Z</time>
   </trkpt>
   <trkpt lat="46.1950912475586" lon="7.33488178253174">
    <ele>1220.49035644531</ele>
    <time>2012-05-23T14:38:28Z</time>
   </trkpt>
   <trkpt lat="46.1950187683106" lon="7.33481025695801">
    <ele>1219.70324707031</ele>
    <time>2012-05-23T14:38:29Z</time>
   </trkpt>
   <trkpt lat="46.194938659668" lon="7.33473443984985">
    <ele>1218.91613769531</ele>
    <time>2012-05-23T14:38:30Z</time>
   </trkpt>
   <trkpt lat="46.1948585510254" lon="7.33465623855591">
    <ele>1218.12902832031</ele>
    <time>2012-05-23T14:38:31Z</time>
   </trkpt>
   <trkpt lat="46.194766998291" lon="7.3345685005188">
    <ele>1217.34191894531</ele>
    <time>2012-05-23T14:38:32Z</time>
   </trkpt>
   <trkpt lat="46.1946792602539" lon="7.33448934555054">
    <ele>1216.55480957031</ele>
    <time>2012-05-23T14:38:33Z</time>
   </trkpt>
   <trkpt lat="46.1945877075195" lon="7.33441114425659">
    <ele>1215.76770019531</ele>
    <time>2012-05-23T14:38:34Z</time>
   </trkpt>
   <trkpt lat="46.1944961547852" lon="7.33432674407959">
    <ele>1214.98059082031</ele>
    <time>2012-05-23T14:38:35Z</time>
   </trkpt>
   <trkpt lat="46.1944007873535" lon="7.33424425125122">
    <ele>1214.19348144531</ele>
    <time>2012-05-23T14:38:36Z</time>
   </trkpt>
   <trkpt lat="46.1942977905273" lon="7.33416748046875">
    <ele>1213.40649414062</ele>
    <time>2012-05-23T14:38:37Z</time>
   </trkpt>
   <trkpt lat="46.1941909790039" lon="7.33410120010376">
    <ele>1212.61938476562</ele>
    <time>2012-05-23T14:38:38Z</time>
   </trkpt>
   <trkpt lat="46.1940765380859" lon="7.33403635025024">
    <ele>1211.83227539062</ele>
    <time>2012-05-23T14:38:39Z</time>
   </trkpt>
   <trkpt lat="46.193962097168" lon="7.33398628234863">
    <ele>1211.04516601562</ele>
    <time>2012-05-23T14:38:40Z</time>
   </trkpt>
   <trkpt lat="46.1938400268555" lon="7.33395862579346">
    <ele>1210.25805664062</ele>
    <time>2012-05-23T14:38:41Z</time>
   </trkpt>
   <trkpt lat="46.1937141418457" lon="7.33395004272461">
    <ele>1209.47094726562</ele>
    <time>2012-05-23T14:38:42Z</time>
   </trkpt>
   <trkpt lat="46.1935882568359" lon="7.33394813537598">
    <ele>1208.68383789062</ele>
    <time>2012-05-23T14:38:43Z</time>
   </trkpt>
   <trkpt lat="46.1934623718262" lon="7.33394002914429">
    <ele>1207.89672851562</ele>
    <time>2012-05-23T14:38:44Z</time>
   </trkpt>
   <trkpt lat="46.1933441162109" lon="7.33392238616943">
    <ele>1207.10961914062</ele>
    <time>2012-05-23T14:38:45Z</time>
   </trkpt>
   <trkpt lat="46.1932220458984" lon="7.33390474319458">
    <ele>1206.32250976562</ele>
    <time>2012-05-23T14:38:46Z</time>
   </trkpt>
   <trkpt lat="46.1931114196777" lon="7.33388185501099">
    <ele>1205.53552246094</ele>
    <time>2012-05-23T14:38:47Z</time>
   </trkpt>
   <trkpt lat="46.1929931640625" lon="7.33384323120117">
    <ele>1204.74841308594</ele>
    <time>2012-05-23T14:38:48Z</time>
   </trkpt>
   <trkpt lat="46.1928901672363" lon="7.3338098526001">
    <ele>1203.96130371094</ele>
    <time>2012-05-23T14:38:49Z</time>
   </trkpt>
   <trkpt lat="46.1927909851074" lon="7.3337893486023">
    <ele>1203.17419433594</ele>
    <time>2012-05-23T14:38:50Z</time>
   </trkpt>
   <trkpt lat="46.1927032470703" lon="7.33379173278809">
    <ele>1202.38708496094</ele>
    <time>2012-05-23T14:38:51Z</time>
   </trkpt>
   <trkpt lat="46.1926193237305" lon="7.33381128311157">
    <ele>1201.59997558594</ele>
    <time>2012-05-23T14:38:52Z</time>
   </trkpt>
   <trkpt lat="46.1924667358398" lon="7.33370065689087">
    <ele>1201.59997558594</ele>
    <time>2012-05-23T14:38:55Z</time>
   </trkpt>
   <trkpt lat="46.1925086975098" lon="7.33357906341553">
    <ele>1200.25451660156</ele>
    <time>2012-05-23T14:38:57Z</time>
   </trkpt>
   <trkpt lat="46.1926193237305" lon="7.33360290527344">
    <ele>1198.90905761719</ele>
    <time>2012-05-23T14:38:59Z</time>
   </trkpt>
   <trkpt lat="46.1927337646484" lon="7.3336877822876">
    <ele>1197.56359863281</ele>
    <time>2012-05-23T14:39:01Z</time>
   </trkpt>
   <trkpt lat="46.1928100585938" lon="7.3337230682373">
    <ele>1196.89086914062</ele>
    <time>2012-05-23T14:39:02Z</time>
   </trkpt>
   <trkpt lat="46.1928939819336" lon="7.33375024795532">
    <ele>1196.21813964844</ele>
    <time>2012-05-23T14:39:03Z</time>
   </trkpt>
   <trkpt lat="46.1929740905762" lon="7.33376407623291">
    <ele>1195.54541015625</ele>
    <time>2012-05-23T14:39:04Z</time>
   </trkpt>
   <trkpt lat="46.193058013916" lon="7.33376693725586">
    <ele>1194.87268066406</ele>
    <time>2012-05-23T14:39:05Z</time>
   </trkpt>
   <trkpt lat="46.1931457519531" lon="7.3337607383728">
    <ele>1194.19995117188</ele>
    <time>2012-05-23T14:39:06Z</time>
   </trkpt>
   <trkpt lat="46.193229675293" lon="7.33374786376953">
    <ele>1193.52734375</ele>
    <time>2012-05-23T14:39:07Z</time>
   </trkpt>
   <trkpt lat="46.1933212280273" lon="7.3337345123291">
    <ele>1192.85461425781</ele>
    <time>2012-05-23T14:39:08Z</time>
   </trkpt>
   <trkpt lat="46.193416595459" lon="7.33372974395752">
    <ele>1192.18188476562</ele>
    <time>2012-05-23T14:39:09Z</time>
   </trkpt>
   <trkpt lat="46.1935081481934" lon="7.33371591567993">
    <ele>1191.50915527344</ele>
    <time>2012-05-23T14:39:10Z</time>
   </trkpt>
   <trkpt lat="46.193603515625" lon="7.33367967605591">
    <ele>1190.83642578125</ele>
    <time>2012-05-23T14:39:11Z</time>
   </trkpt>
   <trkpt lat="46.1936874389648" lon="7.33363246917725">
    <ele>1190.16369628906</ele>
    <time>2012-05-23T14:39:12Z</time>
   </trkpt>
   <trkpt lat="46.1937789916992" lon="7.33356952667236">
    <ele>1189.49096679688</ele>
    <time>2012-05-23T14:39:13Z</time>
   </trkpt>
   <trkpt lat="46.1938743591309" lon="7.3335075378418">
    <ele>1188.81823730469</ele>
    <time>2012-05-23T14:39:14Z</time>
   </trkpt>
   <trkpt lat="46.193962097168" lon="7.33344984054565">
    <ele>1188.1455078125</ele>
    <time>2012-05-23T14:39:15Z</time>
   </trkpt>
   <trkpt lat="46.1940231323242" lon="7.33341026306152">
    <ele>1187.47277832031</ele>
    <time>2012-05-23T14:39:16Z</time>
   </trkpt>
   <trkpt lat="46.1940650939941" lon="7.33337640762329">
    <ele>1186.80004882812</ele>
    <time>2012-05-23T14:39:17Z</time>
   </trkpt>
   <trkpt lat="46.1941566467285" lon="7.33335304260254">
    <ele>1186.80004882812</ele>
    <time>2012-05-23T14:39:20Z</time>
   </trkpt>
   <trkpt lat="46.1942100524902" lon="7.33336973190308">
    <ele>1185.79431152344</ele>
    <time>2012-05-23T14:39:21Z</time>
   </trkpt>
   <trkpt lat="46.1943321228027" lon="7.33336210250854">
    <ele>1183.78295898438</ele>
    <time>2012-05-23T14:39:23Z</time>
   </trkpt>
   <trkpt lat="46.1944046020508" lon="7.33336448669434">
    <ele>1182.77722167969</ele>
    <time>2012-05-23T14:39:24Z</time>
   </trkpt>
   <trkpt lat="46.1944847106934" lon="7.33336114883423">
    <ele>1181.771484375</ele>
    <time>2012-05-23T14:39:25Z</time>
   </trkpt>
   <trkpt lat="46.1945724487305" lon="7.33335781097412">
    <ele>1180.76574707031</ele>
    <time>2012-05-23T14:39:26Z</time>
   </trkpt>
   <trkpt lat="46.1946563720703" lon="7.33334589004517">
    <ele>1179.76000976562</ele>
    <time>2012-05-23T14:39:27Z</time>
   </trkpt>
   <trkpt lat="46.1947402954102" lon="7.33333158493042">
    <ele>1178.75427246094</ele>
    <time>2012-05-23T14:39:28Z</time>
   </trkpt>
   <trkpt lat="46.1948318481445" lon="7.33331108093262">
    <ele>1177.74865722656</ele>
    <time>2012-05-23T14:39:29Z</time>
   </trkpt>
   <trkpt lat="46.1949272155762" lon="7.33329725265503">
    <ele>1176.74291992188</ele>
    <time>2012-05-23T14:39:30Z</time>
   </trkpt>
   <trkpt lat="46.1950263977051" lon="7.33327865600586">
    <ele>1175.73718261719</ele>
    <time>2012-05-23T14:39:31Z</time>
   </trkpt>
   <trkpt lat="46.1951293945312" lon="7.33325242996216">
    <ele>1174.7314453125</ele>
    <time>2012-05-23T14:39:32Z</time>
   </trkpt>
   <trkpt lat="46.1952362060547" lon="7.33323860168457">
    <ele>1173.72570800781</ele>
    <time>2012-05-23T14:39:33Z</time>
   </trkpt>
   <trkpt lat="46.1953506469727" lon="7.33324480056763">
    <ele>1172.71997070312</ele>
    <time>2012-05-23T14:39:34Z</time>
   </trkpt>
   <trkpt lat="46.1954498291016" lon="7.33326244354248">
    <ele>1171.71435546875</ele>
    <time>2012-05-23T14:39:35Z</time>
   </trkpt>
   <trkpt lat="46.195556640625" lon="7.33328342437744">
    <ele>1170.70861816406</ele>
    <time>2012-05-23T14:39:36Z</time>
   </trkpt>
   <trkpt lat="46.1956634521484" lon="7.3333044052124">
    <ele>1169.70288085938</ele>
    <time>2012-05-23T14:39:37Z</time>
   </trkpt>
   <trkpt lat="46.1957702636719" lon="7.33332824707031">
    <ele>1168.69714355469</ele>
    <time>2012-05-23T14:39:38Z</time>
   </trkpt>
   <trkpt lat="46.1958770751953" lon="7.33335876464844">
    <ele>1167.69140625</ele>
    <time>2012-05-23T14:39:39Z</time>
   </trkpt>
   <trkpt lat="46.1959915161133" lon="7.33337020874024">
    <ele>1166.68566894531</ele>
    <time>2012-05-23T14:39:40Z</time>
   </trkpt>
   <trkpt lat="46.1961097717285" lon="7.33338260650635">
    <ele>1165.68005371094</ele>
    <time>2012-05-23T14:39:41Z</time>
   </trkpt>
   <trkpt lat="46.196231842041" lon="7.33339405059814">
    <ele>1164.67431640625</ele>
    <time>2012-05-23T14:39:42Z</time>
   </trkpt>
   <trkpt lat="46.1963577270508" lon="7.333411693573">
    <ele>1163.66857910156</ele>
    <time>2012-05-23T14:39:43Z</time>
   </trkpt>
   <trkpt lat="46.1964797973633" lon="7.33342838287354">
    <ele>1162.66284179688</ele>
    <time>2012-05-23T14:39:44Z</time>
   </trkpt>
   <trkpt lat="46.196605682373" lon="7.33343601226807">
    <ele>1161.65710449219</ele>
    <time>2012-05-23T14:39:45Z</time>
   </trkpt>
   <trkpt lat="46.1967315673828" lon="7.33343982696533">
    <ele>1160.6513671875</ele>
    <time>2012-05-23T14:39:46Z</time>
   </trkpt>
   <trkpt lat="46.1968612670898" lon="7.33345460891724">
    <ele>1159.64575195312</ele>
    <time>2012-05-23T14:39:47Z</time>
   </trkpt>
   <trkpt lat="46.1969947814941" lon="7.33346652984619">
    <ele>1158.64001464844</ele>
    <time>2012-05-23T14:39:48Z</time>
   </trkpt>
   <trkpt lat="46.197135925293" lon="7.33348035812378">
    <ele>1157.63427734375</ele>
    <time>2012-05-23T14:39:49Z</time>
   </trkpt>
   <trkpt lat="46.1972694396973" lon="7.33350515365601">
    <ele>1156.62854003906</ele>
    <time>2012-05-23T14:39:50Z</time>
   </trkpt>
   <trkpt lat="46.1973915100098" lon="7.33355093002319">
    <ele>1155.62280273438</ele>
    <time>2012-05-23T14:39:51Z</time>
   </trkpt>
   <trkpt lat="46.1975021362305" lon="7.33362245559692">
    <ele>1154.61706542969</ele>
    <time>2012-05-23T14:39:52Z</time>
   </trkpt>
   <trkpt lat="46.1975975036621" lon="7.33370971679688">
    <ele>1153.61145019531</ele>
    <time>2012-05-23T14:39:53Z</time>
   </trkpt>
   <trkpt lat="46.1976776123047" lon="7.33381223678589">
    <ele>1152.60571289062</ele>
    <time>2012-05-23T14:39:54Z</time>
   </trkpt>
   <trkpt lat="46.1977348327637" lon="7.33392953872681">
    <ele>1151.59997558594</ele>
    <time>2012-05-23T14:39:55Z</time>
   </trkpt>
   <trkpt lat="46.1978302001953" lon="7.3341212272644">
    <ele>1151.59997558594</ele>
    <time>2012-05-23T14:39:57Z</time>
   </trkpt>
   <trkpt lat="46.1979598999023" lon="7.33414506912232">
    <ele>1149.439453125</ele>
    <time>2012-05-23T14:39:59Z</time>
   </trkpt>
   <trkpt lat="46.1980361938477" lon="7.33398771286011">
    <ele>1147.27905273438</ele>
    <time>2012-05-23T14:40:01Z</time>
   </trkpt>
   <trkpt lat="46.1979637145996" lon="7.33380556106567">
    <ele>1145.11853027344</ele>
    <time>2012-05-23T14:40:03Z</time>
   </trkpt>
   <trkpt lat="46.1978149414062" lon="7.33351945877075">
    <ele>1141.87780761719</ele>
    <time>2012-05-23T14:40:06Z</time>
   </trkpt>
   <trkpt lat="46.1977615356445" lon="7.33342027664185">
    <ele>1140.79760742188</ele>
    <time>2012-05-23T14:40:07Z</time>
   </trkpt>
   <trkpt lat="46.1977005004883" lon="7.33331537246704">
    <ele>1139.71728515625</ele>
    <time>2012-05-23T14:40:08Z</time>
   </trkpt>
   <trkpt lat="46.197639465332" lon="7.33320331573486">
    <ele>1138.63708496094</ele>
    <time>2012-05-23T14:40:09Z</time>
   </trkpt>
   <trkpt lat="46.1975708007812" lon="7.33309507369995">
    <ele>1137.55688476562</ele>
    <time>2012-05-23T14:40:10Z</time>
   </trkpt>
   <trkpt lat="46.1974868774414" lon="7.33299779891968">
    <ele>1136.47668457031</ele>
    <time>2012-05-23T14:40:11Z</time>
   </trkpt>
   <trkpt lat="46.1973915100098" lon="7.3329119682312">
    <ele>1135.39636230469</ele>
    <time>2012-05-23T14:40:12Z</time>
   </trkpt>
   <trkpt lat="46.1972808837891" lon="7.33283233642578">
    <ele>1134.31616210938</ele>
    <time>2012-05-23T14:40:13Z</time>
   </trkpt>
   <trkpt lat="46.1971740722656" lon="7.33276510238648">
    <ele>1133.23596191406</ele>
    <time>2012-05-23T14:40:14Z</time>
   </trkpt>
   <trkpt lat="46.1970634460449" lon="7.33269691467285">
    <ele>1132.15563964844</ele>
    <time>2012-05-23T14:40:15Z</time>
   </trkpt>
   <trkpt lat="46.1969451904297" lon="7.33263635635376">
    <ele>1131.07543945312</ele>
    <time>2012-05-23T14:40:16Z</time>
   </trkpt>
   <trkpt lat="46.1968231201172" lon="7.33257913589478">
    <ele>1129.99523925781</ele>
    <time>2012-05-23T14:40:17Z</time>
   </trkpt>
   <trkpt lat="46.196704864502" lon="7.33252191543579">
    <ele>1128.91491699219</ele>
    <time>2012-05-23T14:40:18Z</time>
   </trkpt>
   <trkpt lat="46.1965789794922" lon="7.33246564865112">
    <ele>1127.83471679688</ele>
    <time>2012-05-23T14:40:19Z</time>
   </trkpt>
   <trkpt lat="46.1964492797852" lon="7.33240985870361">
    <ele>1126.75451660156</ele>
    <time>2012-05-23T14:40:20Z</time>
   </trkpt>
   <trkpt lat="46.1963233947754" lon="7.33236789703369">
    <ele>1125.67419433594</ele>
    <time>2012-05-23T14:40:21Z</time>
   </trkpt>
   <trkpt lat="46.1962013244629" lon="7.33233690261841">
    <ele>1124.59399414062</ele>
    <time>2012-05-23T14:40:22Z</time>
   </trkpt>
   <trkpt lat="46.1960830688477" lon="7.33234167098999">
    <ele>1123.51379394531</ele>
    <time>2012-05-23T14:40:23Z</time>
   </trkpt>
   <trkpt lat="46.1959686279297" lon="7.3323712348938">
    <ele>1122.43347167969</ele>
    <time>2012-05-23T14:40:24Z</time>
   </trkpt>
   <trkpt lat="46.1958427429199" lon="7.33236598968506">
    <ele>1121.35327148438</ele>
    <time>2012-05-23T14:40:25Z</time>
   </trkpt>
   <trkpt lat="46.1957206726074" lon="7.33231496810913">
    <ele>1120.27307128906</ele>
    <time>2012-05-23T14:40:26Z</time>
   </trkpt>
   <trkpt lat="46.1955986022949" lon="7.33224248886108">
    <ele>1119.19274902344</ele>
    <time>2012-05-23T14:40:27Z</time>
   </trkpt>
   <trkpt lat="46.1954803466797" lon="7.33216714859009">
    <ele>1118.11254882812</ele>
    <time>2012-05-23T14:40:28Z</time>
   </trkpt>
   <trkpt lat="46.1953582763672" lon="7.3320894241333">
    <ele>1117.03234863281</ele>
    <time>2012-05-23T14:40:29Z</time>
   </trkpt>
   <trkpt lat="46.1952323913574" lon="7.33200693130493">
    <ele>1115.95202636719</ele>
    <time>2012-05-23T14:40:30Z</time>
   </trkpt>
   <trkpt lat="46.1951103210449" lon="7.33191633224487">
    <ele>1114.87182617188</ele>
    <time>2012-05-23T14:40:31Z</time>
   </trkpt>
   <trkpt lat="46.1949882507324" lon="7.33182287216186">
    <ele>1113.79162597656</ele>
    <time>2012-05-23T14:40:32Z</time>
   </trkpt>
   <trkpt lat="46.1948738098144" lon="7.33172941207886">
    <ele>1112.71130371094</ele>
    <time>2012-05-23T14:40:33Z</time>
   </trkpt>
   <trkpt lat="46.1947746276856" lon="7.33164405822754">
    <ele>1111.63110351562</ele>
    <time>2012-05-23T14:40:34Z</time>
   </trkpt>
   <trkpt lat="46.1946678161621" lon="7.33157587051392">
    <ele>1110.55090332031</ele>
    <time>2012-05-23T14:40:35Z</time>
   </trkpt>
   <trkpt lat="46.1945457458496" lon="7.33153486251831">
    <ele>1109.470703125</ele>
    <time>2012-05-23T14:40:36Z</time>
   </trkpt>
   <trkpt lat="46.1944198608398" lon="7.33153676986694">
    <ele>1108.39038085938</ele>
    <time>2012-05-23T14:40:37Z</time>
   </trkpt>
   <trkpt lat="46.1942901611328" lon="7.33155632019043">
    <ele>1107.31018066406</ele>
    <time>2012-05-23T14:40:38Z</time>
   </trkpt>
   <trkpt lat="46.194164276123" lon="7.33156871795654">
    <ele>1106.22998046875</ele>
    <time>2012-05-23T14:40:39Z</time>
   </trkpt>
   <trkpt lat="46.1940307617188" lon="7.33158206939697">
    <ele>1105.14965820312</ele>
    <time>2012-05-23T14:40:40Z</time>
   </trkpt>
   <trkpt lat="46.1938972473144" lon="7.33159255981445">
    <ele>1104.06945800781</ele>
    <time>2012-05-23T14:40:41Z</time>
   </trkpt>
   <trkpt lat="46.1937637329102" lon="7.33160495758057">
    <ele>1102.9892578125</ele>
    <time>2012-05-23T14:40:42Z</time>
   </trkpt>
   <trkpt lat="46.1936302185059" lon="7.33163356781006">
    <ele>1101.90893554688</ele>
    <time>2012-05-23T14:40:43Z</time>
   </trkpt>
   <trkpt lat="46.1935043334961" lon="7.3316855430603">
    <ele>1100.82873535156</ele>
    <time>2012-05-23T14:40:44Z</time>
   </trkpt>
   <trkpt lat="46.1933784484863" lon="7.33174228668213">
    <ele>1099.74853515625</ele>
    <time>2012-05-23T14:40:45Z</time>
   </trkpt>
   <trkpt lat="46.1932525634766" lon="7.33178901672363">
    <ele>1098.66821289062</ele>
    <time>2012-05-23T14:40:46Z</time>
   </trkpt>
   <trkpt lat="46.1931304931641" lon="7.33181238174438">
    <ele>1097.58801269531</ele>
    <time>2012-05-23T14:40:47Z</time>
   </trkpt>
   <trkpt lat="46.193000793457" lon="7.33180284500122">
    <ele>1096.5078125</ele>
    <time>2012-05-23T14:40:48Z</time>
   </trkpt>
   <trkpt lat="46.1928787231445" lon="7.33175277709961">
    <ele>1095.42749023438</ele>
    <time>2012-05-23T14:40:49Z</time>
   </trkpt>
   <trkpt lat="46.1927528381348" lon="7.33167457580566">
    <ele>1094.34729003906</ele>
    <time>2012-05-23T14:40:50Z</time>
   </trkpt>
   <trkpt lat="46.1926345825195" lon="7.33157396316528">
    <ele>1093.26708984375</ele>
    <time>2012-05-23T14:40:51Z</time>
   </trkpt>
   <trkpt lat="46.1925354003906" lon="7.33148431777954">
    <ele>1092.18676757812</ele>
    <time>2012-05-23T14:40:52Z</time>
   </trkpt>
   <trkpt lat="46.1924247741699" lon="7.33142518997192">
    <ele>1091.10656738281</ele>
    <time>2012-05-23T14:40:53Z</time>
   </trkpt>
   <trkpt lat="46.1923141479492" lon="7.33140563964844">
    <ele>1090.0263671875</ele>
    <time>2012-05-23T14:40:54Z</time>
   </trkpt>
   <trkpt lat="46.1921920776367" lon="7.33143138885498">
    <ele>1088.94604492188</ele>
    <time>2012-05-23T14:40:55Z</time>
   </trkpt>
   <trkpt lat="46.1920700073242" lon="7.33148050308228">
    <ele>1087.86584472656</ele>
    <time>2012-05-23T14:40:56Z</time>
   </trkpt>
   <trkpt lat="46.1919441223144" lon="7.33151149749756">
    <ele>1086.78564453125</ele>
    <time>2012-05-23T14:40:57Z</time>
   </trkpt>
   <trkpt lat="46.1918106079102" lon="7.33150577545166">
    <ele>1085.70532226562</ele>
    <time>2012-05-23T14:40:58Z</time>
   </trkpt>
   <trkpt lat="46.1916770935059" lon="7.33147382736206">
    <ele>1084.62512207031</ele>
    <time>2012-05-23T14:40:59Z</time>
   </trkpt>
   <trkpt lat="46.1915588378906" lon="7.33148050308228">
    <ele>1083.544921875</ele>
    <time>2012-05-23T14:41:00Z</time>
   </trkpt>
   <trkpt lat="46.1914443969727" lon="7.33151435852051">
    <ele>1082.46459960938</ele>
    <time>2012-05-23T14:41:01Z</time>
   </trkpt>
   <trkpt lat="46.1913261413574" lon="7.33150768280029">
    <ele>1081.38439941406</ele>
    <time>2012-05-23T14:41:02Z</time>
   </trkpt>
   <trkpt lat="46.191219329834" lon="7.3314380645752">
    <ele>1080.30419921875</ele>
    <time>2012-05-23T14:41:03Z</time>
   </trkpt>
   <trkpt lat="46.1911277770996" lon="7.33133363723755">
    <ele>1079.22399902344</ele>
    <time>2012-05-23T14:41:04Z</time>
   </trkpt>
   <trkpt lat="46.1910285949707" lon="7.33123397827148">
    <ele>1078.14367675781</ele>
    <time>2012-05-23T14:41:05Z</time>
   </trkpt>
   <trkpt lat="46.1909255981445" lon="7.33113956451416">
    <ele>1077.0634765625</ele>
    <time>2012-05-23T14:41:06Z</time>
   </trkpt>
   <trkpt lat="46.1908149719238" lon="7.33104753494263">
    <ele>1075.98327636719</ele>
    <time>2012-05-23T14:41:07Z</time>
   </trkpt>
   <trkpt lat="46.1907119750977" lon="7.33096694946289">
    <ele>1074.90295410156</ele>
    <time>2012-05-23T14:41:08Z</time>
   </trkpt>
   <trkpt lat="46.1905975341797" lon="7.33092641830444">
    <ele>1073.82275390625</ele>
    <time>2012-05-23T14:41:09Z</time>
   </trkpt>
   <trkpt lat="46.1904754638672" lon="7.33092594146728">
    <ele>1072.74255371094</ele>
    <time>2012-05-23T14:41:10Z</time>
   </trkpt>
   <trkpt lat="46.1903457641602" lon="7.33095741271973">
    <ele>1071.66223144531</ele>
    <time>2012-05-23T14:41:11Z</time>
   </trkpt>
   <trkpt lat="46.1902198791504" lon="7.33099269866943">
    <ele>1070.58203125</ele>
    <time>2012-05-23T14:41:12Z</time>
   </trkpt>
   <trkpt lat="46.1900939941406" lon="7.3310112953186">
    <ele>1069.50183105469</ele>
    <time>2012-05-23T14:41:13Z</time>
   </trkpt>
   <trkpt lat="46.1899871826172" lon="7.33100700378418">
    <ele>1068.42150878906</ele>
    <time>2012-05-23T14:41:14Z</time>
   </trkpt>
   <trkpt lat="46.1898918151856" lon="7.33096361160278">
    <ele>1067.34130859375</ele>
    <time>2012-05-23T14:41:15Z</time>
   </trkpt>
   <trkpt lat="46.1898002624512" lon="7.33087396621704">
    <ele>1066.26110839844</ele>
    <time>2012-05-23T14:41:16Z</time>
   </trkpt>
   <trkpt lat="46.1897354125977" lon="7.33073997497559">
    <ele>1065.18078613281</ele>
    <time>2012-05-23T14:41:17Z</time>
   </trkpt>
   <trkpt lat="46.1896743774414" lon="7.33061361312866">
    <ele>1064.1005859375</ele>
    <time>2012-05-23T14:41:18Z</time>
   </trkpt>
   <trkpt lat="46.1895866394043" lon="7.3305196762085">
    <ele>1063.02038574219</ele>
    <time>2012-05-23T14:41:19Z</time>
   </trkpt>
   <trkpt lat="46.1894874572754" lon="7.33045101165772">
    <ele>1061.94006347656</ele>
    <time>2012-05-23T14:41:20Z</time>
   </trkpt>
   <trkpt lat="46.1893844604492" lon="7.33041381835938">
    <ele>1060.85986328125</ele>
    <time>2012-05-23T14:41:21Z</time>
   </trkpt>
   <trkpt lat="46.1892700195312" lon="7.33042097091675">
    <ele>1059.77966308594</ele>
    <time>2012-05-23T14:41:22Z</time>
   </trkpt>
   <trkpt lat="46.1891555786133" lon="7.33046865463257">
    <ele>1058.69934082031</ele>
    <time>2012-05-23T14:41:23Z</time>
   </trkpt>
   <trkpt lat="46.1890449523926" lon="7.33053255081177">
    <ele>1057.619140625</ele>
    <time>2012-05-23T14:41:24Z</time>
   </trkpt>
   <trkpt lat="46.1889381408691" lon="7.33060359954834">
    <ele>1056.53894042969</ele>
    <time>2012-05-23T14:41:25Z</time>
   </trkpt>
   <trkpt lat="46.1888275146484" lon="7.33068180084228">
    <ele>1055.45861816406</ele>
    <time>2012-05-23T14:41:26Z</time>
   </trkpt>
   <trkpt lat="46.1887092590332" lon="7.33074808120728">
    <ele>1054.37841796875</ele>
    <time>2012-05-23T14:41:27Z</time>
   </trkpt>
   <trkpt lat="46.188591003418" lon="7.33079385757446">
    <ele>1053.29821777344</ele>
    <time>2012-05-23T14:41:28Z</time>
   </trkpt>
   <trkpt lat="46.1884765625" lon="7.33081483840942">
    <ele>1052.21801757812</ele>
    <time>2012-05-23T14:41:29Z</time>
   </trkpt>
   <trkpt lat="46.1883506774902" lon="7.33078145980835">
    <ele>1051.1376953125</ele>
    <time>2012-05-23T14:41:30Z</time>
   </trkpt>
   <trkpt lat="46.1882362365723" lon="7.33070802688599">
    <ele>1050.05749511719</ele>
    <time>2012-05-23T14:41:31Z</time>
   </trkpt>
   <trkpt lat="46.1881256103516" lon="7.33061790466309">
    <ele>1048.97729492188</ele>
    <time>2012-05-23T14:41:32Z</time>
   </trkpt>
   <trkpt lat="46.1880149841309" lon="7.33053159713745">
    <ele>1047.89697265625</ele>
    <time>2012-05-23T14:41:33Z</time>
   </trkpt>
   <trkpt lat="46.1879005432129" lon="7.33044242858887">
    <ele>1046.81677246094</ele>
    <time>2012-05-23T14:41:34Z</time>
   </trkpt>
   <trkpt lat="46.1877899169922" lon="7.3303542137146">
    <ele>1045.73657226562</ele>
    <time>2012-05-23T14:41:35Z</time>
   </trkpt>
   <trkpt lat="46.1876754760742" lon="7.33029460906982">
    <ele>1044.65625</ele>
    <time>2012-05-23T14:41:36Z</time>
   </trkpt>
   <trkpt lat="46.187557220459" lon="7.33027410507202">
    <ele>1043.57604980469</ele>
    <time>2012-05-23T14:41:37Z</time>
   </trkpt>
   <trkpt lat="46.1874237060547" lon="7.33027410507202">
    <ele>1042.49584960938</ele>
    <time>2012-05-23T14:41:38Z</time>
   </trkpt>
   <trkpt lat="46.1873054504394" lon="7.33025312423706">
    <ele>1041.41552734375</ele>
    <time>2012-05-23T14:41:39Z</time>
   </trkpt>
   <trkpt lat="46.1871871948242" lon="7.33019876480102">
    <ele>1040.33532714844</ele>
    <time>2012-05-23T14:41:40Z</time>
   </trkpt>
   <trkpt lat="46.187068939209" lon="7.33011674880982">
    <ele>1039.25512695312</ele>
    <time>2012-05-23T14:41:41Z</time>
   </trkpt>
   <trkpt lat="46.1869583129883" lon="7.33003520965576">
    <ele>1038.1748046875</ele>
    <time>2012-05-23T14:41:42Z</time>
   </trkpt>
   <trkpt lat="46.1868438720703" lon="7.32995986938476">
    <ele>1037.09460449219</ele>
    <time>2012-05-23T14:41:43Z</time>
   </trkpt>
   <trkpt lat="46.1867294311523" lon="7.32989549636841">
    <ele>1036.01440429688</ele>
    <time>2012-05-23T14:41:44Z</time>
   </trkpt>
   <trkpt lat="46.1866073608398" lon="7.32985353469849">
    <ele>1034.93408203125</ele>
    <time>2012-05-23T14:41:45Z</time>
   </trkpt>
   <trkpt lat="46.1864891052246" lon="7.32985162734985">
    <ele>1033.85388183594</ele>
    <time>2012-05-23T14:41:46Z</time>
   </trkpt>
   <trkpt lat="46.1863708496094" lon="7.3298773765564">
    <ele>1032.77368164062</ele>
    <time>2012-05-23T14:41:47Z</time>
   </trkpt>
   <trkpt lat="46.1862525939941" lon="7.32988691329956">
    <ele>1031.693359375</ele>
    <time>2012-05-23T14:41:48Z</time>
   </trkpt>
   <trkpt lat="46.1861419677734" lon="7.32987117767334">
    <ele>1030.61315917969</ele>
    <time>2012-05-23T14:41:49Z</time>
   </trkpt>
   <trkpt lat="46.1860427856445" lon="7.3298225402832">
    <ele>1029.53295898438</ele>
    <time>2012-05-23T14:41:50Z</time>
   </trkpt>
   <trkpt lat="46.1859550476074" lon="7.32972574234009">
    <ele>1028.45263671875</ele>
    <time>2012-05-23T14:41:51Z</time>
   </trkpt>
   <trkpt lat="46.185905456543" lon="7.32958269119263">
    <ele>1027.37243652344</ele>
    <time>2012-05-23T14:41:52Z</time>
   </trkpt>
   <trkpt lat="46.1858863830566" lon="7.3294267654419">
    <ele>1026.29223632812</ele>
    <time>2012-05-23T14:41:53Z</time>
   </trkpt>
   <trkpt lat="46.1858940124512" lon="7.32926607131958">
    <ele>1025.21203613281</ele>
    <time>2012-05-23T14:41:54Z</time>
   </trkpt>
   <trkpt lat="46.1859016418457" lon="7.32910203933716">
    <ele>1024.13171386719</ele>
    <time>2012-05-23T14:41:55Z</time>
   </trkpt>
   <trkpt lat="46.1859092712402" lon="7.32892990112305">
    <ele>1023.05151367188</ele>
    <time>2012-05-23T14:41:56Z</time>
   </trkpt>
   <trkpt lat="46.1859130859375" lon="7.32875680923462">
    <ele>1021.97125244141</ele>
    <time>2012-05-23T14:41:57Z</time>
   </trkpt>
   <trkpt lat="46.1859245300293" lon="7.32857751846314">
    <ele>1020.89099121094</ele>
    <time>2012-05-23T14:41:58Z</time>
   </trkpt>
   <trkpt lat="46.1859474182129" lon="7.32839822769165">
    <ele>1019.81079101562</ele>
    <time>2012-05-23T14:41:59Z</time>
   </trkpt>
   <trkpt lat="46.1859893798828" lon="7.32821178436279">
    <ele>1018.73052978516</ele>
    <time>2012-05-23T14:42:00Z</time>
   </trkpt>
   <trkpt lat="46.1860389709473" lon="7.32803297042847">
    <ele>1017.65032958984</ele>
    <time>2012-05-23T14:42:01Z</time>
   </trkpt>
   <trkpt lat="46.1860847473144" lon="7.32786893844604">
    <ele>1016.57006835938</ele>
    <time>2012-05-23T14:42:02Z</time>
   </trkpt>
   <trkpt lat="46.186149597168" lon="7.32773780822754">
    <ele>1015.48980712891</ele>
    <time>2012-05-23T14:42:03Z</time>
   </trkpt>
   <trkpt lat="46.186222076416" lon="7.32762622833252">
    <ele>1014.40960693359</ele>
    <time>2012-05-23T14:42:04Z</time>
   </trkpt>
   <trkpt lat="46.1862716674805" lon="7.32750034332275">
    <ele>1013.32934570312</ele>
    <time>2012-05-23T14:42:05Z</time>
   </trkpt>
   <trkpt lat="46.1862945556641" lon="7.32735586166382">
    <ele>1012.24908447266</ele>
    <time>2012-05-23T14:42:06Z</time>
   </trkpt>
   <trkpt lat="46.1862869262695" lon="7.32720851898193">
    <ele>1011.16888427734</ele>
    <time>2012-05-23T14:42:07Z</time>
   </trkpt>
   <trkpt lat="46.1862564086914" lon="7.32706594467163">
    <ele>1010.08862304688</ele>
    <time>2012-05-23T14:42:08Z</time>
   </trkpt>
   <trkpt lat="46.186206817627" lon="7.32694959640503">
    <ele>1009.00836181641</ele>
    <time>2012-05-23T14:42:09Z</time>
   </trkpt>
   <trkpt lat="46.1861267089844" lon="7.32686758041382">
    <ele>1007.92816162109</ele>
    <time>2012-05-23T14:42:10Z</time>
   </trkpt>
   <trkpt lat="46.1860313415527" lon="7.3268232345581">
    <ele>1006.84790039062</ele>
    <time>2012-05-23T14:42:11Z</time>
   </trkpt>
   <trkpt lat="46.1859359741211" lon="7.32676887512207">
    <ele>1005.76770019531</ele>
    <time>2012-05-23T14:42:12Z</time>
   </trkpt>
   <trkpt lat="46.1858520507812" lon="7.3266749382019">
    <ele>1004.68743896484</ele>
    <time>2012-05-23T14:42:13Z</time>
   </trkpt>
   <trkpt lat="46.1857681274414" lon="7.32659101486206">
    <ele>1003.60717773438</ele>
    <time>2012-05-23T14:42:14Z</time>
   </trkpt>
   <trkpt lat="46.1856689453125" lon="7.32654666900635">
    <ele>1002.52697753906</ele>
    <time>2012-05-23T14:42:15Z</time>
   </trkpt>
   <trkpt lat="46.1855697631836" lon="7.32655954360962">
    <ele>1001.44671630859</ele>
    <time>2012-05-23T14:42:16Z</time>
   </trkpt>
   <trkpt lat="46.1854782104492" lon="7.3266167640686">
    <ele>1000.36645507812</ele>
    <time>2012-05-23T14:42:17Z</time>
   </trkpt>
   <trkpt lat="46.1853904724121" lon="7.32664489746094">
    <ele>999.286254882812</ele>
    <time>2012-05-23T14:42:18Z</time>
   </trkpt>
   <trkpt lat="46.185302734375" lon="7.32663249969482">
    <ele>998.205993652344</ele>
    <time>2012-05-23T14:42:19Z</time>
   </trkpt>
   <trkpt lat="46.1852149963379" lon="7.32656621932983">
    <ele>997.125732421875</ele>
    <time>2012-05-23T14:42:20Z</time>
   </trkpt>
   <trkpt lat="46.1851272583008" lon="7.32647180557251">
    <ele>996.045532226562</ele>
    <time>2012-05-23T14:42:21Z</time>
   </trkpt>
   <trkpt lat="46.18505859375" lon="7.32637548446655">
    <ele>994.965270996094</ele>
    <time>2012-05-23T14:42:22Z</time>
   </trkpt>
   <trkpt lat="46.1849632263184" lon="7.32631206512451">
    <ele>993.885009765625</ele>
    <time>2012-05-23T14:42:23Z</time>
   </trkpt>
   <trkpt lat="46.1848564147949" lon="7.32630109786987">
    <ele>992.804809570312</ele>
    <time>2012-05-23T14:42:24Z</time>
   </trkpt>
   <trkpt lat="46.1847496032715" lon="7.32630395889282">
    <ele>991.724548339844</ele>
    <time>2012-05-23T14:42:25Z</time>
   </trkpt>
   <trkpt lat="46.1846389770508" lon="7.32630252838135">
    <ele>990.644348144531</ele>
    <time>2012-05-23T14:42:26Z</time>
   </trkpt>
   <trkpt lat="46.1845207214356" lon="7.32629680633545">
    <ele>989.564086914062</ele>
    <time>2012-05-23T14:42:27Z</time>
   </trkpt>
   <trkpt lat="46.1844139099121" lon="7.32627964019775">
    <ele>988.483825683594</ele>
    <time>2012-05-23T14:42:28Z</time>
   </trkpt>
   <trkpt lat="46.1843070983887" lon="7.32622861862183">
    <ele>987.403625488281</ele>
    <time>2012-05-23T14:42:29Z</time>
   </trkpt>
   <trkpt lat="46.1842079162598" lon="7.3261284828186">
    <ele>986.323364257812</ele>
    <time>2012-05-23T14:42:30Z</time>
   </trkpt>
   <trkpt lat="46.1841239929199" lon="7.32600784301758">
    <ele>985.243103027344</ele>
    <time>2012-05-23T14:42:31Z</time>
   </trkpt>
   <trkpt lat="46.1840286254883" lon="7.32591009140015">
    <ele>984.162902832031</ele>
    <time>2012-05-23T14:42:32Z</time>
   </trkpt>
   <trkpt lat="46.1839179992676" lon="7.32584571838379">
    <ele>983.082641601562</ele>
    <time>2012-05-23T14:42:33Z</time>
   </trkpt>
   <trkpt lat="46.1837921142578" lon="7.3258171081543">
    <ele>982.002380371094</ele>
    <time>2012-05-23T14:42:34Z</time>
   </trkpt>
   <trkpt lat="46.183666229248" lon="7.32578039169312">
    <ele>980.922180175781</ele>
    <time>2012-05-23T14:42:35Z</time>
   </trkpt>
   <trkpt lat="46.1835441589356" lon="7.32572603225708">
    <ele>979.841918945312</ele>
    <time>2012-05-23T14:42:36Z</time>
   </trkpt>
   <trkpt lat="46.1834182739258" lon="7.32564735412598">
    <ele>978.761657714844</ele>
    <time>2012-05-23T14:42:37Z</time>
   </trkpt>
   <trkpt lat="46.183292388916" lon="7.32556009292602">
    <ele>977.681457519531</ele>
    <time>2012-05-23T14:42:38Z</time>
   </trkpt>
   <trkpt lat="46.183162689209" lon="7.32550287246704">
    <ele>976.601196289062</ele>
    <time>2012-05-23T14:42:39Z</time>
   </trkpt>
   <trkpt lat="46.1830291748047" lon="7.32546710968018">
    <ele>975.52099609375</ele>
    <time>2012-05-23T14:42:40Z</time>
   </trkpt>
   <trkpt lat="46.1829071044922" lon="7.32545614242554">
    <ele>974.440734863281</ele>
    <time>2012-05-23T14:42:41Z</time>
   </trkpt>
   <trkpt lat="46.1827926635742" lon="7.32548666000366">
    <ele>973.360473632812</ele>
    <time>2012-05-23T14:42:42Z</time>
   </trkpt>
   <trkpt lat="46.1826934814453" lon="7.32555055618286">
    <ele>972.2802734375</ele>
    <time>2012-05-23T14:42:43Z</time>
   </trkpt>
   <trkpt lat="46.1826210021973" lon="7.32563304901123">
    <ele>971.200012207031</ele>
    <time>2012-05-23T14:42:44Z</time>
   </trkpt>
   <trkpt lat="46.1825408935547" lon="7.32570362091064">
    <ele>971.200012207031</ele>
    <time>2012-05-23T14:42:45Z</time>
   </trkpt>
   <trkpt lat="46.1824607849121" lon="7.32571697235107">
    <ele>971.274108886719</ele>
    <time>2012-05-23T14:42:46Z</time>
   </trkpt>
   <trkpt lat="46.1823463439941" lon="7.32562112808228">
    <ele>971.422241210938</ele>
    <time>2012-05-23T14:42:48Z</time>
   </trkpt>
   <trkpt lat="46.1822776794434" lon="7.32553911209106">
    <ele>971.570373535156</ele>
    <time>2012-05-23T14:42:50Z</time>
   </trkpt>
   <trkpt lat="46.1822776794434" lon="7.3254885673523">
    <ele>971.644470214844</ele>
    <time>2012-05-23T14:42:51Z</time>
   </trkpt>
   <trkpt lat="46.1821937561035" lon="7.32543087005615">
    <ele>971.792602539062</ele>
    <time>2012-05-23T14:42:53Z</time>
   </trkpt>
   <trkpt lat="46.1821594238281" lon="7.32541847229004">
    <ele>971.86669921875</ele>
    <time>2012-05-23T14:42:54Z</time>
   </trkpt>
   <trkpt lat="46.1820945739746" lon="7.32538604736328">
    <ele>972.014831542969</ele>
    <time>2012-05-23T14:42:56Z</time>
   </trkpt>
   <trkpt lat="46.1820297241211" lon="7.3253345489502">
    <ele>972.162963867188</ele>
    <time>2012-05-23T14:42:58Z</time>
   </trkpt>
   <trkpt lat="46.1820030212402" lon="7.32529926300049">
    <ele>972.237060546875</ele>
    <time>2012-05-23T14:42:59Z</time>
   </trkpt>
   <trkpt lat="46.181941986084" lon="7.32516098022461">
    <ele>972.459289550781</ele>
    <time>2012-05-23T14:43:02Z</time>
   </trkpt>
   <trkpt lat="46.1819114685059" lon="7.32506704330444">
    <ele>972.607421875</ele>
    <time>2012-05-23T14:43:04Z</time>
   </trkpt>
   <trkpt lat="46.1818733215332" lon="7.32485866546631">
    <ele>972.903686523438</ele>
    <time>2012-05-23T14:43:08Z</time>
   </trkpt>
   <trkpt lat="46.1818580627441" lon="7.32480764389038">
    <ele>972.977783203125</ele>
    <time>2012-05-23T14:43:09Z</time>
   </trkpt>
   <trkpt lat="46.1818466186523" lon="7.32475471496582">
    <ele>973.051879882812</ele>
    <time>2012-05-23T14:43:10Z</time>
   </trkpt>
   <trkpt lat="46.1818351745606" lon="7.32470321655274">
    <ele>973.125915527344</ele>
    <time>2012-05-23T14:43:11Z</time>
   </trkpt>
   <trkpt lat="46.1818199157715" lon="7.3246545791626">
    <ele>973.200012207031</ele>
    <time>2012-05-23T14:43:12Z</time>
   </trkpt>
   <trkpt lat="46.1817779541016" lon="7.32445669174194">
    <ele>973.200012207031</ele>
    <time>2012-05-23T14:43:16Z</time>
   </trkpt>
   <trkpt lat="46.181770324707" lon="7.32440662384033">
    <ele>973.475036621094</ele>
    <time>2012-05-23T14:43:17Z</time>
   </trkpt>
   <trkpt lat="46.1817321777344" lon="7.32425308227539">
    <ele>974.300048828125</ele>
    <time>2012-05-23T14:43:20Z</time>
   </trkpt>
   <trkpt lat="46.1817169189453" lon="7.32420301437378">
    <ele>974.575012207031</ele>
    <time>2012-05-23T14:43:21Z</time>
   </trkpt>
   <trkpt lat="46.1817016601562" lon="7.32415199279785">
    <ele>974.850036621094</ele>
    <time>2012-05-23T14:43:22Z</time>
   </trkpt>
   <trkpt lat="46.1816787719727" lon="7.32411670684814">
    <ele>975.125</ele>
    <time>2012-05-23T14:43:23Z</time>
   </trkpt>
   <trkpt lat="46.1816520690918" lon="7.32406854629517">
    <ele>975.400024414062</ele>
    <time>2012-05-23T14:43:24Z</time>
   </trkpt>
   <trkpt lat="46.181583404541" lon="7.32386875152588">
    <ele>975.400024414062</ele>
    <time>2012-05-23T14:43:28Z</time>
   </trkpt>
   <trkpt lat="46.1814613342285" lon="7.32340002059936">
    <ele>975.900024414062</ele>
    <time>2012-05-23T14:43:36Z</time>
   </trkpt>
   <trkpt lat="46.1814308166504" lon="7.3232045173645">
    <ele>976.087524414062</ele>
    <time>2012-05-23T14:43:39Z</time>
   </trkpt>
   <trkpt lat="46.1814422607422" lon="7.32309055328369">
    <ele>976.212524414062</ele>
    <time>2012-05-23T14:43:41Z</time>
   </trkpt>
   <trkpt lat="46.1815605163574" lon="7.32298231124878">
    <ele>976.400024414062</ele>
    <time>2012-05-23T14:43:44Z</time>
   </trkpt>
   <trkpt lat="46.1816024780273" lon="7.32295036315918">
    <ele>976.462524414062</ele>
    <time>2012-05-23T14:43:45Z</time>
   </trkpt>
   <trkpt lat="46.1818351745606" lon="7.32280921936035">
    <ele>976.775024414062</ele>
    <time>2012-05-23T14:43:50Z</time>
   </trkpt>
   <trkpt lat="46.1821022033691" lon="7.32271718978882">
    <ele>977.150024414062</ele>
    <time>2012-05-23T14:43:56Z</time>
   </trkpt>
   <trkpt lat="46.1821479797363" lon="7.3227162361145">
    <ele>977.212524414062</ele>
    <time>2012-05-23T14:43:57Z</time>
   </trkpt>
   <trkpt lat="46.1821975708008" lon="7.32271385192871">
    <ele>977.275024414062</ele>
    <time>2012-05-23T14:43:58Z</time>
   </trkpt>
   <trkpt lat="46.182243347168" lon="7.32271862030029">
    <ele>977.337524414062</ele>
    <time>2012-05-23T14:43:59Z</time>
   </trkpt>
   <trkpt lat="46.1822929382324" lon="7.32272958755493">
    <ele>977.400024414062</ele>
    <time>2012-05-23T14:44:00Z</time>
   </trkpt>
   <trkpt lat="46.1823654174805" lon="7.32279205322266">
    <ele>977.400024414062</ele>
    <time>2012-05-23T14:44:02Z</time>
   </trkpt>
   <trkpt lat="46.1824417114258" lon="7.3228702545166">
    <ele>977.799987792969</ele>
    <time>2012-05-23T14:44:04Z</time>
   </trkpt>
   <trkpt lat="46.1825370788574" lon="7.32299327850342">
    <ele>978.400024414062</ele>
    <time>2012-05-23T14:44:07Z</time>
   </trkpt>
   <trkpt lat="46.1826133728027" lon="7.3230676651001">
    <ele>978.799987792969</ele>
    <time>2012-05-23T14:44:09Z</time>
   </trkpt>
   <trkpt lat="46.1826591491699" lon="7.32309627532959">
    <ele>979</ele>
    <time>2012-05-23T14:44:10Z</time>
   </trkpt>
   <trkpt lat="46.1827087402344" lon="7.32310914993286">
    <ele>979.200012207031</ele>
    <time>2012-05-23T14:44:11Z</time>
   </trkpt>
   <trkpt lat="46.1827507019043" lon="7.32311534881592">
    <ele>979.399963378906</ele>
    <time>2012-05-23T14:44:12Z</time>
   </trkpt>
   <trkpt lat="46.1827964782715" lon="7.32310962677002">
    <ele>979.599975585938</ele>
    <time>2012-05-23T14:44:13Z</time>
   </trkpt>
   <trkpt lat="46.1829643249512" lon="7.32303714752197">
    <ele>979.599975585938</ele>
    <time>2012-05-23T14:44:17Z</time>
   </trkpt>
   <trkpt lat="46.1830062866211" lon="7.32301044464111">
    <ele>979.717651367188</ele>
    <time>2012-05-23T14:44:18Z</time>
   </trkpt>
   <trkpt lat="46.1832542419434" lon="7.32293033599854">
    <ele>980.423522949219</ele>
    <time>2012-05-23T14:44:24Z</time>
   </trkpt>
   <trkpt lat="46.1833000183106" lon="7.32293272018433">
    <ele>980.541137695312</ele>
    <time>2012-05-23T14:44:25Z</time>
   </trkpt>
   <trkpt lat="46.1833457946777" lon="7.3229455947876">
    <ele>980.658813476562</ele>
    <time>2012-05-23T14:44:26Z</time>
   </trkpt>
   <trkpt lat="46.1834678649902" lon="7.32303476333618">
    <ele>981.01171875</ele>
    <time>2012-05-23T14:44:29Z</time>
   </trkpt>
   <trkpt lat="46.1835098266602" lon="7.32306337356567">
    <ele>981.12939453125</ele>
    <time>2012-05-23T14:44:30Z</time>
   </trkpt>
   <trkpt lat="46.1835517883301" lon="7.32308483123779">
    <ele>981.247009277344</ele>
    <time>2012-05-23T14:44:31Z</time>
   </trkpt>
   <trkpt lat="46.1835899353027" lon="7.32310390472412">
    <ele>981.364685058594</ele>
    <time>2012-05-23T14:44:32Z</time>
   </trkpt>
   <trkpt lat="46.1836318969727" lon="7.32311534881592">
    <ele>981.482299804688</ele>
    <time>2012-05-23T14:44:33Z</time>
   </trkpt>
   <trkpt lat="46.1836738586426" lon="7.3231201171875">
    <ele>981.599975585938</ele>
    <time>2012-05-23T14:44:34Z</time>
   </trkpt>
   <trkpt lat="46.1837120056152" lon="7.32312679290772">
    <ele>981.599975585938</ele>
    <time>2012-05-23T14:44:35Z</time>
   </trkpt>
   <trkpt lat="46.1839714050293" lon="7.32309579849243">
    <ele>981.866638183594</ele>
    <time>2012-05-23T14:44:41Z</time>
   </trkpt>
   <trkpt lat="46.1842498779297" lon="7.32301568984985">
    <ele>982.13330078125</ele>
    <time>2012-05-23T14:44:47Z</time>
   </trkpt>
   <trkpt lat="46.1845054626465" lon="7.32281970977783">
    <ele>982.399963378906</ele>
    <time>2012-05-23T14:44:53Z</time>
   </trkpt>
   <trkpt lat="46.1845817565918" lon="7.32270908355713">
    <ele>982.488891601562</ele>
    <time>2012-05-23T14:44:55Z</time>
   </trkpt>
   <trkpt lat="46.1847114562988" lon="7.32244205474854">
    <ele>982.666625976562</ele>
    <time>2012-05-23T14:44:59Z</time>
   </trkpt>
   <trkpt lat="46.1848602294922" lon="7.32200336456299">
    <ele>982.933288574219</ele>
    <time>2012-05-23T14:45:05Z</time>
   </trkpt>
   <trkpt lat="46.1850357055664" lon="7.32149410247803">
    <ele>983.244445800781</ele>
    <time>2012-05-23T14:45:12Z</time>
   </trkpt>
   <trkpt lat="46.1851425170898" lon="7.3211989402771">
    <ele>983.422180175781</ele>
    <time>2012-05-23T14:45:16Z</time>
   </trkpt>
   <trkpt lat="46.1851692199707" lon="7.32111978530884">
    <ele>983.466613769531</ele>
    <time>2012-05-23T14:45:17Z</time>
   </trkpt>
   <trkpt lat="46.1851921081543" lon="7.32104110717774">
    <ele>983.511108398438</ele>
    <time>2012-05-23T14:45:18Z</time>
   </trkpt>
   <trkpt lat="46.1852188110352" lon="7.32096672058106">
    <ele>983.555541992188</ele>
    <time>2012-05-23T14:45:19Z</time>
   </trkpt>
   <trkpt lat="46.1852378845215" lon="7.32088661193848">
    <ele>983.599975585938</ele>
    <time>2012-05-23T14:45:20Z</time>
   </trkpt>
   <trkpt lat="46.1853713989258" lon="7.32050609588623">
    <ele>983.599975585938</ele>
    <time>2012-05-23T14:45:25Z</time>
   </trkpt>
   <trkpt lat="46.1855506896973" lon="7.32006406784058">
    <ele>983.929992675781</ele>
    <time>2012-05-23T14:45:31Z</time>
   </trkpt>
   <trkpt lat="46.1855773925781" lon="7.31997489929199">
    <ele>983.984985351562</ele>
    <time>2012-05-23T14:45:32Z</time>
   </trkpt>
   <trkpt lat="46.1856307983398" lon="7.31971883773804">
    <ele>984.149963378906</ele>
    <time>2012-05-23T14:45:35Z</time>
   </trkpt>
   <trkpt lat="46.1857032775879" lon="7.31930160522461">
    <ele>984.424987792969</ele>
    <time>2012-05-23T14:45:40Z</time>
   </trkpt>
   <trkpt lat="46.1857299804688" lon="7.31922340393066">
    <ele>984.47998046875</ele>
    <time>2012-05-23T14:45:41Z</time>
   </trkpt>
   <trkpt lat="46.1859359741211" lon="7.31872987747192">
    <ele>984.864990234375</ele>
    <time>2012-05-23T14:45:48Z</time>
   </trkpt>
   <trkpt lat="46.1861572265625" lon="7.31826639175415">
    <ele>985.25</ele>
    <time>2012-05-23T14:45:55Z</time>
   </trkpt>
   <trkpt lat="46.1863670349121" lon="7.31788873672485">
    <ele>985.579956054688</ele>
    <time>2012-05-23T14:46:01Z</time>
   </trkpt>
   <trkpt lat="46.1863975524902" lon="7.31783676147461">
    <ele>985.635009765625</ele>
    <time>2012-05-23T14:46:02Z</time>
   </trkpt>
   <trkpt lat="46.1864433288574" lon="7.31777620315552">
    <ele>985.690002441406</ele>
    <time>2012-05-23T14:46:03Z</time>
   </trkpt>
   <trkpt lat="46.1864814758301" lon="7.3177170753479">
    <ele>985.744995117188</ele>
    <time>2012-05-23T14:46:04Z</time>
   </trkpt>
   <trkpt lat="46.1865196228027" lon="7.31765556335449">
    <ele>985.799987792969</ele>
    <time>2012-05-23T14:46:05Z</time>
   </trkpt>
   <trkpt lat="46.1867637634277" lon="7.31730461120606">
    <ele>985.799987792969</ele>
    <time>2012-05-23T14:46:11Z</time>
   </trkpt>
   <trkpt lat="46.1870727539062" lon="7.31697607040405">
    <ele>986.5</ele>
    <time>2012-05-23T14:46:18Z</time>
   </trkpt>
   <trkpt lat="46.1872177124023" lon="7.31688213348389">
    <ele>986.799987792969</ele>
    <time>2012-05-23T14:46:21Z</time>
   </trkpt>
   <trkpt lat="46.1873626708984" lon="7.31680965423584">
    <ele>987.099975585938</ele>
    <time>2012-05-23T14:46:24Z</time>
   </trkpt>
   <trkpt lat="46.1876029968262" lon="7.31668138504028">
    <ele>987.599975585938</ele>
    <time>2012-05-23T14:46:29Z</time>
   </trkpt>
   <trkpt lat="46.1876449584961" lon="7.316650390625">
    <ele>987.700012207031</ele>
    <time>2012-05-23T14:46:30Z</time>
   </trkpt>
   <trkpt lat="46.187686920166" lon="7.31661367416382">
    <ele>987.799987792969</ele>
    <time>2012-05-23T14:46:31Z</time>
   </trkpt>
   <trkpt lat="46.1877288818359" lon="7.31656455993652">
    <ele>987.900024414062</ele>
    <time>2012-05-23T14:46:32Z</time>
   </trkpt>
   <trkpt lat="46.1877632141113" lon="7.31650447845459">
    <ele>988</ele>
    <time>2012-05-23T14:46:33Z</time>
   </trkpt>
   <trkpt lat="46.1878433227539" lon="7.31631708145142">
    <ele>988</ele>
    <time>2012-05-23T14:46:36Z</time>
   </trkpt>
   <trkpt lat="46.1878890991211" lon="7.31596755981445">
    <ele>988.5</ele>
    <time>2012-05-23T14:46:41Z</time>
   </trkpt>
   <trkpt lat="46.1878890991211" lon="7.3153805732727">
    <ele>989.299987792969</ele>
    <time>2012-05-23T14:46:49Z</time>
   </trkpt>
   <trkpt lat="46.1878623962402" lon="7.31503772735596">
    <ele>989.799987792969</ele>
    <time>2012-05-23T14:46:54Z</time>
   </trkpt>
   <trkpt lat="46.1878509521484" lon="7.31496810913086">
    <ele>989.900024414062</ele>
    <time>2012-05-23T14:46:55Z</time>
   </trkpt>
   <trkpt lat="46.1878395080566" lon="7.31490230560303">
    <ele>990</ele>
    <time>2012-05-23T14:46:56Z</time>
   </trkpt>
   <trkpt lat="46.1878280639648" lon="7.3148307800293">
    <ele>990.100036621094</ele>
    <time>2012-05-23T14:46:57Z</time>
   </trkpt>
   <trkpt lat="46.1878128051758" lon="7.31476593017578">
    <ele>990.200012207031</ele>
    <time>2012-05-23T14:46:58Z</time>
   </trkpt>
   <trkpt lat="46.1877479553223" lon="7.3144040107727">
    <ele>990.200012207031</ele>
    <time>2012-05-23T14:47:03Z</time>
   </trkpt>
   <trkpt lat="46.187686920166" lon="7.31386804580688">
    <ele>990.808715820312</ele>
    <time>2012-05-23T14:47:10Z</time>
   </trkpt>
   <trkpt lat="46.1876907348633" lon="7.31378841400146">
    <ele>990.895690917969</ele>
    <time>2012-05-23T14:47:11Z</time>
   </trkpt>
   <trkpt lat="46.1877670288086" lon="7.31358242034912">
    <ele>991.156555175781</ele>
    <time>2012-05-23T14:47:14Z</time>
   </trkpt>
   <trkpt lat="46.1879234313965" lon="7.31353759765625">
    <ele>991.417419433594</ele>
    <time>2012-05-23T14:47:17Z</time>
   </trkpt>
   <trkpt lat="46.1881141662598" lon="7.31364965438843">
    <ele>991.765258789062</ele>
    <time>2012-05-23T14:47:21Z</time>
   </trkpt>
   <trkpt lat="46.1881561279297" lon="7.31368160247803">
    <ele>991.852172851562</ele>
    <time>2012-05-23T14:47:22Z</time>
   </trkpt>
   <trkpt lat="46.1882019042969" lon="7.31371545791626">
    <ele>991.939147949219</ele>
    <time>2012-05-23T14:47:23Z</time>
   </trkpt>
   <trkpt lat="46.1882438659668" lon="7.31374597549438">
    <ele>992.026123046875</ele>
    <time>2012-05-23T14:47:24Z</time>
   </trkpt>
   <trkpt lat="46.188289642334" lon="7.31377696990967">
    <ele>992.113037109375</ele>
    <time>2012-05-23T14:47:25Z</time>
   </trkpt>
   <trkpt lat="46.1883316040039" lon="7.31380987167358">
    <ele>992.200012207031</ele>
    <time>2012-05-23T14:47:26Z</time>
   </trkpt>
   <trkpt lat="46.1883773803711" lon="7.31384515762329">
    <ele>992.200012207031</ele>
    <time>2012-05-23T14:47:27Z</time>
   </trkpt>
   <trkpt lat="46.1885108947754" lon="7.3139181137085">
    <ele>992.671447753906</ele>
    <time>2012-05-23T14:47:30Z</time>
   </trkpt>
   <trkpt lat="46.188606262207" lon="7.31391000747681">
    <ele>992.985717773438</ele>
    <time>2012-05-23T14:47:32Z</time>
   </trkpt>
   <trkpt lat="46.1888008117676" lon="7.31376695632935">
    <ele>993.614318847656</ele>
    <time>2012-05-23T14:47:36Z</time>
   </trkpt>
   <trkpt lat="46.188835144043" lon="7.31371593475342">
    <ele>993.771423339844</ele>
    <time>2012-05-23T14:47:37Z</time>
   </trkpt>
   <trkpt lat="46.1888656616211" lon="7.31366014480591">
    <ele>993.928588867188</ele>
    <time>2012-05-23T14:47:38Z</time>
   </trkpt>
   <trkpt lat="46.1888809204102" lon="7.31360626220703">
    <ele>994.085754394531</ele>
    <time>2012-05-23T14:47:39Z</time>
   </trkpt>
   <trkpt lat="46.188907623291" lon="7.31355571746826">
    <ele>994.242858886719</ele>
    <time>2012-05-23T14:47:40Z</time>
   </trkpt>
   <trkpt lat="46.1889381408691" lon="7.31348609924316">
    <ele>994.400024414062</ele>
    <time>2012-05-23T14:47:41Z</time>
   </trkpt>
   <trkpt lat="46.1890449523926" lon="7.31334447860718">
    <ele>994.400024414062</ele>
    <time>2012-05-23T14:47:44Z</time>
   </trkpt>
   <trkpt lat="46.1891899108887" lon="7.31328248977661">
    <ele>994.82861328125</ele>
    <time>2012-05-23T14:47:47Z</time>
   </trkpt>
   <trkpt lat="46.1892356872559" lon="7.31326770782471">
    <ele>994.971435546875</ele>
    <time>2012-05-23T14:47:48Z</time>
   </trkpt>
   <trkpt lat="46.1894989013672" lon="7.31317615509033">
    <ele>995.82861328125</ele>
    <time>2012-05-23T14:47:54Z</time>
   </trkpt>
   <trkpt lat="46.1895408630371" lon="7.31315660476685">
    <ele>995.971435546875</ele>
    <time>2012-05-23T14:47:55Z</time>
   </trkpt>
   <trkpt lat="46.189582824707" lon="7.31313371658325">
    <ele>996.114318847656</ele>
    <time>2012-05-23T14:47:56Z</time>
   </trkpt>
   <trkpt lat="46.189624786377" lon="7.31310749053955">
    <ele>996.257141113281</ele>
    <time>2012-05-23T14:47:57Z</time>
   </trkpt>
   <trkpt lat="46.1896667480469" lon="7.31307363510132">
    <ele>996.400024414062</ele>
    <time>2012-05-23T14:47:58Z</time>
   </trkpt>
   <trkpt lat="46.1897735595703" lon="7.31295824050903">
    <ele>996.400024414062</ele>
    <time>2012-05-23T14:48:01Z</time>
   </trkpt>
   <trkpt lat="46.1898727416992" lon="7.31283140182495">
    <ele>997</ele>
    <time>2012-05-23T14:48:04Z</time>
   </trkpt>
   <trkpt lat="46.1899299621582" lon="7.31271839141846">
    <ele>997.400024414062</ele>
    <time>2012-05-23T14:48:06Z</time>
   </trkpt>
   <trkpt lat="46.1899566650391" lon="7.31266450881958">
    <ele>997.600036621094</ele>
    <time>2012-05-23T14:48:07Z</time>
   </trkpt>
   <trkpt lat="46.1899795532227" lon="7.31261348724365">
    <ele>997.800048828125</ele>
    <time>2012-05-23T14:48:08Z</time>
   </trkpt>
   <trkpt lat="46.1900062561035" lon="7.31255769729614">
    <ele>998</ele>
    <time>2012-05-23T14:48:09Z</time>
   </trkpt>
   <trkpt lat="46.1900291442871" lon="7.3125">
    <ele>998.200012207031</ele>
    <time>2012-05-23T14:48:10Z</time>
   </trkpt>
   <trkpt lat="46.190055847168" lon="7.31244707107544">
    <ele>998.400024414062</ele>
    <time>2012-05-23T14:48:11Z</time>
   </trkpt>
   <trkpt lat="46.1901359558106" lon="7.31230926513672">
    <ele>998.400024414062</ele>
    <time>2012-05-23T14:48:14Z</time>
   </trkpt>
   <trkpt lat="46.1902656555176" lon="7.31211948394775">
    <ele>999.971435546875</ele>
    <time>2012-05-23T14:48:19Z</time>
   </trkpt>
   <trkpt lat="46.1902923583984" lon="7.31208753585815">
    <ele>1000.28570556641</ele>
    <time>2012-05-23T14:48:20Z</time>
   </trkpt>
   <trkpt lat="46.1903190612793" lon="7.31205558776856">
    <ele>1000.59997558594</ele>
    <time>2012-05-23T14:48:21Z</time>
   </trkpt>
   <trkpt lat="46.1903419494629" lon="7.31202602386475">
    <ele>1000.91430664062</ele>
    <time>2012-05-23T14:48:22Z</time>
   </trkpt>
   <trkpt lat="46.1903877258301" lon="7.31196641921997">
    <ele>1001.54284667969</ele>
    <time>2012-05-23T14:48:24Z</time>
   </trkpt>
   <trkpt lat="46.1904067993164" lon="7.31193685531616">
    <ele>1001.85711669922</ele>
    <time>2012-05-23T14:48:25Z</time>
   </trkpt>
   <trkpt lat="46.1904258728027" lon="7.31191396713257">
    <ele>1002.17144775391</ele>
    <time>2012-05-23T14:48:26Z</time>
   </trkpt>
   <trkpt lat="46.1904487609863" lon="7.31188488006592">
    <ele>1002.48571777344</ele>
    <time>2012-05-23T14:48:27Z</time>
   </trkpt>
   <trkpt lat="46.1904716491699" lon="7.31185913085938">
    <ele>1002.79998779297</ele>
    <time>2012-05-23T14:48:28Z</time>
   </trkpt>
   <trkpt lat="46.1905479431152" lon="7.31174421310425">
    <ele>1002.79998779297</ele>
    <time>2012-05-23T14:48:32Z</time>
   </trkpt>
   <trkpt lat="46.1906394958496" lon="7.31164503097534">
    <ele>1003.97332763672</ele>
    <time>2012-05-23T14:48:36Z</time>
   </trkpt>
   <trkpt lat="46.1906623840332" lon="7.3116135597229">
    <ele>1004.26666259766</ele>
    <time>2012-05-23T14:48:37Z</time>
   </trkpt>
   <trkpt lat="46.1906814575195" lon="7.3115873336792">
    <ele>1004.55999755859</ele>
    <time>2012-05-23T14:48:38Z</time>
   </trkpt>
   <trkpt lat="46.1907005310059" lon="7.3115611076355">
    <ele>1004.85333251953</ele>
    <time>2012-05-23T14:48:39Z</time>
   </trkpt>
   <trkpt lat="46.1907234191894" lon="7.31153774261475">
    <ele>1005.14666748047</ele>
    <time>2012-05-23T14:48:40Z</time>
   </trkpt>
   <trkpt lat="46.1908149719238" lon="7.31143188476562">
    <ele>1006.32000732422</ele>
    <time>2012-05-23T14:48:44Z</time>
   </trkpt>
   <trkpt lat="46.1908416748047" lon="7.31140661239624">
    <ele>1006.61334228516</ele>
    <time>2012-05-23T14:48:45Z</time>
   </trkpt>
   <trkpt lat="46.1908645629883" lon="7.3113808631897">
    <ele>1006.90667724609</ele>
    <time>2012-05-23T14:48:46Z</time>
   </trkpt>
   <trkpt lat="46.1908874511719" lon="7.3113579750061">
    <ele>1007.20001220703</ele>
    <time>2012-05-23T14:48:47Z</time>
   </trkpt>
   <trkpt lat="46.1909065246582" lon="7.31133365631104">
    <ele>1007.20001220703</ele>
    <time>2012-05-23T14:48:48Z</time>
   </trkpt>
   <trkpt lat="46.1909790039062" lon="7.31125593185425">
    <ele>1008.05712890625</ele>
    <time>2012-05-23T14:48:51Z</time>
   </trkpt>
   <trkpt lat="46.1910018920898" lon="7.31122589111328">
    <ele>1008.34289550781</ele>
    <time>2012-05-23T14:48:52Z</time>
   </trkpt>
   <trkpt lat="46.1910209655762" lon="7.31120109558106">
    <ele>1008.62860107422</ele>
    <time>2012-05-23T14:48:53Z</time>
   </trkpt>
   <trkpt lat="46.1910514831543" lon="7.31117963790894">
    <ele>1008.91430664062</ele>
    <time>2012-05-23T14:48:54Z</time>
   </trkpt>
   <trkpt lat="46.1910705566406" lon="7.31115102767944">
    <ele>1009.20001220703</ele>
    <time>2012-05-23T14:48:55Z</time>
   </trkpt>
   <trkpt lat="46.1911811828613" lon="7.31090068817139">
    <ele>1009.20001220703</ele>
    <time>2012-05-23T14:49:02Z</time>
   </trkpt>
   <trkpt lat="46.1911926269531" lon="7.31086492538452">
    <ele>1009.64001464844</ele>
    <time>2012-05-23T14:49:03Z</time>
   </trkpt>
   <trkpt lat="46.1912078857422" lon="7.31082439422607">
    <ele>1010.08001708984</ele>
    <time>2012-05-23T14:49:04Z</time>
   </trkpt>
   <trkpt lat="46.191219329834" lon="7.31078720092774">
    <ele>1010.52001953125</ele>
    <time>2012-05-23T14:49:05Z</time>
   </trkpt>
   <trkpt lat="46.1912269592285" lon="7.31074714660644">
    <ele>1010.96002197266</ele>
    <time>2012-05-23T14:49:06Z</time>
   </trkpt>
   <trkpt lat="46.191234588623" lon="7.31071329116821">
    <ele>1011.40002441406</ele>
    <time>2012-05-23T14:49:07Z</time>
   </trkpt>
   <trkpt lat="46.1912574768066" lon="7.31059074401856">
    <ele>1011.40002441406</ele>
    <time>2012-05-23T14:49:10Z</time>
   </trkpt>
   <trkpt lat="46.191276550293" lon="7.31051063537598">
    <ele>1012.06671142578</ele>
    <time>2012-05-23T14:49:12Z</time>
   </trkpt>
   <trkpt lat="46.1912879943848" lon="7.31047248840332">
    <ele>1012.40002441406</ele>
    <time>2012-05-23T14:49:13Z</time>
   </trkpt>
   <trkpt lat="46.1912994384766" lon="7.31043148040772">
    <ele>1012.73333740234</ele>
    <time>2012-05-23T14:49:14Z</time>
   </trkpt>
   <trkpt lat="46.1913070678711" lon="7.31038570404053">
    <ele>1013.06671142578</ele>
    <time>2012-05-23T14:49:15Z</time>
   </trkpt>
   <trkpt lat="46.1913223266602" lon="7.31034708023071">
    <ele>1013.40002441406</ele>
    <time>2012-05-23T14:49:16Z</time>
   </trkpt>
   <trkpt lat="46.1913528442383" lon="7.31026887893677">
    <ele>1013.40002441406</ele>
    <time>2012-05-23T14:49:18Z</time>
   </trkpt>
   <trkpt lat="46.1914253234863" lon="7.31006956100464">
    <ele>1014.62219238281</ele>
    <time>2012-05-23T14:49:23Z</time>
   </trkpt>
   <trkpt lat="46.1914367675781" lon="7.31003189086914">
    <ele>1014.86663818359</ele>
    <time>2012-05-23T14:49:24Z</time>
   </trkpt>
   <trkpt lat="46.1914558410644" lon="7.30998945236206">
    <ele>1015.11108398438</ele>
    <time>2012-05-23T14:49:25Z</time>
   </trkpt>
   <trkpt lat="46.1914749145508" lon="7.30994701385498">
    <ele>1015.35552978516</ele>
    <time>2012-05-23T14:49:26Z</time>
   </trkpt>
   <trkpt lat="46.1914901733398" lon="7.30990695953369">
    <ele>1015.59997558594</ele>
    <time>2012-05-23T14:49:27Z</time>
   </trkpt>
   <trkpt lat="46.1915893554688" lon="7.30973482131958">
    <ele>1015.59997558594</ele>
    <time>2012-05-23T14:49:32Z</time>
   </trkpt>
   <trkpt lat="46.1916160583496" lon="7.30970478057861">
    <ele>1015.96362304688</ele>
    <time>2012-05-23T14:49:33Z</time>
   </trkpt>
   <trkpt lat="46.1916351318359" lon="7.30967330932617">
    <ele>1016.32727050781</ele>
    <time>2012-05-23T14:49:34Z</time>
   </trkpt>
   <trkpt lat="46.1916580200195" lon="7.30964612960815">
    <ele>1016.69085693359</ele>
    <time>2012-05-23T14:49:35Z</time>
   </trkpt>
   <trkpt lat="46.1916809082031" lon="7.30962038040161">
    <ele>1017.05450439453</ele>
    <time>2012-05-23T14:49:36Z</time>
   </trkpt>
   <trkpt lat="46.1917419433594" lon="7.3095383644104">
    <ele>1018.14544677734</ele>
    <time>2012-05-23T14:49:39Z</time>
   </trkpt>
   <trkpt lat="46.1917572021484" lon="7.30952215194702">
    <ele>1018.50909423828</ele>
    <time>2012-05-23T14:49:40Z</time>
   </trkpt>
   <trkpt lat="46.1917724609375" lon="7.30951023101807">
    <ele>1018.87268066406</ele>
    <time>2012-05-23T14:49:41Z</time>
   </trkpt>
   <trkpt lat="46.1917724609375" lon="7.30950784683228">
    <ele>1019.236328125</ele>
    <time>2012-05-23T14:49:42Z</time>
   </trkpt>
   <trkpt lat="46.1917724609375" lon="7.30951118469238">
    <ele>1019.59997558594</ele>
    <time>2012-05-23T14:49:43Z</time>
   </trkpt>
   <trkpt lat="46.1918258666992" lon="7.30944919586182">
    <ele>1019.59997558594</ele>
    <time>2012-05-23T14:49:50Z</time>
   </trkpt>
   <trkpt lat="46.1919288635254" lon="7.30930423736572">
    <ele>1020.32727050781</ele>
    <time>2012-05-23T14:49:54Z</time>
   </trkpt>
   <trkpt lat="46.192024230957" lon="7.30918216705322">
    <ele>1021.05450439453</ele>
    <time>2012-05-23T14:49:58Z</time>
   </trkpt>
   <trkpt lat="46.1920471191406" lon="7.30915307998657">
    <ele>1021.236328125</ele>
    <time>2012-05-23T14:49:59Z</time>
   </trkpt>
   <trkpt lat="46.1920700073242" lon="7.3091230392456">
    <ele>1021.41815185547</ele>
    <time>2012-05-23T14:50:00Z</time>
   </trkpt>
   <trkpt lat="46.1920928955078" lon="7.30909585952759">
    <ele>1021.59997558594</ele>
    <time>2012-05-23T14:50:01Z</time>
   </trkpt>
   <trkpt lat="46.1921310424805" lon="7.30902528762817">
    <ele>1021.59997558594</ele>
    <time>2012-05-23T14:50:03Z</time>
   </trkpt>
   <trkpt lat="46.1921463012695" lon="7.30898714065552">
    <ele>1022.03997802734</ele>
    <time>2012-05-23T14:50:04Z</time>
   </trkpt>
   <trkpt lat="46.1921653747559" lon="7.30895328521728">
    <ele>1022.47998046875</ele>
    <time>2012-05-23T14:50:05Z</time>
   </trkpt>
   <trkpt lat="46.1921806335449" lon="7.30892038345337">
    <ele>1022.91998291016</ele>
    <time>2012-05-23T14:50:06Z</time>
   </trkpt>
   <trkpt lat="46.192195892334" lon="7.30888414382935">
    <ele>1023.35998535156</ele>
    <time>2012-05-23T14:50:07Z</time>
   </trkpt>
   <trkpt lat="46.192211151123" lon="7.30884790420532">
    <ele>1023.79998779297</ele>
    <time>2012-05-23T14:50:08Z</time>
   </trkpt>
   <trkpt lat="46.1922607421875" lon="7.30874252319336">
    <ele>1023.79998779297</ele>
    <time>2012-05-23T14:50:11Z</time>
   </trkpt>
   <trkpt lat="46.1923217773438" lon="7.30859708786011">
    <ele>1024.92004394531</ele>
    <time>2012-05-23T14:50:15Z</time>
   </trkpt>
   <trkpt lat="46.1923446655273" lon="7.30856704711914">
    <ele>1025.19995117188</ele>
    <time>2012-05-23T14:50:16Z</time>
   </trkpt>
   <trkpt lat="46.1923599243164" lon="7.30853366851807">
    <ele>1025.47998046875</ele>
    <time>2012-05-23T14:50:17Z</time>
   </trkpt>
   <trkpt lat="46.1923751831055" lon="7.30850028991699">
    <ele>1025.76000976562</ele>
    <time>2012-05-23T14:50:18Z</time>
   </trkpt>
   <trkpt lat="46.1923942565918" lon="7.30847406387329">
    <ele>1026.0400390625</ele>
    <time>2012-05-23T14:50:19Z</time>
   </trkpt>
   <trkpt lat="46.1924781799316" lon="7.30836009979248">
    <ele>1027.16003417969</ele>
    <time>2012-05-23T14:50:23Z</time>
   </trkpt>
   <trkpt lat="46.1925048828125" lon="7.30834150314331">
    <ele>1027.43994140625</ele>
    <time>2012-05-23T14:50:24Z</time>
   </trkpt>
   <trkpt lat="46.1925315856934" lon="7.30832529067993">
    <ele>1027.71997070312</ele>
    <time>2012-05-23T14:50:25Z</time>
   </trkpt>
   <trkpt lat="46.1925621032715" lon="7.30831098556518">
    <ele>1028</ele>
    <time>2012-05-23T14:50:26Z</time>
   </trkpt>
   <trkpt lat="46.1927185058594" lon="7.3082480430603">
    <ele>1028</ele>
    <time>2012-05-23T14:50:31Z</time>
   </trkpt>
   <trkpt lat="46.192813873291" lon="7.30822038650513">
    <ele>1028.82495117188</ele>
    <time>2012-05-23T14:50:34Z</time>
   </trkpt>
   <trkpt lat="46.1928405761719" lon="7.3082103729248">
    <ele>1029.09997558594</ele>
    <time>2012-05-23T14:50:35Z</time>
   </trkpt>
   <trkpt lat="46.1928672790527" lon="7.30819892883301">
    <ele>1029.375</ele>
    <time>2012-05-23T14:50:36Z</time>
   </trkpt>
   <trkpt lat="46.1928977966309" lon="7.30818033218384">
    <ele>1029.65002441406</ele>
    <time>2012-05-23T14:50:37Z</time>
   </trkpt>
   <trkpt lat="46.1929244995117" lon="7.30816793441772">
    <ele>1029.92504882812</ele>
    <time>2012-05-23T14:50:38Z</time>
   </trkpt>
   <trkpt lat="46.193058013916" lon="7.30809354782104">
    <ele>1031.30004882812</ele>
    <time>2012-05-23T14:50:43Z</time>
   </trkpt>
   <trkpt lat="46.1930847167969" lon="7.30807733535767">
    <ele>1031.57507324219</ele>
    <time>2012-05-23T14:50:44Z</time>
   </trkpt>
   <trkpt lat="46.1931114196777" lon="7.30805921554565">
    <ele>1031.84997558594</ele>
    <time>2012-05-23T14:50:45Z</time>
   </trkpt>
   <trkpt lat="46.1931343078613" lon="7.3080358505249">
    <ele>1032.125</ele>
    <time>2012-05-23T14:50:46Z</time>
   </trkpt>
   <trkpt lat="46.1931571960449" lon="7.30800914764404">
    <ele>1032.40002441406</ele>
    <time>2012-05-23T14:50:47Z</time>
   </trkpt>
   <trkpt lat="46.1932678222656" lon="7.3078875541687">
    <ele>1032.40002441406</ele>
    <time>2012-05-23T14:50:52Z</time>
   </trkpt>
   <trkpt lat="46.1932907104492" lon="7.307861328125">
    <ele>1032.80004882812</ele>
    <time>2012-05-23T14:50:53Z</time>
   </trkpt>
   <trkpt lat="46.1933135986328" lon="7.30783748626709">
    <ele>1033.20007324219</ele>
    <time>2012-05-23T14:50:54Z</time>
   </trkpt>
   <trkpt lat="46.1933326721191" lon="7.30780744552612">
    <ele>1033.59997558594</ele>
    <time>2012-05-23T14:50:55Z</time>
   </trkpt>
   <trkpt lat="46.1933479309082" lon="7.30777311325073">
    <ele>1034</ele>
    <time>2012-05-23T14:50:56Z</time>
   </trkpt>
   <trkpt lat="46.1933670043945" lon="7.30773591995239">
    <ele>1034.40002441406</ele>
    <time>2012-05-23T14:50:57Z</time>
   </trkpt>
   <trkpt lat="46.1933975219727" lon="7.30766487121582">
    <ele>1034.40002441406</ele>
    <time>2012-05-23T14:50:59Z</time>
   </trkpt>
   <trkpt lat="46.1934127807617" lon="7.30762672424316">
    <ele>1034.67504882812</ele>
    <time>2012-05-23T14:51:00Z</time>
   </trkpt>
   <trkpt lat="46.1934432983398" lon="7.30751895904541">
    <ele>1035.5</ele>
    <time>2012-05-23T14:51:03Z</time>
   </trkpt>
   <trkpt lat="46.1934547424316" lon="7.30748510360718">
    <ele>1035.77502441406</ele>
    <time>2012-05-23T14:51:04Z</time>
   </trkpt>
   <trkpt lat="46.1934623718262" lon="7.30744552612305">
    <ele>1036.05004882812</ele>
    <time>2012-05-23T14:51:05Z</time>
   </trkpt>
   <trkpt lat="46.193473815918" lon="7.30740785598755">
    <ele>1036.32495117188</ele>
    <time>2012-05-23T14:51:06Z</time>
   </trkpt>
   <trkpt lat="46.1934852600098" lon="7.30736875534058">
    <ele>1036.59997558594</ele>
    <time>2012-05-23T14:51:07Z</time>
   </trkpt>
   <trkpt lat="46.1934928894043" lon="7.30732870101929">
    <ele>1036.59997558594</ele>
    <time>2012-05-23T14:51:08Z</time>
   </trkpt>
   <trkpt lat="46.1935424804688" lon="7.3071436882019">
    <ele>1037.59997558594</ele>
    <time>2012-05-23T14:51:13Z</time>
   </trkpt>
   <trkpt lat="46.193546295166" lon="7.30710601806641">
    <ele>1037.79992675781</ele>
    <time>2012-05-23T14:51:14Z</time>
   </trkpt>
   <trkpt lat="46.1935539245606" lon="7.30707025527954">
    <ele>1038</ele>
    <time>2012-05-23T14:51:15Z</time>
   </trkpt>
   <trkpt lat="46.1935615539551" lon="7.30703067779541">
    <ele>1038.19995117188</ele>
    <time>2012-05-23T14:51:16Z</time>
   </trkpt>
   <trkpt lat="46.1935691833496" lon="7.30699396133423">
    <ele>1038.40002441406</ele>
    <time>2012-05-23T14:51:17Z</time>
   </trkpt>
   <trkpt lat="46.1936340332031" lon="7.30673170089722">
    <ele>1039.79992675781</ele>
    <time>2012-05-23T14:51:24Z</time>
   </trkpt>
   <trkpt lat="46.1936454772949" lon="7.3066930770874">
    <ele>1040</ele>
    <time>2012-05-23T14:51:25Z</time>
   </trkpt>
   <trkpt lat="46.1936531066894" lon="7.30665636062622">
    <ele>1040.19995117188</ele>
    <time>2012-05-23T14:51:26Z</time>
   </trkpt>
   <trkpt lat="46.1936645507812" lon="7.30661821365356">
    <ele>1040.40002441406</ele>
    <time>2012-05-23T14:51:27Z</time>
   </trkpt>
   <trkpt lat="46.1936721801758" lon="7.30657958984375">
    <ele>1040.59997558594</ele>
    <time>2012-05-23T14:51:28Z</time>
   </trkpt>
   <trkpt lat="46.1937408447266" lon="7.30630254745483">
    <ele>1042</ele>
    <time>2012-05-23T14:51:35Z</time>
   </trkpt>
   <trkpt lat="46.1937522888184" lon="7.30626392364502">
    <ele>1042.19995117188</ele>
    <time>2012-05-23T14:51:36Z</time>
   </trkpt>
   <trkpt lat="46.1937599182129" lon="7.30622148513794">
    <ele>1042.40002441406</ele>
    <time>2012-05-23T14:51:37Z</time>
   </trkpt>
   <trkpt lat="46.1937713623047" lon="7.30617904663086">
    <ele>1042.59997558594</ele>
    <time>2012-05-23T14:51:38Z</time>
   </trkpt>
   <trkpt lat="46.1938133239746" lon="7.30600738525391">
    <ele>1042.59997558594</ele>
    <time>2012-05-23T14:51:42Z</time>
   </trkpt>
   <trkpt lat="46.1938629150391" lon="7.30578565597534">
    <ele>1043.71105957031</ele>
    <time>2012-05-23T14:51:47Z</time>
   </trkpt>
   <trkpt lat="46.1938629150391" lon="7.30573892593384">
    <ele>1043.93334960938</ele>
    <time>2012-05-23T14:51:48Z</time>
   </trkpt>
   <trkpt lat="46.1938591003418" lon="7.30569171905518">
    <ele>1044.15551757812</ele>
    <time>2012-05-23T14:51:49Z</time>
   </trkpt>
   <trkpt lat="46.1938514709473" lon="7.30564832687378">
    <ele>1044.37780761719</ele>
    <time>2012-05-23T14:51:50Z</time>
   </trkpt>
   <trkpt lat="46.1938323974609" lon="7.30560779571533">
    <ele>1044.59997558594</ele>
    <time>2012-05-23T14:51:51Z</time>
   </trkpt>
   <trkpt lat="46.1938133239746" lon="7.30557203292847">
    <ele>1044.59997558594</ele>
    <time>2012-05-23T14:51:52Z</time>
   </trkpt>
   <trkpt lat="46.1936874389648" lon="7.3055157661438">
    <ele>1045.228515625</ele>
    <time>2012-05-23T14:51:56Z</time>
   </trkpt>
   <trkpt lat="46.1936569213867" lon="7.30553722381592">
    <ele>1045.3857421875</ele>
    <time>2012-05-23T14:51:57Z</time>
   </trkpt>
   <trkpt lat="46.193603515625" lon="7.30560111999512">
    <ele>1045.69995117188</ele>
    <time>2012-05-23T14:51:59Z</time>
   </trkpt>
   <trkpt lat="46.193546295166" lon="7.30579090118408">
    <ele>1046.32861328125</ele>
    <time>2012-05-23T14:52:03Z</time>
   </trkpt>
   <trkpt lat="46.1935424804688" lon="7.30583810806274">
    <ele>1046.48571777344</ele>
    <time>2012-05-23T14:52:04Z</time>
   </trkpt>
   <trkpt lat="46.1935348510742" lon="7.30588579177856">
    <ele>1046.64294433594</ele>
    <time>2012-05-23T14:52:05Z</time>
   </trkpt>
   <trkpt lat="46.193531036377" lon="7.30593538284302">
    <ele>1046.80004882812</ele>
    <time>2012-05-23T14:52:06Z</time>
   </trkpt>
   <trkpt lat="46.193489074707" lon="7.30613613128662">
    <ele>1046.80004882812</ele>
    <time>2012-05-23T14:52:10Z</time>
   </trkpt>
   <trkpt lat="46.1934013366699" lon="7.3063530921936">
    <ele>1048.03527832031</ele>
    <time>2012-05-23T14:52:15Z</time>
   </trkpt>
   <trkpt lat="46.1933822631836" lon="7.30638742446899">
    <ele>1048.28234863281</ele>
    <time>2012-05-23T14:52:16Z</time>
   </trkpt>
   <trkpt lat="46.1933631896973" lon="7.30642795562744">
    <ele>1048.52941894531</ele>
    <time>2012-05-23T14:52:17Z</time>
   </trkpt>
   <trkpt lat="46.1933479309082" lon="7.30646228790283">
    <ele>1048.77648925781</ele>
    <time>2012-05-23T14:52:18Z</time>
   </trkpt>
   <trkpt lat="46.1933288574219" lon="7.30649280548096">
    <ele>1049.02355957031</ele>
    <time>2012-05-23T14:52:19Z</time>
   </trkpt>
   <trkpt lat="46.1932525634766" lon="7.30666399002075">
    <ele>1050.2587890625</ele>
    <time>2012-05-23T14:52:24Z</time>
   </trkpt>
   <trkpt lat="46.1932334899902" lon="7.30670213699341">
    <ele>1050.505859375</ele>
    <time>2012-05-23T14:52:25Z</time>
   </trkpt>
   <trkpt lat="46.1932182312012" lon="7.30673694610596">
    <ele>1050.7529296875</ele>
    <time>2012-05-23T14:52:26Z</time>
   </trkpt>
   <trkpt lat="46.1931991577148" lon="7.30676937103272">
    <ele>1051</ele>
    <time>2012-05-23T14:52:27Z</time>
   </trkpt>
   <trkpt lat="46.1931419372559" lon="7.30688381195068">
    <ele>1051</ele>
    <time>2012-05-23T14:52:30Z</time>
   </trkpt>
   <trkpt lat="46.1930885314941" lon="7.30694770812988">
    <ele>1051.55993652344</ele>
    <time>2012-05-23T14:52:32Z</time>
   </trkpt>
   <trkpt lat="46.1930618286133" lon="7.3069658279419">
    <ele>1051.83996582031</ele>
    <time>2012-05-23T14:52:33Z</time>
   </trkpt>
   <trkpt lat="46.1930389404297" lon="7.30699110031128">
    <ele>1052.11999511719</ele>
    <time>2012-05-23T14:52:34Z</time>
   </trkpt>
   <trkpt lat="46.1930084228516" lon="7.30701160430908">
    <ele>1052.40002441406</ele>
    <time>2012-05-23T14:52:35Z</time>
   </trkpt>
   <trkpt lat="46.1929817199707" lon="7.30703830718994">
    <ele>1052.67993164062</ele>
    <time>2012-05-23T14:52:36Z</time>
   </trkpt>
   <trkpt lat="46.1928443908691" lon="7.30710458755493">
    <ele>1054.07995605469</ele>
    <time>2012-05-23T14:52:41Z</time>
   </trkpt>
   <trkpt lat="46.192813873291" lon="7.30710887908936">
    <ele>1054.35998535156</ele>
    <time>2012-05-23T14:52:42Z</time>
   </trkpt>
   <trkpt lat="46.1927795410156" lon="7.30711460113525">
    <ele>1054.64001464844</ele>
    <time>2012-05-23T14:52:43Z</time>
   </trkpt>
   <trkpt lat="46.1927528381348" lon="7.30710077285767">
    <ele>1054.919921875</ele>
    <time>2012-05-23T14:52:44Z</time>
   </trkpt>
   <trkpt lat="46.1927185058594" lon="7.30709934234619">
    <ele>1055.19995117188</ele>
    <time>2012-05-23T14:52:45Z</time>
   </trkpt>
   <trkpt lat="46.1926612854004" lon="7.30708360671997">
    <ele>1055.19995117188</ele>
    <time>2012-05-23T14:52:47Z</time>
   </trkpt>
   <trkpt lat="46.1926040649414" lon="7.30707263946533">
    <ele>1056</ele>
    <time>2012-05-23T14:52:49Z</time>
   </trkpt>
   <trkpt lat="46.1925735473633" lon="7.3070707321167">
    <ele>1056.39990234375</ele>
    <time>2012-05-23T14:52:50Z</time>
   </trkpt>
   <trkpt lat="46.1925430297852" lon="7.30707216262817">
    <ele>1056.79992675781</ele>
    <time>2012-05-23T14:52:51Z</time>
   </trkpt>
   <trkpt lat="46.1925086975098" lon="7.30707120895386">
    <ele>1057.19995117188</ele>
    <time>2012-05-23T14:52:52Z</time>
   </trkpt>
   <trkpt lat="46.1924781799316" lon="7.30706310272217">
    <ele>1057.19995117188</ele>
    <time>2012-05-23T14:52:53Z</time>
   </trkpt>
   <trkpt lat="46.1923522949219" lon="7.30704593658447">
    <ele>1058.29992675781</ele>
    <time>2012-05-23T14:52:57Z</time>
   </trkpt>
   <trkpt lat="46.1923141479492" lon="7.3070478439331">
    <ele>1058.57495117188</ele>
    <time>2012-05-23T14:52:58Z</time>
   </trkpt>
   <trkpt lat="46.1922798156738" lon="7.30705547332764">
    <ele>1058.84997558594</ele>
    <time>2012-05-23T14:52:59Z</time>
   </trkpt>
   <trkpt lat="46.1922454833984" lon="7.30705308914185">
    <ele>1059.125</ele>
    <time>2012-05-23T14:53:00Z</time>
   </trkpt>
   <trkpt lat="46.192211151123" lon="7.3070559501648">
    <ele>1059.39990234375</ele>
    <time>2012-05-23T14:53:01Z</time>
   </trkpt>
   <trkpt lat="46.1920852661133" lon="7.30707359313965">
    <ele>1060.5</ele>
    <time>2012-05-23T14:53:05Z</time>
   </trkpt>
   <trkpt lat="46.1920547485352" lon="7.30709028244018">
    <ele>1060.77502441406</ele>
    <time>2012-05-23T14:53:06Z</time>
   </trkpt>
   <trkpt lat="46.1920166015625" lon="7.30710649490356">
    <ele>1061.04992675781</ele>
    <time>2012-05-23T14:53:07Z</time>
   </trkpt>
   <trkpt lat="46.1919898986816" lon="7.3071231842041">
    <ele>1061.32495117188</ele>
    <time>2012-05-23T14:53:08Z</time>
   </trkpt>
   <trkpt lat="46.1919631958008" lon="7.30713701248169">
    <ele>1061.59997558594</ele>
    <time>2012-05-23T14:53:09Z</time>
   </trkpt>
   <trkpt lat="46.1918563842773" lon="7.30719614028931">
    <ele>1061.59997558594</ele>
    <time>2012-05-23T14:53:13Z</time>
   </trkpt>
   <trkpt lat="46.1917533874512" lon="7.30726623535156">
    <ele>1062.85717773438</ele>
    <time>2012-05-23T14:53:17Z</time>
   </trkpt>
   <trkpt lat="46.1917304992676" lon="7.30728530883789">
    <ele>1063.17150878906</ele>
    <time>2012-05-23T14:53:18Z</time>
   </trkpt>
   <trkpt lat="46.1917037963867" lon="7.30730199813843">
    <ele>1063.48571777344</ele>
    <time>2012-05-23T14:53:19Z</time>
   </trkpt>
   <trkpt lat="46.1916809082031" lon="7.30731821060181">
    <ele>1063.80004882812</ele>
    <time>2012-05-23T14:53:20Z</time>
   </trkpt>
   <trkpt lat="46.1916542053223" lon="7.30734157562256">
    <ele>1063.80004882812</ele>
    <time>2012-05-23T14:53:21Z</time>
   </trkpt>
   <trkpt lat="46.1915016174316" lon="7.30746603012085">
    <ele>1065.11999511719</ele>
    <time>2012-05-23T14:53:27Z</time>
   </trkpt>
   <trkpt lat="46.1914749145508" lon="7.30748414993286">
    <ele>1065.33996582031</ele>
    <time>2012-05-23T14:53:28Z</time>
   </trkpt>
   <trkpt lat="46.1914520263672" lon="7.3075065612793">
    <ele>1065.56005859375</ele>
    <time>2012-05-23T14:53:29Z</time>
   </trkpt>
   <trkpt lat="46.1914253234863" lon="7.3075213432312">
    <ele>1065.78002929688</ele>
    <time>2012-05-23T14:53:30Z</time>
   </trkpt>
   <trkpt lat="46.1913986206055" lon="7.30753469467163">
    <ele>1066</ele>
    <time>2012-05-23T14:53:31Z</time>
   </trkpt>
   <trkpt lat="46.1912727355957" lon="7.30761241912842">
    <ele>1066</ele>
    <time>2012-05-23T14:53:36Z</time>
   </trkpt>
   <trkpt lat="46.1912002563477" lon="7.30765628814697">
    <ele>1067.09997558594</ele>
    <time>2012-05-23T14:53:39Z</time>
   </trkpt>
   <trkpt lat="46.1911773681641" lon="7.30766773223877">
    <ele>1067.46667480469</ele>
    <time>2012-05-23T14:53:40Z</time>
   </trkpt>
   <trkpt lat="46.1911506652832" lon="7.30768251419067">
    <ele>1067.83325195312</ele>
    <time>2012-05-23T14:53:41Z</time>
   </trkpt>
   <trkpt lat="46.1911201477051" lon="7.30769538879394">
    <ele>1068.19995117188</ele>
    <time>2012-05-23T14:53:42Z</time>
   </trkpt>
   <trkpt lat="46.1910934448242" lon="7.30771541595459">
    <ele>1068.19995117188</ele>
    <time>2012-05-23T14:53:43Z</time>
   </trkpt>
   <trkpt lat="46.1909370422363" lon="7.30778217315674">
    <ele>1069.52001953125</ele>
    <time>2012-05-23T14:53:49Z</time>
   </trkpt>
   <trkpt lat="46.1909141540527" lon="7.30778932571411">
    <ele>1069.73999023438</ele>
    <time>2012-05-23T14:53:50Z</time>
   </trkpt>
   <trkpt lat="46.1908874511719" lon="7.30779504776001">
    <ele>1069.9599609375</ele>
    <time>2012-05-23T14:53:51Z</time>
   </trkpt>
   <trkpt lat="46.1908645629883" lon="7.30779981613159">
    <ele>1070.18005371094</ele>
    <time>2012-05-23T14:53:52Z</time>
   </trkpt>
   <trkpt lat="46.1908340454102" lon="7.3077974319458">
    <ele>1070.40002441406</ele>
    <time>2012-05-23T14:53:53Z</time>
   </trkpt>
   <trkpt lat="46.1907577514648" lon="7.30780744552612">
    <ele>1070.40002441406</ele>
    <time>2012-05-23T14:53:56Z</time>
   </trkpt>
   <trkpt lat="46.1906776428223" lon="7.3078122138977">
    <ele>1071.25720214844</ele>
    <time>2012-05-23T14:53:59Z</time>
   </trkpt>
   <trkpt lat="46.1906509399414" lon="7.30781412124634">
    <ele>1071.54284667969</ele>
    <time>2012-05-23T14:54:00Z</time>
   </trkpt>
   <trkpt lat="46.1906242370606" lon="7.30781126022339">
    <ele>1071.82861328125</ele>
    <time>2012-05-23T14:54:01Z</time>
   </trkpt>
   <trkpt lat="46.190601348877" lon="7.3078203201294">
    <ele>1072.1142578125</ele>
    <time>2012-05-23T14:54:02Z</time>
   </trkpt>
   <trkpt lat="46.1905670166016" lon="7.30782842636108">
    <ele>1072.40002441406</ele>
    <time>2012-05-23T14:54:03Z</time>
   </trkpt>
   <trkpt lat="46.1905364990234" lon="7.3078293800354">
    <ele>1072.40002441406</ele>
    <time>2012-05-23T14:54:04Z</time>
   </trkpt>
   <trkpt lat="46.1904525756836" lon="7.3078556060791">
    <ele>1073.25720214844</ele>
    <time>2012-05-23T14:54:07Z</time>
   </trkpt>
   <trkpt lat="46.1904220581055" lon="7.30786323547363">
    <ele>1073.54284667969</ele>
    <time>2012-05-23T14:54:08Z</time>
   </trkpt>
   <trkpt lat="46.1903991699219" lon="7.30787515640259">
    <ele>1073.82861328125</ele>
    <time>2012-05-23T14:54:09Z</time>
   </trkpt>
   <trkpt lat="46.1903686523438" lon="7.30788612365723">
    <ele>1074.1142578125</ele>
    <time>2012-05-23T14:54:10Z</time>
   </trkpt>
   <trkpt lat="46.1903419494629" lon="7.3079023361206">
    <ele>1074.40002441406</ele>
    <time>2012-05-23T14:54:11Z</time>
   </trkpt>
   <trkpt lat="46.1903114318848" lon="7.30791854858398">
    <ele>1074.40002441406</ele>
    <time>2012-05-23T14:54:12Z</time>
   </trkpt>
   <trkpt lat="46.1901741027832" lon="7.30801486968994">
    <ele>1075.59997558594</ele>
    <time>2012-05-23T14:54:18Z</time>
   </trkpt>
   <trkpt lat="46.1901550292969" lon="7.30803108215332">
    <ele>1075.80004882812</ele>
    <time>2012-05-23T14:54:19Z</time>
   </trkpt>
   <trkpt lat="46.190128326416" lon="7.30805683135986">
    <ele>1076</ele>
    <time>2012-05-23T14:54:20Z</time>
   </trkpt>
   <trkpt lat="46.1901016235352" lon="7.30807638168335">
    <ele>1076.19995117188</ele>
    <time>2012-05-23T14:54:21Z</time>
   </trkpt>
   <trkpt lat="46.1900749206543" lon="7.30808973312378">
    <ele>1076.40002441406</ele>
    <time>2012-05-23T14:54:22Z</time>
   </trkpt>
   <trkpt lat="46.1900444030762" lon="7.30810356140137">
    <ele>1076.59997558594</ele>
    <time>2012-05-23T14:54:23Z</time>
   </trkpt>
   <trkpt lat="46.1900177001953" lon="7.30810785293579">
    <ele>1076.59997558594</ele>
    <time>2012-05-23T14:54:24Z</time>
   </trkpt>
   <trkpt lat="46.1898803710938" lon="7.30815601348877">
    <ele>1077.75793457031</ele>
    <time>2012-05-23T14:54:29Z</time>
   </trkpt>
   <trkpt lat="46.1898574829102" lon="7.30816984176636">
    <ele>1077.98950195312</ele>
    <time>2012-05-23T14:54:30Z</time>
   </trkpt>
   <trkpt lat="46.1898307800293" lon="7.308180809021">
    <ele>1078.22106933594</ele>
    <time>2012-05-23T14:54:31Z</time>
   </trkpt>
   <trkpt lat="46.1898040771484" lon="7.30818462371826">
    <ele>1078.45263671875</ele>
    <time>2012-05-23T14:54:32Z</time>
   </trkpt>
   <trkpt lat="46.1896095275879" lon="7.30823230743408">
    <ele>1080.07373046875</ele>
    <time>2012-05-23T14:54:39Z</time>
   </trkpt>
   <trkpt lat="46.1895790100098" lon="7.30824565887451">
    <ele>1080.30529785156</ele>
    <time>2012-05-23T14:54:40Z</time>
   </trkpt>
   <trkpt lat="46.1895523071289" lon="7.30825901031494">
    <ele>1080.53686523438</ele>
    <time>2012-05-23T14:54:41Z</time>
   </trkpt>
   <trkpt lat="46.189525604248" lon="7.30826282501221">
    <ele>1080.76843261719</ele>
    <time>2012-05-23T14:54:42Z</time>
   </trkpt>
   <trkpt lat="46.1895027160644" lon="7.30826950073242">
    <ele>1081</ele>
    <time>2012-05-23T14:54:43Z</time>
   </trkpt>
   <trkpt lat="46.1894226074219" lon="7.30828094482422">
    <ele>1081</ele>
    <time>2012-05-23T14:54:46Z</time>
   </trkpt>
   <trkpt lat="46.1893348693848" lon="7.30830240249634">
    <ele>1081.94287109375</ele>
    <time>2012-05-23T14:54:49Z</time>
   </trkpt>
   <trkpt lat="46.1893081665039" lon="7.30830430984497">
    <ele>1082.25708007812</ele>
    <time>2012-05-23T14:54:50Z</time>
   </trkpt>
   <trkpt lat="46.189281463623" lon="7.30830669403076">
    <ele>1082.57141113281</ele>
    <time>2012-05-23T14:54:51Z</time>
   </trkpt>
   <trkpt lat="46.1892547607422" lon="7.30831480026245">
    <ele>1082.88562011719</ele>
    <time>2012-05-23T14:54:52Z</time>
   </trkpt>
   <trkpt lat="46.1892280578613" lon="7.30831050872803">
    <ele>1083.19995117188</ele>
    <time>2012-05-23T14:54:53Z</time>
   </trkpt>
   <trkpt lat="46.1892013549805" lon="7.30831003189087">
    <ele>1083.19995117188</ele>
    <time>2012-05-23T14:54:54Z</time>
   </trkpt>
   <trkpt lat="46.1890869140625" lon="7.30829095840454">
    <ele>1084.14807128906</ele>
    <time>2012-05-23T14:54:58Z</time>
   </trkpt>
   <trkpt lat="46.1890563964844" lon="7.30828428268433">
    <ele>1084.38513183594</ele>
    <time>2012-05-23T14:54:59Z</time>
   </trkpt>
   <trkpt lat="46.1890335083008" lon="7.30827617645264">
    <ele>1084.62219238281</ele>
    <time>2012-05-23T14:55:00Z</time>
   </trkpt>
   <trkpt lat="46.1890029907227" lon="7.30827236175537">
    <ele>1084.85925292969</ele>
    <time>2012-05-23T14:55:01Z</time>
   </trkpt>
   <trkpt lat="46.1889801025391" lon="7.30826330184936">
    <ele>1085.09631347656</ele>
    <time>2012-05-23T14:55:02Z</time>
   </trkpt>
   <trkpt lat="46.188850402832" lon="7.30824851989746">
    <ele>1086.28149414062</ele>
    <time>2012-05-23T14:55:07Z</time>
   </trkpt>
   <trkpt lat="46.1888275146484" lon="7.30824136734009">
    <ele>1086.51843261719</ele>
    <time>2012-05-23T14:55:08Z</time>
   </trkpt>
   <trkpt lat="46.1888046264648" lon="7.30823993682861">
    <ele>1086.75549316406</ele>
    <time>2012-05-23T14:55:09Z</time>
   </trkpt>
   <trkpt lat="46.188777923584" lon="7.30823230743408">
    <ele>1086.99255371094</ele>
    <time>2012-05-23T14:55:10Z</time>
   </trkpt>
   <trkpt lat="46.1887474060059" lon="7.30822467803955">
    <ele>1087.22961425781</ele>
    <time>2012-05-23T14:55:11Z</time>
   </trkpt>
   <trkpt lat="46.188549041748" lon="7.30815982818604">
    <ele>1088.88891601562</ele>
    <time>2012-05-23T14:55:18Z</time>
   </trkpt>
   <trkpt lat="46.1885223388672" lon="7.30814695358276">
    <ele>1089.12585449219</ele>
    <time>2012-05-23T14:55:19Z</time>
   </trkpt>
   <trkpt lat="46.1884918212891" lon="7.30813312530518">
    <ele>1089.36291503906</ele>
    <time>2012-05-23T14:55:20Z</time>
   </trkpt>
   <trkpt lat="46.1884651184082" lon="7.3081202507019">
    <ele>1089.59997558594</ele>
    <time>2012-05-23T14:55:21Z</time>
   </trkpt>
   <trkpt lat="46.1883316040039" lon="7.30802869796753">
    <ele>1089.59997558594</ele>
    <time>2012-05-23T14:55:27Z</time>
   </trkpt>
   <trkpt lat="46.1883087158203" lon="7.30800914764404">
    <ele>1090</ele>
    <time>2012-05-23T14:55:28Z</time>
   </trkpt>
   <trkpt lat="46.1882820129394" lon="7.30798864364624">
    <ele>1090.40002441406</ele>
    <time>2012-05-23T14:55:29Z</time>
   </trkpt>
   <trkpt lat="46.1882591247559" lon="7.30796575546265">
    <ele>1090.79992675781</ele>
    <time>2012-05-23T14:55:30Z</time>
   </trkpt>
   <trkpt lat="46.1882400512695" lon="7.30794668197632">
    <ele>1091.19995117188</ele>
    <time>2012-05-23T14:55:31Z</time>
   </trkpt>
   <trkpt lat="46.1882171630859" lon="7.30792474746704">
    <ele>1091.59997558594</ele>
    <time>2012-05-23T14:55:32Z</time>
   </trkpt>
   <trkpt lat="46.188175201416" lon="7.30788135528564">
    <ele>1091.59997558594</ele>
    <time>2012-05-23T14:55:34Z</time>
   </trkpt>
   <trkpt lat="46.1880912780762" lon="7.30778455734253">
    <ele>1092.69995117188</ele>
    <time>2012-05-23T14:55:38Z</time>
   </trkpt>
   <trkpt lat="46.1880722045898" lon="7.30776262283325">
    <ele>1092.97497558594</ele>
    <time>2012-05-23T14:55:39Z</time>
   </trkpt>
   <trkpt lat="46.1880531311035" lon="7.30773782730102">
    <ele>1093.25</ele>
    <time>2012-05-23T14:55:40Z</time>
   </trkpt>
   <trkpt lat="46.1880378723144" lon="7.30771398544312">
    <ele>1093.52502441406</ele>
    <time>2012-05-23T14:55:41Z</time>
   </trkpt>
   <trkpt lat="46.1880187988281" lon="7.30769109725952">
    <ele>1093.80004882812</ele>
    <time>2012-05-23T14:55:42Z</time>
   </trkpt>
   <trkpt lat="46.1879959106445" lon="7.30766344070435">
    <ele>1093.80004882812</ele>
    <time>2012-05-23T14:55:43Z</time>
   </trkpt>
   <trkpt lat="46.1878700256348" lon="7.30752086639404">
    <ele>1095.12414550781</ele>
    <time>2012-05-23T14:55:49Z</time>
   </trkpt>
   <trkpt lat="46.1878433227539" lon="7.30749416351318">
    <ele>1095.34484863281</ele>
    <time>2012-05-23T14:55:50Z</time>
   </trkpt>
   <trkpt lat="46.1878204345703" lon="7.30746364593506">
    <ele>1095.56555175781</ele>
    <time>2012-05-23T14:55:51Z</time>
   </trkpt>
   <trkpt lat="46.1877937316894" lon="7.30743169784546">
    <ele>1095.78625488281</ele>
    <time>2012-05-23T14:55:52Z</time>
   </trkpt>
   <trkpt lat="46.1877708435059" lon="7.30740404129028">
    <ele>1096.00695800781</ele>
    <time>2012-05-23T14:55:53Z</time>
   </trkpt>
   <trkpt lat="46.1876335144043" lon="7.30724716186524">
    <ele>1097.3310546875</ele>
    <time>2012-05-23T14:55:59Z</time>
   </trkpt>
   <trkpt lat="46.187614440918" lon="7.30721759796143">
    <ele>1097.5517578125</ele>
    <time>2012-05-23T14:56:00Z</time>
   </trkpt>
   <trkpt lat="46.1875953674316" lon="7.30719041824341">
    <ele>1097.7724609375</ele>
    <time>2012-05-23T14:56:01Z</time>
   </trkpt>
   <trkpt lat="46.1875762939453" lon="7.30716514587402">
    <ele>1097.99304199219</ele>
    <time>2012-05-23T14:56:02Z</time>
   </trkpt>
   <trkpt lat="46.1875534057617" lon="7.30714225769043">
    <ele>1098.21374511719</ele>
    <time>2012-05-23T14:56:03Z</time>
   </trkpt>
   <trkpt lat="46.1874160766602" lon="7.30701398849487">
    <ele>1099.53784179688</ele>
    <time>2012-05-23T14:56:09Z</time>
   </trkpt>
   <trkpt lat="46.1873931884766" lon="7.3069953918457">
    <ele>1099.75854492188</ele>
    <time>2012-05-23T14:56:10Z</time>
   </trkpt>
   <trkpt lat="46.187370300293" lon="7.30697727203369">
    <ele>1099.97924804688</ele>
    <time>2012-05-23T14:56:11Z</time>
   </trkpt>
   <trkpt lat="46.1873435974121" lon="7.30696392059326">
    <ele>1100.19995117188</ele>
    <time>2012-05-23T14:56:12Z</time>
   </trkpt>
   <trkpt lat="46.1872177124023" lon="7.3069577217102">
    <ele>1100.19995117188</ele>
    <time>2012-05-23T14:56:16Z</time>
   </trkpt>
   <trkpt lat="46.1870994567871" lon="7.30699586868286">
    <ele>1101.18823242188</ele>
    <time>2012-05-23T14:56:20Z</time>
   </trkpt>
   <trkpt lat="46.1870727539062" lon="7.30701398849487">
    <ele>1101.43530273438</ele>
    <time>2012-05-23T14:56:21Z</time>
   </trkpt>
   <trkpt lat="46.1870536804199" lon="7.30703115463257">
    <ele>1101.68237304688</ele>
    <time>2012-05-23T14:56:22Z</time>
   </trkpt>
   <trkpt lat="46.1870307922363" lon="7.3070478439331">
    <ele>1101.92944335938</ele>
    <time>2012-05-23T14:56:23Z</time>
   </trkpt>
   <trkpt lat="46.1870040893555" lon="7.30706262588501">
    <ele>1102.17651367188</ele>
    <time>2012-05-23T14:56:24Z</time>
   </trkpt>
   <trkpt lat="46.1868362426758" lon="7.30712890625">
    <ele>1103.65881347656</ele>
    <time>2012-05-23T14:56:30Z</time>
   </trkpt>
   <trkpt lat="46.1868095397949" lon="7.30713367462158">
    <ele>1103.90588378906</ele>
    <time>2012-05-23T14:56:31Z</time>
   </trkpt>
   <trkpt lat="46.1867866516113" lon="7.30713748931885">
    <ele>1104.15295410156</ele>
    <time>2012-05-23T14:56:32Z</time>
   </trkpt>
   <trkpt lat="46.1867561340332" lon="7.30714178085327">
    <ele>1104.40002441406</ele>
    <time>2012-05-23T14:56:33Z</time>
   </trkpt>
   <trkpt lat="46.1866416931152" lon="7.30712938308716">
    <ele>1104.40002441406</ele>
    <time>2012-05-23T14:56:37Z</time>
   </trkpt>
   <trkpt lat="46.1866111755371" lon="7.30712652206421">
    <ele>1104.83996582031</ele>
    <time>2012-05-23T14:56:38Z</time>
   </trkpt>
   <trkpt lat="46.1865844726562" lon="7.30711650848389">
    <ele>1105.28002929688</ele>
    <time>2012-05-23T14:56:39Z</time>
   </trkpt>
   <trkpt lat="46.1865577697754" lon="7.30710363388062">
    <ele>1105.71997070312</ele>
    <time>2012-05-23T14:56:40Z</time>
   </trkpt>
   <trkpt lat="46.1865234375" lon="7.30709075927734">
    <ele>1106.16003417969</ele>
    <time>2012-05-23T14:56:41Z</time>
   </trkpt>
   <trkpt lat="46.1864967346191" lon="7.30707788467407">
    <ele>1106.59997558594</ele>
    <time>2012-05-23T14:56:42Z</time>
   </trkpt>
   <trkpt lat="46.186466217041" lon="7.30706310272217">
    <ele>1106.59997558594</ele>
    <time>2012-05-23T14:56:43Z</time>
   </trkpt>
   <trkpt lat="46.1863555908203" lon="7.30700159072876">
    <ele>1107.63525390625</ele>
    <time>2012-05-23T14:56:47Z</time>
   </trkpt>
   <trkpt lat="46.1863288879394" lon="7.30698680877686">
    <ele>1107.89404296875</ele>
    <time>2012-05-23T14:56:48Z</time>
   </trkpt>
   <trkpt lat="46.1863021850586" lon="7.30697536468506">
    <ele>1108.15295410156</ele>
    <time>2012-05-23T14:56:49Z</time>
   </trkpt>
   <trkpt lat="46.186279296875" lon="7.30696153640747">
    <ele>1108.41174316406</ele>
    <time>2012-05-23T14:56:50Z</time>
   </trkpt>
   <trkpt lat="46.1862525939941" lon="7.30694484710693">
    <ele>1108.67053222656</ele>
    <time>2012-05-23T14:56:51Z</time>
   </trkpt>
   <trkpt lat="46.1860809326172" lon="7.3068585395813">
    <ele>1110.22351074219</ele>
    <time>2012-05-23T14:56:57Z</time>
   </trkpt>
   <trkpt lat="46.1860580444336" lon="7.30684518814087">
    <ele>1110.48229980469</ele>
    <time>2012-05-23T14:56:58Z</time>
   </trkpt>
   <trkpt lat="46.1860275268555" lon="7.3068323135376">
    <ele>1110.7412109375</ele>
    <time>2012-05-23T14:56:59Z</time>
   </trkpt>
   <trkpt lat="46.1859970092773" lon="7.30681753158569">
    <ele>1111</ele>
    <time>2012-05-23T14:57:00Z</time>
   </trkpt>
   <trkpt lat="46.1859092712402" lon="7.30675601959228">
    <ele>1111</ele>
    <time>2012-05-23T14:57:04Z</time>
   </trkpt>
   <trkpt lat="46.1858596801758" lon="7.30672407150268">
    <ele>1111.66662597656</ele>
    <time>2012-05-23T14:57:06Z</time>
   </trkpt>
   <trkpt lat="46.1858329772949" lon="7.30671072006226">
    <ele>1112</ele>
    <time>2012-05-23T14:57:07Z</time>
   </trkpt>
   <trkpt lat="46.1858062744141" lon="7.30669975280762">
    <ele>1112.33337402344</ele>
    <time>2012-05-23T14:57:08Z</time>
   </trkpt>
   <trkpt lat="46.1857795715332" lon="7.30669116973877">
    <ele>1112.66662597656</ele>
    <time>2012-05-23T14:57:09Z</time>
   </trkpt>
   <trkpt lat="46.1857528686523" lon="7.30668687820435">
    <ele>1113</ele>
    <time>2012-05-23T14:57:10Z</time>
   </trkpt>
   <trkpt lat="46.1856002807617" lon="7.30673789978027">
    <ele>1113</ele>
    <time>2012-05-23T14:57:15Z</time>
   </trkpt>
   <trkpt lat="46.1855735778809" lon="7.30675554275513">
    <ele>1113.43994140625</ele>
    <time>2012-05-23T14:57:16Z</time>
   </trkpt>
   <trkpt lat="46.1855506896973" lon="7.30677175521851">
    <ele>1113.88000488281</ele>
    <time>2012-05-23T14:57:17Z</time>
   </trkpt>
   <trkpt lat="46.1855239868164" lon="7.30679130554199">
    <ele>1114.31994628906</ele>
    <time>2012-05-23T14:57:18Z</time>
   </trkpt>
   <trkpt lat="46.1855010986328" lon="7.30681753158569">
    <ele>1114.76000976562</ele>
    <time>2012-05-23T14:57:19Z</time>
   </trkpt>
   <trkpt lat="46.1854820251465" lon="7.30684518814087">
    <ele>1115.19995117188</ele>
    <time>2012-05-23T14:57:20Z</time>
   </trkpt>
   <trkpt lat="46.1854629516602" lon="7.30687713623047">
    <ele>1115.19995117188</ele>
    <time>2012-05-23T14:57:21Z</time>
   </trkpt>
   <trkpt lat="46.1854095458984" lon="7.30699396133423">
    <ele>1116</ele>
    <time>2012-05-23T14:57:25Z</time>
   </trkpt>
   <trkpt lat="46.1853790283203" lon="7.30705404281616">
    <ele>1116.39990234375</ele>
    <time>2012-05-23T14:57:27Z</time>
   </trkpt>
   <trkpt lat="46.1853637695312" lon="7.30708265304565">
    <ele>1116.59997558594</ele>
    <time>2012-05-23T14:57:28Z</time>
   </trkpt>
   <trkpt lat="46.1853485107422" lon="7.30711317062378">
    <ele>1116.79992675781</ele>
    <time>2012-05-23T14:57:29Z</time>
   </trkpt>
   <trkpt lat="46.1853332519531" lon="7.30714178085327">
    <ele>1117</ele>
    <time>2012-05-23T14:57:30Z</time>
   </trkpt>
   <trkpt lat="46.1853141784668" lon="7.3071756362915">
    <ele>1117.19995117188</ele>
    <time>2012-05-23T14:57:31Z</time>
   </trkpt>
   <trkpt lat="46.1852989196777" lon="7.3072099685669">
    <ele>1117.19995117188</ele>
    <time>2012-05-23T14:57:32Z</time>
   </trkpt>
   <trkpt lat="46.1851921081543" lon="7.30736923217774">
    <ele>1118.31103515625</ele>
    <time>2012-05-23T14:57:37Z</time>
   </trkpt>
   <trkpt lat="46.1851692199707" lon="7.30739736557007">
    <ele>1118.53332519531</ele>
    <time>2012-05-23T14:57:38Z</time>
   </trkpt>
   <trkpt lat="46.1851463317871" lon="7.30742406845093">
    <ele>1118.75549316406</ele>
    <time>2012-05-23T14:57:39Z</time>
   </trkpt>
   <trkpt lat="46.1851234436035" lon="7.30744743347168">
    <ele>1118.97778320312</ele>
    <time>2012-05-23T14:57:40Z</time>
   </trkpt>
   <trkpt lat="46.1851043701172" lon="7.30747413635254">
    <ele>1119.19995117188</ele>
    <time>2012-05-23T14:57:41Z</time>
   </trkpt>
   <trkpt lat="46.1849822998047" lon="7.30758380889893">
    <ele>1119.19995117188</ele>
    <time>2012-05-23T14:57:46Z</time>
   </trkpt>
   <trkpt lat="46.184928894043" lon="7.30761861801148">
    <ele>1119.79992675781</ele>
    <time>2012-05-23T14:57:48Z</time>
   </trkpt>
   <trkpt lat="46.1848907470703" lon="7.30763912200928">
    <ele>1120.09997558594</ele>
    <time>2012-05-23T14:57:49Z</time>
   </trkpt>
   <trkpt lat="46.1848640441894" lon="7.30765104293823">
    <ele>1120.40002441406</ele>
    <time>2012-05-23T14:57:50Z</time>
   </trkpt>
   <trkpt lat="46.1848373413086" lon="7.30766439437866">
    <ele>1120.69995117188</ele>
    <time>2012-05-23T14:57:51Z</time>
   </trkpt>
   <trkpt lat="46.1847152709961" lon="7.30772924423218">
    <ele>1122.19995117188</ele>
    <time>2012-05-23T14:57:56Z</time>
   </trkpt>
   <trkpt lat="46.1846885681152" lon="7.30773830413818">
    <ele>1122.5</ele>
    <time>2012-05-23T14:57:57Z</time>
   </trkpt>
   <trkpt lat="46.1846618652344" lon="7.3077449798584">
    <ele>1122.80004882812</ele>
    <time>2012-05-23T14:57:58Z</time>
   </trkpt>
   <trkpt lat="46.1846351623535" lon="7.30774831771851">
    <ele>1123.09997558594</ele>
    <time>2012-05-23T14:57:59Z</time>
   </trkpt>
   <trkpt lat="46.1846084594727" lon="7.30775165557861">
    <ele>1123.40002441406</ele>
    <time>2012-05-23T14:58:00Z</time>
   </trkpt>
   <trkpt lat="46.1844940185547" lon="7.307785987854">
    <ele>1123.40002441406</ele>
    <time>2012-05-23T14:58:04Z</time>
   </trkpt>
   <trkpt lat="46.1844711303711" lon="7.30779886245728">
    <ele>1123.94995117188</ele>
    <time>2012-05-23T14:58:05Z</time>
   </trkpt>
   <trkpt lat="46.1844444274902" lon="7.30781269073486">
    <ele>1124.5</ele>
    <time>2012-05-23T14:58:06Z</time>
   </trkpt>
   <trkpt lat="46.1844177246094" lon="7.30783081054688">
    <ele>1125.05004882812</ele>
    <time>2012-05-23T14:58:07Z</time>
   </trkpt>
   <trkpt lat="46.1843948364258" lon="7.30784893035889">
    <ele>1125.59997558594</ele>
    <time>2012-05-23T14:58:08Z</time>
   </trkpt>
   <trkpt lat="46.1843223571777" lon="7.3079195022583">
    <ele>1125.59997558594</ele>
    <time>2012-05-23T14:58:11Z</time>
   </trkpt>
   <trkpt lat="46.1842651367188" lon="7.30800724029541">
    <ele>1126.34118652344</ele>
    <time>2012-05-23T14:58:14Z</time>
   </trkpt>
   <trkpt lat="46.1842498779297" lon="7.30804204940796">
    <ele>1126.58825683594</ele>
    <time>2012-05-23T14:58:15Z</time>
   </trkpt>
   <trkpt lat="46.1842346191406" lon="7.30807638168335">
    <ele>1126.83532714844</ele>
    <time>2012-05-23T14:58:16Z</time>
   </trkpt>
   <trkpt lat="46.1842231750488" lon="7.30811071395874">
    <ele>1127.08239746094</ele>
    <time>2012-05-23T14:58:17Z</time>
   </trkpt>
   <trkpt lat="46.184211730957" lon="7.30814123153686">
    <ele>1127.32946777344</ele>
    <time>2012-05-23T14:58:18Z</time>
   </trkpt>
   <trkpt lat="46.1841354370117" lon="7.30834913253784">
    <ele>1128.81176757812</ele>
    <time>2012-05-23T14:58:24Z</time>
   </trkpt>
   <trkpt lat="46.1841239929199" lon="7.30838394165039">
    <ele>1129.05883789062</ele>
    <time>2012-05-23T14:58:25Z</time>
   </trkpt>
   <trkpt lat="46.1841125488281" lon="7.3084192276001">
    <ele>1129.30590820312</ele>
    <time>2012-05-23T14:58:26Z</time>
   </trkpt>
   <trkpt lat="46.1841011047363" lon="7.3084545135498">
    <ele>1129.55297851562</ele>
    <time>2012-05-23T14:58:27Z</time>
   </trkpt>
   <trkpt lat="46.1840858459473" lon="7.30848979949951">
    <ele>1129.80004882812</ele>
    <time>2012-05-23T14:58:28Z</time>
   </trkpt>
   <trkpt lat="46.1840400695801" lon="7.30862379074097">
    <ele>1129.80004882812</ele>
    <time>2012-05-23T14:58:32Z</time>
   </trkpt>
   <trkpt lat="46.1840171813965" lon="7.30869102478027">
    <ele>1130.53332519531</ele>
    <time>2012-05-23T14:58:34Z</time>
   </trkpt>
   <trkpt lat="46.1840057373047" lon="7.30872344970703">
    <ele>1130.90002441406</ele>
    <time>2012-05-23T14:58:35Z</time>
   </trkpt>
   <trkpt lat="46.1839942932129" lon="7.30875539779663">
    <ele>1131.26672363281</ele>
    <time>2012-05-23T14:58:36Z</time>
   </trkpt>
   <trkpt lat="46.1839828491211" lon="7.30878973007202">
    <ele>1131.63330078125</ele>
    <time>2012-05-23T14:58:37Z</time>
   </trkpt>
   <trkpt lat="46.1839714050293" lon="7.30882549285889">
    <ele>1132</ele>
    <time>2012-05-23T14:58:38Z</time>
   </trkpt>
   <trkpt lat="46.1839408874512" lon="7.30893993377686">
    <ele>1132</ele>
    <time>2012-05-23T14:58:41Z</time>
   </trkpt>
   <trkpt lat="46.1838760375977" lon="7.30916547775268">
    <ele>1133.31994628906</ele>
    <time>2012-05-23T14:58:47Z</time>
   </trkpt>
   <trkpt lat="46.1838645935059" lon="7.30920600891113">
    <ele>1133.53991699219</ele>
    <time>2012-05-23T14:58:48Z</time>
   </trkpt>
   <trkpt lat="46.1838531494141" lon="7.3092451095581">
    <ele>1133.76000976562</ele>
    <time>2012-05-23T14:58:49Z</time>
   </trkpt>
   <trkpt lat="46.1838417053223" lon="7.30928373336792">
    <ele>1133.97998046875</ele>
    <time>2012-05-23T14:58:50Z</time>
   </trkpt>
   <trkpt lat="46.1838302612305" lon="7.30932426452637">
    <ele>1134.19995117188</ele>
    <time>2012-05-23T14:58:51Z</time>
   </trkpt>
   <trkpt lat="46.1837768554688" lon="7.30941677093506">
    <ele>1134.19995117188</ele>
    <time>2012-05-23T14:58:54Z</time>
   </trkpt>
   <trkpt lat="46.1837501525879" lon="7.30942010879517">
    <ele>1134.419921875</ele>
    <time>2012-05-23T14:58:55Z</time>
   </trkpt>
   <trkpt lat="46.1836700439453" lon="7.30933332443237">
    <ele>1135.07995605469</ele>
    <time>2012-05-23T14:58:58Z</time>
   </trkpt>
   <trkpt lat="46.1836738586426" lon="7.309241771698">
    <ele>1135.52001953125</ele>
    <time>2012-05-23T14:59:00Z</time>
   </trkpt>
   <trkpt lat="46.1836929321289" lon="7.30920028686524">
    <ele>1135.73999023438</ele>
    <time>2012-05-23T14:59:01Z</time>
   </trkpt>
   <trkpt lat="46.1837120056152" lon="7.30916166305542">
    <ele>1135.9599609375</ele>
    <time>2012-05-23T14:59:02Z</time>
   </trkpt>
   <trkpt lat="46.1837348937988" lon="7.30912256240845">
    <ele>1136.18005371094</ele>
    <time>2012-05-23T14:59:03Z</time>
   </trkpt>
   <trkpt lat="46.1837577819824" lon="7.30908060073852">
    <ele>1136.40002441406</ele>
    <time>2012-05-23T14:59:04Z</time>
   </trkpt>
   <trkpt lat="46.1838722229004" lon="7.30883693695068">
    <ele>1136.40002441406</ele>
    <time>2012-05-23T14:59:10Z</time>
   </trkpt>
   <trkpt lat="46.1839065551758" lon="7.30869293212891">
    <ele>1137.25720214844</ele>
    <time>2012-05-23T14:59:13Z</time>
   </trkpt>
   <trkpt lat="46.1839141845703" lon="7.30864143371582">
    <ele>1137.54284667969</ele>
    <time>2012-05-23T14:59:14Z</time>
   </trkpt>
   <trkpt lat="46.1839218139648" lon="7.30858898162842">
    <ele>1137.82861328125</ele>
    <time>2012-05-23T14:59:15Z</time>
   </trkpt>
   <trkpt lat="46.1839294433594" lon="7.30853939056396">
    <ele>1138.1142578125</ele>
    <time>2012-05-23T14:59:16Z</time>
   </trkpt>
   <trkpt lat="46.1839370727539" lon="7.30848598480225">
    <ele>1138.40002441406</ele>
    <time>2012-05-23T14:59:17Z</time>
   </trkpt>
   <trkpt lat="46.1839485168457" lon="7.30818319320679">
    <ele>1138.40002441406</ele>
    <time>2012-05-23T14:59:23Z</time>
   </trkpt>
   <trkpt lat="46.1839485168457" lon="7.30813884735107">
    <ele>1138.83996582031</ele>
    <time>2012-05-23T14:59:24Z</time>
   </trkpt>
   <trkpt lat="46.183952331543" lon="7.3080940246582">
    <ele>1139.28002929688</ele>
    <time>2012-05-23T14:59:25Z</time>
   </trkpt>
   <trkpt lat="46.1839561462402" lon="7.30804395675659">
    <ele>1139.71997070312</ele>
    <time>2012-05-23T14:59:26Z</time>
   </trkpt>
   <trkpt lat="46.1839599609375" lon="7.30799722671509">
    <ele>1140.16003417969</ele>
    <time>2012-05-23T14:59:27Z</time>
   </trkpt>
   <trkpt lat="46.1839599609375" lon="7.30795001983643">
    <ele>1140.59997558594</ele>
    <time>2012-05-23T14:59:28Z</time>
   </trkpt>
   <trkpt lat="46.183967590332" lon="7.30781078338623">
    <ele>1140.59997558594</ele>
    <time>2012-05-23T14:59:31Z</time>
   </trkpt>
   <trkpt lat="46.1839790344238" lon="7.30762195587158">
    <ele>1141.63525390625</ele>
    <time>2012-05-23T14:59:35Z</time>
   </trkpt>
   <trkpt lat="46.1839828491211" lon="7.30757761001587">
    <ele>1141.89404296875</ele>
    <time>2012-05-23T14:59:36Z</time>
   </trkpt>
   <trkpt lat="46.1839866638184" lon="7.30753231048584">
    <ele>1142.15295410156</ele>
    <time>2012-05-23T14:59:37Z</time>
   </trkpt>
   <trkpt lat="46.1839904785156" lon="7.30748701095581">
    <ele>1142.41174316406</ele>
    <time>2012-05-23T14:59:38Z</time>
   </trkpt>
   <trkpt lat="46.1839942932129" lon="7.30743980407715">
    <ele>1142.67053222656</ele>
    <time>2012-05-23T14:59:39Z</time>
   </trkpt>
   <trkpt lat="46.1840667724609" lon="7.30716037750244">
    <ele>1144.22351074219</ele>
    <time>2012-05-23T14:59:45Z</time>
   </trkpt>
   <trkpt lat="46.18408203125" lon="7.30712032318115">
    <ele>1144.48229980469</ele>
    <time>2012-05-23T14:59:46Z</time>
   </trkpt>
   <trkpt lat="46.1840972900391" lon="7.3070797920227">
    <ele>1144.7412109375</ele>
    <time>2012-05-23T14:59:47Z</time>
   </trkpt>
   <trkpt lat="46.1841163635254" lon="7.30704212188721">
    <ele>1145</ele>
    <time>2012-05-23T14:59:48Z</time>
   </trkpt>
   <trkpt lat="46.1842002868652" lon="7.30689859390259">
    <ele>1145</ele>
    <time>2012-05-23T14:59:52Z</time>
   </trkpt>
   <trkpt lat="46.1842384338379" lon="7.30683135986328">
    <ele>1145.66662597656</ele>
    <time>2012-05-23T14:59:54Z</time>
   </trkpt>
   <trkpt lat="46.1842575073242" lon="7.30679893493652">
    <ele>1146</ele>
    <time>2012-05-23T14:59:55Z</time>
   </trkpt>
   <trkpt lat="46.1842765808106" lon="7.30676507949829">
    <ele>1146.33337402344</ele>
    <time>2012-05-23T14:59:56Z</time>
   </trkpt>
   <trkpt lat="46.1842956542969" lon="7.30672931671143">
    <ele>1146.66662597656</ele>
    <time>2012-05-23T14:59:57Z</time>
   </trkpt>
   <trkpt lat="46.1843185424805" lon="7.30669546127319">
    <ele>1147</ele>
    <time>2012-05-23T14:59:58Z</time>
   </trkpt>
   <trkpt lat="46.184383392334" lon="7.30659294128418">
    <ele>1147</ele>
    <time>2012-05-23T15:00:01Z</time>
   </trkpt>
   <trkpt lat="46.1844673156738" lon="7.30644035339356">
    <ele>1147.97778320312</ele>
    <time>2012-05-23T15:00:05Z</time>
   </trkpt>
   <trkpt lat="46.1844863891602" lon="7.30640411376953">
    <ele>1148.22216796875</ele>
    <time>2012-05-23T15:00:06Z</time>
   </trkpt>
   <trkpt lat="46.1845092773438" lon="7.30637216567993">
    <ele>1148.46667480469</ele>
    <time>2012-05-23T15:00:07Z</time>
   </trkpt>
   <trkpt lat="46.1845283508301" lon="7.3063383102417">
    <ele>1148.71118164062</ele>
    <time>2012-05-23T15:00:08Z</time>
   </trkpt>
   <trkpt lat="46.1845474243164" lon="7.3063063621521">
    <ele>1148.95556640625</ele>
    <time>2012-05-23T15:00:09Z</time>
   </trkpt>
   <trkpt lat="46.1846771240234" lon="7.30610609054565">
    <ele>1150.42224121094</ele>
    <time>2012-05-23T15:00:15Z</time>
   </trkpt>
   <trkpt lat="46.1846961975098" lon="7.30607175827026">
    <ele>1150.66674804688</ele>
    <time>2012-05-23T15:00:16Z</time>
   </trkpt>
   <trkpt lat="46.1847152709961" lon="7.30603933334351">
    <ele>1150.9111328125</ele>
    <time>2012-05-23T15:00:17Z</time>
   </trkpt>
   <trkpt lat="46.1847343444824" lon="7.30600690841675">
    <ele>1151.15551757812</ele>
    <time>2012-05-23T15:00:18Z</time>
   </trkpt>
   <trkpt lat="46.184757232666" lon="7.30597400665283">
    <ele>1151.40002441406</ele>
    <time>2012-05-23T15:00:19Z</time>
   </trkpt>
   <trkpt lat="46.1848411560059" lon="7.30581188201904">
    <ele>1151.40002441406</ele>
    <time>2012-05-23T15:00:24Z</time>
   </trkpt>
   <trkpt lat="46.1848564147949" lon="7.30577898025513">
    <ele>1151.83996582031</ele>
    <time>2012-05-23T15:00:25Z</time>
   </trkpt>
   <trkpt lat="46.1848754882812" lon="7.30574417114258">
    <ele>1152.28002929688</ele>
    <time>2012-05-23T15:00:26Z</time>
   </trkpt>
   <trkpt lat="46.1848907470703" lon="7.30570888519287">
    <ele>1152.71997070312</ele>
    <time>2012-05-23T15:00:27Z</time>
   </trkpt>
   <trkpt lat="46.1849060058594" lon="7.30567741394043">
    <ele>1153.16003417969</ele>
    <time>2012-05-23T15:00:28Z</time>
   </trkpt>
   <trkpt lat="46.1849212646484" lon="7.30564403533936">
    <ele>1153.59997558594</ele>
    <time>2012-05-23T15:00:29Z</time>
   </trkpt>
   <trkpt lat="46.1849479675293" lon="7.30557250976562">
    <ele>1153.59997558594</ele>
    <time>2012-05-23T15:00:31Z</time>
   </trkpt>
   <trkpt lat="46.185001373291" lon="7.30540561676025">
    <ele>1154.58825683594</ele>
    <time>2012-05-23T15:00:35Z</time>
   </trkpt>
   <trkpt lat="46.1850166320801" lon="7.30536222457886">
    <ele>1154.83532714844</ele>
    <time>2012-05-23T15:00:36Z</time>
   </trkpt>
   <trkpt lat="46.1850280761719" lon="7.3053183555603">
    <ele>1155.08239746094</ele>
    <time>2012-05-23T15:00:37Z</time>
   </trkpt>
   <trkpt lat="46.1850433349609" lon="7.30527544021606">
    <ele>1155.32946777344</ele>
    <time>2012-05-23T15:00:38Z</time>
   </trkpt>
   <trkpt lat="46.18505859375" lon="7.30523204803467">
    <ele>1155.57653808594</ele>
    <time>2012-05-23T15:00:39Z</time>
   </trkpt>
   <trkpt lat="46.1851463317871" lon="7.30504989624024">
    <ele>1156.81176757812</ele>
    <time>2012-05-23T15:00:44Z</time>
   </trkpt>
   <trkpt lat="46.1851654052734" lon="7.30501747131348">
    <ele>1157.05883789062</ele>
    <time>2012-05-23T15:00:45Z</time>
   </trkpt>
   <trkpt lat="46.1851844787598" lon="7.30498790740967">
    <ele>1157.30590820312</ele>
    <time>2012-05-23T15:00:46Z</time>
   </trkpt>
   <trkpt lat="46.1852111816406" lon="7.30496406555176">
    <ele>1157.55297851562</ele>
    <time>2012-05-23T15:00:47Z</time>
   </trkpt>
   <trkpt lat="46.1852340698242" lon="7.30494070053101">
    <ele>1157.80004882812</ele>
    <time>2012-05-23T15:00:48Z</time>
   </trkpt>
   <trkpt lat="46.1852951049805" lon="7.30489778518677">
    <ele>1157.80004882812</ele>
    <time>2012-05-23T15:00:50Z</time>
   </trkpt>
   <trkpt lat="46.1854209899902" lon="7.30482625961304">
    <ele>1158.90002441406</ele>
    <time>2012-05-23T15:00:54Z</time>
   </trkpt>
   <trkpt lat="46.1854515075684" lon="7.30480670928955">
    <ele>1159.17504882812</ele>
    <time>2012-05-23T15:00:55Z</time>
   </trkpt>
   <trkpt lat="46.1854782104492" lon="7.30478715896606">
    <ele>1159.44995117188</ele>
    <time>2012-05-23T15:00:56Z</time>
   </trkpt>
   <trkpt lat="46.1855087280273" lon="7.30476427078247">
    <ele>1159.72497558594</ele>
    <time>2012-05-23T15:00:57Z</time>
   </trkpt>
   <trkpt lat="46.1855430603027" lon="7.30474424362183">
    <ele>1160</ele>
    <time>2012-05-23T15:00:58Z</time>
   </trkpt>
   <trkpt lat="46.185661315918" lon="7.30465459823608">
    <ele>1161.09997558594</ele>
    <time>2012-05-23T15:01:02Z</time>
   </trkpt>
   <trkpt lat="46.1856880187988" lon="7.3046293258667">
    <ele>1161.375</ele>
    <time>2012-05-23T15:01:03Z</time>
   </trkpt>
   <trkpt lat="46.1857147216797" lon="7.30460357666016">
    <ele>1161.64990234375</ele>
    <time>2012-05-23T15:01:04Z</time>
   </trkpt>
   <trkpt lat="46.1857452392578" lon="7.3045768737793">
    <ele>1161.92492675781</ele>
    <time>2012-05-23T15:01:05Z</time>
   </trkpt>
   <trkpt lat="46.1857681274414" lon="7.30454683303833">
    <ele>1162.19995117188</ele>
    <time>2012-05-23T15:01:06Z</time>
   </trkpt>
   <trkpt lat="46.1858787536621" lon="7.30444383621216">
    <ele>1162.19995117188</ele>
    <time>2012-05-23T15:01:10Z</time>
   </trkpt>
   <trkpt lat="46.1859321594238" lon="7.30439043045044">
    <ele>1162.93334960938</ele>
    <time>2012-05-23T15:01:12Z</time>
   </trkpt>
   <trkpt lat="46.1859588623047" lon="7.30436325073242">
    <ele>1163.30004882812</ele>
    <time>2012-05-23T15:01:13Z</time>
   </trkpt>
   <trkpt lat="46.1859817504883" lon="7.30434083938599">
    <ele>1163.66662597656</ele>
    <time>2012-05-23T15:01:14Z</time>
   </trkpt>
   <trkpt lat="46.1860084533691" lon="7.30431461334228">
    <ele>1164.03332519531</ele>
    <time>2012-05-23T15:01:15Z</time>
   </trkpt>
   <trkpt lat="46.1860313415527" lon="7.30428838729858">
    <ele>1164.40002441406</ele>
    <time>2012-05-23T15:01:16Z</time>
   </trkpt>
   <trkpt lat="46.1860771179199" lon="7.30422687530518">
    <ele>1164.40002441406</ele>
    <time>2012-05-23T15:01:18Z</time>
   </trkpt>
   <trkpt lat="46.1861572265625" lon="7.30413389205933">
    <ele>1165.5</ele>
    <time>2012-05-23T15:01:21Z</time>
   </trkpt>
   <trkpt lat="46.1861801147461" lon="7.30409717559814">
    <ele>1165.86669921875</ele>
    <time>2012-05-23T15:01:22Z</time>
   </trkpt>
   <trkpt lat="46.1862030029297" lon="7.30405902862549">
    <ele>1166.23327636719</ele>
    <time>2012-05-23T15:01:23Z</time>
   </trkpt>
   <trkpt lat="46.1862258911133" lon="7.30401849746704">
    <ele>1166.59997558594</ele>
    <time>2012-05-23T15:01:24Z</time>
   </trkpt>
   <trkpt lat="46.1862449645996" lon="7.30397605895996">
    <ele>1166.59997558594</ele>
    <time>2012-05-23T15:01:25Z</time>
   </trkpt>
   <trkpt lat="46.1862831115723" lon="7.30389404296875">
    <ele>1167.2666015625</ele>
    <time>2012-05-23T15:01:27Z</time>
   </trkpt>
   <trkpt lat="46.1862983703613" lon="7.30385160446167">
    <ele>1167.59997558594</ele>
    <time>2012-05-23T15:01:28Z</time>
   </trkpt>
   <trkpt lat="46.1863174438477" lon="7.30381298065186">
    <ele>1167.93334960938</ele>
    <time>2012-05-23T15:01:29Z</time>
   </trkpt>
   <trkpt lat="46.186336517334" lon="7.30377531051636">
    <ele>1168.2666015625</ele>
    <time>2012-05-23T15:01:30Z</time>
   </trkpt>
   <trkpt lat="46.1863479614258" lon="7.30373573303223">
    <ele>1168.59997558594</ele>
    <time>2012-05-23T15:01:31Z</time>
   </trkpt>
   <trkpt lat="46.1863784790039" lon="7.30365705490112">
    <ele>1168.59997558594</ele>
    <time>2012-05-23T15:01:33Z</time>
   </trkpt>
   <trkpt lat="46.1864471435547" lon="7.3034930229187">
    <ele>1169.66662597656</ele>
    <time>2012-05-23T15:01:37Z</time>
   </trkpt>
   <trkpt lat="46.1864624023438" lon="7.30345678329468">
    <ele>1169.93334960938</ele>
    <time>2012-05-23T15:01:38Z</time>
   </trkpt>
   <trkpt lat="46.1864814758301" lon="7.30342435836792">
    <ele>1170.19995117188</ele>
    <time>2012-05-23T15:01:39Z</time>
   </trkpt>
   <trkpt lat="46.1864967346191" lon="7.3033881187439">
    <ele>1170.46667480469</ele>
    <time>2012-05-23T15:01:40Z</time>
   </trkpt>
   <trkpt lat="46.1865158081055" lon="7.30335426330566">
    <ele>1170.73327636719</ele>
    <time>2012-05-23T15:01:41Z</time>
   </trkpt>
   <trkpt lat="46.1866264343262" lon="7.30320072174072">
    <ele>1172.06665039062</ele>
    <time>2012-05-23T15:01:46Z</time>
   </trkpt>
   <trkpt lat="46.1866569519043" lon="7.30317163467407">
    <ele>1172.33337402344</ele>
    <time>2012-05-23T15:01:47Z</time>
   </trkpt>
   <trkpt lat="46.1866874694824" lon="7.30314350128174">
    <ele>1172.59997558594</ele>
    <time>2012-05-23T15:01:48Z</time>
   </trkpt>
   <trkpt lat="46.1867179870606" lon="7.30312395095825">
    <ele>1172.86669921875</ele>
    <time>2012-05-23T15:01:49Z</time>
   </trkpt>
   <trkpt lat="46.1868362426758" lon="7.30304861068726">
    <ele>1173.93334960938</ele>
    <time>2012-05-23T15:01:53Z</time>
   </trkpt>
   <trkpt lat="46.1868667602539" lon="7.30302858352661">
    <ele>1174.19995117188</ele>
    <time>2012-05-23T15:01:54Z</time>
   </trkpt>
   <trkpt lat="46.1868934631348" lon="7.30300855636597">
    <ele>1174.46667480469</ele>
    <time>2012-05-23T15:01:55Z</time>
   </trkpt>
   <trkpt lat="46.1869163513184" lon="7.30298662185669">
    <ele>1174.73327636719</ele>
    <time>2012-05-23T15:01:56Z</time>
   </trkpt>
   <trkpt lat="46.1869468688965" lon="7.30296564102173">
    <ele>1175</ele>
    <time>2012-05-23T15:01:57Z</time>
   </trkpt>
   <trkpt lat="46.1870613098144" lon="7.30286121368408">
    <ele>1175</ele>
    <time>2012-05-23T15:02:01Z</time>
   </trkpt>
   <trkpt lat="46.1871185302734" lon="7.30281066894531">
    <ele>1175.66662597656</ele>
    <time>2012-05-23T15:02:03Z</time>
   </trkpt>
   <trkpt lat="46.1871452331543" lon="7.3027834892273">
    <ele>1176</ele>
    <time>2012-05-23T15:02:04Z</time>
   </trkpt>
   <trkpt lat="46.1871757507324" lon="7.30275630950928">
    <ele>1176.33337402344</ele>
    <time>2012-05-23T15:02:05Z</time>
   </trkpt>
   <trkpt lat="46.1872024536133" lon="7.30272769927978">
    <ele>1176.66662597656</ele>
    <time>2012-05-23T15:02:06Z</time>
   </trkpt>
   <trkpt lat="46.1872291564941" lon="7.30270051956177">
    <ele>1177</ele>
    <time>2012-05-23T15:02:07Z</time>
   </trkpt>
   <trkpt lat="46.187255859375" lon="7.3026704788208">
    <ele>1177</ele>
    <time>2012-05-23T15:02:08Z</time>
   </trkpt>
   <trkpt lat="46.1873817443848" lon="7.30251312255859">
    <ele>1178.3125</ele>
    <time>2012-05-23T15:02:13Z</time>
   </trkpt>
   <trkpt lat="46.1874084472656" lon="7.30249071121216">
    <ele>1178.57495117188</ele>
    <time>2012-05-23T15:02:14Z</time>
   </trkpt>
   <trkpt lat="46.1874351501465" lon="7.30246639251709">
    <ele>1178.83752441406</ele>
    <time>2012-05-23T15:02:15Z</time>
   </trkpt>
   <trkpt lat="46.1874618530273" lon="7.30243444442749">
    <ele>1179.09997558594</ele>
    <time>2012-05-23T15:02:16Z</time>
   </trkpt>
   <trkpt lat="46.1875839233398" lon="7.3023157119751">
    <ele>1180.14990234375</ele>
    <time>2012-05-23T15:02:20Z</time>
   </trkpt>
   <trkpt lat="46.1876106262207" lon="7.30229091644287">
    <ele>1180.41247558594</ele>
    <time>2012-05-23T15:02:21Z</time>
   </trkpt>
   <trkpt lat="46.1876411437988" lon="7.30226469039917">
    <ele>1180.67492675781</ele>
    <time>2012-05-23T15:02:22Z</time>
   </trkpt>
   <trkpt lat="46.1876678466797" lon="7.30224084854126">
    <ele>1180.9375</ele>
    <time>2012-05-23T15:02:23Z</time>
   </trkpt>
   <trkpt lat="46.1876983642578" lon="7.30221509933472">
    <ele>1181.19995117188</ele>
    <time>2012-05-23T15:02:24Z</time>
   </trkpt>
   <trkpt lat="46.187801361084" lon="7.30210638046265">
    <ele>1181.19995117188</ele>
    <time>2012-05-23T15:02:28Z</time>
   </trkpt>
   <trkpt lat="46.1878814697266" lon="7.30203676223755">
    <ele>1182.228515625</ele>
    <time>2012-05-23T15:02:31Z</time>
   </trkpt>
   <trkpt lat="46.1879043579102" lon="7.30201244354248">
    <ele>1182.57141113281</ele>
    <time>2012-05-23T15:02:32Z</time>
   </trkpt>
   <trkpt lat="46.1879272460938" lon="7.30198669433594">
    <ele>1182.91430664062</ele>
    <time>2012-05-23T15:02:33Z</time>
   </trkpt>
   <trkpt lat="46.1879539489746" lon="7.30196142196655">
    <ele>1183.25708007812</ele>
    <time>2012-05-23T15:02:34Z</time>
   </trkpt>
   <trkpt lat="46.1879768371582" lon="7.30193567276001">
    <ele>1183.59997558594</ele>
    <time>2012-05-23T15:02:35Z</time>
   </trkpt>
   <trkpt lat="46.1880264282227" lon="7.30188751220703">
    <ele>1183.59997558594</ele>
    <time>2012-05-23T15:02:37Z</time>
   </trkpt>
   <trkpt lat="46.1881065368652" lon="7.30181550979614">
    <ele>1184.45715332031</ele>
    <time>2012-05-23T15:02:40Z</time>
   </trkpt>
   <trkpt lat="46.1881294250488" lon="7.30179405212402">
    <ele>1184.74279785156</ele>
    <time>2012-05-23T15:02:41Z</time>
   </trkpt>
   <trkpt lat="46.1881561279297" lon="7.30177021026611">
    <ele>1185.02856445312</ele>
    <time>2012-05-23T15:02:42Z</time>
   </trkpt>
   <trkpt lat="46.1881790161133" lon="7.3017463684082">
    <ele>1185.31420898438</ele>
    <time>2012-05-23T15:02:43Z</time>
   </trkpt>
   <trkpt lat="46.1882019042969" lon="7.30172204971314">
    <ele>1185.59997558594</ele>
    <time>2012-05-23T15:02:44Z</time>
   </trkpt>
   <trkpt lat="46.1882286071777" lon="7.3016996383667">
    <ele>1185.59997558594</ele>
    <time>2012-05-23T15:02:45Z</time>
   </trkpt>
   <trkpt lat="46.1882781982422" lon="7.30165004730225">
    <ele>1186.33337402344</ele>
    <time>2012-05-23T15:02:47Z</time>
   </trkpt>
   <trkpt lat="46.188304901123" lon="7.30162668228149">
    <ele>1186.69995117188</ele>
    <time>2012-05-23T15:02:48Z</time>
   </trkpt>
   <trkpt lat="46.1883277893066" lon="7.30159997940064">
    <ele>1187.06665039062</ele>
    <time>2012-05-23T15:02:49Z</time>
   </trkpt>
   <trkpt lat="46.1883544921875" lon="7.30157423019409">
    <ele>1187.43334960938</ele>
    <time>2012-05-23T15:02:50Z</time>
   </trkpt>
   <trkpt lat="46.1883811950684" lon="7.30154895782471">
    <ele>1187.80004882812</ele>
    <time>2012-05-23T15:02:51Z</time>
   </trkpt>
   <trkpt lat="46.1884307861328" lon="7.30149793624878">
    <ele>1187.80004882812</ele>
    <time>2012-05-23T15:02:53Z</time>
   </trkpt>
   <trkpt lat="46.1885681152344" lon="7.30136013031006">
    <ele>1189.30004882812</ele>
    <time>2012-05-23T15:02:58Z</time>
   </trkpt>
   <trkpt lat="46.1885948181152" lon="7.30133199691772">
    <ele>1189.59997558594</ele>
    <time>2012-05-23T15:02:59Z</time>
   </trkpt>
   <trkpt lat="46.1886177062988" lon="7.30130481719971">
    <ele>1189.90002441406</ele>
    <time>2012-05-23T15:03:00Z</time>
   </trkpt>
   <trkpt lat="46.1886367797852" lon="7.30127382278442">
    <ele>1190.20007324219</ele>
    <time>2012-05-23T15:03:01Z</time>
   </trkpt>
   <trkpt lat="46.1886596679688" lon="7.30124282836914">
    <ele>1190.5</ele>
    <time>2012-05-23T15:03:02Z</time>
   </trkpt>
   <trkpt lat="46.1886825561523" lon="7.30121183395386">
    <ele>1190.80004882812</ele>
    <time>2012-05-23T15:03:03Z</time>
   </trkpt>
   <trkpt lat="46.1887054443359" lon="7.30117893218994">
    <ele>1191.09997558594</ele>
    <time>2012-05-23T15:03:04Z</time>
   </trkpt>
   <trkpt lat="46.1887283325195" lon="7.30114507675171">
    <ele>1191.40002441406</ele>
    <time>2012-05-23T15:03:05Z</time>
   </trkpt>
   <trkpt lat="46.1887512207031" lon="7.30110931396484">
    <ele>1191.69995117188</ele>
    <time>2012-05-23T15:03:06Z</time>
   </trkpt>
   <trkpt lat="46.1887741088867" lon="7.30108022689819">
    <ele>1192</ele>
    <time>2012-05-23T15:03:07Z</time>
   </trkpt>
   <trkpt lat="46.1888427734375" lon="7.30097818374634">
    <ele>1192</ele>
    <time>2012-05-23T15:03:10Z</time>
   </trkpt>
   <trkpt lat="46.1889305114746" lon="7.30084323883057">
    <ele>1193.09997558594</ele>
    <time>2012-05-23T15:03:14Z</time>
   </trkpt>
   <trkpt lat="46.1889495849609" lon="7.30081033706665">
    <ele>1193.375</ele>
    <time>2012-05-23T15:03:15Z</time>
   </trkpt>
   <trkpt lat="46.1889724731445" lon="7.30077600479126">
    <ele>1193.64990234375</ele>
    <time>2012-05-23T15:03:16Z</time>
   </trkpt>
   <trkpt lat="46.1889915466309" lon="7.30073928833008">
    <ele>1193.92492675781</ele>
    <time>2012-05-23T15:03:17Z</time>
   </trkpt>
   <trkpt lat="46.1890106201172" lon="7.30070447921753">
    <ele>1194.19995117188</ele>
    <time>2012-05-23T15:03:18Z</time>
   </trkpt>
   <trkpt lat="46.1891326904297" lon="7.3005485534668">
    <ele>1194.19995117188</ele>
    <time>2012-05-23T15:03:23Z</time>
   </trkpt>
   <trkpt lat="46.1892051696777" lon="7.30045986175537">
    <ele>1195.30004882812</ele>
    <time>2012-05-23T15:03:26Z</time>
   </trkpt>
   <trkpt lat="46.1892280578613" lon="7.30042505264282">
    <ele>1195.66662597656</ele>
    <time>2012-05-23T15:03:27Z</time>
   </trkpt>
   <trkpt lat="46.1892471313477" lon="7.30038785934448">
    <ele>1196.03332519531</ele>
    <time>2012-05-23T15:03:28Z</time>
   </trkpt>
   <trkpt lat="46.1892700195312" lon="7.30035638809204">
    <ele>1196.40002441406</ele>
    <time>2012-05-23T15:03:29Z</time>
   </trkpt>
   <trkpt lat="46.1892967224121" lon="7.30033349990845">
    <ele>1196.40002441406</ele>
    <time>2012-05-23T15:03:30Z</time>
   </trkpt>
   <trkpt lat="46.1893653869629" lon="7.30024909973144">
    <ele>1197.25720214844</ele>
    <time>2012-05-23T15:03:33Z</time>
   </trkpt>
   <trkpt lat="46.1893882751465" lon="7.30021667480469">
    <ele>1197.54284667969</ele>
    <time>2012-05-23T15:03:34Z</time>
   </trkpt>
   <trkpt lat="46.1894111633301" lon="7.30018329620361">
    <ele>1197.82861328125</ele>
    <time>2012-05-23T15:03:35Z</time>
   </trkpt>
   <trkpt lat="46.1894378662109" lon="7.30014991760254">
    <ele>1198.1142578125</ele>
    <time>2012-05-23T15:03:36Z</time>
   </trkpt>
   <trkpt lat="46.1894569396973" lon="7.30011320114136">
    <ele>1198.40002441406</ele>
    <time>2012-05-23T15:03:37Z</time>
   </trkpt>
   <trkpt lat="46.189525604248" lon="7.30000638961792">
    <ele>1199.25720214844</ele>
    <time>2012-05-23T15:03:40Z</time>
   </trkpt>
   <trkpt lat="46.1895484924316" lon="7.29996824264526">
    <ele>1199.54284667969</ele>
    <time>2012-05-23T15:03:41Z</time>
   </trkpt>
   <trkpt lat="46.189567565918" lon="7.29992961883545">
    <ele>1199.82861328125</ele>
    <time>2012-05-23T15:03:42Z</time>
   </trkpt>
   <trkpt lat="46.1895866394043" lon="7.29989194869995">
    <ele>1200.1142578125</ele>
    <time>2012-05-23T15:03:43Z</time>
   </trkpt>
   <trkpt lat="46.1896057128906" lon="7.29985189437866">
    <ele>1200.40002441406</ele>
    <time>2012-05-23T15:03:44Z</time>
   </trkpt>
   <trkpt lat="46.189624786377" lon="7.29981470108032">
    <ele>1200.40002441406</ele>
    <time>2012-05-23T15:03:45Z</time>
   </trkpt>
   <trkpt lat="46.1896705627441" lon="7.29970264434814">
    <ele>1201.34289550781</ele>
    <time>2012-05-23T15:03:48Z</time>
   </trkpt>
   <trkpt lat="46.1896858215332" lon="7.29966592788696">
    <ele>1201.65710449219</ele>
    <time>2012-05-23T15:03:49Z</time>
   </trkpt>
   <trkpt lat="46.1897010803223" lon="7.29962730407715">
    <ele>1201.97143554688</ele>
    <time>2012-05-23T15:03:50Z</time>
   </trkpt>
   <trkpt lat="46.1897163391113" lon="7.29958820343018">
    <ele>1202.28564453125</ele>
    <time>2012-05-23T15:03:51Z</time>
   </trkpt>
   <trkpt lat="46.1897277832031" lon="7.29955005645752">
    <ele>1202.59997558594</ele>
    <time>2012-05-23T15:03:52Z</time>
   </trkpt>
   <trkpt lat="46.1897583007812" lon="7.29946422576904">
    <ele>1202.59997558594</ele>
    <time>2012-05-23T15:03:54Z</time>
   </trkpt>
   <trkpt lat="46.1897964477539" lon="7.29933309555054">
    <ele>1203.31994628906</ele>
    <time>2012-05-23T15:03:57Z</time>
   </trkpt>
   <trkpt lat="46.1898078918457" lon="7.29928922653198">
    <ele>1203.55993652344</ele>
    <time>2012-05-23T15:03:58Z</time>
   </trkpt>
   <trkpt lat="46.1898193359375" lon="7.29924488067627">
    <ele>1203.79992675781</ele>
    <time>2012-05-23T15:03:59Z</time>
   </trkpt>
   <trkpt lat="46.189826965332" lon="7.29920291900635">
    <ele>1204.0400390625</ele>
    <time>2012-05-23T15:04:00Z</time>
   </trkpt>
   <trkpt lat="46.1898384094238" lon="7.29916095733643">
    <ele>1204.28002929688</ele>
    <time>2012-05-23T15:04:01Z</time>
   </trkpt>
   <trkpt lat="46.189884185791" lon="7.29886484146118">
    <ele>1205.9599609375</ele>
    <time>2012-05-23T15:04:08Z</time>
   </trkpt>
   <trkpt lat="46.1898918151856" lon="7.29881954193115">
    <ele>1206.19995117188</ele>
    <time>2012-05-23T15:04:09Z</time>
   </trkpt>
   <trkpt lat="46.1898994445801" lon="7.29877614974976">
    <ele>1206.43994140625</ele>
    <time>2012-05-23T15:04:10Z</time>
   </trkpt>
   <trkpt lat="46.1899070739746" lon="7.2987322807312">
    <ele>1206.67993164062</ele>
    <time>2012-05-23T15:04:11Z</time>
   </trkpt>
   <trkpt lat="46.1899108886719" lon="7.2986888885498">
    <ele>1206.92004394531</ele>
    <time>2012-05-23T15:04:12Z</time>
   </trkpt>
   <trkpt lat="46.1899337768555" lon="7.29851675033569">
    <ele>1207.88000488281</ele>
    <time>2012-05-23T15:04:16Z</time>
   </trkpt>
   <trkpt lat="46.18994140625" lon="7.29847383499146">
    <ele>1208.11999511719</ele>
    <time>2012-05-23T15:04:17Z</time>
   </trkpt>
   <trkpt lat="46.1899452209473" lon="7.29843235015869">
    <ele>1208.35998535156</ele>
    <time>2012-05-23T15:04:18Z</time>
   </trkpt>
   <trkpt lat="46.1899528503418" lon="7.29838848114014">
    <ele>1208.59997558594</ele>
    <time>2012-05-23T15:04:19Z</time>
   </trkpt>
   <trkpt lat="46.1899566650391" lon="7.29834079742432">
    <ele>1208.83996582031</ele>
    <time>2012-05-23T15:04:20Z</time>
   </trkpt>
   <trkpt lat="46.1900062561035" lon="7.29813861846924">
    <ele>1210.0400390625</ele>
    <time>2012-05-23T15:04:25Z</time>
   </trkpt>
   <trkpt lat="46.1900215148926" lon="7.29810285568237">
    <ele>1210.28002929688</ele>
    <time>2012-05-23T15:04:26Z</time>
   </trkpt>
   <trkpt lat="46.1900367736816" lon="7.29806900024414">
    <ele>1210.52001953125</ele>
    <time>2012-05-23T15:04:27Z</time>
   </trkpt>
   <trkpt lat="46.1900520324707" lon="7.29803562164307">
    <ele>1210.76000976562</ele>
    <time>2012-05-23T15:04:28Z</time>
   </trkpt>
   <trkpt lat="46.1900749206543" lon="7.29800224304199">
    <ele>1211</ele>
    <time>2012-05-23T15:04:29Z</time>
   </trkpt>
  </trkseg>
 </trk>
</gpx>